<?xml version="1.0" encoding="UTF-8" standalone="no" ?>
<gpx xmlns="http://www.topografix.com/GPX/1/1" xmlns:xsi="http://www.w3.org/2001/XMLSchema-instance" xsi:schemaLocation="http://www.topografix.com/GPX/1/1 http://www.topografix.com/GPX/1/1/gpx.xsd" version="1.1" creator="VisuGPX - https://www.visugpx.com">
  <metadata>
    <name>ski Col de Plovezan</name>
  </metadata>
  <trk>
    <name><![CDATA[ski Col de Plovezan]]></name>
    <trkseg>
      <trkpt lat="45.5918" lon="6.67096">
        <ele>1415.8000488281</ele>
        <time>2019-03-27T06:15:56.000Z</time>
      </trkpt>
      <trkpt lat="45.5918" lon="6.67096">
        <ele>1419.5999755859</ele>
        <time>2019-03-27T06:16:00.000Z</time>
      </trkpt>
      <trkpt lat="45.5918" lon="6.67096">
        <ele>1416.8000488281</ele>
        <time>2019-03-27T06:16:01.000Z</time>
      </trkpt>
      <trkpt lat="45.5918" lon="6.67096">
        <ele>1415.5999755859</ele>
        <time>2019-03-27T06:16:05.000Z</time>
      </trkpt>
      <trkpt lat="45.5918" lon="6.67096">
        <ele>1415</ele>
        <time>2019-03-27T06:16:23.000Z</time>
      </trkpt>
      <trkpt lat="45.5918" lon="6.67096">
        <ele>1414.1999511719</ele>
        <time>2019-03-27T06:16:26.000Z</time>
      </trkpt>
      <trkpt lat="45.5918" lon="6.67096">
        <ele>1414.5999755859</ele>
        <time>2019-03-27T06:16:35.000Z</time>
      </trkpt>
      <trkpt lat="45.5918" lon="6.67096">
        <ele>1415.4000244141</ele>
        <time>2019-03-27T06:16:46.000Z</time>
      </trkpt>
      <trkpt lat="45.5918" lon="6.67096">
        <ele>1415.5999755859</ele>
        <time>2019-03-27T06:16:47.000Z</time>
      </trkpt>
      <trkpt lat="45.5918" lon="6.67096">
        <ele>1415.1999511719</ele>
        <time>2019-03-27T06:16:55.000Z</time>
      </trkpt>
      <trkpt lat="45.5918" lon="6.67096">
        <ele>1415.1999511719</ele>
        <time>2019-03-27T06:17:05.000Z</time>
      </trkpt>
      <trkpt lat="45.59181" lon="6.67096">
        <ele>1414</ele>
        <time>2019-03-27T06:17:10.000Z</time>
      </trkpt>
      <trkpt lat="45.59182" lon="6.67096">
        <ele>1415.1999511719</ele>
        <time>2019-03-27T06:17:13.000Z</time>
      </trkpt>
      <trkpt lat="45.59192" lon="6.67094">
        <ele>1415.4000244141</ele>
        <time>2019-03-27T06:17:22.000Z</time>
      </trkpt>
      <trkpt lat="45.59197" lon="6.67093">
        <ele>1415.1999511719</ele>
        <time>2019-03-27T06:17:25.000Z</time>
      </trkpt>
      <trkpt lat="45.59204" lon="6.67091">
        <ele>1415.4000244141</ele>
        <time>2019-03-27T06:17:28.000Z</time>
      </trkpt>
      <trkpt lat="45.59206" lon="6.6709">
        <ele>1415.4000244141</ele>
        <time>2019-03-27T06:17:29.000Z</time>
      </trkpt>
      <trkpt lat="45.59213" lon="6.67088">
        <ele>1415.5999755859</ele>
        <time>2019-03-27T06:17:35.000Z</time>
      </trkpt>
      <trkpt lat="45.59222" lon="6.67085">
        <ele>1415.5999755859</ele>
        <time>2019-03-27T06:17:41.000Z</time>
      </trkpt>
      <trkpt lat="45.59232" lon="6.67084">
        <ele>1416</ele>
        <time>2019-03-27T06:17:48.000Z</time>
      </trkpt>
      <trkpt lat="45.59238" lon="6.67084">
        <ele>1416</ele>
        <time>2019-03-27T06:17:54.000Z</time>
      </trkpt>
      <trkpt lat="45.5925" lon="6.67082">
        <ele>1416</ele>
        <time>2019-03-27T06:18:02.000Z</time>
      </trkpt>
      <trkpt lat="45.59257" lon="6.67082">
        <ele>1416.1999511719</ele>
        <time>2019-03-27T06:18:08.000Z</time>
      </trkpt>
      <trkpt lat="45.59263" lon="6.67082">
        <ele>1416.1999511719</ele>
        <time>2019-03-27T06:18:12.000Z</time>
      </trkpt>
      <trkpt lat="45.59266" lon="6.67082">
        <ele>1416.1999511719</ele>
        <time>2019-03-27T06:18:15.000Z</time>
      </trkpt>
      <trkpt lat="45.59279" lon="6.6708">
        <ele>1416</ele>
        <time>2019-03-27T06:18:23.000Z</time>
      </trkpt>
      <trkpt lat="45.59288" lon="6.67081">
        <ele>1416.5999755859</ele>
        <time>2019-03-27T06:18:29.000Z</time>
      </trkpt>
      <trkpt lat="45.59298" lon="6.67081">
        <ele>1416.5999755859</ele>
        <time>2019-03-27T06:18:37.000Z</time>
      </trkpt>
      <trkpt lat="45.5931" lon="6.6708">
        <ele>1416.5999755859</ele>
        <time>2019-03-27T06:18:44.000Z</time>
      </trkpt>
      <trkpt lat="45.59312" lon="6.67081">
        <ele>1416.5999755859</ele>
        <time>2019-03-27T06:18:45.000Z</time>
      </trkpt>
      <trkpt lat="45.59321" lon="6.67083">
        <ele>1416.5999755859</ele>
        <time>2019-03-27T06:18:51.000Z</time>
      </trkpt>
      <trkpt lat="45.59326" lon="6.67082">
        <ele>1416.5999755859</ele>
        <time>2019-03-27T06:18:54.000Z</time>
      </trkpt>
      <trkpt lat="45.59333" lon="6.67081">
        <ele>1416.5999755859</ele>
        <time>2019-03-27T06:18:58.000Z</time>
      </trkpt>
      <trkpt lat="45.59345" lon="6.67084">
        <ele>1416.5999755859</ele>
        <time>2019-03-27T06:19:06.000Z</time>
      </trkpt>
      <trkpt lat="45.59355" lon="6.67087">
        <ele>1417.1999511719</ele>
        <time>2019-03-27T06:19:13.000Z</time>
      </trkpt>
      <trkpt lat="45.59365" lon="6.67085">
        <ele>1417</ele>
        <time>2019-03-27T06:19:21.000Z</time>
      </trkpt>
      <trkpt lat="45.59368" lon="6.67085">
        <ele>1417.1999511719</ele>
        <time>2019-03-27T06:19:24.000Z</time>
      </trkpt>
      <trkpt lat="45.59378" lon="6.67083">
        <ele>1417.5999755859</ele>
        <time>2019-03-27T06:19:29.000Z</time>
      </trkpt>
      <trkpt lat="45.59393" lon="6.67082">
        <ele>1417</ele>
        <time>2019-03-27T06:19:38.000Z</time>
      </trkpt>
      <trkpt lat="45.594" lon="6.67083">
        <ele>1417.8000488281</ele>
        <time>2019-03-27T06:19:46.000Z</time>
      </trkpt>
      <trkpt lat="45.5941" lon="6.67077">
        <ele>1418</ele>
        <time>2019-03-27T06:19:52.000Z</time>
      </trkpt>
      <trkpt lat="45.59413" lon="6.67074">
        <ele>1418.4000244141</ele>
        <time>2019-03-27T06:19:55.000Z</time>
      </trkpt>
      <trkpt lat="45.59417" lon="6.67068">
        <ele>1418.5999755859</ele>
        <time>2019-03-27T06:19:58.000Z</time>
      </trkpt>
      <trkpt lat="45.59419" lon="6.67061">
        <ele>1418.8000488281</ele>
        <time>2019-03-27T06:20:03.000Z</time>
      </trkpt>
      <trkpt lat="45.59427" lon="6.67051">
        <ele>1419.1999511719</ele>
        <time>2019-03-27T06:20:08.000Z</time>
      </trkpt>
      <trkpt lat="45.59429" lon="6.67049">
        <ele>1419.4000244141</ele>
        <time>2019-03-27T06:20:09.000Z</time>
      </trkpt>
      <trkpt lat="45.59435" lon="6.67047">
        <ele>1419.5999755859</ele>
        <time>2019-03-27T06:20:14.000Z</time>
      </trkpt>
      <trkpt lat="45.59439" lon="6.67044">
        <ele>1420.4000244141</ele>
        <time>2019-03-27T06:20:19.000Z</time>
      </trkpt>
      <trkpt lat="45.59445" lon="6.67043">
        <ele>1420.8000488281</ele>
        <time>2019-03-27T06:20:25.000Z</time>
      </trkpt>
      <trkpt lat="45.59453" lon="6.6704">
        <ele>1421.4000244141</ele>
        <time>2019-03-27T06:20:30.000Z</time>
      </trkpt>
      <trkpt lat="45.59454" lon="6.67039">
        <ele>1421.5999755859</ele>
        <time>2019-03-27T06:20:31.000Z</time>
      </trkpt>
      <trkpt lat="45.59464" lon="6.67039">
        <ele>1422</ele>
        <time>2019-03-27T06:20:39.000Z</time>
      </trkpt>
      <trkpt lat="45.59467" lon="6.67038">
        <ele>1422.1999511719</ele>
        <time>2019-03-27T06:20:41.000Z</time>
      </trkpt>
      <trkpt lat="45.5947" lon="6.67036">
        <ele>1422.5999755859</ele>
        <time>2019-03-27T06:20:43.000Z</time>
      </trkpt>
      <trkpt lat="45.5947" lon="6.67036">
        <ele>1422.5999755859</ele>
        <time>2019-03-27T06:20:44.000Z</time>
      </trkpt>
      <trkpt lat="45.59479" lon="6.67031">
        <ele>1423.4000244141</ele>
        <time>2019-03-27T06:20:51.000Z</time>
      </trkpt>
      <trkpt lat="45.59482" lon="6.67027">
        <ele>1423.5999755859</ele>
        <time>2019-03-27T06:20:54.000Z</time>
      </trkpt>
      <trkpt lat="45.59486" lon="6.67023">
        <ele>1423.8000488281</ele>
        <time>2019-03-27T06:20:57.000Z</time>
      </trkpt>
      <trkpt lat="45.59493" lon="6.67013">
        <ele>1424.4000244141</ele>
        <time>2019-03-27T06:21:04.000Z</time>
      </trkpt>
      <trkpt lat="45.59495" lon="6.67012">
        <ele>1424.5999755859</ele>
        <time>2019-03-27T06:21:06.000Z</time>
      </trkpt>
      <trkpt lat="45.59497" lon="6.67009">
        <ele>1424.8000488281</ele>
        <time>2019-03-27T06:21:09.000Z</time>
      </trkpt>
      <trkpt lat="45.59503" lon="6.67005">
        <ele>1425</ele>
        <time>2019-03-27T06:21:15.000Z</time>
      </trkpt>
      <trkpt lat="45.5951" lon="6.67001">
        <ele>1425.5999755859</ele>
        <time>2019-03-27T06:21:22.000Z</time>
      </trkpt>
      <trkpt lat="45.5951" lon="6.67001">
        <ele>1425.8000488281</ele>
        <time>2019-03-27T06:21:23.000Z</time>
      </trkpt>
      <trkpt lat="45.59515" lon="6.66996">
        <ele>1426.5999755859</ele>
        <time>2019-03-27T06:21:29.000Z</time>
      </trkpt>
      <trkpt lat="45.59515" lon="6.66996">
        <ele>1426.1999511719</ele>
        <time>2019-03-27T06:21:36.000Z</time>
      </trkpt>
      <trkpt lat="45.59515" lon="6.66996">
        <ele>1427</ele>
        <time>2019-03-27T06:21:37.000Z</time>
      </trkpt>
      <trkpt lat="45.59515" lon="6.66996">
        <ele>1426.4000244141</ele>
        <time>2019-03-27T06:21:47.000Z</time>
      </trkpt>
      <trkpt lat="45.59515" lon="6.66996">
        <ele>1426</ele>
        <time>2019-03-27T06:21:51.000Z</time>
      </trkpt>
      <trkpt lat="45.59515" lon="6.66996">
        <ele>1427</ele>
        <time>2019-03-27T06:21:57.000Z</time>
      </trkpt>
      <trkpt lat="45.59515" lon="6.66996">
        <ele>1427</ele>
        <time>2019-03-27T06:21:58.000Z</time>
      </trkpt>
      <trkpt lat="45.59515" lon="6.66996">
        <ele>1425.8000488281</ele>
        <time>2019-03-27T06:22:09.000Z</time>
      </trkpt>
      <trkpt lat="45.59515" lon="6.66996">
        <ele>1425.4000244141</ele>
        <time>2019-03-27T06:22:11.000Z</time>
      </trkpt>
      <trkpt lat="45.59515" lon="6.66996">
        <ele>1427</ele>
        <time>2019-03-27T06:22:16.000Z</time>
      </trkpt>
      <trkpt lat="45.59515" lon="6.66996">
        <ele>1426.5999755859</ele>
        <time>2019-03-27T06:22:24.000Z</time>
      </trkpt>
      <trkpt lat="45.59515" lon="6.66996">
        <ele>1426</ele>
        <time>2019-03-27T06:22:32.000Z</time>
      </trkpt>
      <trkpt lat="45.59515" lon="6.66996">
        <ele>1426.4000244141</ele>
        <time>2019-03-27T06:22:35.000Z</time>
      </trkpt>
      <trkpt lat="45.59515" lon="6.66996">
        <ele>1427</ele>
        <time>2019-03-27T06:22:37.000Z</time>
      </trkpt>
      <trkpt lat="45.59515" lon="6.66996">
        <ele>1426.8000488281</ele>
        <time>2019-03-27T06:22:48.000Z</time>
      </trkpt>
      <trkpt lat="45.59515" lon="6.66996">
        <ele>1426</ele>
        <time>2019-03-27T06:22:52.000Z</time>
      </trkpt>
      <trkpt lat="45.59517" lon="6.66996">
        <ele>1427</ele>
        <time>2019-03-27T06:22:59.000Z</time>
      </trkpt>
      <trkpt lat="45.59518" lon="6.66996">
        <ele>1427</ele>
        <time>2019-03-27T06:23:00.000Z</time>
      </trkpt>
      <trkpt lat="45.59521" lon="6.66995">
        <ele>1426.8000488281</ele>
        <time>2019-03-27T06:23:05.000Z</time>
      </trkpt>
      <trkpt lat="45.59521" lon="6.66995">
        <ele>1427</ele>
        <time>2019-03-27T06:23:18.000Z</time>
      </trkpt>
      <trkpt lat="45.59521" lon="6.66995">
        <ele>1427</ele>
        <time>2019-03-27T06:23:30.000Z</time>
      </trkpt>
      <trkpt lat="45.59524" lon="6.66995">
        <ele>1426.5999755859</ele>
        <time>2019-03-27T06:23:37.000Z</time>
      </trkpt>
      <trkpt lat="45.59527" lon="6.66996">
        <ele>1426.8000488281</ele>
        <time>2019-03-27T06:23:39.000Z</time>
      </trkpt>
      <trkpt lat="45.59531" lon="6.66997">
        <ele>1427</ele>
        <time>2019-03-27T06:23:42.000Z</time>
      </trkpt>
      <trkpt lat="45.59538" lon="6.67002">
        <ele>1427.5999755859</ele>
        <time>2019-03-27T06:23:48.000Z</time>
      </trkpt>
      <trkpt lat="45.59543" lon="6.67004">
        <ele>1428</ele>
        <time>2019-03-27T06:23:54.000Z</time>
      </trkpt>
      <trkpt lat="45.59546" lon="6.67005">
        <ele>1428</ele>
        <time>2019-03-27T06:23:56.000Z</time>
      </trkpt>
      <trkpt lat="45.5955" lon="6.67006">
        <ele>1428.5999755859</ele>
        <time>2019-03-27T06:24:00.000Z</time>
      </trkpt>
      <trkpt lat="45.59554" lon="6.67006">
        <ele>1429.1999511719</ele>
        <time>2019-03-27T06:24:05.000Z</time>
      </trkpt>
      <trkpt lat="45.59557" lon="6.67006">
        <ele>1429.1999511719</ele>
        <time>2019-03-27T06:24:08.000Z</time>
      </trkpt>
      <trkpt lat="45.59565" lon="6.67005">
        <ele>1429.5999755859</ele>
        <time>2019-03-27T06:24:15.000Z</time>
      </trkpt>
      <trkpt lat="45.59573" lon="6.67004">
        <ele>1430</ele>
        <time>2019-03-27T06:24:22.000Z</time>
      </trkpt>
      <trkpt lat="45.59575" lon="6.67004">
        <ele>1430.1999511719</ele>
        <time>2019-03-27T06:24:23.000Z</time>
      </trkpt>
      <trkpt lat="45.59579" lon="6.67001">
        <ele>1430.5999755859</ele>
        <time>2019-03-27T06:24:28.000Z</time>
      </trkpt>
      <trkpt lat="45.59583" lon="6.67002">
        <ele>1431.1999511719</ele>
        <time>2019-03-27T06:24:33.000Z</time>
      </trkpt>
      <trkpt lat="45.59585" lon="6.67002">
        <ele>1431.4000244141</ele>
        <time>2019-03-27T06:24:35.000Z</time>
      </trkpt>
      <trkpt lat="45.59592" lon="6.67003">
        <ele>1431.4000244141</ele>
        <time>2019-03-27T06:24:41.000Z</time>
      </trkpt>
      <trkpt lat="45.596" lon="6.67006">
        <ele>1432.1999511719</ele>
        <time>2019-03-27T06:24:47.000Z</time>
      </trkpt>
      <trkpt lat="45.59601" lon="6.67007">
        <ele>1432.1999511719</ele>
        <time>2019-03-27T06:24:48.000Z</time>
      </trkpt>
      <trkpt lat="45.59607" lon="6.67013">
        <ele>1432.1999511719</ele>
        <time>2019-03-27T06:24:54.000Z</time>
      </trkpt>
      <trkpt lat="45.59613" lon="6.67019">
        <ele>1433</ele>
        <time>2019-03-27T06:25:01.000Z</time>
      </trkpt>
      <trkpt lat="45.59617" lon="6.67021">
        <ele>1433.5999755859</ele>
        <time>2019-03-27T06:25:05.000Z</time>
      </trkpt>
      <trkpt lat="45.59618" lon="6.67022">
        <ele>1433.8000488281</ele>
        <time>2019-03-27T06:25:07.000Z</time>
      </trkpt>
      <trkpt lat="45.59622" lon="6.67024">
        <ele>1434.8000488281</ele>
        <time>2019-03-27T06:25:12.000Z</time>
      </trkpt>
      <trkpt lat="45.59622" lon="6.67024">
        <ele>1435</ele>
        <time>2019-03-27T06:25:13.000Z</time>
      </trkpt>
      <trkpt lat="45.59628" lon="6.67025">
        <ele>1435.1999511719</ele>
        <time>2019-03-27T06:25:20.000Z</time>
      </trkpt>
      <trkpt lat="45.59636" lon="6.67022">
        <ele>1435.5999755859</ele>
        <time>2019-03-27T06:25:26.000Z</time>
      </trkpt>
      <trkpt lat="45.59637" lon="6.6702">
        <ele>1435.8000488281</ele>
        <time>2019-03-27T06:25:27.000Z</time>
      </trkpt>
      <trkpt lat="45.59643" lon="6.67014">
        <ele>1436.1999511719</ele>
        <time>2019-03-27T06:25:34.000Z</time>
      </trkpt>
      <trkpt lat="45.59646" lon="6.67007">
        <ele>1435.8000488281</ele>
        <time>2019-03-27T06:25:39.000Z</time>
      </trkpt>
      <trkpt lat="45.59648" lon="6.66997">
        <ele>1436.4000244141</ele>
        <time>2019-03-27T06:25:44.000Z</time>
      </trkpt>
      <trkpt lat="45.59648" lon="6.6699">
        <ele>1436.8000488281</ele>
        <time>2019-03-27T06:25:49.000Z</time>
      </trkpt>
      <trkpt lat="45.59647" lon="6.66979">
        <ele>1437.5999755859</ele>
        <time>2019-03-27T06:25:56.000Z</time>
      </trkpt>
      <trkpt lat="45.59645" lon="6.66972">
        <ele>1438</ele>
        <time>2019-03-27T06:25:59.000Z</time>
      </trkpt>
      <trkpt lat="45.59643" lon="6.66967">
        <ele>1438.5999755859</ele>
        <time>2019-03-27T06:26:02.000Z</time>
      </trkpt>
      <trkpt lat="45.59642" lon="6.66965">
        <ele>1438.5999755859</ele>
        <time>2019-03-27T06:26:03.000Z</time>
      </trkpt>
      <trkpt lat="45.59638" lon="6.66958">
        <ele>1439</ele>
        <time>2019-03-27T06:26:08.000Z</time>
      </trkpt>
      <trkpt lat="45.59637" lon="6.66956">
        <ele>1439</ele>
        <time>2019-03-27T06:26:09.000Z</time>
      </trkpt>
      <trkpt lat="45.59637" lon="6.66954">
        <ele>1439.1999511719</ele>
        <time>2019-03-27T06:26:10.000Z</time>
      </trkpt>
      <trkpt lat="45.59637" lon="6.66948">
        <ele>1439.5999755859</ele>
        <time>2019-03-27T06:26:14.000Z</time>
      </trkpt>
      <trkpt lat="45.59637" lon="6.66941">
        <ele>1440</ele>
        <time>2019-03-27T06:26:19.000Z</time>
      </trkpt>
      <trkpt lat="45.59637" lon="6.66938">
        <ele>1440.1999511719</ele>
        <time>2019-03-27T06:26:20.000Z</time>
      </trkpt>
      <trkpt lat="45.59639" lon="6.6693">
        <ele>1440.8000488281</ele>
        <time>2019-03-27T06:26:24.000Z</time>
      </trkpt>
      <trkpt lat="45.59641" lon="6.66925">
        <ele>1441.1999511719</ele>
        <time>2019-03-27T06:26:28.000Z</time>
      </trkpt>
      <trkpt lat="45.59641" lon="6.66924">
        <ele>1441.4000244141</ele>
        <time>2019-03-27T06:26:29.000Z</time>
      </trkpt>
      <trkpt lat="45.5964" lon="6.66922">
        <ele>1441.4000244141</ele>
        <time>2019-03-27T06:26:30.000Z</time>
      </trkpt>
      <trkpt lat="45.59642" lon="6.66915">
        <ele>1442</ele>
        <time>2019-03-27T06:26:34.000Z</time>
      </trkpt>
      <trkpt lat="45.59643" lon="6.6691">
        <ele>1442.4000244141</ele>
        <time>2019-03-27T06:26:37.000Z</time>
      </trkpt>
      <trkpt lat="45.59643" lon="6.66903">
        <ele>1442.8000488281</ele>
        <time>2019-03-27T06:26:42.000Z</time>
      </trkpt>
      <trkpt lat="45.59644" lon="6.66896">
        <ele>1443.1999511719</ele>
        <time>2019-03-27T06:26:47.000Z</time>
      </trkpt>
      <trkpt lat="45.59644" lon="6.66892">
        <ele>1443.5999755859</ele>
        <time>2019-03-27T06:26:49.000Z</time>
      </trkpt>
      <trkpt lat="45.59645" lon="6.66889">
        <ele>1443.8000488281</ele>
        <time>2019-03-27T06:26:52.000Z</time>
      </trkpt>
      <trkpt lat="45.59646" lon="6.66879">
        <ele>1444.4000244141</ele>
        <time>2019-03-27T06:26:58.000Z</time>
      </trkpt>
      <trkpt lat="45.59646" lon="6.66877">
        <ele>1444.5999755859</ele>
        <time>2019-03-27T06:26:59.000Z</time>
      </trkpt>
      <trkpt lat="45.59647" lon="6.66869">
        <ele>1445.4000244141</ele>
        <time>2019-03-27T06:27:04.000Z</time>
      </trkpt>
      <trkpt lat="45.59647" lon="6.66864">
        <ele>1445.5999755859</ele>
        <time>2019-03-27T06:27:06.000Z</time>
      </trkpt>
      <trkpt lat="45.59648" lon="6.6686">
        <ele>1446</ele>
        <time>2019-03-27T06:27:09.000Z</time>
      </trkpt>
      <trkpt lat="45.59649" lon="6.66855">
        <ele>1446.5999755859</ele>
        <time>2019-03-27T06:27:13.000Z</time>
      </trkpt>
      <trkpt lat="45.5965" lon="6.66851">
        <ele>1447</ele>
        <time>2019-03-27T06:27:16.000Z</time>
      </trkpt>
      <trkpt lat="45.59648" lon="6.66842">
        <ele>1447.8000488281</ele>
        <time>2019-03-27T06:27:22.000Z</time>
      </trkpt>
      <trkpt lat="45.59644" lon="6.66833">
        <ele>1448.4000244141</ele>
        <time>2019-03-27T06:27:28.000Z</time>
      </trkpt>
      <trkpt lat="45.59641" lon="6.66824">
        <ele>1449</ele>
        <time>2019-03-27T06:27:34.000Z</time>
      </trkpt>
      <trkpt lat="45.59639" lon="6.66822">
        <ele>1449.1999511719</ele>
        <time>2019-03-27T06:27:36.000Z</time>
      </trkpt>
      <trkpt lat="45.59635" lon="6.66818">
        <ele>1449.8000488281</ele>
        <time>2019-03-27T06:27:43.000Z</time>
      </trkpt>
      <trkpt lat="45.59634" lon="6.66816">
        <ele>1450</ele>
        <time>2019-03-27T06:27:45.000Z</time>
      </trkpt>
      <trkpt lat="45.59629" lon="6.6681">
        <ele>1450.5999755859</ele>
        <time>2019-03-27T06:27:50.000Z</time>
      </trkpt>
      <trkpt lat="45.59626" lon="6.66805">
        <ele>1451</ele>
        <time>2019-03-27T06:27:55.000Z</time>
      </trkpt>
      <trkpt lat="45.59623" lon="6.66803">
        <ele>1451.4000244141</ele>
        <time>2019-03-27T06:27:58.000Z</time>
      </trkpt>
      <trkpt lat="45.59617" lon="6.66799">
        <ele>1451.8000488281</ele>
        <time>2019-03-27T06:28:05.000Z</time>
      </trkpt>
      <trkpt lat="45.59612" lon="6.66794">
        <ele>1452.1999511719</ele>
        <time>2019-03-27T06:28:10.000Z</time>
      </trkpt>
      <trkpt lat="45.59609" lon="6.66789">
        <ele>1452.8000488281</ele>
        <time>2019-03-27T06:28:13.000Z</time>
      </trkpt>
      <trkpt lat="45.59607" lon="6.66786">
        <ele>1453.1999511719</ele>
        <time>2019-03-27T06:28:15.000Z</time>
      </trkpt>
      <trkpt lat="45.59605" lon="6.66782">
        <ele>1453.8000488281</ele>
        <time>2019-03-27T06:28:19.000Z</time>
      </trkpt>
      <trkpt lat="45.59605" lon="6.66775">
        <ele>1454.1999511719</ele>
        <time>2019-03-27T06:28:24.000Z</time>
      </trkpt>
      <trkpt lat="45.59606" lon="6.66773">
        <ele>1454.1999511719</ele>
        <time>2019-03-27T06:28:25.000Z</time>
      </trkpt>
      <trkpt lat="45.59606" lon="6.66773">
        <ele>1454.8000488281</ele>
        <time>2019-03-27T06:28:26.000Z</time>
      </trkpt>
      <trkpt lat="45.59609" lon="6.66772">
        <ele>1455.5999755859</ele>
        <time>2019-03-27T06:28:29.000Z</time>
      </trkpt>
      <trkpt lat="45.59609" lon="6.66771">
        <ele>1455.8000488281</ele>
        <time>2019-03-27T06:28:30.000Z</time>
      </trkpt>
      <trkpt lat="45.59613" lon="6.6677">
        <ele>1455.5999755859</ele>
        <time>2019-03-27T06:28:35.000Z</time>
      </trkpt>
      <trkpt lat="45.5962" lon="6.66771">
        <ele>1456.4000244141</ele>
        <time>2019-03-27T06:28:42.000Z</time>
      </trkpt>
      <trkpt lat="45.59625" lon="6.66772">
        <ele>1457</ele>
        <time>2019-03-27T06:28:47.000Z</time>
      </trkpt>
      <trkpt lat="45.59627" lon="6.66772">
        <ele>1457</ele>
        <time>2019-03-27T06:28:48.000Z</time>
      </trkpt>
      <trkpt lat="45.59629" lon="6.66772">
        <ele>1458</ele>
        <time>2019-03-27T06:28:52.000Z</time>
      </trkpt>
      <trkpt lat="45.5963" lon="6.66772">
        <ele>1458.1999511719</ele>
        <time>2019-03-27T06:28:53.000Z</time>
      </trkpt>
      <trkpt lat="45.59638" lon="6.6677">
        <ele>1458.8000488281</ele>
        <time>2019-03-27T06:29:00.000Z</time>
      </trkpt>
      <trkpt lat="45.59644" lon="6.66768">
        <ele>1459</ele>
        <time>2019-03-27T06:29:06.000Z</time>
      </trkpt>
      <trkpt lat="45.59653" lon="6.66765">
        <ele>1460</ele>
        <time>2019-03-27T06:29:13.000Z</time>
      </trkpt>
      <trkpt lat="45.59656" lon="6.66765">
        <ele>1461.1999511719</ele>
        <time>2019-03-27T06:29:17.000Z</time>
      </trkpt>
      <trkpt lat="45.59657" lon="6.66763">
        <ele>1461.4000244141</ele>
        <time>2019-03-27T06:29:18.000Z</time>
      </trkpt>
      <trkpt lat="45.59665" lon="6.66762">
        <ele>1461.8000488281</ele>
        <time>2019-03-27T06:29:24.000Z</time>
      </trkpt>
      <trkpt lat="45.5967" lon="6.66762">
        <ele>1462.1999511719</ele>
        <time>2019-03-27T06:29:28.000Z</time>
      </trkpt>
      <trkpt lat="45.59671" lon="6.66762">
        <ele>1462.5999755859</ele>
        <time>2019-03-27T06:29:30.000Z</time>
      </trkpt>
      <trkpt lat="45.59678" lon="6.66763">
        <ele>1462.4000244141</ele>
        <time>2019-03-27T06:29:35.000Z</time>
      </trkpt>
      <trkpt lat="45.59679" lon="6.66764">
        <ele>1462.1999511719</ele>
        <time>2019-03-27T06:29:36.000Z</time>
      </trkpt>
      <trkpt lat="45.59682" lon="6.66766">
        <ele>1463.4000244141</ele>
        <time>2019-03-27T06:29:39.000Z</time>
      </trkpt>
      <trkpt lat="45.59684" lon="6.66767">
        <ele>1463.8000488281</ele>
        <time>2019-03-27T06:29:41.000Z</time>
      </trkpt>
      <trkpt lat="45.59689" lon="6.66768">
        <ele>1464.5999755859</ele>
        <time>2019-03-27T06:29:44.000Z</time>
      </trkpt>
      <trkpt lat="45.5969" lon="6.66769">
        <ele>1464.5999755859</ele>
        <time>2019-03-27T06:29:45.000Z</time>
      </trkpt>
      <trkpt lat="45.59693" lon="6.66772">
        <ele>1464.5999755859</ele>
        <time>2019-03-27T06:29:50.000Z</time>
      </trkpt>
      <trkpt lat="45.597" lon="6.66777">
        <ele>1465.4000244141</ele>
        <time>2019-03-27T06:29:56.000Z</time>
      </trkpt>
      <trkpt lat="45.59701" lon="6.66777">
        <ele>1465.5999755859</ele>
        <time>2019-03-27T06:29:57.000Z</time>
      </trkpt>
      <trkpt lat="45.59707" lon="6.66779">
        <ele>1466</ele>
        <time>2019-03-27T06:30:02.000Z</time>
      </trkpt>
      <trkpt lat="45.5971" lon="6.6678">
        <ele>1466.8000488281</ele>
        <time>2019-03-27T06:30:05.000Z</time>
      </trkpt>
      <trkpt lat="45.59713" lon="6.66781">
        <ele>1467</ele>
        <time>2019-03-27T06:30:07.000Z</time>
      </trkpt>
      <trkpt lat="45.59717" lon="6.66784">
        <ele>1467.8000488281</ele>
        <time>2019-03-27T06:30:12.000Z</time>
      </trkpt>
      <trkpt lat="45.59722" lon="6.668">
        <ele>1468</ele>
        <time>2019-03-27T06:30:18.000Z</time>
      </trkpt>
      <trkpt lat="45.59728" lon="6.66818">
        <ele>1468.4000244141</ele>
        <time>2019-03-27T06:30:23.000Z</time>
      </trkpt>
      <trkpt lat="45.5973" lon="6.66821">
        <ele>1468.8000488281</ele>
        <time>2019-03-27T06:30:26.000Z</time>
      </trkpt>
      <trkpt lat="45.59731" lon="6.66824">
        <ele>1469</ele>
        <time>2019-03-27T06:30:29.000Z</time>
      </trkpt>
      <trkpt lat="45.59735" lon="6.66832">
        <ele>1470</ele>
        <time>2019-03-27T06:30:35.000Z</time>
      </trkpt>
      <trkpt lat="45.59736" lon="6.66839">
        <ele>1471.1999511719</ele>
        <time>2019-03-27T06:30:40.000Z</time>
      </trkpt>
      <trkpt lat="45.59736" lon="6.66843">
        <ele>1471.8000488281</ele>
        <time>2019-03-27T06:30:43.000Z</time>
      </trkpt>
      <trkpt lat="45.59737" lon="6.66846">
        <ele>1471.8000488281</ele>
        <time>2019-03-27T06:30:45.000Z</time>
      </trkpt>
      <trkpt lat="45.59737" lon="6.66851">
        <ele>1472.1999511719</ele>
        <time>2019-03-27T06:30:49.000Z</time>
      </trkpt>
      <trkpt lat="45.59737" lon="6.66853">
        <ele>1472.1999511719</ele>
        <time>2019-03-27T06:30:50.000Z</time>
      </trkpt>
      <trkpt lat="45.59737" lon="6.66862">
        <ele>1473</ele>
        <time>2019-03-27T06:30:56.000Z</time>
      </trkpt>
      <trkpt lat="45.59738" lon="6.66863">
        <ele>1473.1999511719</ele>
        <time>2019-03-27T06:30:58.000Z</time>
      </trkpt>
      <trkpt lat="45.59737" lon="6.66869">
        <ele>1473.5999755859</ele>
        <time>2019-03-27T06:31:01.000Z</time>
      </trkpt>
      <trkpt lat="45.59737" lon="6.66878">
        <ele>1474.4000244141</ele>
        <time>2019-03-27T06:31:06.000Z</time>
      </trkpt>
      <trkpt lat="45.59737" lon="6.66886">
        <ele>1474.8000488281</ele>
        <time>2019-03-27T06:31:12.000Z</time>
      </trkpt>
      <trkpt lat="45.59737" lon="6.6689">
        <ele>1475.4000244141</ele>
        <time>2019-03-27T06:31:14.000Z</time>
      </trkpt>
      <trkpt lat="45.59736" lon="6.66894">
        <ele>1475.5999755859</ele>
        <time>2019-03-27T06:31:16.000Z</time>
      </trkpt>
      <trkpt lat="45.59736" lon="6.66897">
        <ele>1475.8000488281</ele>
        <time>2019-03-27T06:31:18.000Z</time>
      </trkpt>
      <trkpt lat="45.59735" lon="6.66909">
        <ele>1476.1999511719</ele>
        <time>2019-03-27T06:31:24.000Z</time>
      </trkpt>
      <trkpt lat="45.59735" lon="6.6691">
        <ele>1476.4000244141</ele>
        <time>2019-03-27T06:31:25.000Z</time>
      </trkpt>
      <trkpt lat="45.59734" lon="6.66918">
        <ele>1477</ele>
        <time>2019-03-27T06:31:30.000Z</time>
      </trkpt>
      <trkpt lat="45.59735" lon="6.66923">
        <ele>1477.4000244141</ele>
        <time>2019-03-27T06:31:33.000Z</time>
      </trkpt>
      <trkpt lat="45.59736" lon="6.66925">
        <ele>1477.4000244141</ele>
        <time>2019-03-27T06:31:34.000Z</time>
      </trkpt>
      <trkpt lat="45.59738" lon="6.66931">
        <ele>1478</ele>
        <time>2019-03-27T06:31:39.000Z</time>
      </trkpt>
      <trkpt lat="45.5974" lon="6.66938">
        <ele>1478.5999755859</ele>
        <time>2019-03-27T06:31:43.000Z</time>
      </trkpt>
      <trkpt lat="45.59741" lon="6.66939">
        <ele>1478.5999755859</ele>
        <time>2019-03-27T06:31:44.000Z</time>
      </trkpt>
      <trkpt lat="45.59744" lon="6.66944">
        <ele>1479.1999511719</ele>
        <time>2019-03-27T06:31:49.000Z</time>
      </trkpt>
      <trkpt lat="45.59749" lon="6.66948">
        <ele>1479.5999755859</ele>
        <time>2019-03-27T06:31:54.000Z</time>
      </trkpt>
      <trkpt lat="45.59751" lon="6.66949">
        <ele>1480</ele>
        <time>2019-03-27T06:31:55.000Z</time>
      </trkpt>
      <trkpt lat="45.59756" lon="6.66951">
        <ele>1480.1999511719</ele>
        <time>2019-03-27T06:32:00.000Z</time>
      </trkpt>
      <trkpt lat="45.59757" lon="6.66952">
        <ele>1480.1999511719</ele>
        <time>2019-03-27T06:32:01.000Z</time>
      </trkpt>
      <trkpt lat="45.5976" lon="6.66952">
        <ele>1480.5999755859</ele>
        <time>2019-03-27T06:32:05.000Z</time>
      </trkpt>
      <trkpt lat="45.5976" lon="6.66952">
        <ele>1480.8000488281</ele>
        <time>2019-03-27T06:32:06.000Z</time>
      </trkpt>
      <trkpt lat="45.59762" lon="6.66952">
        <ele>1481.1999511719</ele>
        <time>2019-03-27T06:32:12.000Z</time>
      </trkpt>
      <trkpt lat="45.59765" lon="6.66952">
        <ele>1481.1999511719</ele>
        <time>2019-03-27T06:32:19.000Z</time>
      </trkpt>
      <trkpt lat="45.59771" lon="6.66952">
        <ele>1481.8000488281</ele>
        <time>2019-03-27T06:32:24.000Z</time>
      </trkpt>
      <trkpt lat="45.59777" lon="6.66953">
        <ele>1482</ele>
        <time>2019-03-27T06:32:30.000Z</time>
      </trkpt>
      <trkpt lat="45.5978" lon="6.66954">
        <ele>1482.8000488281</ele>
        <time>2019-03-27T06:32:33.000Z</time>
      </trkpt>
      <trkpt lat="45.59784" lon="6.66954">
        <ele>1483</ele>
        <time>2019-03-27T06:32:35.000Z</time>
      </trkpt>
      <trkpt lat="45.59789" lon="6.66954">
        <ele>1483.5999755859</ele>
        <time>2019-03-27T06:32:40.000Z</time>
      </trkpt>
      <trkpt lat="45.59791" lon="6.66955">
        <ele>1483.8000488281</ele>
        <time>2019-03-27T06:32:43.000Z</time>
      </trkpt>
      <trkpt lat="45.59795" lon="6.66954">
        <ele>1484</ele>
        <time>2019-03-27T06:32:45.000Z</time>
      </trkpt>
      <trkpt lat="45.598" lon="6.66952">
        <ele>1484.4000244141</ele>
        <time>2019-03-27T06:32:51.000Z</time>
      </trkpt>
      <trkpt lat="45.59808" lon="6.6695">
        <ele>1485</ele>
        <time>2019-03-27T06:32:57.000Z</time>
      </trkpt>
      <trkpt lat="45.59812" lon="6.66949">
        <ele>1485.8000488281</ele>
        <time>2019-03-27T06:33:02.000Z</time>
      </trkpt>
      <trkpt lat="45.59815" lon="6.66948">
        <ele>1486</ele>
        <time>2019-03-27T06:33:04.000Z</time>
      </trkpt>
      <trkpt lat="45.5982" lon="6.66949">
        <ele>1486.1999511719</ele>
        <time>2019-03-27T06:33:08.000Z</time>
      </trkpt>
      <trkpt lat="45.59825" lon="6.66949">
        <ele>1486.8000488281</ele>
        <time>2019-03-27T06:33:13.000Z</time>
      </trkpt>
      <trkpt lat="45.59827" lon="6.66949">
        <ele>1487.1999511719</ele>
        <time>2019-03-27T06:33:14.000Z</time>
      </trkpt>
      <trkpt lat="45.5983" lon="6.66949">
        <ele>1487.5999755859</ele>
        <time>2019-03-27T06:33:20.000Z</time>
      </trkpt>
      <trkpt lat="45.59835" lon="6.66948">
        <ele>1488</ele>
        <time>2019-03-27T06:33:26.000Z</time>
      </trkpt>
      <trkpt lat="45.59838" lon="6.66948">
        <ele>1488.1999511719</ele>
        <time>2019-03-27T06:33:28.000Z</time>
      </trkpt>
      <trkpt lat="45.59842" lon="6.66946">
        <ele>1489.1999511719</ele>
        <time>2019-03-27T06:33:33.000Z</time>
      </trkpt>
      <trkpt lat="45.59846" lon="6.66947">
        <ele>1489.4000244141</ele>
        <time>2019-03-27T06:33:37.000Z</time>
      </trkpt>
      <trkpt lat="45.59851" lon="6.66947">
        <ele>1489.8000488281</ele>
        <time>2019-03-27T06:33:40.000Z</time>
      </trkpt>
      <trkpt lat="45.59856" lon="6.66947">
        <ele>1490.5999755859</ele>
        <time>2019-03-27T06:33:44.000Z</time>
      </trkpt>
      <trkpt lat="45.59858" lon="6.66948">
        <ele>1491</ele>
        <time>2019-03-27T06:33:47.000Z</time>
      </trkpt>
      <trkpt lat="45.59865" lon="6.66949">
        <ele>1491.8000488281</ele>
        <time>2019-03-27T06:33:53.000Z</time>
      </trkpt>
      <trkpt lat="45.59872" lon="6.6695">
        <ele>1492.5999755859</ele>
        <time>2019-03-27T06:33:58.000Z</time>
      </trkpt>
      <trkpt lat="45.59875" lon="6.66952">
        <ele>1492.4000244141</ele>
        <time>2019-03-27T06:34:02.000Z</time>
      </trkpt>
      <trkpt lat="45.59877" lon="6.66953">
        <ele>1492.4000244141</ele>
        <time>2019-03-27T06:34:04.000Z</time>
      </trkpt>
      <trkpt lat="45.59879" lon="6.66954">
        <ele>1492.1999511719</ele>
        <time>2019-03-27T06:34:11.000Z</time>
      </trkpt>
      <trkpt lat="45.59879" lon="6.66954">
        <ele>1492.8000488281</ele>
        <time>2019-03-27T06:34:13.000Z</time>
      </trkpt>
      <trkpt lat="45.59879" lon="6.66954">
        <ele>1494.4000244141</ele>
        <time>2019-03-27T06:34:15.000Z</time>
      </trkpt>
      <trkpt lat="45.59879" lon="6.66954">
        <ele>1494.5999755859</ele>
        <time>2019-03-27T06:34:21.000Z</time>
      </trkpt>
      <trkpt lat="45.5988" lon="6.66953">
        <ele>1493.1999511719</ele>
        <time>2019-03-27T06:34:24.000Z</time>
      </trkpt>
      <trkpt lat="45.59881" lon="6.66953">
        <ele>1493.1999511719</ele>
        <time>2019-03-27T06:34:25.000Z</time>
      </trkpt>
      <trkpt lat="45.59881" lon="6.66953">
        <ele>1493.4000244141</ele>
        <time>2019-03-27T06:34:26.000Z</time>
      </trkpt>
      <trkpt lat="45.59882" lon="6.66955">
        <ele>1494.4000244141</ele>
        <time>2019-03-27T06:34:27.000Z</time>
      </trkpt>
      <trkpt lat="45.59886" lon="6.66958">
        <ele>1494</ele>
        <time>2019-03-27T06:34:31.000Z</time>
      </trkpt>
      <trkpt lat="45.59888" lon="6.66959">
        <ele>1493.8000488281</ele>
        <time>2019-03-27T06:34:32.000Z</time>
      </trkpt>
      <trkpt lat="45.5989" lon="6.66965">
        <ele>1493.8000488281</ele>
        <time>2019-03-27T06:34:36.000Z</time>
      </trkpt>
      <trkpt lat="45.59896" lon="6.66971">
        <ele>1494.8000488281</ele>
        <time>2019-03-27T06:34:42.000Z</time>
      </trkpt>
      <trkpt lat="45.599" lon="6.66975">
        <ele>1495.5999755859</ele>
        <time>2019-03-27T06:34:47.000Z</time>
      </trkpt>
      <trkpt lat="45.59901" lon="6.66976">
        <ele>1495.8000488281</ele>
        <time>2019-03-27T06:34:48.000Z</time>
      </trkpt>
      <trkpt lat="45.59905" lon="6.66981">
        <ele>1496.5999755859</ele>
        <time>2019-03-27T06:34:54.000Z</time>
      </trkpt>
      <trkpt lat="45.59905" lon="6.66982">
        <ele>1496.5999755859</ele>
        <time>2019-03-27T06:34:55.000Z</time>
      </trkpt>
      <trkpt lat="45.59908" lon="6.66987">
        <ele>1497.1999511719</ele>
        <time>2019-03-27T06:35:00.000Z</time>
      </trkpt>
      <trkpt lat="45.59909" lon="6.66988">
        <ele>1497.8000488281</ele>
        <time>2019-03-27T06:35:03.000Z</time>
      </trkpt>
      <trkpt lat="45.59909" lon="6.66988">
        <ele>1498</ele>
        <time>2019-03-27T06:35:08.000Z</time>
      </trkpt>
      <trkpt lat="45.59909" lon="6.66988">
        <ele>1496.8000488281</ele>
        <time>2019-03-27T06:35:12.000Z</time>
      </trkpt>
      <trkpt lat="45.59909" lon="6.66988">
        <ele>1497.8000488281</ele>
        <time>2019-03-27T06:35:15.000Z</time>
      </trkpt>
      <trkpt lat="45.59909" lon="6.66988">
        <ele>1498.8000488281</ele>
        <time>2019-03-27T06:35:17.000Z</time>
      </trkpt>
      <trkpt lat="45.59909" lon="6.66988">
        <ele>1498.8000488281</ele>
        <time>2019-03-27T06:35:21.000Z</time>
      </trkpt>
      <trkpt lat="45.59909" lon="6.66988">
        <ele>1497.8000488281</ele>
        <time>2019-03-27T06:35:29.000Z</time>
      </trkpt>
      <trkpt lat="45.59909" lon="6.66988">
        <ele>1496.5999755859</ele>
        <time>2019-03-27T06:35:32.000Z</time>
      </trkpt>
      <trkpt lat="45.59909" lon="6.66988">
        <ele>1498.4000244141</ele>
        <time>2019-03-27T06:35:35.000Z</time>
      </trkpt>
      <trkpt lat="45.59912" lon="6.66994">
        <ele>1498.8000488281</ele>
        <time>2019-03-27T06:35:42.000Z</time>
      </trkpt>
      <trkpt lat="45.59918" lon="6.67002">
        <ele>1498.8000488281</ele>
        <time>2019-03-27T06:35:47.000Z</time>
      </trkpt>
      <trkpt lat="45.59922" lon="6.67006">
        <ele>1499.1999511719</ele>
        <time>2019-03-27T06:35:52.000Z</time>
      </trkpt>
      <trkpt lat="45.59923" lon="6.67007">
        <ele>1499.4000244141</ele>
        <time>2019-03-27T06:35:53.000Z</time>
      </trkpt>
      <trkpt lat="45.5993" lon="6.67011">
        <ele>1500.1999511719</ele>
        <time>2019-03-27T06:35:58.000Z</time>
      </trkpt>
      <trkpt lat="45.59933" lon="6.67014">
        <ele>1500.5999755859</ele>
        <time>2019-03-27T06:36:02.000Z</time>
      </trkpt>
      <trkpt lat="45.59935" lon="6.67015">
        <ele>1500.5999755859</ele>
        <time>2019-03-27T06:36:04.000Z</time>
      </trkpt>
      <trkpt lat="45.59943" lon="6.67018">
        <ele>1501.4000244141</ele>
        <time>2019-03-27T06:36:11.000Z</time>
      </trkpt>
      <trkpt lat="45.59944" lon="6.67018">
        <ele>1501.8000488281</ele>
        <time>2019-03-27T06:36:12.000Z</time>
      </trkpt>
      <trkpt lat="45.5995" lon="6.67018">
        <ele>1502.4000244141</ele>
        <time>2019-03-27T06:36:16.000Z</time>
      </trkpt>
      <trkpt lat="45.59954" lon="6.67018">
        <ele>1502.8000488281</ele>
        <time>2019-03-27T06:36:19.000Z</time>
      </trkpt>
      <trkpt lat="45.59957" lon="6.67019">
        <ele>1503</ele>
        <time>2019-03-27T06:36:22.000Z</time>
      </trkpt>
      <trkpt lat="45.59961" lon="6.6702">
        <ele>1503.8000488281</ele>
        <time>2019-03-27T06:36:25.000Z</time>
      </trkpt>
      <trkpt lat="45.59968" lon="6.67023">
        <ele>1504.1999511719</ele>
        <time>2019-03-27T06:36:31.000Z</time>
      </trkpt>
      <trkpt lat="45.59972" lon="6.67025">
        <ele>1505</ele>
        <time>2019-03-27T06:36:38.000Z</time>
      </trkpt>
      <trkpt lat="45.59979" lon="6.67023">
        <ele>1505.5999755859</ele>
        <time>2019-03-27T06:36:45.000Z</time>
      </trkpt>
      <trkpt lat="45.59982" lon="6.67024">
        <ele>1506</ele>
        <time>2019-03-27T06:36:48.000Z</time>
      </trkpt>
      <trkpt lat="45.59987" lon="6.67024">
        <ele>1506.4000244141</ele>
        <time>2019-03-27T06:36:51.000Z</time>
      </trkpt>
      <trkpt lat="45.59992" lon="6.67024">
        <ele>1507.1999511719</ele>
        <time>2019-03-27T06:36:56.000Z</time>
      </trkpt>
      <trkpt lat="45.59997" lon="6.67025">
        <ele>1507.5999755859</ele>
        <time>2019-03-27T06:36:59.000Z</time>
      </trkpt>
      <trkpt lat="45.60004" lon="6.6703">
        <ele>1508.1999511719</ele>
        <time>2019-03-27T06:37:06.000Z</time>
      </trkpt>
      <trkpt lat="45.60006" lon="6.6703">
        <ele>1508.1999511719</ele>
        <time>2019-03-27T06:37:07.000Z</time>
      </trkpt>
      <trkpt lat="45.60013" lon="6.67031">
        <ele>1508.5999755859</ele>
        <time>2019-03-27T06:37:11.000Z</time>
      </trkpt>
      <trkpt lat="45.60016" lon="6.67032">
        <ele>1509.4000244141</ele>
        <time>2019-03-27T06:37:13.000Z</time>
      </trkpt>
      <trkpt lat="45.60021" lon="6.67035">
        <ele>1510.1999511719</ele>
        <time>2019-03-27T06:37:18.000Z</time>
      </trkpt>
      <trkpt lat="45.60027" lon="6.67035">
        <ele>1510.4000244141</ele>
        <time>2019-03-27T06:37:21.000Z</time>
      </trkpt>
      <trkpt lat="45.60028" lon="6.67036">
        <ele>1510.4000244141</ele>
        <time>2019-03-27T06:37:23.000Z</time>
      </trkpt>
      <trkpt lat="45.60029" lon="6.67037">
        <ele>1510.5999755859</ele>
        <time>2019-03-27T06:37:24.000Z</time>
      </trkpt>
      <trkpt lat="45.60031" lon="6.67038">
        <ele>1511.1999511719</ele>
        <time>2019-03-27T06:37:27.000Z</time>
      </trkpt>
      <trkpt lat="45.60033" lon="6.6704">
        <ele>1511.1999511719</ele>
        <time>2019-03-27T06:37:28.000Z</time>
      </trkpt>
      <trkpt lat="45.60038" lon="6.67043">
        <ele>1511.4000244141</ele>
        <time>2019-03-27T06:37:32.000Z</time>
      </trkpt>
      <trkpt lat="45.60042" lon="6.67047">
        <ele>1512.4000244141</ele>
        <time>2019-03-27T06:37:37.000Z</time>
      </trkpt>
      <trkpt lat="45.60043" lon="6.67048">
        <ele>1512.4000244141</ele>
        <time>2019-03-27T06:37:38.000Z</time>
      </trkpt>
      <trkpt lat="45.60047" lon="6.67051">
        <ele>1513</ele>
        <time>2019-03-27T06:37:43.000Z</time>
      </trkpt>
      <trkpt lat="45.6005" lon="6.67056">
        <ele>1513.5999755859</ele>
        <time>2019-03-27T06:37:48.000Z</time>
      </trkpt>
      <trkpt lat="45.6005" lon="6.67058">
        <ele>1513.8000488281</ele>
        <time>2019-03-27T06:37:49.000Z</time>
      </trkpt>
      <trkpt lat="45.60052" lon="6.67064">
        <ele>1514.4000244141</ele>
        <time>2019-03-27T06:37:55.000Z</time>
      </trkpt>
      <trkpt lat="45.60055" lon="6.67067">
        <ele>1514.8000488281</ele>
        <time>2019-03-27T06:37:57.000Z</time>
      </trkpt>
      <trkpt lat="45.60056" lon="6.6707">
        <ele>1515</ele>
        <time>2019-03-27T06:38:00.000Z</time>
      </trkpt>
      <trkpt lat="45.60059" lon="6.67077">
        <ele>1515.4000244141</ele>
        <time>2019-03-27T06:38:04.000Z</time>
      </trkpt>
      <trkpt lat="45.60059" lon="6.6708">
        <ele>1515.8000488281</ele>
        <time>2019-03-27T06:38:06.000Z</time>
      </trkpt>
      <trkpt lat="45.60059" lon="6.67085">
        <ele>1516.1999511719</ele>
        <time>2019-03-27T06:38:09.000Z</time>
      </trkpt>
      <trkpt lat="45.60061" lon="6.67093">
        <ele>1516.5999755859</ele>
        <time>2019-03-27T06:38:15.000Z</time>
      </trkpt>
      <trkpt lat="45.60061" lon="6.67096">
        <ele>1516.5999755859</ele>
        <time>2019-03-27T06:38:16.000Z</time>
      </trkpt>
      <trkpt lat="45.60062" lon="6.67098">
        <ele>1516.8000488281</ele>
        <time>2019-03-27T06:38:17.000Z</time>
      </trkpt>
      <trkpt lat="45.60061" lon="6.67102">
        <ele>1517.1999511719</ele>
        <time>2019-03-27T06:38:20.000Z</time>
      </trkpt>
      <trkpt lat="45.60061" lon="6.67108">
        <ele>1517.8000488281</ele>
        <time>2019-03-27T06:38:25.000Z</time>
      </trkpt>
      <trkpt lat="45.60061" lon="6.6711">
        <ele>1518</ele>
        <time>2019-03-27T06:38:26.000Z</time>
      </trkpt>
      <trkpt lat="45.60062" lon="6.67117">
        <ele>1518.5999755859</ele>
        <time>2019-03-27T06:38:30.000Z</time>
      </trkpt>
      <trkpt lat="45.60064" lon="6.67126">
        <ele>1519.1999511719</ele>
        <time>2019-03-27T06:38:36.000Z</time>
      </trkpt>
      <trkpt lat="45.60064" lon="6.67135">
        <ele>1519.8000488281</ele>
        <time>2019-03-27T06:38:42.000Z</time>
      </trkpt>
      <trkpt lat="45.60067" lon="6.67143">
        <ele>1519.5999755859</ele>
        <time>2019-03-27T06:38:47.000Z</time>
      </trkpt>
      <trkpt lat="45.60068" lon="6.67148">
        <ele>1520.1999511719</ele>
        <time>2019-03-27T06:38:50.000Z</time>
      </trkpt>
      <trkpt lat="45.60068" lon="6.67148">
        <ele>1520.8000488281</ele>
        <time>2019-03-27T06:38:52.000Z</time>
      </trkpt>
      <trkpt lat="45.60068" lon="6.67148">
        <ele>1521</ele>
        <time>2019-03-27T06:39:02.000Z</time>
      </trkpt>
      <trkpt lat="45.60068" lon="6.67148">
        <ele>1520.8000488281</ele>
        <time>2019-03-27T06:39:14.000Z</time>
      </trkpt>
      <trkpt lat="45.60068" lon="6.67148">
        <ele>1521.8000488281</ele>
        <time>2019-03-27T06:39:23.000Z</time>
      </trkpt>
      <trkpt lat="45.60068" lon="6.67147">
        <ele>1522.5999755859</ele>
        <time>2019-03-27T06:39:26.000Z</time>
      </trkpt>
      <trkpt lat="45.60069" lon="6.67145">
        <ele>1521</ele>
        <time>2019-03-27T06:39:33.000Z</time>
      </trkpt>
      <trkpt lat="45.60072" lon="6.67139">
        <ele>1520.5999755859</ele>
        <time>2019-03-27T06:39:36.000Z</time>
      </trkpt>
      <trkpt lat="45.60073" lon="6.67138">
        <ele>1520.4000244141</ele>
        <time>2019-03-27T06:39:38.000Z</time>
      </trkpt>
      <trkpt lat="45.60076" lon="6.67134">
        <ele>1521.1999511719</ele>
        <time>2019-03-27T06:39:43.000Z</time>
      </trkpt>
      <trkpt lat="45.60076" lon="6.67132">
        <ele>1521.8000488281</ele>
        <time>2019-03-27T06:39:46.000Z</time>
      </trkpt>
      <trkpt lat="45.60076" lon="6.67132">
        <ele>1522</ele>
        <time>2019-03-27T06:39:48.000Z</time>
      </trkpt>
      <trkpt lat="45.60078" lon="6.67131">
        <ele>1522.1999511719</ele>
        <time>2019-03-27T06:39:49.000Z</time>
      </trkpt>
      <trkpt lat="45.60083" lon="6.67129">
        <ele>1522.8000488281</ele>
        <time>2019-03-27T06:39:52.000Z</time>
      </trkpt>
      <trkpt lat="45.60085" lon="6.67128">
        <ele>1523</ele>
        <time>2019-03-27T06:39:53.000Z</time>
      </trkpt>
      <trkpt lat="45.60087" lon="6.67123">
        <ele>1524.1999511719</ele>
        <time>2019-03-27T06:39:56.000Z</time>
      </trkpt>
      <trkpt lat="45.60087" lon="6.67123">
        <ele>1524.5999755859</ele>
        <time>2019-03-27T06:39:57.000Z</time>
      </trkpt>
      <trkpt lat="45.60089" lon="6.67118">
        <ele>1525.1999511719</ele>
        <time>2019-03-27T06:40:00.000Z</time>
      </trkpt>
      <trkpt lat="45.60089" lon="6.67117">
        <ele>1525.1999511719</ele>
        <time>2019-03-27T06:40:02.000Z</time>
      </trkpt>
      <trkpt lat="45.60094" lon="6.67116">
        <ele>1526.1999511719</ele>
        <time>2019-03-27T06:40:07.000Z</time>
      </trkpt>
      <trkpt lat="45.60096" lon="6.67114">
        <ele>1527.4000244141</ele>
        <time>2019-03-27T06:40:12.000Z</time>
      </trkpt>
      <trkpt lat="45.60098" lon="6.67113">
        <ele>1527.8000488281</ele>
        <time>2019-03-27T06:40:14.000Z</time>
      </trkpt>
      <trkpt lat="45.60098" lon="6.67114">
        <ele>1528.1999511719</ele>
        <time>2019-03-27T06:40:16.000Z</time>
      </trkpt>
      <trkpt lat="45.601" lon="6.67113">
        <ele>1528.4000244141</ele>
        <time>2019-03-27T06:40:19.000Z</time>
      </trkpt>
      <trkpt lat="45.60101" lon="6.67115">
        <ele>1528.5999755859</ele>
        <time>2019-03-27T06:40:20.000Z</time>
      </trkpt>
      <trkpt lat="45.60102" lon="6.67117">
        <ele>1529.1999511719</ele>
        <time>2019-03-27T06:40:23.000Z</time>
      </trkpt>
      <trkpt lat="45.60102" lon="6.67117">
        <ele>1529.4000244141</ele>
        <time>2019-03-27T06:40:24.000Z</time>
      </trkpt>
      <trkpt lat="45.60104" lon="6.67119">
        <ele>1530</ele>
        <time>2019-03-27T06:40:26.000Z</time>
      </trkpt>
      <trkpt lat="45.60104" lon="6.6712">
        <ele>1530.4000244141</ele>
        <time>2019-03-27T06:40:28.000Z</time>
      </trkpt>
      <trkpt lat="45.60106" lon="6.6712">
        <ele>1530.5999755859</ele>
        <time>2019-03-27T06:40:29.000Z</time>
      </trkpt>
      <trkpt lat="45.60107" lon="6.67121">
        <ele>1531.1999511719</ele>
        <time>2019-03-27T06:40:32.000Z</time>
      </trkpt>
      <trkpt lat="45.60108" lon="6.6712">
        <ele>1531.8000488281</ele>
        <time>2019-03-27T06:40:34.000Z</time>
      </trkpt>
      <trkpt lat="45.60111" lon="6.67118">
        <ele>1532.5999755859</ele>
        <time>2019-03-27T06:40:38.000Z</time>
      </trkpt>
      <trkpt lat="45.60112" lon="6.67118">
        <ele>1532.8000488281</ele>
        <time>2019-03-27T06:40:39.000Z</time>
      </trkpt>
      <trkpt lat="45.60113" lon="6.67119">
        <ele>1533.1999511719</ele>
        <time>2019-03-27T06:40:44.000Z</time>
      </trkpt>
      <trkpt lat="45.60113" lon="6.67119">
        <ele>1533.8000488281</ele>
        <time>2019-03-27T06:40:47.000Z</time>
      </trkpt>
      <trkpt lat="45.60116" lon="6.67118">
        <ele>1534.1999511719</ele>
        <time>2019-03-27T06:40:49.000Z</time>
      </trkpt>
      <trkpt lat="45.60117" lon="6.67117">
        <ele>1535</ele>
        <time>2019-03-27T06:40:51.000Z</time>
      </trkpt>
      <trkpt lat="45.60119" lon="6.67115">
        <ele>1535.4000244141</ele>
        <time>2019-03-27T06:40:54.000Z</time>
      </trkpt>
      <trkpt lat="45.60123" lon="6.67114">
        <ele>1536</ele>
        <time>2019-03-27T06:41:00.000Z</time>
      </trkpt>
      <trkpt lat="45.60124" lon="6.67115">
        <ele>1536.1999511719</ele>
        <time>2019-03-27T06:41:01.000Z</time>
      </trkpt>
      <trkpt lat="45.60126" lon="6.67117">
        <ele>1536.8000488281</ele>
        <time>2019-03-27T06:41:05.000Z</time>
      </trkpt>
      <trkpt lat="45.60128" lon="6.67118">
        <ele>1537.4000244141</ele>
        <time>2019-03-27T06:41:08.000Z</time>
      </trkpt>
      <trkpt lat="45.60131" lon="6.67119">
        <ele>1538.1999511719</ele>
        <time>2019-03-27T06:41:12.000Z</time>
      </trkpt>
      <trkpt lat="45.60132" lon="6.67119">
        <ele>1538.4000244141</ele>
        <time>2019-03-27T06:41:14.000Z</time>
      </trkpt>
      <trkpt lat="45.60135" lon="6.67121">
        <ele>1539</ele>
        <time>2019-03-27T06:41:18.000Z</time>
      </trkpt>
      <trkpt lat="45.60137" lon="6.6712">
        <ele>1539</ele>
        <time>2019-03-27T06:41:19.000Z</time>
      </trkpt>
      <trkpt lat="45.6014" lon="6.6712">
        <ele>1539.5999755859</ele>
        <time>2019-03-27T06:41:22.000Z</time>
      </trkpt>
      <trkpt lat="45.60143" lon="6.6712">
        <ele>1540.5999755859</ele>
        <time>2019-03-27T06:41:27.000Z</time>
      </trkpt>
      <trkpt lat="45.60144" lon="6.67121">
        <ele>1540.5999755859</ele>
        <time>2019-03-27T06:41:29.000Z</time>
      </trkpt>
      <trkpt lat="45.60148" lon="6.67122">
        <ele>1541.8000488281</ele>
        <time>2019-03-27T06:41:33.000Z</time>
      </trkpt>
      <trkpt lat="45.60149" lon="6.67122">
        <ele>1541.8000488281</ele>
        <time>2019-03-27T06:41:34.000Z</time>
      </trkpt>
      <trkpt lat="45.60153" lon="6.67121">
        <ele>1543</ele>
        <time>2019-03-27T06:41:40.000Z</time>
      </trkpt>
      <trkpt lat="45.60158" lon="6.67119">
        <ele>1543.5999755859</ele>
        <time>2019-03-27T06:41:45.000Z</time>
      </trkpt>
      <trkpt lat="45.6016" lon="6.6712">
        <ele>1544.1999511719</ele>
        <time>2019-03-27T06:41:47.000Z</time>
      </trkpt>
      <trkpt lat="45.6016" lon="6.67118">
        <ele>1544.8000488281</ele>
        <time>2019-03-27T06:41:50.000Z</time>
      </trkpt>
      <trkpt lat="45.60161" lon="6.67114">
        <ele>1545.1999511719</ele>
        <time>2019-03-27T06:41:53.000Z</time>
      </trkpt>
      <trkpt lat="45.60162" lon="6.67113">
        <ele>1545.4000244141</ele>
        <time>2019-03-27T06:41:56.000Z</time>
      </trkpt>
      <trkpt lat="45.60166" lon="6.67112">
        <ele>1546.1999511719</ele>
        <time>2019-03-27T06:42:02.000Z</time>
      </trkpt>
      <trkpt lat="45.60168" lon="6.67113">
        <ele>1546.4000244141</ele>
        <time>2019-03-27T06:42:03.000Z</time>
      </trkpt>
      <trkpt lat="45.60169" lon="6.67114">
        <ele>1547.1999511719</ele>
        <time>2019-03-27T06:42:06.000Z</time>
      </trkpt>
      <trkpt lat="45.60169" lon="6.67114">
        <ele>1547.4000244141</ele>
        <time>2019-03-27T06:42:07.000Z</time>
      </trkpt>
      <trkpt lat="45.60173" lon="6.67118">
        <ele>1548.1999511719</ele>
        <time>2019-03-27T06:42:12.000Z</time>
      </trkpt>
      <trkpt lat="45.60174" lon="6.67119">
        <ele>1548.4000244141</ele>
        <time>2019-03-27T06:42:13.000Z</time>
      </trkpt>
      <trkpt lat="45.60174" lon="6.67119">
        <ele>1548.4000244141</ele>
        <time>2019-03-27T06:42:14.000Z</time>
      </trkpt>
      <trkpt lat="45.60176" lon="6.67121">
        <ele>1548.5999755859</ele>
        <time>2019-03-27T06:42:16.000Z</time>
      </trkpt>
      <trkpt lat="45.60176" lon="6.67124">
        <ele>1549.4000244141</ele>
        <time>2019-03-27T06:42:20.000Z</time>
      </trkpt>
      <trkpt lat="45.60176" lon="6.67124">
        <ele>1549.5999755859</ele>
        <time>2019-03-27T06:42:21.000Z</time>
      </trkpt>
      <trkpt lat="45.60178" lon="6.67124">
        <ele>1549.5999755859</ele>
        <time>2019-03-27T06:42:23.000Z</time>
      </trkpt>
      <trkpt lat="45.60179" lon="6.67123">
        <ele>1549.5999755859</ele>
        <time>2019-03-27T06:42:26.000Z</time>
      </trkpt>
      <trkpt lat="45.6018" lon="6.67124">
        <ele>1550</ele>
        <time>2019-03-27T06:42:28.000Z</time>
      </trkpt>
      <trkpt lat="45.6018" lon="6.67125">
        <ele>1550.4000244141</ele>
        <time>2019-03-27T06:42:29.000Z</time>
      </trkpt>
      <trkpt lat="45.60181" lon="6.67129">
        <ele>1551.4000244141</ele>
        <time>2019-03-27T06:42:31.000Z</time>
      </trkpt>
      <trkpt lat="45.60181" lon="6.67131">
        <ele>1551.8000488281</ele>
        <time>2019-03-27T06:42:32.000Z</time>
      </trkpt>
      <trkpt lat="45.60181" lon="6.67134">
        <ele>1552</ele>
        <time>2019-03-27T06:42:35.000Z</time>
      </trkpt>
      <trkpt lat="45.60181" lon="6.67136">
        <ele>1552.1999511719</ele>
        <time>2019-03-27T06:42:36.000Z</time>
      </trkpt>
      <trkpt lat="45.60181" lon="6.67141">
        <ele>1552.5999755859</ele>
        <time>2019-03-27T06:42:40.000Z</time>
      </trkpt>
      <trkpt lat="45.60181" lon="6.67141">
        <ele>1552.5999755859</ele>
        <time>2019-03-27T06:42:41.000Z</time>
      </trkpt>
      <trkpt lat="45.6018" lon="6.6715">
        <ele>1552.5999755859</ele>
        <time>2019-03-27T06:42:47.000Z</time>
      </trkpt>
      <trkpt lat="45.60179" lon="6.67154">
        <ele>1552.8000488281</ele>
        <time>2019-03-27T06:42:50.000Z</time>
      </trkpt>
      <trkpt lat="45.60176" lon="6.67159">
        <ele>1553.5999755859</ele>
        <time>2019-03-27T06:42:53.000Z</time>
      </trkpt>
      <trkpt lat="45.60175" lon="6.67162">
        <ele>1554</ele>
        <time>2019-03-27T06:42:56.000Z</time>
      </trkpt>
      <trkpt lat="45.60175" lon="6.67163">
        <ele>1554</ele>
        <time>2019-03-27T06:42:58.000Z</time>
      </trkpt>
      <trkpt lat="45.60174" lon="6.67165">
        <ele>1554.1999511719</ele>
        <time>2019-03-27T06:42:59.000Z</time>
      </trkpt>
      <trkpt lat="45.60173" lon="6.6717">
        <ele>1554.5999755859</ele>
        <time>2019-03-27T06:43:03.000Z</time>
      </trkpt>
      <trkpt lat="45.60171" lon="6.67173">
        <ele>1555</ele>
        <time>2019-03-27T06:43:06.000Z</time>
      </trkpt>
      <trkpt lat="45.60169" lon="6.67176">
        <ele>1555.4000244141</ele>
        <time>2019-03-27T06:43:09.000Z</time>
      </trkpt>
      <trkpt lat="45.60166" lon="6.67182">
        <ele>1556</ele>
        <time>2019-03-27T06:43:15.000Z</time>
      </trkpt>
      <trkpt lat="45.60163" lon="6.67186">
        <ele>1556.1999511719</ele>
        <time>2019-03-27T06:43:17.000Z</time>
      </trkpt>
      <trkpt lat="45.60162" lon="6.6719">
        <ele>1556.5999755859</ele>
        <time>2019-03-27T06:43:20.000Z</time>
      </trkpt>
      <trkpt lat="45.60161" lon="6.67191">
        <ele>1556.8000488281</ele>
        <time>2019-03-27T06:43:21.000Z</time>
      </trkpt>
      <trkpt lat="45.60161" lon="6.67195">
        <ele>1557.1999511719</ele>
        <time>2019-03-27T06:43:24.000Z</time>
      </trkpt>
      <trkpt lat="45.6016" lon="6.67197">
        <ele>1557.4000244141</ele>
        <time>2019-03-27T06:43:25.000Z</time>
      </trkpt>
      <trkpt lat="45.60158" lon="6.67205">
        <ele>1557.8000488281</ele>
        <time>2019-03-27T06:43:30.000Z</time>
      </trkpt>
      <trkpt lat="45.6016" lon="6.67215">
        <ele>1558</ele>
        <time>2019-03-27T06:43:36.000Z</time>
      </trkpt>
      <trkpt lat="45.6016" lon="6.67216">
        <ele>1558.1999511719</ele>
        <time>2019-03-27T06:43:37.000Z</time>
      </trkpt>
      <trkpt lat="45.60162" lon="6.6722">
        <ele>1558.8000488281</ele>
        <time>2019-03-27T06:43:40.000Z</time>
      </trkpt>
      <trkpt lat="45.60163" lon="6.67222">
        <ele>1559</ele>
        <time>2019-03-27T06:43:43.000Z</time>
      </trkpt>
      <trkpt lat="45.60167" lon="6.67228">
        <ele>1559.1999511719</ele>
        <time>2019-03-27T06:43:48.000Z</time>
      </trkpt>
      <trkpt lat="45.60169" lon="6.67229">
        <ele>1559.4000244141</ele>
        <time>2019-03-27T06:43:49.000Z</time>
      </trkpt>
      <trkpt lat="45.60173" lon="6.67232">
        <ele>1559.5999755859</ele>
        <time>2019-03-27T06:43:53.000Z</time>
      </trkpt>
      <trkpt lat="45.60177" lon="6.67236">
        <ele>1560.4000244141</ele>
        <time>2019-03-27T06:43:57.000Z</time>
      </trkpt>
      <trkpt lat="45.60178" lon="6.67236">
        <ele>1560.5999755859</ele>
        <time>2019-03-27T06:43:58.000Z</time>
      </trkpt>
      <trkpt lat="45.60183" lon="6.6724">
        <ele>1561</ele>
        <time>2019-03-27T06:44:03.000Z</time>
      </trkpt>
      <trkpt lat="45.60188" lon="6.67242">
        <ele>1561.4000244141</ele>
        <time>2019-03-27T06:44:08.000Z</time>
      </trkpt>
      <trkpt lat="45.60188" lon="6.67242">
        <ele>1561.5999755859</ele>
        <time>2019-03-27T06:44:09.000Z</time>
      </trkpt>
      <trkpt lat="45.60193" lon="6.67245">
        <ele>1562.4000244141</ele>
        <time>2019-03-27T06:44:13.000Z</time>
      </trkpt>
      <trkpt lat="45.60197" lon="6.67249">
        <ele>1562.5999755859</ele>
        <time>2019-03-27T06:44:18.000Z</time>
      </trkpt>
      <trkpt lat="45.60197" lon="6.67249">
        <ele>1562.8000488281</ele>
        <time>2019-03-27T06:44:19.000Z</time>
      </trkpt>
      <trkpt lat="45.602" lon="6.67251">
        <ele>1563</ele>
        <time>2019-03-27T06:44:21.000Z</time>
      </trkpt>
      <trkpt lat="45.60203" lon="6.67253">
        <ele>1563.1999511719</ele>
        <time>2019-03-27T06:44:23.000Z</time>
      </trkpt>
      <trkpt lat="45.60208" lon="6.67254">
        <ele>1563.5999755859</ele>
        <time>2019-03-27T06:44:28.000Z</time>
      </trkpt>
      <trkpt lat="45.60209" lon="6.67254">
        <ele>1563.8000488281</ele>
        <time>2019-03-27T06:44:30.000Z</time>
      </trkpt>
      <trkpt lat="45.60213" lon="6.67255">
        <ele>1564.4000244141</ele>
        <time>2019-03-27T06:44:33.000Z</time>
      </trkpt>
      <trkpt lat="45.60216" lon="6.67256">
        <ele>1564.8000488281</ele>
        <time>2019-03-27T06:44:36.000Z</time>
      </trkpt>
      <trkpt lat="45.60217" lon="6.67257">
        <ele>1564.8000488281</ele>
        <time>2019-03-27T06:44:38.000Z</time>
      </trkpt>
      <trkpt lat="45.60222" lon="6.67258">
        <ele>1565.1999511719</ele>
        <time>2019-03-27T06:44:44.000Z</time>
      </trkpt>
      <trkpt lat="45.60228" lon="6.67259">
        <ele>1565.8000488281</ele>
        <time>2019-03-27T06:44:49.000Z</time>
      </trkpt>
      <trkpt lat="45.60231" lon="6.6726">
        <ele>1565.8000488281</ele>
        <time>2019-03-27T06:44:51.000Z</time>
      </trkpt>
      <trkpt lat="45.60234" lon="6.6726">
        <ele>1566</ele>
        <time>2019-03-27T06:44:54.000Z</time>
      </trkpt>
      <trkpt lat="45.60239" lon="6.67261">
        <ele>1567</ele>
        <time>2019-03-27T06:44:58.000Z</time>
      </trkpt>
      <trkpt lat="45.60243" lon="6.67262">
        <ele>1567.4000244141</ele>
        <time>2019-03-27T06:45:00.000Z</time>
      </trkpt>
      <trkpt lat="45.60249" lon="6.67265">
        <ele>1567.5999755859</ele>
        <time>2019-03-27T06:45:07.000Z</time>
      </trkpt>
      <trkpt lat="45.60249" lon="6.67265">
        <ele>1568</ele>
        <time>2019-03-27T06:45:10.000Z</time>
      </trkpt>
      <trkpt lat="45.60249" lon="6.67265">
        <ele>1568</ele>
        <time>2019-03-27T06:45:15.000Z</time>
      </trkpt>
      <trkpt lat="45.60249" lon="6.67265">
        <ele>1567.8000488281</ele>
        <time>2019-03-27T06:45:24.000Z</time>
      </trkpt>
      <trkpt lat="45.60249" lon="6.67265">
        <ele>1567</ele>
        <time>2019-03-27T06:45:31.000Z</time>
      </trkpt>
      <trkpt lat="45.60249" lon="6.67265">
        <ele>1568.1999511719</ele>
        <time>2019-03-27T06:45:37.000Z</time>
      </trkpt>
      <trkpt lat="45.60254" lon="6.67266">
        <ele>1569</ele>
        <time>2019-03-27T06:45:44.000Z</time>
      </trkpt>
      <trkpt lat="45.60257" lon="6.67267">
        <ele>1568.8000488281</ele>
        <time>2019-03-27T06:45:49.000Z</time>
      </trkpt>
      <trkpt lat="45.60262" lon="6.6727">
        <ele>1569.1999511719</ele>
        <time>2019-03-27T06:45:54.000Z</time>
      </trkpt>
      <trkpt lat="45.60264" lon="6.67271">
        <ele>1569.4000244141</ele>
        <time>2019-03-27T06:45:58.000Z</time>
      </trkpt>
      <trkpt lat="45.60266" lon="6.67272">
        <ele>1569.8000488281</ele>
        <time>2019-03-27T06:45:59.000Z</time>
      </trkpt>
      <trkpt lat="45.60273" lon="6.67275">
        <ele>1569.8000488281</ele>
        <time>2019-03-27T06:46:05.000Z</time>
      </trkpt>
      <trkpt lat="45.60276" lon="6.67277">
        <ele>1570.4000244141</ele>
        <time>2019-03-27T06:46:10.000Z</time>
      </trkpt>
      <trkpt lat="45.60276" lon="6.67278">
        <ele>1570.4000244141</ele>
        <time>2019-03-27T06:46:12.000Z</time>
      </trkpt>
      <trkpt lat="45.60276" lon="6.67278">
        <ele>1570.5999755859</ele>
        <time>2019-03-27T06:46:19.000Z</time>
      </trkpt>
      <trkpt lat="45.60276" lon="6.67278">
        <ele>1571.5999755859</ele>
        <time>2019-03-27T06:46:30.000Z</time>
      </trkpt>
      <trkpt lat="45.60276" lon="6.67278">
        <ele>1571.5999755859</ele>
        <time>2019-03-27T06:46:31.000Z</time>
      </trkpt>
      <trkpt lat="45.60276" lon="6.67278">
        <ele>1570.8000488281</ele>
        <time>2019-03-27T06:46:39.000Z</time>
      </trkpt>
      <trkpt lat="45.60276" lon="6.67278">
        <ele>1570.8000488281</ele>
        <time>2019-03-27T06:46:58.000Z</time>
      </trkpt>
      <trkpt lat="45.60276" lon="6.67278">
        <ele>1570.5999755859</ele>
        <time>2019-03-27T06:47:17.000Z</time>
      </trkpt>
      <trkpt lat="45.6028" lon="6.67278">
        <ele>1570.5999755859</ele>
        <time>2019-03-27T06:47:24.000Z</time>
      </trkpt>
      <trkpt lat="45.60285" lon="6.67281">
        <ele>1570.5999755859</ele>
        <time>2019-03-27T06:47:28.000Z</time>
      </trkpt>
      <trkpt lat="45.6029" lon="6.67284">
        <ele>1571.4000244141</ele>
        <time>2019-03-27T06:47:33.000Z</time>
      </trkpt>
      <trkpt lat="45.60296" lon="6.67287">
        <ele>1572</ele>
        <time>2019-03-27T06:47:38.000Z</time>
      </trkpt>
      <trkpt lat="45.60302" lon="6.67289">
        <ele>1572.4000244141</ele>
        <time>2019-03-27T06:47:43.000Z</time>
      </trkpt>
      <trkpt lat="45.60303" lon="6.6729">
        <ele>1572.5999755859</ele>
        <time>2019-03-27T06:47:44.000Z</time>
      </trkpt>
      <trkpt lat="45.60307" lon="6.67293">
        <ele>1573.4000244141</ele>
        <time>2019-03-27T06:47:48.000Z</time>
      </trkpt>
      <trkpt lat="45.6031" lon="6.67295">
        <ele>1573.5999755859</ele>
        <time>2019-03-27T06:47:51.000Z</time>
      </trkpt>
      <trkpt lat="45.60313" lon="6.67296">
        <ele>1574</ele>
        <time>2019-03-27T06:47:54.000Z</time>
      </trkpt>
      <trkpt lat="45.60319" lon="6.673">
        <ele>1574.5999755859</ele>
        <time>2019-03-27T06:47:59.000Z</time>
      </trkpt>
      <trkpt lat="45.6032" lon="6.67301">
        <ele>1574.5999755859</ele>
        <time>2019-03-27T06:48:00.000Z</time>
      </trkpt>
      <trkpt lat="45.60325" lon="6.67303">
        <ele>1575.4000244141</ele>
        <time>2019-03-27T06:48:05.000Z</time>
      </trkpt>
      <trkpt lat="45.60327" lon="6.67304">
        <ele>1575.5999755859</ele>
        <time>2019-03-27T06:48:07.000Z</time>
      </trkpt>
      <trkpt lat="45.6033" lon="6.67306">
        <ele>1575.8000488281</ele>
        <time>2019-03-27T06:48:09.000Z</time>
      </trkpt>
      <trkpt lat="45.60334" lon="6.67306">
        <ele>1576.4000244141</ele>
        <time>2019-03-27T06:48:14.000Z</time>
      </trkpt>
      <trkpt lat="45.6034" lon="6.67309">
        <ele>1576.5999755859</ele>
        <time>2019-03-27T06:48:17.000Z</time>
      </trkpt>
      <trkpt lat="45.60341" lon="6.6731">
        <ele>1576.8000488281</ele>
        <time>2019-03-27T06:48:19.000Z</time>
      </trkpt>
      <trkpt lat="45.60347" lon="6.67312">
        <ele>1577.4000244141</ele>
        <time>2019-03-27T06:48:24.000Z</time>
      </trkpt>
      <trkpt lat="45.60348" lon="6.67314">
        <ele>1577.5999755859</ele>
        <time>2019-03-27T06:48:26.000Z</time>
      </trkpt>
      <trkpt lat="45.6035" lon="6.67315">
        <ele>1577.8000488281</ele>
        <time>2019-03-27T06:48:28.000Z</time>
      </trkpt>
      <trkpt lat="45.60355" lon="6.67317">
        <ele>1578.1999511719</ele>
        <time>2019-03-27T06:48:32.000Z</time>
      </trkpt>
      <trkpt lat="45.60361" lon="6.6732">
        <ele>1578.8000488281</ele>
        <time>2019-03-27T06:48:37.000Z</time>
      </trkpt>
      <trkpt lat="45.60367" lon="6.67322">
        <ele>1579.4000244141</ele>
        <time>2019-03-27T06:48:42.000Z</time>
      </trkpt>
      <trkpt lat="45.60371" lon="6.67324">
        <ele>1579.8000488281</ele>
        <time>2019-03-27T06:48:46.000Z</time>
      </trkpt>
      <trkpt lat="45.60372" lon="6.67324">
        <ele>1579.8000488281</ele>
        <time>2019-03-27T06:48:47.000Z</time>
      </trkpt>
      <trkpt lat="45.60377" lon="6.67327">
        <ele>1580.4000244141</ele>
        <time>2019-03-27T06:48:52.000Z</time>
      </trkpt>
      <trkpt lat="45.60378" lon="6.67328">
        <ele>1581</ele>
        <time>2019-03-27T06:48:54.000Z</time>
      </trkpt>
      <trkpt lat="45.60381" lon="6.6733">
        <ele>1581.1999511719</ele>
        <time>2019-03-27T06:48:57.000Z</time>
      </trkpt>
      <trkpt lat="45.60386" lon="6.67332">
        <ele>1581.5999755859</ele>
        <time>2019-03-27T06:49:01.000Z</time>
      </trkpt>
      <trkpt lat="45.60388" lon="6.67331">
        <ele>1582</ele>
        <time>2019-03-27T06:49:04.000Z</time>
      </trkpt>
      <trkpt lat="45.6039" lon="6.67331">
        <ele>1582.1999511719</ele>
        <time>2019-03-27T06:49:06.000Z</time>
      </trkpt>
      <trkpt lat="45.60396" lon="6.67334">
        <ele>1582.4000244141</ele>
        <time>2019-03-27T06:49:12.000Z</time>
      </trkpt>
      <trkpt lat="45.60402" lon="6.67335">
        <ele>1583</ele>
        <time>2019-03-27T06:49:17.000Z</time>
      </trkpt>
      <trkpt lat="45.60409" lon="6.67339">
        <ele>1583.5999755859</ele>
        <time>2019-03-27T06:49:23.000Z</time>
      </trkpt>
      <trkpt lat="45.60412" lon="6.6734">
        <ele>1583.5999755859</ele>
        <time>2019-03-27T06:49:28.000Z</time>
      </trkpt>
      <trkpt lat="45.60419" lon="6.67343">
        <ele>1584</ele>
        <time>2019-03-27T06:49:33.000Z</time>
      </trkpt>
      <trkpt lat="45.60422" lon="6.67344">
        <ele>1584</ele>
        <time>2019-03-27T06:49:35.000Z</time>
      </trkpt>
      <trkpt lat="45.60426" lon="6.67347">
        <ele>1584.4000244141</ele>
        <time>2019-03-27T06:49:38.000Z</time>
      </trkpt>
      <trkpt lat="45.60432" lon="6.67349">
        <ele>1585</ele>
        <time>2019-03-27T06:49:43.000Z</time>
      </trkpt>
      <trkpt lat="45.60433" lon="6.6735">
        <ele>1585.1999511719</ele>
        <time>2019-03-27T06:49:44.000Z</time>
      </trkpt>
      <trkpt lat="45.60436" lon="6.67353">
        <ele>1585.5999755859</ele>
        <time>2019-03-27T06:49:48.000Z</time>
      </trkpt>
      <trkpt lat="45.60442" lon="6.67356">
        <ele>1586</ele>
        <time>2019-03-27T06:49:53.000Z</time>
      </trkpt>
      <trkpt lat="45.60446" lon="6.6736">
        <ele>1586.4000244141</ele>
        <time>2019-03-27T06:49:57.000Z</time>
      </trkpt>
      <trkpt lat="45.60453" lon="6.67366">
        <ele>1587.1999511719</ele>
        <time>2019-03-27T06:50:03.000Z</time>
      </trkpt>
      <trkpt lat="45.60457" lon="6.67369">
        <ele>1587.4000244141</ele>
        <time>2019-03-27T06:50:08.000Z</time>
      </trkpt>
      <trkpt lat="45.60458" lon="6.6737">
        <ele>1587.4000244141</ele>
        <time>2019-03-27T06:50:09.000Z</time>
      </trkpt>
      <trkpt lat="45.60463" lon="6.67374">
        <ele>1588.1999511719</ele>
        <time>2019-03-27T06:50:14.000Z</time>
      </trkpt>
      <trkpt lat="45.60467" lon="6.67376">
        <ele>1588.4000244141</ele>
        <time>2019-03-27T06:50:19.000Z</time>
      </trkpt>
      <trkpt lat="45.60468" lon="6.67377">
        <ele>1588.5999755859</ele>
        <time>2019-03-27T06:50:20.000Z</time>
      </trkpt>
      <trkpt lat="45.60472" lon="6.6738">
        <ele>1588.8000488281</ele>
        <time>2019-03-27T06:50:25.000Z</time>
      </trkpt>
      <trkpt lat="45.60475" lon="6.67382">
        <ele>1589.8000488281</ele>
        <time>2019-03-27T06:50:28.000Z</time>
      </trkpt>
      <trkpt lat="45.60476" lon="6.67385">
        <ele>1590</ele>
        <time>2019-03-27T06:50:30.000Z</time>
      </trkpt>
      <trkpt lat="45.6048" lon="6.67388">
        <ele>1590.8000488281</ele>
        <time>2019-03-27T06:50:34.000Z</time>
      </trkpt>
      <trkpt lat="45.6048" lon="6.67389">
        <ele>1591</ele>
        <time>2019-03-27T06:50:35.000Z</time>
      </trkpt>
      <trkpt lat="45.60485" lon="6.67392">
        <ele>1591.4000244141</ele>
        <time>2019-03-27T06:50:40.000Z</time>
      </trkpt>
      <trkpt lat="45.60489" lon="6.67395">
        <ele>1592</ele>
        <time>2019-03-27T06:50:44.000Z</time>
      </trkpt>
      <trkpt lat="45.6049" lon="6.67396">
        <ele>1592.1999511719</ele>
        <time>2019-03-27T06:50:45.000Z</time>
      </trkpt>
      <trkpt lat="45.60495" lon="6.674">
        <ele>1592.8000488281</ele>
        <time>2019-03-27T06:50:50.000Z</time>
      </trkpt>
      <trkpt lat="45.60496" lon="6.67402">
        <ele>1593</ele>
        <time>2019-03-27T06:50:52.000Z</time>
      </trkpt>
      <trkpt lat="45.605" lon="6.67405">
        <ele>1593.1999511719</ele>
        <time>2019-03-27T06:50:55.000Z</time>
      </trkpt>
      <trkpt lat="45.60504" lon="6.67409">
        <ele>1593.8000488281</ele>
        <time>2019-03-27T06:51:00.000Z</time>
      </trkpt>
      <trkpt lat="45.60507" lon="6.67412">
        <ele>1594</ele>
        <time>2019-03-27T06:51:05.000Z</time>
      </trkpt>
      <trkpt lat="45.60512" lon="6.67416">
        <ele>1594.1999511719</ele>
        <time>2019-03-27T06:51:11.000Z</time>
      </trkpt>
      <trkpt lat="45.60516" lon="6.67422">
        <ele>1594.8000488281</ele>
        <time>2019-03-27T06:51:15.000Z</time>
      </trkpt>
      <trkpt lat="45.60517" lon="6.67424">
        <ele>1595.4000244141</ele>
        <time>2019-03-27T06:51:16.000Z</time>
      </trkpt>
      <trkpt lat="45.60521" lon="6.67427">
        <ele>1595.8000488281</ele>
        <time>2019-03-27T06:51:20.000Z</time>
      </trkpt>
      <trkpt lat="45.60527" lon="6.67433">
        <ele>1596</ele>
        <time>2019-03-27T06:51:26.000Z</time>
      </trkpt>
      <trkpt lat="45.60528" lon="6.67436">
        <ele>1596.4000244141</ele>
        <time>2019-03-27T06:51:29.000Z</time>
      </trkpt>
      <trkpt lat="45.60529" lon="6.67436">
        <ele>1596.5999755859</ele>
        <time>2019-03-27T06:51:31.000Z</time>
      </trkpt>
      <trkpt lat="45.60535" lon="6.67441">
        <ele>1596.5999755859</ele>
        <time>2019-03-27T06:51:37.000Z</time>
      </trkpt>
      <trkpt lat="45.60537" lon="6.67444">
        <ele>1597.8000488281</ele>
        <time>2019-03-27T06:51:40.000Z</time>
      </trkpt>
      <trkpt lat="45.60539" lon="6.67445">
        <ele>1598.4000244141</ele>
        <time>2019-03-27T06:51:42.000Z</time>
      </trkpt>
      <trkpt lat="45.60542" lon="6.67448">
        <ele>1598.8000488281</ele>
        <time>2019-03-27T06:51:45.000Z</time>
      </trkpt>
      <trkpt lat="45.60543" lon="6.6745">
        <ele>1598.8000488281</ele>
        <time>2019-03-27T06:51:47.000Z</time>
      </trkpt>
      <trkpt lat="45.60545" lon="6.67452">
        <ele>1599</ele>
        <time>2019-03-27T06:51:49.000Z</time>
      </trkpt>
      <trkpt lat="45.60547" lon="6.67454">
        <ele>1599.1999511719</ele>
        <time>2019-03-27T06:51:52.000Z</time>
      </trkpt>
      <trkpt lat="45.60551" lon="6.67459">
        <ele>1599.4000244141</ele>
        <time>2019-03-27T06:51:58.000Z</time>
      </trkpt>
      <trkpt lat="45.60555" lon="6.67462">
        <ele>1599.8000488281</ele>
        <time>2019-03-27T06:52:03.000Z</time>
      </trkpt>
      <trkpt lat="45.6056" lon="6.67464">
        <ele>1599.4000244141</ele>
        <time>2019-03-27T06:52:08.000Z</time>
      </trkpt>
      <trkpt lat="45.60565" lon="6.67466">
        <ele>1599.1999511719</ele>
        <time>2019-03-27T06:52:12.000Z</time>
      </trkpt>
      <trkpt lat="45.60566" lon="6.67466">
        <ele>1599</ele>
        <time>2019-03-27T06:52:13.000Z</time>
      </trkpt>
      <trkpt lat="45.60572" lon="6.67471">
        <ele>1599</ele>
        <time>2019-03-27T06:52:19.000Z</time>
      </trkpt>
      <trkpt lat="45.60579" lon="6.67473">
        <ele>1598.5999755859</ele>
        <time>2019-03-27T06:52:24.000Z</time>
      </trkpt>
      <trkpt lat="45.60585" lon="6.67476">
        <ele>1599</ele>
        <time>2019-03-27T06:52:29.000Z</time>
      </trkpt>
      <trkpt lat="45.60589" lon="6.6748">
        <ele>1599.4000244141</ele>
        <time>2019-03-27T06:52:34.000Z</time>
      </trkpt>
      <trkpt lat="45.60595" lon="6.67485">
        <ele>1599.5999755859</ele>
        <time>2019-03-27T06:52:41.000Z</time>
      </trkpt>
      <trkpt lat="45.60599" lon="6.67488">
        <ele>1599.8000488281</ele>
        <time>2019-03-27T06:52:46.000Z</time>
      </trkpt>
      <trkpt lat="45.60607" lon="6.67489">
        <ele>1599.5999755859</ele>
        <time>2019-03-27T06:52:53.000Z</time>
      </trkpt>
      <trkpt lat="45.60617" lon="6.67488">
        <ele>1599.4000244141</ele>
        <time>2019-03-27T06:53:00.000Z</time>
      </trkpt>
      <trkpt lat="45.60623" lon="6.67489">
        <ele>1599.4000244141</ele>
        <time>2019-03-27T06:53:06.000Z</time>
      </trkpt>
      <trkpt lat="45.60628" lon="6.67489">
        <ele>1600</ele>
        <time>2019-03-27T06:53:11.000Z</time>
      </trkpt>
      <trkpt lat="45.60629" lon="6.67488">
        <ele>1600.1999511719</ele>
        <time>2019-03-27T06:53:12.000Z</time>
      </trkpt>
      <trkpt lat="45.60635" lon="6.67488">
        <ele>1600.4000244141</ele>
        <time>2019-03-27T06:53:17.000Z</time>
      </trkpt>
      <trkpt lat="45.60642" lon="6.67487">
        <ele>1600.8000488281</ele>
        <time>2019-03-27T06:53:23.000Z</time>
      </trkpt>
      <trkpt lat="45.60645" lon="6.67487">
        <ele>1601</ele>
        <time>2019-03-27T06:53:26.000Z</time>
      </trkpt>
      <trkpt lat="45.60651" lon="6.67487">
        <ele>1601.4000244141</ele>
        <time>2019-03-27T06:53:30.000Z</time>
      </trkpt>
      <trkpt lat="45.60657" lon="6.67488">
        <ele>1601.4000244141</ele>
        <time>2019-03-27T06:53:36.000Z</time>
      </trkpt>
      <trkpt lat="45.60663" lon="6.67491">
        <ele>1601.4000244141</ele>
        <time>2019-03-27T06:53:42.000Z</time>
      </trkpt>
      <trkpt lat="45.60669" lon="6.67495">
        <ele>1601.5999755859</ele>
        <time>2019-03-27T06:53:47.000Z</time>
      </trkpt>
      <trkpt lat="45.6067" lon="6.67496">
        <ele>1601.8000488281</ele>
        <time>2019-03-27T06:53:48.000Z</time>
      </trkpt>
      <trkpt lat="45.60673" lon="6.67499">
        <ele>1602</ele>
        <time>2019-03-27T06:53:52.000Z</time>
      </trkpt>
      <trkpt lat="45.60675" lon="6.67502">
        <ele>1602.4000244141</ele>
        <time>2019-03-27T06:53:54.000Z</time>
      </trkpt>
      <trkpt lat="45.60681" lon="6.67506">
        <ele>1602.8000488281</ele>
        <time>2019-03-27T06:53:59.000Z</time>
      </trkpt>
      <trkpt lat="45.60686" lon="6.6751">
        <ele>1602.4000244141</ele>
        <time>2019-03-27T06:54:05.000Z</time>
      </trkpt>
      <trkpt lat="45.60692" lon="6.67515">
        <ele>1602.5999755859</ele>
        <time>2019-03-27T06:54:11.000Z</time>
      </trkpt>
      <trkpt lat="45.60696" lon="6.67519">
        <ele>1603</ele>
        <time>2019-03-27T06:54:17.000Z</time>
      </trkpt>
      <trkpt lat="45.60702" lon="6.67526">
        <ele>1602.8000488281</ele>
        <time>2019-03-27T06:54:23.000Z</time>
      </trkpt>
      <trkpt lat="45.60702" lon="6.67527">
        <ele>1602.8000488281</ele>
        <time>2019-03-27T06:54:24.000Z</time>
      </trkpt>
      <trkpt lat="45.60705" lon="6.67535">
        <ele>1602.8000488281</ele>
        <time>2019-03-27T06:54:29.000Z</time>
      </trkpt>
      <trkpt lat="45.60706" lon="6.67542">
        <ele>1602.8000488281</ele>
        <time>2019-03-27T06:54:34.000Z</time>
      </trkpt>
      <trkpt lat="45.60709" lon="6.67551">
        <ele>1602.8000488281</ele>
        <time>2019-03-27T06:54:39.000Z</time>
      </trkpt>
      <trkpt lat="45.60712" lon="6.67555">
        <ele>1603</ele>
        <time>2019-03-27T06:54:43.000Z</time>
      </trkpt>
      <trkpt lat="45.60713" lon="6.67556">
        <ele>1603.1999511719</ele>
        <time>2019-03-27T06:54:44.000Z</time>
      </trkpt>
      <trkpt lat="45.60721" lon="6.67561">
        <ele>1604</ele>
        <time>2019-03-27T06:54:51.000Z</time>
      </trkpt>
      <trkpt lat="45.60722" lon="6.67561">
        <ele>1604.5999755859</ele>
        <time>2019-03-27T06:54:52.000Z</time>
      </trkpt>
      <trkpt lat="45.60727" lon="6.67562">
        <ele>1605.1999511719</ele>
        <time>2019-03-27T06:54:57.000Z</time>
      </trkpt>
      <trkpt lat="45.60729" lon="6.67563">
        <ele>1605.5999755859</ele>
        <time>2019-03-27T06:55:00.000Z</time>
      </trkpt>
      <trkpt lat="45.60732" lon="6.67563">
        <ele>1606.1999511719</ele>
        <time>2019-03-27T06:55:03.000Z</time>
      </trkpt>
      <trkpt lat="45.60735" lon="6.67564">
        <ele>1606.5999755859</ele>
        <time>2019-03-27T06:55:05.000Z</time>
      </trkpt>
      <trkpt lat="45.60738" lon="6.67566">
        <ele>1607.1999511719</ele>
        <time>2019-03-27T06:55:08.000Z</time>
      </trkpt>
      <trkpt lat="45.6074" lon="6.67567">
        <ele>1607.8000488281</ele>
        <time>2019-03-27T06:55:12.000Z</time>
      </trkpt>
      <trkpt lat="45.60741" lon="6.67567">
        <ele>1608</ele>
        <time>2019-03-27T06:55:13.000Z</time>
      </trkpt>
      <trkpt lat="45.60742" lon="6.67568">
        <ele>1608.8000488281</ele>
        <time>2019-03-27T06:55:16.000Z</time>
      </trkpt>
      <trkpt lat="45.60743" lon="6.67568">
        <ele>1609.1999511719</ele>
        <time>2019-03-27T06:55:18.000Z</time>
      </trkpt>
      <trkpt lat="45.60749" lon="6.67571">
        <ele>1609.4000244141</ele>
        <time>2019-03-27T06:55:23.000Z</time>
      </trkpt>
      <trkpt lat="45.60753" lon="6.67574">
        <ele>1609.8000488281</ele>
        <time>2019-03-27T06:55:28.000Z</time>
      </trkpt>
      <trkpt lat="45.60755" lon="6.67574">
        <ele>1610</ele>
        <time>2019-03-27T06:55:29.000Z</time>
      </trkpt>
      <trkpt lat="45.60764" lon="6.67576">
        <ele>1611</ele>
        <time>2019-03-27T06:55:37.000Z</time>
      </trkpt>
      <trkpt lat="45.6077" lon="6.67576">
        <ele>1611.8000488281</ele>
        <time>2019-03-27T06:55:42.000Z</time>
      </trkpt>
      <trkpt lat="45.60774" lon="6.67577">
        <ele>1612.1999511719</ele>
        <time>2019-03-27T06:55:45.000Z</time>
      </trkpt>
      <trkpt lat="45.60775" lon="6.67576">
        <ele>1612.5999755859</ele>
        <time>2019-03-27T06:55:48.000Z</time>
      </trkpt>
      <trkpt lat="45.60777" lon="6.67577">
        <ele>1613.1999511719</ele>
        <time>2019-03-27T06:55:53.000Z</time>
      </trkpt>
      <trkpt lat="45.60777" lon="6.67577">
        <ele>1613.4000244141</ele>
        <time>2019-03-27T06:55:54.000Z</time>
      </trkpt>
      <trkpt lat="45.60779" lon="6.67578">
        <ele>1613.5999755859</ele>
        <time>2019-03-27T06:56:00.000Z</time>
      </trkpt>
      <trkpt lat="45.60781" lon="6.67578">
        <ele>1614.1999511719</ele>
        <time>2019-03-27T06:56:06.000Z</time>
      </trkpt>
      <trkpt lat="45.60784" lon="6.67578">
        <ele>1614.1999511719</ele>
        <time>2019-03-27T06:56:09.000Z</time>
      </trkpt>
      <trkpt lat="45.60785" lon="6.67578">
        <ele>1614.1999511719</ele>
        <time>2019-03-27T06:56:10.000Z</time>
      </trkpt>
      <trkpt lat="45.60789" lon="6.67583">
        <ele>1614.8000488281</ele>
        <time>2019-03-27T06:56:15.000Z</time>
      </trkpt>
      <trkpt lat="45.60792" lon="6.67586">
        <ele>1615.1999511719</ele>
        <time>2019-03-27T06:56:18.000Z</time>
      </trkpt>
      <trkpt lat="45.60794" lon="6.67588">
        <ele>1615.4000244141</ele>
        <time>2019-03-27T06:56:20.000Z</time>
      </trkpt>
      <trkpt lat="45.60802" lon="6.67596">
        <ele>1615.4000244141</ele>
        <time>2019-03-27T06:56:27.000Z</time>
      </trkpt>
      <trkpt lat="45.60806" lon="6.67601">
        <ele>1615.5999755859</ele>
        <time>2019-03-27T06:56:32.000Z</time>
      </trkpt>
      <trkpt lat="45.60808" lon="6.67604">
        <ele>1615.5999755859</ele>
        <time>2019-03-27T06:56:36.000Z</time>
      </trkpt>
      <trkpt lat="45.60809" lon="6.67605">
        <ele>1616.4000244141</ele>
        <time>2019-03-27T06:56:38.000Z</time>
      </trkpt>
      <trkpt lat="45.60808" lon="6.67605">
        <ele>1617.1999511719</ele>
        <time>2019-03-27T06:56:41.000Z</time>
      </trkpt>
      <trkpt lat="45.6081" lon="6.67606">
        <ele>1617.4000244141</ele>
        <time>2019-03-27T06:56:43.000Z</time>
      </trkpt>
      <trkpt lat="45.60812" lon="6.67608">
        <ele>1617.8000488281</ele>
        <time>2019-03-27T06:56:45.000Z</time>
      </trkpt>
      <trkpt lat="45.60815" lon="6.67612">
        <ele>1618.4000244141</ele>
        <time>2019-03-27T06:56:50.000Z</time>
      </trkpt>
      <trkpt lat="45.60817" lon="6.67613">
        <ele>1618.5999755859</ele>
        <time>2019-03-27T06:56:52.000Z</time>
      </trkpt>
      <trkpt lat="45.6082" lon="6.67616">
        <ele>1618.8000488281</ele>
        <time>2019-03-27T06:56:54.000Z</time>
      </trkpt>
      <trkpt lat="45.60824" lon="6.67621">
        <ele>1619.5999755859</ele>
        <time>2019-03-27T06:56:58.000Z</time>
      </trkpt>
      <trkpt lat="45.60825" lon="6.67622">
        <ele>1619.8000488281</ele>
        <time>2019-03-27T06:56:59.000Z</time>
      </trkpt>
      <trkpt lat="45.60828" lon="6.67626">
        <ele>1620.1999511719</ele>
        <time>2019-03-27T06:57:04.000Z</time>
      </trkpt>
      <trkpt lat="45.60832" lon="6.67632">
        <ele>1621</ele>
        <time>2019-03-27T06:57:09.000Z</time>
      </trkpt>
      <trkpt lat="45.60837" lon="6.67638">
        <ele>1621.5999755859</ele>
        <time>2019-03-27T06:57:15.000Z</time>
      </trkpt>
      <trkpt lat="45.6084" lon="6.67642">
        <ele>1622.1999511719</ele>
        <time>2019-03-27T06:57:18.000Z</time>
      </trkpt>
      <trkpt lat="45.60842" lon="6.67644">
        <ele>1622.5999755859</ele>
        <time>2019-03-27T06:57:20.000Z</time>
      </trkpt>
      <trkpt lat="45.60844" lon="6.67646">
        <ele>1623</ele>
        <time>2019-03-27T06:57:25.000Z</time>
      </trkpt>
      <trkpt lat="45.60849" lon="6.67653">
        <ele>1623.4000244141</ele>
        <time>2019-03-27T06:57:30.000Z</time>
      </trkpt>
      <trkpt lat="45.6085" lon="6.67654">
        <ele>1623.4000244141</ele>
        <time>2019-03-27T06:57:31.000Z</time>
      </trkpt>
      <trkpt lat="45.60855" lon="6.67662">
        <ele>1624.1999511719</ele>
        <time>2019-03-27T06:57:37.000Z</time>
      </trkpt>
      <trkpt lat="45.60856" lon="6.67664">
        <ele>1624.4000244141</ele>
        <time>2019-03-27T06:57:38.000Z</time>
      </trkpt>
      <trkpt lat="45.60858" lon="6.67665">
        <ele>1624.8000488281</ele>
        <time>2019-03-27T06:57:42.000Z</time>
      </trkpt>
      <trkpt lat="45.60862" lon="6.67669">
        <ele>1625.4000244141</ele>
        <time>2019-03-27T06:57:47.000Z</time>
      </trkpt>
      <trkpt lat="45.60862" lon="6.67668">
        <ele>1625.5999755859</ele>
        <time>2019-03-27T06:57:49.000Z</time>
      </trkpt>
      <trkpt lat="45.60869" lon="6.67674">
        <ele>1626.4000244141</ele>
        <time>2019-03-27T06:57:54.000Z</time>
      </trkpt>
      <trkpt lat="45.60874" lon="6.67679">
        <ele>1626.4000244141</ele>
        <time>2019-03-27T06:58:00.000Z</time>
      </trkpt>
      <trkpt lat="45.60878" lon="6.67682">
        <ele>1626.1999511719</ele>
        <time>2019-03-27T06:58:05.000Z</time>
      </trkpt>
      <trkpt lat="45.60879" lon="6.67683">
        <ele>1626.8000488281</ele>
        <time>2019-03-27T06:58:11.000Z</time>
      </trkpt>
      <trkpt lat="45.60885" lon="6.67689">
        <ele>1627</ele>
        <time>2019-03-27T06:58:17.000Z</time>
      </trkpt>
      <trkpt lat="45.60889" lon="6.67693">
        <ele>1627.4000244141</ele>
        <time>2019-03-27T06:58:21.000Z</time>
      </trkpt>
      <trkpt lat="45.60891" lon="6.67695">
        <ele>1627.5999755859</ele>
        <time>2019-03-27T06:58:23.000Z</time>
      </trkpt>
      <trkpt lat="45.60894" lon="6.67698">
        <ele>1628</ele>
        <time>2019-03-27T06:58:28.000Z</time>
      </trkpt>
      <trkpt lat="45.609" lon="6.67703">
        <ele>1628.5999755859</ele>
        <time>2019-03-27T06:58:34.000Z</time>
      </trkpt>
      <trkpt lat="45.609" lon="6.67703">
        <ele>1628.8000488281</ele>
        <time>2019-03-27T06:58:35.000Z</time>
      </trkpt>
      <trkpt lat="45.609" lon="6.67703">
        <ele>1629.1999511719</ele>
        <time>2019-03-27T06:58:40.000Z</time>
      </trkpt>
      <trkpt lat="45.609" lon="6.67703">
        <ele>1629</ele>
        <time>2019-03-27T06:58:54.000Z</time>
      </trkpt>
      <trkpt lat="45.609" lon="6.67703">
        <ele>1629</ele>
        <time>2019-03-27T06:59:04.000Z</time>
      </trkpt>
      <trkpt lat="45.609" lon="6.67703">
        <ele>1628.8000488281</ele>
        <time>2019-03-27T06:59:14.000Z</time>
      </trkpt>
      <trkpt lat="45.60901" lon="6.67704">
        <ele>1629.1999511719</ele>
        <time>2019-03-27T06:59:22.000Z</time>
      </trkpt>
      <trkpt lat="45.60904" lon="6.67708">
        <ele>1629</ele>
        <time>2019-03-27T06:59:26.000Z</time>
      </trkpt>
      <trkpt lat="45.60909" lon="6.67712">
        <ele>1629</ele>
        <time>2019-03-27T06:59:31.000Z</time>
      </trkpt>
      <trkpt lat="45.60912" lon="6.67717">
        <ele>1628.8000488281</ele>
        <time>2019-03-27T06:59:35.000Z</time>
      </trkpt>
      <trkpt lat="45.60915" lon="6.67722">
        <ele>1628.8000488281</ele>
        <time>2019-03-27T06:59:38.000Z</time>
      </trkpt>
      <trkpt lat="45.60917" lon="6.67723">
        <ele>1628.8000488281</ele>
        <time>2019-03-27T06:59:40.000Z</time>
      </trkpt>
      <trkpt lat="45.6092" lon="6.67731">
        <ele>1628.5999755859</ele>
        <time>2019-03-27T06:59:45.000Z</time>
      </trkpt>
      <trkpt lat="45.60922" lon="6.6774">
        <ele>1629</ele>
        <time>2019-03-27T06:59:51.000Z</time>
      </trkpt>
      <trkpt lat="45.60923" lon="6.67741">
        <ele>1629</ele>
        <time>2019-03-27T06:59:52.000Z</time>
      </trkpt>
      <trkpt lat="45.60922" lon="6.67744">
        <ele>1629.1999511719</ele>
        <time>2019-03-27T06:59:56.000Z</time>
      </trkpt>
      <trkpt lat="45.60926" lon="6.67753">
        <ele>1629.5999755859</ele>
        <time>2019-03-27T07:00:01.000Z</time>
      </trkpt>
      <trkpt lat="45.6093" lon="6.67761">
        <ele>1629.1999511719</ele>
        <time>2019-03-27T07:00:06.000Z</time>
      </trkpt>
      <trkpt lat="45.60933" lon="6.6777">
        <ele>1629.1999511719</ele>
        <time>2019-03-27T07:00:11.000Z</time>
      </trkpt>
      <trkpt lat="45.60936" lon="6.67776">
        <ele>1628.8000488281</ele>
        <time>2019-03-27T07:00:16.000Z</time>
      </trkpt>
      <trkpt lat="45.60939" lon="6.67782">
        <ele>1629.1999511719</ele>
        <time>2019-03-27T07:00:21.000Z</time>
      </trkpt>
      <trkpt lat="45.60942" lon="6.67788">
        <ele>1629.1999511719</ele>
        <time>2019-03-27T07:00:26.000Z</time>
      </trkpt>
      <trkpt lat="45.60945" lon="6.67794">
        <ele>1629.5999755859</ele>
        <time>2019-03-27T07:00:30.000Z</time>
      </trkpt>
      <trkpt lat="45.60946" lon="6.67797">
        <ele>1629.8000488281</ele>
        <time>2019-03-27T07:00:32.000Z</time>
      </trkpt>
      <trkpt lat="45.60951" lon="6.67806">
        <ele>1629.8000488281</ele>
        <time>2019-03-27T07:00:37.000Z</time>
      </trkpt>
      <trkpt lat="45.60956" lon="6.67813">
        <ele>1629.4000244141</ele>
        <time>2019-03-27T07:00:42.000Z</time>
      </trkpt>
      <trkpt lat="45.60962" lon="6.6782">
        <ele>1629.1999511719</ele>
        <time>2019-03-27T07:00:48.000Z</time>
      </trkpt>
      <trkpt lat="45.60967" lon="6.67828">
        <ele>1629</ele>
        <time>2019-03-27T07:00:54.000Z</time>
      </trkpt>
      <trkpt lat="45.60977" lon="6.6784">
        <ele>1629</ele>
        <time>2019-03-27T07:01:02.000Z</time>
      </trkpt>
      <trkpt lat="45.60981" lon="6.67846">
        <ele>1628.8000488281</ele>
        <time>2019-03-27T07:01:07.000Z</time>
      </trkpt>
      <trkpt lat="45.60983" lon="6.67848">
        <ele>1628.4000244141</ele>
        <time>2019-03-27T07:01:09.000Z</time>
      </trkpt>
      <trkpt lat="45.60988" lon="6.67851">
        <ele>1628</ele>
        <time>2019-03-27T07:01:13.000Z</time>
      </trkpt>
      <trkpt lat="45.60992" lon="6.67853">
        <ele>1628.1999511719</ele>
        <time>2019-03-27T07:01:18.000Z</time>
      </trkpt>
      <trkpt lat="45.60997" lon="6.67857">
        <ele>1628.5999755859</ele>
        <time>2019-03-27T07:01:24.000Z</time>
      </trkpt>
      <trkpt lat="45.61" lon="6.6786">
        <ele>1628.5999755859</ele>
        <time>2019-03-27T07:01:30.000Z</time>
      </trkpt>
      <trkpt lat="45.61006" lon="6.67865">
        <ele>1629</ele>
        <time>2019-03-27T07:01:34.000Z</time>
      </trkpt>
      <trkpt lat="45.61012" lon="6.67867">
        <ele>1629</ele>
        <time>2019-03-27T07:01:39.000Z</time>
      </trkpt>
      <trkpt lat="45.61014" lon="6.67868">
        <ele>1629</ele>
        <time>2019-03-27T07:01:41.000Z</time>
      </trkpt>
      <trkpt lat="45.61017" lon="6.6787">
        <ele>1628.8000488281</ele>
        <time>2019-03-27T07:01:44.000Z</time>
      </trkpt>
      <trkpt lat="45.61023" lon="6.67874">
        <ele>1628.8000488281</ele>
        <time>2019-03-27T07:01:49.000Z</time>
      </trkpt>
      <trkpt lat="45.61024" lon="6.67874">
        <ele>1628.8000488281</ele>
        <time>2019-03-27T07:01:50.000Z</time>
      </trkpt>
      <trkpt lat="45.61028" lon="6.67875">
        <ele>1628.5999755859</ele>
        <time>2019-03-27T07:01:55.000Z</time>
      </trkpt>
      <trkpt lat="45.61033" lon="6.67877">
        <ele>1629</ele>
        <time>2019-03-27T07:02:00.000Z</time>
      </trkpt>
      <trkpt lat="45.61039" lon="6.67878">
        <ele>1629.5999755859</ele>
        <time>2019-03-27T07:02:05.000Z</time>
      </trkpt>
      <trkpt lat="45.61044" lon="6.67881">
        <ele>1630.4000244141</ele>
        <time>2019-03-27T07:02:11.000Z</time>
      </trkpt>
      <trkpt lat="45.61051" lon="6.67887">
        <ele>1630.5999755859</ele>
        <time>2019-03-27T07:02:16.000Z</time>
      </trkpt>
      <trkpt lat="45.61052" lon="6.67887">
        <ele>1631</ele>
        <time>2019-03-27T07:02:17.000Z</time>
      </trkpt>
      <trkpt lat="45.61058" lon="6.6789">
        <ele>1631.4000244141</ele>
        <time>2019-03-27T07:02:21.000Z</time>
      </trkpt>
      <trkpt lat="45.61062" lon="6.67891">
        <ele>1631.4000244141</ele>
        <time>2019-03-27T07:02:25.000Z</time>
      </trkpt>
      <trkpt lat="45.61067" lon="6.67892">
        <ele>1631.4000244141</ele>
        <time>2019-03-27T07:02:30.000Z</time>
      </trkpt>
      <trkpt lat="45.61068" lon="6.67892">
        <ele>1631.8000488281</ele>
        <time>2019-03-27T07:02:32.000Z</time>
      </trkpt>
      <trkpt lat="45.61074" lon="6.67895">
        <ele>1632</ele>
        <time>2019-03-27T07:02:36.000Z</time>
      </trkpt>
      <trkpt lat="45.61079" lon="6.67899">
        <ele>1632.5999755859</ele>
        <time>2019-03-27T07:02:42.000Z</time>
      </trkpt>
      <trkpt lat="45.61081" lon="6.67899">
        <ele>1632.8000488281</ele>
        <time>2019-03-27T07:02:43.000Z</time>
      </trkpt>
      <trkpt lat="45.61087" lon="6.67901">
        <ele>1633</ele>
        <time>2019-03-27T07:02:48.000Z</time>
      </trkpt>
      <trkpt lat="45.61094" lon="6.67902">
        <ele>1633.4000244141</ele>
        <time>2019-03-27T07:02:54.000Z</time>
      </trkpt>
      <trkpt lat="45.61099" lon="6.67903">
        <ele>1633.8000488281</ele>
        <time>2019-03-27T07:02:59.000Z</time>
      </trkpt>
      <trkpt lat="45.61101" lon="6.67903">
        <ele>1633.8000488281</ele>
        <time>2019-03-27T07:03:00.000Z</time>
      </trkpt>
      <trkpt lat="45.61106" lon="6.67904">
        <ele>1634.1999511719</ele>
        <time>2019-03-27T07:03:06.000Z</time>
      </trkpt>
      <trkpt lat="45.61111" lon="6.67906">
        <ele>1634.8000488281</ele>
        <time>2019-03-27T07:03:10.000Z</time>
      </trkpt>
      <trkpt lat="45.61112" lon="6.67906">
        <ele>1634.8000488281</ele>
        <time>2019-03-27T07:03:11.000Z</time>
      </trkpt>
      <trkpt lat="45.6112" lon="6.6791">
        <ele>1635.4000244141</ele>
        <time>2019-03-27T07:03:17.000Z</time>
      </trkpt>
      <trkpt lat="45.61125" lon="6.67914">
        <ele>1635.8000488281</ele>
        <time>2019-03-27T07:03:22.000Z</time>
      </trkpt>
      <trkpt lat="45.61126" lon="6.67915">
        <ele>1636</ele>
        <time>2019-03-27T07:03:23.000Z</time>
      </trkpt>
      <trkpt lat="45.61131" lon="6.67918">
        <ele>1636.4000244141</ele>
        <time>2019-03-27T07:03:27.000Z</time>
      </trkpt>
      <trkpt lat="45.61137" lon="6.67923">
        <ele>1636.4000244141</ele>
        <time>2019-03-27T07:03:33.000Z</time>
      </trkpt>
      <trkpt lat="45.6114" lon="6.67925">
        <ele>1637</ele>
        <time>2019-03-27T07:03:37.000Z</time>
      </trkpt>
      <trkpt lat="45.61143" lon="6.67927">
        <ele>1637.4000244141</ele>
        <time>2019-03-27T07:03:39.000Z</time>
      </trkpt>
      <trkpt lat="45.61148" lon="6.67931">
        <ele>1637.1999511719</ele>
        <time>2019-03-27T07:03:44.000Z</time>
      </trkpt>
      <trkpt lat="45.61153" lon="6.67933">
        <ele>1637.5999755859</ele>
        <time>2019-03-27T07:03:49.000Z</time>
      </trkpt>
      <trkpt lat="45.61159" lon="6.67937">
        <ele>1638</ele>
        <time>2019-03-27T07:03:54.000Z</time>
      </trkpt>
      <trkpt lat="45.61161" lon="6.67939">
        <ele>1638</ele>
        <time>2019-03-27T07:03:56.000Z</time>
      </trkpt>
      <trkpt lat="45.61164" lon="6.6794">
        <ele>1638.1999511719</ele>
        <time>2019-03-27T07:03:59.000Z</time>
      </trkpt>
      <trkpt lat="45.61169" lon="6.67944">
        <ele>1638.4000244141</ele>
        <time>2019-03-27T07:04:04.000Z</time>
      </trkpt>
      <trkpt lat="45.61174" lon="6.67946">
        <ele>1638.8000488281</ele>
        <time>2019-03-27T07:04:09.000Z</time>
      </trkpt>
      <trkpt lat="45.61181" lon="6.67946">
        <ele>1639.1999511719</ele>
        <time>2019-03-27T07:04:16.000Z</time>
      </trkpt>
      <trkpt lat="45.61182" lon="6.67946">
        <ele>1639.1999511719</ele>
        <time>2019-03-27T07:04:17.000Z</time>
      </trkpt>
      <trkpt lat="45.6119" lon="6.67946">
        <ele>1639.8000488281</ele>
        <time>2019-03-27T07:04:23.000Z</time>
      </trkpt>
      <trkpt lat="45.61197" lon="6.67945">
        <ele>1640.1999511719</ele>
        <time>2019-03-27T07:04:29.000Z</time>
      </trkpt>
      <trkpt lat="45.61205" lon="6.67945">
        <ele>1640.4000244141</ele>
        <time>2019-03-27T07:04:35.000Z</time>
      </trkpt>
      <trkpt lat="45.61209" lon="6.67945">
        <ele>1640.4000244141</ele>
        <time>2019-03-27T07:04:41.000Z</time>
      </trkpt>
      <trkpt lat="45.61216" lon="6.67944">
        <ele>1641</ele>
        <time>2019-03-27T07:04:47.000Z</time>
      </trkpt>
      <trkpt lat="45.61221" lon="6.67945">
        <ele>1641.4000244141</ele>
        <time>2019-03-27T07:04:50.000Z</time>
      </trkpt>
      <trkpt lat="45.61222" lon="6.67945">
        <ele>1641.8000488281</ele>
        <time>2019-03-27T07:04:52.000Z</time>
      </trkpt>
      <trkpt lat="45.61227" lon="6.67944">
        <ele>1642.4000244141</ele>
        <time>2019-03-27T07:04:56.000Z</time>
      </trkpt>
      <trkpt lat="45.61229" lon="6.67944">
        <ele>1643.1999511719</ele>
        <time>2019-03-27T07:04:59.000Z</time>
      </trkpt>
      <trkpt lat="45.61233" lon="6.67943">
        <ele>1643.5999755859</ele>
        <time>2019-03-27T07:05:02.000Z</time>
      </trkpt>
      <trkpt lat="45.61235" lon="6.67943">
        <ele>1643.5999755859</ele>
        <time>2019-03-27T07:05:04.000Z</time>
      </trkpt>
      <trkpt lat="45.6124" lon="6.6794">
        <ele>1643.8000488281</ele>
        <time>2019-03-27T07:05:10.000Z</time>
      </trkpt>
      <trkpt lat="45.6124" lon="6.6794">
        <ele>1643.8000488281</ele>
        <time>2019-03-27T07:05:24.000Z</time>
      </trkpt>
      <trkpt lat="45.61244" lon="6.67938">
        <ele>1643.5999755859</ele>
        <time>2019-03-27T07:05:31.000Z</time>
      </trkpt>
      <trkpt lat="45.61251" lon="6.67935">
        <ele>1644.1999511719</ele>
        <time>2019-03-27T07:05:37.000Z</time>
      </trkpt>
      <trkpt lat="45.61258" lon="6.67932">
        <ele>1644.4000244141</ele>
        <time>2019-03-27T07:05:43.000Z</time>
      </trkpt>
      <trkpt lat="45.6126" lon="6.67931">
        <ele>1644.5999755859</ele>
        <time>2019-03-27T07:05:46.000Z</time>
      </trkpt>
      <trkpt lat="45.61265" lon="6.67931">
        <ele>1645</ele>
        <time>2019-03-27T07:05:50.000Z</time>
      </trkpt>
      <trkpt lat="45.61268" lon="6.67932">
        <ele>1645.1999511719</ele>
        <time>2019-03-27T07:05:52.000Z</time>
      </trkpt>
      <trkpt lat="45.6127" lon="6.67933">
        <ele>1645.5999755859</ele>
        <time>2019-03-27T07:05:54.000Z</time>
      </trkpt>
      <trkpt lat="45.61272" lon="6.67933">
        <ele>1645.5999755859</ele>
        <time>2019-03-27T07:05:55.000Z</time>
      </trkpt>
      <trkpt lat="45.61277" lon="6.67934">
        <ele>1645.8000488281</ele>
        <time>2019-03-27T07:06:00.000Z</time>
      </trkpt>
      <trkpt lat="45.61283" lon="6.67932">
        <ele>1646.5999755859</ele>
        <time>2019-03-27T07:06:06.000Z</time>
      </trkpt>
      <trkpt lat="45.61283" lon="6.67932">
        <ele>1646.8000488281</ele>
        <time>2019-03-27T07:06:07.000Z</time>
      </trkpt>
      <trkpt lat="45.61291" lon="6.67932">
        <ele>1646.8000488281</ele>
        <time>2019-03-27T07:06:14.000Z</time>
      </trkpt>
      <trkpt lat="45.61295" lon="6.67931">
        <ele>1647.8000488281</ele>
        <time>2019-03-27T07:06:18.000Z</time>
      </trkpt>
      <trkpt lat="45.61297" lon="6.67931">
        <ele>1648</ele>
        <time>2019-03-27T07:06:20.000Z</time>
      </trkpt>
      <trkpt lat="45.61305" lon="6.67927">
        <ele>1648.1999511719</ele>
        <time>2019-03-27T07:06:27.000Z</time>
      </trkpt>
      <trkpt lat="45.61307" lon="6.67927">
        <ele>1648.4000244141</ele>
        <time>2019-03-27T07:06:29.000Z</time>
      </trkpt>
      <trkpt lat="45.6131" lon="6.67925">
        <ele>1648.4000244141</ele>
        <time>2019-03-27T07:06:32.000Z</time>
      </trkpt>
      <trkpt lat="45.61314" lon="6.67924">
        <ele>1648.4000244141</ele>
        <time>2019-03-27T07:06:34.000Z</time>
      </trkpt>
      <trkpt lat="45.61317" lon="6.67923">
        <ele>1648.5999755859</ele>
        <time>2019-03-27T07:06:37.000Z</time>
      </trkpt>
      <trkpt lat="45.61318" lon="6.67923">
        <ele>1648.8000488281</ele>
        <time>2019-03-27T07:06:38.000Z</time>
      </trkpt>
      <trkpt lat="45.61323" lon="6.6792">
        <ele>1649.1999511719</ele>
        <time>2019-03-27T07:06:43.000Z</time>
      </trkpt>
      <trkpt lat="45.61329" lon="6.67918">
        <ele>1649.4000244141</ele>
        <time>2019-03-27T07:06:49.000Z</time>
      </trkpt>
      <trkpt lat="45.61336" lon="6.67918">
        <ele>1649.5999755859</ele>
        <time>2019-03-27T07:06:55.000Z</time>
      </trkpt>
      <trkpt lat="45.6134" lon="6.67919">
        <ele>1649.8000488281</ele>
        <time>2019-03-27T07:06:59.000Z</time>
      </trkpt>
      <trkpt lat="45.61342" lon="6.67919">
        <ele>1650</ele>
        <time>2019-03-27T07:07:01.000Z</time>
      </trkpt>
      <trkpt lat="45.61348" lon="6.6792">
        <ele>1650.4000244141</ele>
        <time>2019-03-27T07:07:07.000Z</time>
      </trkpt>
      <trkpt lat="45.61354" lon="6.67923">
        <ele>1650.5999755859</ele>
        <time>2019-03-27T07:07:12.000Z</time>
      </trkpt>
      <trkpt lat="45.61355" lon="6.67922">
        <ele>1650.5999755859</ele>
        <time>2019-03-27T07:07:13.000Z</time>
      </trkpt>
      <trkpt lat="45.61359" lon="6.67923">
        <ele>1651</ele>
        <time>2019-03-27T07:07:16.000Z</time>
      </trkpt>
      <trkpt lat="45.61359" lon="6.67923">
        <ele>1651.4000244141</ele>
        <time>2019-03-27T07:07:17.000Z</time>
      </trkpt>
      <trkpt lat="45.61362" lon="6.67922">
        <ele>1652</ele>
        <time>2019-03-27T07:07:20.000Z</time>
      </trkpt>
      <trkpt lat="45.61364" lon="6.67922">
        <ele>1652.1999511719</ele>
        <time>2019-03-27T07:07:22.000Z</time>
      </trkpt>
      <trkpt lat="45.6137" lon="6.67925">
        <ele>1653</ele>
        <time>2019-03-27T07:07:28.000Z</time>
      </trkpt>
      <trkpt lat="45.61376" lon="6.67927">
        <ele>1653</ele>
        <time>2019-03-27T07:07:34.000Z</time>
      </trkpt>
      <trkpt lat="45.61381" lon="6.67926">
        <ele>1653.5999755859</ele>
        <time>2019-03-27T07:07:40.000Z</time>
      </trkpt>
      <trkpt lat="45.61386" lon="6.67927">
        <ele>1654</ele>
        <time>2019-03-27T07:07:44.000Z</time>
      </trkpt>
      <trkpt lat="45.61387" lon="6.67927">
        <ele>1654</ele>
        <time>2019-03-27T07:07:45.000Z</time>
      </trkpt>
      <trkpt lat="45.61392" lon="6.67928">
        <ele>1654.4000244141</ele>
        <time>2019-03-27T07:07:50.000Z</time>
      </trkpt>
      <trkpt lat="45.614" lon="6.67931">
        <ele>1655</ele>
        <time>2019-03-27T07:07:57.000Z</time>
      </trkpt>
      <trkpt lat="45.61407" lon="6.67931">
        <ele>1656</ele>
        <time>2019-03-27T07:08:04.000Z</time>
      </trkpt>
      <trkpt lat="45.61407" lon="6.67931">
        <ele>1656.1999511719</ele>
        <time>2019-03-27T07:08:05.000Z</time>
      </trkpt>
      <trkpt lat="45.61416" lon="6.67932">
        <ele>1657</ele>
        <time>2019-03-27T07:08:12.000Z</time>
      </trkpt>
      <trkpt lat="45.61418" lon="6.67932">
        <ele>1657.1999511719</ele>
        <time>2019-03-27T07:08:13.000Z</time>
      </trkpt>
      <trkpt lat="45.61424" lon="6.67933">
        <ele>1657.4000244141</ele>
        <time>2019-03-27T07:08:19.000Z</time>
      </trkpt>
      <trkpt lat="45.61429" lon="6.67932">
        <ele>1658.1999511719</ele>
        <time>2019-03-27T07:08:25.000Z</time>
      </trkpt>
      <trkpt lat="45.6143" lon="6.67932">
        <ele>1658.1999511719</ele>
        <time>2019-03-27T07:08:26.000Z</time>
      </trkpt>
      <trkpt lat="45.61434" lon="6.67932">
        <ele>1659</ele>
        <time>2019-03-27T07:08:30.000Z</time>
      </trkpt>
      <trkpt lat="45.61439" lon="6.67931">
        <ele>1658.8000488281</ele>
        <time>2019-03-27T07:08:35.000Z</time>
      </trkpt>
      <trkpt lat="45.61445" lon="6.67932">
        <ele>1659.4000244141</ele>
        <time>2019-03-27T07:08:40.000Z</time>
      </trkpt>
      <trkpt lat="45.61452" lon="6.67934">
        <ele>1659.8000488281</ele>
        <time>2019-03-27T07:08:47.000Z</time>
      </trkpt>
      <trkpt lat="45.61458" lon="6.67933">
        <ele>1659.8000488281</ele>
        <time>2019-03-27T07:08:53.000Z</time>
      </trkpt>
      <trkpt lat="45.61465" lon="6.67932">
        <ele>1660.1999511719</ele>
        <time>2019-03-27T07:09:00.000Z</time>
      </trkpt>
      <trkpt lat="45.61467" lon="6.67932">
        <ele>1660.4000244141</ele>
        <time>2019-03-27T07:09:02.000Z</time>
      </trkpt>
      <trkpt lat="45.61473" lon="6.67932">
        <ele>1661</ele>
        <time>2019-03-27T07:09:07.000Z</time>
      </trkpt>
      <trkpt lat="45.6148" lon="6.67935">
        <ele>1661.1999511719</ele>
        <time>2019-03-27T07:09:13.000Z</time>
      </trkpt>
      <trkpt lat="45.61482" lon="6.67933">
        <ele>1661.4000244141</ele>
        <time>2019-03-27T07:09:16.000Z</time>
      </trkpt>
      <trkpt lat="45.61484" lon="6.67933">
        <ele>1661.8000488281</ele>
        <time>2019-03-27T07:09:18.000Z</time>
      </trkpt>
      <trkpt lat="45.61491" lon="6.67935">
        <ele>1661.8000488281</ele>
        <time>2019-03-27T07:09:23.000Z</time>
      </trkpt>
      <trkpt lat="45.61496" lon="6.67936">
        <ele>1662.4000244141</ele>
        <time>2019-03-27T07:09:28.000Z</time>
      </trkpt>
      <trkpt lat="45.61503" lon="6.67937">
        <ele>1662.5999755859</ele>
        <time>2019-03-27T07:09:33.000Z</time>
      </trkpt>
      <trkpt lat="45.61508" lon="6.67939">
        <ele>1662.5999755859</ele>
        <time>2019-03-27T07:09:38.000Z</time>
      </trkpt>
      <trkpt lat="45.61516" lon="6.67941">
        <ele>1663.4000244141</ele>
        <time>2019-03-27T07:09:44.000Z</time>
      </trkpt>
      <trkpt lat="45.61521" lon="6.67942">
        <ele>1663.5999755859</ele>
        <time>2019-03-27T07:09:49.000Z</time>
      </trkpt>
      <trkpt lat="45.61522" lon="6.67942">
        <ele>1663.8000488281</ele>
        <time>2019-03-27T07:09:50.000Z</time>
      </trkpt>
      <trkpt lat="45.61528" lon="6.67942">
        <ele>1664.1999511719</ele>
        <time>2019-03-27T07:09:56.000Z</time>
      </trkpt>
      <trkpt lat="45.61533" lon="6.67942">
        <ele>1664.5999755859</ele>
        <time>2019-03-27T07:10:01.000Z</time>
      </trkpt>
      <trkpt lat="45.61534" lon="6.67942">
        <ele>1664.8000488281</ele>
        <time>2019-03-27T07:10:02.000Z</time>
      </trkpt>
      <trkpt lat="45.6154" lon="6.67941">
        <ele>1665.5999755859</ele>
        <time>2019-03-27T07:10:08.000Z</time>
      </trkpt>
      <trkpt lat="45.61542" lon="6.67942">
        <ele>1665.8000488281</ele>
        <time>2019-03-27T07:10:10.000Z</time>
      </trkpt>
      <trkpt lat="45.61547" lon="6.67942">
        <ele>1666</ele>
        <time>2019-03-27T07:10:15.000Z</time>
      </trkpt>
      <trkpt lat="45.61552" lon="6.67941">
        <ele>1666.8000488281</ele>
        <time>2019-03-27T07:10:20.000Z</time>
      </trkpt>
      <trkpt lat="45.61553" lon="6.67941">
        <ele>1667</ele>
        <time>2019-03-27T07:10:21.000Z</time>
      </trkpt>
      <trkpt lat="45.6156" lon="6.67943">
        <ele>1667.1999511719</ele>
        <time>2019-03-27T07:10:27.000Z</time>
      </trkpt>
      <trkpt lat="45.61567" lon="6.67943">
        <ele>1667.8000488281</ele>
        <time>2019-03-27T07:10:34.000Z</time>
      </trkpt>
      <trkpt lat="45.61569" lon="6.67943">
        <ele>1668</ele>
        <time>2019-03-27T07:10:35.000Z</time>
      </trkpt>
      <trkpt lat="45.61572" lon="6.67943">
        <ele>1669</ele>
        <time>2019-03-27T07:10:39.000Z</time>
      </trkpt>
      <trkpt lat="45.61574" lon="6.67943">
        <ele>1669</ele>
        <time>2019-03-27T07:10:40.000Z</time>
      </trkpt>
      <trkpt lat="45.6158" lon="6.67941">
        <ele>1669</ele>
        <time>2019-03-27T07:10:46.000Z</time>
      </trkpt>
      <trkpt lat="45.61588" lon="6.67939">
        <ele>1669.5999755859</ele>
        <time>2019-03-27T07:10:53.000Z</time>
      </trkpt>
      <trkpt lat="45.61592" lon="6.67939">
        <ele>1670</ele>
        <time>2019-03-27T07:10:58.000Z</time>
      </trkpt>
      <trkpt lat="45.61595" lon="6.67939">
        <ele>1670.4000244141</ele>
        <time>2019-03-27T07:11:00.000Z</time>
      </trkpt>
      <trkpt lat="45.61599" lon="6.67938">
        <ele>1671.1999511719</ele>
        <time>2019-03-27T07:11:04.000Z</time>
      </trkpt>
      <trkpt lat="45.61601" lon="6.67937">
        <ele>1671.5999755859</ele>
        <time>2019-03-27T07:11:07.000Z</time>
      </trkpt>
      <trkpt lat="45.61605" lon="6.67938">
        <ele>1672.1999511719</ele>
        <time>2019-03-27T07:11:11.000Z</time>
      </trkpt>
      <trkpt lat="45.61607" lon="6.67939">
        <ele>1672.5999755859</ele>
        <time>2019-03-27T07:11:13.000Z</time>
      </trkpt>
      <trkpt lat="45.61611" lon="6.6794">
        <ele>1673.4000244141</ele>
        <time>2019-03-27T07:11:18.000Z</time>
      </trkpt>
      <trkpt lat="45.61614" lon="6.6794">
        <ele>1673.5999755859</ele>
        <time>2019-03-27T07:11:20.000Z</time>
      </trkpt>
      <trkpt lat="45.6162" lon="6.67942">
        <ele>1674.4000244141</ele>
        <time>2019-03-27T07:11:27.000Z</time>
      </trkpt>
      <trkpt lat="45.61625" lon="6.67941">
        <ele>1675.5999755859</ele>
        <time>2019-03-27T07:11:33.000Z</time>
      </trkpt>
      <trkpt lat="45.61626" lon="6.67942">
        <ele>1676</ele>
        <time>2019-03-27T07:11:40.000Z</time>
      </trkpt>
      <trkpt lat="45.61629" lon="6.67942">
        <ele>1676.5999755859</ele>
        <time>2019-03-27T07:11:43.000Z</time>
      </trkpt>
      <trkpt lat="45.61632" lon="6.67943">
        <ele>1677</ele>
        <time>2019-03-27T07:11:46.000Z</time>
      </trkpt>
      <trkpt lat="45.61636" lon="6.67945">
        <ele>1677.5999755859</ele>
        <time>2019-03-27T07:11:51.000Z</time>
      </trkpt>
      <trkpt lat="45.6164" lon="6.67946">
        <ele>1678.4000244141</ele>
        <time>2019-03-27T07:11:56.000Z</time>
      </trkpt>
      <trkpt lat="45.61642" lon="6.67946">
        <ele>1678.8000488281</ele>
        <time>2019-03-27T07:11:58.000Z</time>
      </trkpt>
      <trkpt lat="45.61644" lon="6.67946">
        <ele>1679</ele>
        <time>2019-03-27T07:12:01.000Z</time>
      </trkpt>
      <trkpt lat="45.61647" lon="6.67946">
        <ele>1680</ele>
        <time>2019-03-27T07:12:06.000Z</time>
      </trkpt>
      <trkpt lat="45.61652" lon="6.67949">
        <ele>1680.4000244141</ele>
        <time>2019-03-27T07:12:10.000Z</time>
      </trkpt>
      <trkpt lat="45.61653" lon="6.67949">
        <ele>1680.5999755859</ele>
        <time>2019-03-27T07:12:11.000Z</time>
      </trkpt>
      <trkpt lat="45.61654" lon="6.6795">
        <ele>1681.1999511719</ele>
        <time>2019-03-27T07:12:14.000Z</time>
      </trkpt>
      <trkpt lat="45.61657" lon="6.67951">
        <ele>1681.5999755859</ele>
        <time>2019-03-27T07:12:17.000Z</time>
      </trkpt>
      <trkpt lat="45.61661" lon="6.67952">
        <ele>1682.1999511719</ele>
        <time>2019-03-27T07:12:21.000Z</time>
      </trkpt>
      <trkpt lat="45.61661" lon="6.67952">
        <ele>1682.1999511719</ele>
        <time>2019-03-27T07:12:22.000Z</time>
      </trkpt>
      <trkpt lat="45.61664" lon="6.67954">
        <ele>1682.8000488281</ele>
        <time>2019-03-27T07:12:26.000Z</time>
      </trkpt>
      <trkpt lat="45.61665" lon="6.67955">
        <ele>1682.8000488281</ele>
        <time>2019-03-27T07:12:27.000Z</time>
      </trkpt>
      <trkpt lat="45.61665" lon="6.67957">
        <ele>1683</ele>
        <time>2019-03-27T07:12:29.000Z</time>
      </trkpt>
      <trkpt lat="45.61665" lon="6.67961">
        <ele>1683.4000244141</ele>
        <time>2019-03-27T07:12:32.000Z</time>
      </trkpt>
      <trkpt lat="45.61664" lon="6.67963">
        <ele>1684.5999755859</ele>
        <time>2019-03-27T07:12:36.000Z</time>
      </trkpt>
      <trkpt lat="45.61664" lon="6.67964">
        <ele>1684.8000488281</ele>
        <time>2019-03-27T07:12:37.000Z</time>
      </trkpt>
      <trkpt lat="45.61664" lon="6.67968">
        <ele>1685.8000488281</ele>
        <time>2019-03-27T07:12:41.000Z</time>
      </trkpt>
      <trkpt lat="45.61665" lon="6.67969">
        <ele>1686.1999511719</ele>
        <time>2019-03-27T07:12:42.000Z</time>
      </trkpt>
      <trkpt lat="45.61666" lon="6.6797">
        <ele>1686.4000244141</ele>
        <time>2019-03-27T07:12:43.000Z</time>
      </trkpt>
      <trkpt lat="45.61667" lon="6.67972">
        <ele>1686.8000488281</ele>
        <time>2019-03-27T07:12:45.000Z</time>
      </trkpt>
      <trkpt lat="45.61668" lon="6.67973">
        <ele>1687.1999511719</ele>
        <time>2019-03-27T07:12:46.000Z</time>
      </trkpt>
      <trkpt lat="45.6167" lon="6.67974">
        <ele>1688</ele>
        <time>2019-03-27T07:12:49.000Z</time>
      </trkpt>
      <trkpt lat="45.61672" lon="6.67974">
        <ele>1688.5999755859</ele>
        <time>2019-03-27T07:12:51.000Z</time>
      </trkpt>
      <trkpt lat="45.61673" lon="6.67974">
        <ele>1688.8000488281</ele>
        <time>2019-03-27T07:12:52.000Z</time>
      </trkpt>
      <trkpt lat="45.61674" lon="6.67974">
        <ele>1689.1999511719</ele>
        <time>2019-03-27T07:12:53.000Z</time>
      </trkpt>
      <trkpt lat="45.61677" lon="6.67973">
        <ele>1690.1999511719</ele>
        <time>2019-03-27T07:12:57.000Z</time>
      </trkpt>
      <trkpt lat="45.61678" lon="6.67973">
        <ele>1690.4000244141</ele>
        <time>2019-03-27T07:12:58.000Z</time>
      </trkpt>
      <trkpt lat="45.61681" lon="6.6797">
        <ele>1691</ele>
        <time>2019-03-27T07:13:04.000Z</time>
      </trkpt>
      <trkpt lat="45.61682" lon="6.67968">
        <ele>1691.4000244141</ele>
        <time>2019-03-27T07:13:05.000Z</time>
      </trkpt>
      <trkpt lat="45.61684" lon="6.67966">
        <ele>1692.5999755859</ele>
        <time>2019-03-27T07:13:09.000Z</time>
      </trkpt>
      <trkpt lat="45.61685" lon="6.67965">
        <ele>1692.5999755859</ele>
        <time>2019-03-27T07:13:10.000Z</time>
      </trkpt>
      <trkpt lat="45.61686" lon="6.67958">
        <ele>1693.4000244141</ele>
        <time>2019-03-27T07:13:16.000Z</time>
      </trkpt>
      <trkpt lat="45.61687" lon="6.67953">
        <ele>1693.1999511719</ele>
        <time>2019-03-27T07:13:22.000Z</time>
      </trkpt>
      <trkpt lat="45.61689" lon="6.67951">
        <ele>1693.5999755859</ele>
        <time>2019-03-27T07:13:25.000Z</time>
      </trkpt>
      <trkpt lat="45.6169" lon="6.67949">
        <ele>1693.5999755859</ele>
        <time>2019-03-27T07:13:28.000Z</time>
      </trkpt>
      <trkpt lat="45.61693" lon="6.67943">
        <ele>1694</ele>
        <time>2019-03-27T07:13:34.000Z</time>
      </trkpt>
      <trkpt lat="45.61696" lon="6.67941">
        <ele>1694.5999755859</ele>
        <time>2019-03-27T07:13:38.000Z</time>
      </trkpt>
      <trkpt lat="45.617" lon="6.67939">
        <ele>1695</ele>
        <time>2019-03-27T07:13:41.000Z</time>
      </trkpt>
      <trkpt lat="45.61702" lon="6.67937">
        <ele>1695.5999755859</ele>
        <time>2019-03-27T07:13:44.000Z</time>
      </trkpt>
      <trkpt lat="45.61705" lon="6.67934">
        <ele>1696.1999511719</ele>
        <time>2019-03-27T07:13:48.000Z</time>
      </trkpt>
      <trkpt lat="45.61708" lon="6.67932">
        <ele>1696.5999755859</ele>
        <time>2019-03-27T07:13:52.000Z</time>
      </trkpt>
      <trkpt lat="45.61709" lon="6.6793">
        <ele>1697.1999511719</ele>
        <time>2019-03-27T07:13:55.000Z</time>
      </trkpt>
      <trkpt lat="45.61711" lon="6.67929">
        <ele>1697.5999755859</ele>
        <time>2019-03-27T07:13:58.000Z</time>
      </trkpt>
      <trkpt lat="45.61713" lon="6.67927">
        <ele>1698</ele>
        <time>2019-03-27T07:14:01.000Z</time>
      </trkpt>
      <trkpt lat="45.61716" lon="6.67921">
        <ele>1699</ele>
        <time>2019-03-27T07:14:07.000Z</time>
      </trkpt>
      <trkpt lat="45.61716" lon="6.6792">
        <ele>1699</ele>
        <time>2019-03-27T07:14:08.000Z</time>
      </trkpt>
      <trkpt lat="45.61717" lon="6.67919">
        <ele>1699.1999511719</ele>
        <time>2019-03-27T07:14:14.000Z</time>
      </trkpt>
      <trkpt lat="45.61717" lon="6.67919">
        <ele>1699.1999511719</ele>
        <time>2019-03-27T07:14:22.000Z</time>
      </trkpt>
      <trkpt lat="45.61717" lon="6.6792">
        <ele>1699.8000488281</ele>
        <time>2019-03-27T07:14:33.000Z</time>
      </trkpt>
      <trkpt lat="45.61717" lon="6.6792">
        <ele>1700</ele>
        <time>2019-03-27T07:14:34.000Z</time>
      </trkpt>
      <trkpt lat="45.61717" lon="6.6792">
        <ele>1698.1999511719</ele>
        <time>2019-03-27T07:14:38.000Z</time>
      </trkpt>
      <trkpt lat="45.61717" lon="6.6792">
        <ele>1697.1999511719</ele>
        <time>2019-03-27T07:14:40.000Z</time>
      </trkpt>
      <trkpt lat="45.61717" lon="6.6792">
        <ele>1697.1999511719</ele>
        <time>2019-03-27T07:14:42.000Z</time>
      </trkpt>
      <trkpt lat="45.61717" lon="6.6792">
        <ele>1698.1999511719</ele>
        <time>2019-03-27T07:14:46.000Z</time>
      </trkpt>
      <trkpt lat="45.61717" lon="6.6792">
        <ele>1699.4000244141</ele>
        <time>2019-03-27T07:14:51.000Z</time>
      </trkpt>
      <trkpt lat="45.61717" lon="6.6792">
        <ele>1699.1999511719</ele>
        <time>2019-03-27T07:14:54.000Z</time>
      </trkpt>
      <trkpt lat="45.61717" lon="6.6792">
        <ele>1698.5999755859</ele>
        <time>2019-03-27T07:15:14.000Z</time>
      </trkpt>
      <trkpt lat="45.61718" lon="6.67918">
        <ele>1700.4000244141</ele>
        <time>2019-03-27T07:15:27.000Z</time>
      </trkpt>
      <trkpt lat="45.61719" lon="6.67917">
        <ele>1699.8000488281</ele>
        <time>2019-03-27T07:15:36.000Z</time>
      </trkpt>
      <trkpt lat="45.61719" lon="6.67917">
        <ele>1699.8000488281</ele>
        <time>2019-03-27T07:15:56.000Z</time>
      </trkpt>
      <trkpt lat="45.61718" lon="6.67918">
        <ele>1699.8000488281</ele>
        <time>2019-03-27T07:16:01.000Z</time>
      </trkpt>
      <trkpt lat="45.61718" lon="6.67918">
        <ele>1699.5999755859</ele>
        <time>2019-03-27T07:16:09.000Z</time>
      </trkpt>
      <trkpt lat="45.61718" lon="6.67918">
        <ele>1699.5999755859</ele>
        <time>2019-03-27T07:16:20.000Z</time>
      </trkpt>
      <trkpt lat="45.61718" lon="6.67918">
        <ele>1699.4000244141</ele>
        <time>2019-03-27T07:16:28.000Z</time>
      </trkpt>
      <trkpt lat="45.61718" lon="6.67918">
        <ele>1698.8000488281</ele>
        <time>2019-03-27T07:16:31.000Z</time>
      </trkpt>
      <trkpt lat="45.61718" lon="6.67918">
        <ele>1699.8000488281</ele>
        <time>2019-03-27T07:16:52.000Z</time>
      </trkpt>
      <trkpt lat="45.61718" lon="6.67918">
        <ele>1700</ele>
        <time>2019-03-27T07:17:07.000Z</time>
      </trkpt>
      <trkpt lat="45.61718" lon="6.67918">
        <ele>1699.8000488281</ele>
        <time>2019-03-27T07:17:23.000Z</time>
      </trkpt>
      <trkpt lat="45.61718" lon="6.67918">
        <ele>1699.8000488281</ele>
        <time>2019-03-27T07:17:39.000Z</time>
      </trkpt>
      <trkpt lat="45.61718" lon="6.67918">
        <ele>1700</ele>
        <time>2019-03-27T07:17:55.000Z</time>
      </trkpt>
      <trkpt lat="45.61718" lon="6.67917">
        <ele>1700</ele>
        <time>2019-03-27T07:18:08.000Z</time>
      </trkpt>
      <trkpt lat="45.61718" lon="6.67917">
        <ele>1700.4000244141</ele>
        <time>2019-03-27T07:18:09.000Z</time>
      </trkpt>
      <trkpt lat="45.61718" lon="6.67917">
        <ele>1700</ele>
        <time>2019-03-27T07:18:21.000Z</time>
      </trkpt>
      <trkpt lat="45.61718" lon="6.67917">
        <ele>1699.8000488281</ele>
        <time>2019-03-27T07:18:41.000Z</time>
      </trkpt>
      <trkpt lat="45.61718" lon="6.67918">
        <ele>1700</ele>
        <time>2019-03-27T07:18:58.000Z</time>
      </trkpt>
      <trkpt lat="45.61718" lon="6.67918">
        <ele>1699.8000488281</ele>
        <time>2019-03-27T07:19:23.000Z</time>
      </trkpt>
      <trkpt lat="45.61718" lon="6.67917">
        <ele>1699.8000488281</ele>
        <time>2019-03-27T07:19:42.000Z</time>
      </trkpt>
      <trkpt lat="45.61718" lon="6.67917">
        <ele>1699.8000488281</ele>
        <time>2019-03-27T07:19:56.000Z</time>
      </trkpt>
      <trkpt lat="45.61718" lon="6.67918">
        <ele>1699.8000488281</ele>
        <time>2019-03-27T07:20:08.000Z</time>
      </trkpt>
      <trkpt lat="45.61721" lon="6.67919">
        <ele>1699.8000488281</ele>
        <time>2019-03-27T07:20:13.000Z</time>
      </trkpt>
      <trkpt lat="45.61725" lon="6.6792">
        <ele>1701</ele>
        <time>2019-03-27T07:20:19.000Z</time>
      </trkpt>
      <trkpt lat="45.61726" lon="6.6792">
        <ele>1701.5999755859</ele>
        <time>2019-03-27T07:20:21.000Z</time>
      </trkpt>
      <trkpt lat="45.61729" lon="6.67921">
        <ele>1702.8000488281</ele>
        <time>2019-03-27T07:20:25.000Z</time>
      </trkpt>
      <trkpt lat="45.61732" lon="6.67926">
        <ele>1704</ele>
        <time>2019-03-27T07:20:30.000Z</time>
      </trkpt>
      <trkpt lat="45.61732" lon="6.67927">
        <ele>1705.1999511719</ele>
        <time>2019-03-27T07:20:32.000Z</time>
      </trkpt>
      <trkpt lat="45.61732" lon="6.67931">
        <ele>1706</ele>
        <time>2019-03-27T07:20:35.000Z</time>
      </trkpt>
      <trkpt lat="45.61731" lon="6.67932">
        <ele>1706.4000244141</ele>
        <time>2019-03-27T07:20:37.000Z</time>
      </trkpt>
      <trkpt lat="45.6173" lon="6.67936">
        <ele>1706.8000488281</ele>
        <time>2019-03-27T07:20:40.000Z</time>
      </trkpt>
      <trkpt lat="45.61729" lon="6.6794">
        <ele>1707.5999755859</ele>
        <time>2019-03-27T07:20:43.000Z</time>
      </trkpt>
      <trkpt lat="45.61729" lon="6.67943">
        <ele>1708</ele>
        <time>2019-03-27T07:20:46.000Z</time>
      </trkpt>
      <trkpt lat="45.61729" lon="6.67945">
        <ele>1708.5999755859</ele>
        <time>2019-03-27T07:20:50.000Z</time>
      </trkpt>
      <trkpt lat="45.6173" lon="6.67946">
        <ele>1708.8000488281</ele>
        <time>2019-03-27T07:20:51.000Z</time>
      </trkpt>
      <trkpt lat="45.6173" lon="6.67948">
        <ele>1710</ele>
        <time>2019-03-27T07:20:55.000Z</time>
      </trkpt>
      <trkpt lat="45.6173" lon="6.67948">
        <ele>1710.1999511719</ele>
        <time>2019-03-27T07:20:56.000Z</time>
      </trkpt>
      <trkpt lat="45.61731" lon="6.6795">
        <ele>1711</ele>
        <time>2019-03-27T07:21:02.000Z</time>
      </trkpt>
      <trkpt lat="45.61731" lon="6.67951">
        <ele>1711</ele>
        <time>2019-03-27T07:21:03.000Z</time>
      </trkpt>
      <trkpt lat="45.61731" lon="6.67952">
        <ele>1712.4000244141</ele>
        <time>2019-03-27T07:21:07.000Z</time>
      </trkpt>
      <trkpt lat="45.61731" lon="6.67953">
        <ele>1712.5999755859</ele>
        <time>2019-03-27T07:21:08.000Z</time>
      </trkpt>
      <trkpt lat="45.6173" lon="6.67958">
        <ele>1713.4000244141</ele>
        <time>2019-03-27T07:21:13.000Z</time>
      </trkpt>
      <trkpt lat="45.6173" lon="6.67958">
        <ele>1714</ele>
        <time>2019-03-27T07:21:14.000Z</time>
      </trkpt>
      <trkpt lat="45.6173" lon="6.67959">
        <ele>1714.4000244141</ele>
        <time>2019-03-27T07:21:17.000Z</time>
      </trkpt>
      <trkpt lat="45.6173" lon="6.67962">
        <ele>1715.4000244141</ele>
        <time>2019-03-27T07:21:20.000Z</time>
      </trkpt>
      <trkpt lat="45.6173" lon="6.67963">
        <ele>1715.5999755859</ele>
        <time>2019-03-27T07:21:21.000Z</time>
      </trkpt>
      <trkpt lat="45.6173" lon="6.67966">
        <ele>1716.4000244141</ele>
        <time>2019-03-27T07:21:25.000Z</time>
      </trkpt>
      <trkpt lat="45.6173" lon="6.67968">
        <ele>1716.8000488281</ele>
        <time>2019-03-27T07:21:27.000Z</time>
      </trkpt>
      <trkpt lat="45.61733" lon="6.67971">
        <ele>1718</ele>
        <time>2019-03-27T07:21:31.000Z</time>
      </trkpt>
      <trkpt lat="45.61734" lon="6.67972">
        <ele>1719.1999511719</ele>
        <time>2019-03-27T07:21:34.000Z</time>
      </trkpt>
      <trkpt lat="45.61734" lon="6.67972">
        <ele>1719.4000244141</ele>
        <time>2019-03-27T07:21:35.000Z</time>
      </trkpt>
      <trkpt lat="45.61738" lon="6.67971">
        <ele>1719.8000488281</ele>
        <time>2019-03-27T07:21:40.000Z</time>
      </trkpt>
      <trkpt lat="45.61738" lon="6.67971">
        <ele>1719.5999755859</ele>
        <time>2019-03-27T07:21:41.000Z</time>
      </trkpt>
      <trkpt lat="45.6174" lon="6.67971">
        <ele>1720.4000244141</ele>
        <time>2019-03-27T07:21:45.000Z</time>
      </trkpt>
      <trkpt lat="45.61741" lon="6.67971">
        <ele>1720.4000244141</ele>
        <time>2019-03-27T07:21:46.000Z</time>
      </trkpt>
      <trkpt lat="45.61742" lon="6.6797">
        <ele>1721.5999755859</ele>
        <time>2019-03-27T07:21:51.000Z</time>
      </trkpt>
      <trkpt lat="45.61746" lon="6.67967">
        <ele>1722.4000244141</ele>
        <time>2019-03-27T07:21:58.000Z</time>
      </trkpt>
      <trkpt lat="45.61747" lon="6.67965">
        <ele>1722.8000488281</ele>
        <time>2019-03-27T07:21:59.000Z</time>
      </trkpt>
      <trkpt lat="45.61748" lon="6.67965">
        <ele>1723</ele>
        <time>2019-03-27T07:22:01.000Z</time>
      </trkpt>
      <trkpt lat="45.61749" lon="6.67964">
        <ele>1723.1999511719</ele>
        <time>2019-03-27T07:22:03.000Z</time>
      </trkpt>
      <trkpt lat="45.61751" lon="6.67964">
        <ele>1723.8000488281</ele>
        <time>2019-03-27T07:22:06.000Z</time>
      </trkpt>
      <trkpt lat="45.61752" lon="6.67964">
        <ele>1724.4000244141</ele>
        <time>2019-03-27T07:22:09.000Z</time>
      </trkpt>
      <trkpt lat="45.61754" lon="6.67964">
        <ele>1725</ele>
        <time>2019-03-27T07:22:13.000Z</time>
      </trkpt>
      <trkpt lat="45.61755" lon="6.67965">
        <ele>1725.8000488281</ele>
        <time>2019-03-27T07:22:18.000Z</time>
      </trkpt>
      <trkpt lat="45.61755" lon="6.67966">
        <ele>1726.1999511719</ele>
        <time>2019-03-27T07:22:19.000Z</time>
      </trkpt>
      <trkpt lat="45.61756" lon="6.67969">
        <ele>1727.5999755859</ele>
        <time>2019-03-27T07:22:23.000Z</time>
      </trkpt>
      <trkpt lat="45.61755" lon="6.6797">
        <ele>1727.5999755859</ele>
        <time>2019-03-27T07:22:24.000Z</time>
      </trkpt>
      <trkpt lat="45.61756" lon="6.67974">
        <ele>1728.5999755859</ele>
        <time>2019-03-27T07:22:29.000Z</time>
      </trkpt>
      <trkpt lat="45.61756" lon="6.67977">
        <ele>1729.5999755859</ele>
        <time>2019-03-27T07:22:33.000Z</time>
      </trkpt>
      <trkpt lat="45.61755" lon="6.67981">
        <ele>1730.4000244141</ele>
        <time>2019-03-27T07:22:38.000Z</time>
      </trkpt>
      <trkpt lat="45.61755" lon="6.67981">
        <ele>1730.8000488281</ele>
        <time>2019-03-27T07:22:39.000Z</time>
      </trkpt>
      <trkpt lat="45.61755" lon="6.67985">
        <ele>1731.8000488281</ele>
        <time>2019-03-27T07:22:43.000Z</time>
      </trkpt>
      <trkpt lat="45.61755" lon="6.67989">
        <ele>1732.5999755859</ele>
        <time>2019-03-27T07:22:49.000Z</time>
      </trkpt>
      <trkpt lat="45.61755" lon="6.67989">
        <ele>1733</ele>
        <time>2019-03-27T07:22:51.000Z</time>
      </trkpt>
      <trkpt lat="45.61755" lon="6.6799">
        <ele>1734</ele>
        <time>2019-03-27T07:22:55.000Z</time>
      </trkpt>
      <trkpt lat="45.61755" lon="6.67991">
        <ele>1734.1999511719</ele>
        <time>2019-03-27T07:22:56.000Z</time>
      </trkpt>
      <trkpt lat="45.61755" lon="6.67995">
        <ele>1734.5999755859</ele>
        <time>2019-03-27T07:23:01.000Z</time>
      </trkpt>
      <trkpt lat="45.61755" lon="6.67997">
        <ele>1735.4000244141</ele>
        <time>2019-03-27T07:23:04.000Z</time>
      </trkpt>
      <trkpt lat="45.61754" lon="6.67999">
        <ele>1736.1999511719</ele>
        <time>2019-03-27T07:23:07.000Z</time>
      </trkpt>
      <trkpt lat="45.61754" lon="6.67999">
        <ele>1736.5999755859</ele>
        <time>2019-03-27T07:23:08.000Z</time>
      </trkpt>
      <trkpt lat="45.61754" lon="6.68001">
        <ele>1738</ele>
        <time>2019-03-27T07:23:12.000Z</time>
      </trkpt>
      <trkpt lat="45.61753" lon="6.68002">
        <ele>1738.1999511719</ele>
        <time>2019-03-27T07:23:13.000Z</time>
      </trkpt>
      <trkpt lat="45.61753" lon="6.68005">
        <ele>1739</ele>
        <time>2019-03-27T07:23:17.000Z</time>
      </trkpt>
      <trkpt lat="45.61754" lon="6.68007">
        <ele>1739.4000244141</ele>
        <time>2019-03-27T07:23:19.000Z</time>
      </trkpt>
      <trkpt lat="45.61755" lon="6.68008">
        <ele>1740.1999511719</ele>
        <time>2019-03-27T07:23:22.000Z</time>
      </trkpt>
      <trkpt lat="45.61758" lon="6.68008">
        <ele>1740.8000488281</ele>
        <time>2019-03-27T07:23:25.000Z</time>
      </trkpt>
      <trkpt lat="45.61759" lon="6.68008">
        <ele>1741.1999511719</ele>
        <time>2019-03-27T07:23:27.000Z</time>
      </trkpt>
      <trkpt lat="45.61761" lon="6.68009">
        <ele>1741.8000488281</ele>
        <time>2019-03-27T07:23:31.000Z</time>
      </trkpt>
      <trkpt lat="45.61764" lon="6.68009">
        <ele>1742.4000244141</ele>
        <time>2019-03-27T07:23:34.000Z</time>
      </trkpt>
      <trkpt lat="45.61764" lon="6.68008">
        <ele>1742.5999755859</ele>
        <time>2019-03-27T07:23:36.000Z</time>
      </trkpt>
      <trkpt lat="45.61768" lon="6.68008">
        <ele>1743.1999511719</ele>
        <time>2019-03-27T07:23:42.000Z</time>
      </trkpt>
      <trkpt lat="45.61768" lon="6.68008">
        <ele>1743.5999755859</ele>
        <time>2019-03-27T07:23:43.000Z</time>
      </trkpt>
      <trkpt lat="45.61769" lon="6.68008">
        <ele>1744.4000244141</ele>
        <time>2019-03-27T07:23:47.000Z</time>
      </trkpt>
      <trkpt lat="45.6177" lon="6.68008">
        <ele>1744.8000488281</ele>
        <time>2019-03-27T07:23:48.000Z</time>
      </trkpt>
      <trkpt lat="45.61773" lon="6.68009">
        <ele>1745.1999511719</ele>
        <time>2019-03-27T07:23:53.000Z</time>
      </trkpt>
      <trkpt lat="45.61774" lon="6.68009">
        <ele>1745.8000488281</ele>
        <time>2019-03-27T07:23:56.000Z</time>
      </trkpt>
      <trkpt lat="45.61774" lon="6.68009">
        <ele>1746.1999511719</ele>
        <time>2019-03-27T07:23:58.000Z</time>
      </trkpt>
      <trkpt lat="45.61774" lon="6.68011">
        <ele>1747</ele>
        <time>2019-03-27T07:24:01.000Z</time>
      </trkpt>
      <trkpt lat="45.61773" lon="6.68013">
        <ele>1747.5999755859</ele>
        <time>2019-03-27T07:24:03.000Z</time>
      </trkpt>
      <trkpt lat="45.61773" lon="6.68016">
        <ele>1748</ele>
        <time>2019-03-27T07:24:06.000Z</time>
      </trkpt>
      <trkpt lat="45.61772" lon="6.68017">
        <ele>1748.5999755859</ele>
        <time>2019-03-27T07:24:09.000Z</time>
      </trkpt>
      <trkpt lat="45.61772" lon="6.6802">
        <ele>1749.1999511719</ele>
        <time>2019-03-27T07:24:12.000Z</time>
      </trkpt>
      <trkpt lat="45.61771" lon="6.68023">
        <ele>1749.8000488281</ele>
        <time>2019-03-27T07:24:15.000Z</time>
      </trkpt>
      <trkpt lat="45.6177" lon="6.68026">
        <ele>1750.4000244141</ele>
        <time>2019-03-27T07:24:18.000Z</time>
      </trkpt>
      <trkpt lat="45.61769" lon="6.68029">
        <ele>1751.1999511719</ele>
        <time>2019-03-27T07:24:23.000Z</time>
      </trkpt>
      <trkpt lat="45.61769" lon="6.6803">
        <ele>1751.5999755859</ele>
        <time>2019-03-27T07:24:24.000Z</time>
      </trkpt>
      <trkpt lat="45.61767" lon="6.68034">
        <ele>1752.5999755859</ele>
        <time>2019-03-27T07:24:30.000Z</time>
      </trkpt>
      <trkpt lat="45.61767" lon="6.68034">
        <ele>1752.5999755859</ele>
        <time>2019-03-27T07:24:31.000Z</time>
      </trkpt>
      <trkpt lat="45.61766" lon="6.68037">
        <ele>1753.8000488281</ele>
        <time>2019-03-27T07:24:35.000Z</time>
      </trkpt>
      <trkpt lat="45.61766" lon="6.68038">
        <ele>1754.1999511719</ele>
        <time>2019-03-27T07:24:38.000Z</time>
      </trkpt>
      <trkpt lat="45.61767" lon="6.6804">
        <ele>1754.8000488281</ele>
        <time>2019-03-27T07:24:41.000Z</time>
      </trkpt>
      <trkpt lat="45.61769" lon="6.6804">
        <ele>1754.8000488281</ele>
        <time>2019-03-27T07:24:42.000Z</time>
      </trkpt>
      <trkpt lat="45.6177" lon="6.68041">
        <ele>1755.1999511719</ele>
        <time>2019-03-27T07:24:44.000Z</time>
      </trkpt>
      <trkpt lat="45.61772" lon="6.68042">
        <ele>1755.5999755859</ele>
        <time>2019-03-27T07:24:48.000Z</time>
      </trkpt>
      <trkpt lat="45.61774" lon="6.68042">
        <ele>1756</ele>
        <time>2019-03-27T07:24:51.000Z</time>
      </trkpt>
      <trkpt lat="45.61777" lon="6.68043">
        <ele>1756.4000244141</ele>
        <time>2019-03-27T07:24:55.000Z</time>
      </trkpt>
      <trkpt lat="45.61778" lon="6.68043">
        <ele>1757.1999511719</ele>
        <time>2019-03-27T07:24:58.000Z</time>
      </trkpt>
      <trkpt lat="45.6178" lon="6.68043">
        <ele>1757.5999755859</ele>
        <time>2019-03-27T07:25:00.000Z</time>
      </trkpt>
      <trkpt lat="45.61782" lon="6.68043">
        <ele>1758.1999511719</ele>
        <time>2019-03-27T07:25:03.000Z</time>
      </trkpt>
      <trkpt lat="45.61784" lon="6.68043">
        <ele>1758.5999755859</ele>
        <time>2019-03-27T07:25:05.000Z</time>
      </trkpt>
      <trkpt lat="45.61786" lon="6.68043">
        <ele>1759.1999511719</ele>
        <time>2019-03-27T07:25:10.000Z</time>
      </trkpt>
      <trkpt lat="45.61787" lon="6.68043">
        <ele>1759.4000244141</ele>
        <time>2019-03-27T07:25:11.000Z</time>
      </trkpt>
      <trkpt lat="45.61791" lon="6.68043">
        <ele>1760.5999755859</ele>
        <time>2019-03-27T07:25:17.000Z</time>
      </trkpt>
      <trkpt lat="45.61792" lon="6.68041">
        <ele>1761.8000488281</ele>
        <time>2019-03-27T07:25:20.000Z</time>
      </trkpt>
      <trkpt lat="45.61793" lon="6.68039">
        <ele>1762.4000244141</ele>
        <time>2019-03-27T07:25:22.000Z</time>
      </trkpt>
      <trkpt lat="45.61796" lon="6.68036">
        <ele>1762.8000488281</ele>
        <time>2019-03-27T07:25:27.000Z</time>
      </trkpt>
      <trkpt lat="45.61796" lon="6.68036">
        <ele>1762.8000488281</ele>
        <time>2019-03-27T07:25:28.000Z</time>
      </trkpt>
      <trkpt lat="45.61801" lon="6.68032">
        <ele>1764.1999511719</ele>
        <time>2019-03-27T07:25:35.000Z</time>
      </trkpt>
      <trkpt lat="45.61802" lon="6.68033">
        <ele>1764.4000244141</ele>
        <time>2019-03-27T07:25:36.000Z</time>
      </trkpt>
      <trkpt lat="45.61805" lon="6.68032">
        <ele>1765.1999511719</ele>
        <time>2019-03-27T07:25:40.000Z</time>
      </trkpt>
      <trkpt lat="45.61806" lon="6.68031">
        <ele>1765.5999755859</ele>
        <time>2019-03-27T07:25:42.000Z</time>
      </trkpt>
      <trkpt lat="45.61808" lon="6.68029">
        <ele>1766.1999511719</ele>
        <time>2019-03-27T07:25:45.000Z</time>
      </trkpt>
      <trkpt lat="45.61811" lon="6.68028">
        <ele>1767</ele>
        <time>2019-03-27T07:25:49.000Z</time>
      </trkpt>
      <trkpt lat="45.61812" lon="6.68027">
        <ele>1767.4000244141</ele>
        <time>2019-03-27T07:25:51.000Z</time>
      </trkpt>
      <trkpt lat="45.61815" lon="6.68027">
        <ele>1768.1999511719</ele>
        <time>2019-03-27T07:25:55.000Z</time>
      </trkpt>
      <trkpt lat="45.61816" lon="6.68026">
        <ele>1768.5999755859</ele>
        <time>2019-03-27T07:25:57.000Z</time>
      </trkpt>
      <trkpt lat="45.61818" lon="6.68026">
        <ele>1769.4000244141</ele>
        <time>2019-03-27T07:26:01.000Z</time>
      </trkpt>
      <trkpt lat="45.6182" lon="6.68028">
        <ele>1769.8000488281</ele>
        <time>2019-03-27T07:26:05.000Z</time>
      </trkpt>
      <trkpt lat="45.6182" lon="6.68028">
        <ele>1770</ele>
        <time>2019-03-27T07:26:06.000Z</time>
      </trkpt>
      <trkpt lat="45.61822" lon="6.68031">
        <ele>1771.1999511719</ele>
        <time>2019-03-27T07:26:09.000Z</time>
      </trkpt>
      <trkpt lat="45.61822" lon="6.68031">
        <ele>1771.4000244141</ele>
        <time>2019-03-27T07:26:12.000Z</time>
      </trkpt>
      <trkpt lat="45.61822" lon="6.68032">
        <ele>1772.4000244141</ele>
        <time>2019-03-27T07:26:15.000Z</time>
      </trkpt>
      <trkpt lat="45.61823" lon="6.68033">
        <ele>1772.4000244141</ele>
        <time>2019-03-27T07:26:18.000Z</time>
      </trkpt>
      <trkpt lat="45.61825" lon="6.68036">
        <ele>1773.5999755859</ele>
        <time>2019-03-27T07:26:22.000Z</time>
      </trkpt>
      <trkpt lat="45.61826" lon="6.68039">
        <ele>1774.5999755859</ele>
        <time>2019-03-27T07:26:25.000Z</time>
      </trkpt>
      <trkpt lat="45.61827" lon="6.68045">
        <ele>1775.8000488281</ele>
        <time>2019-03-27T07:26:32.000Z</time>
      </trkpt>
      <trkpt lat="45.61827" lon="6.68048">
        <ele>1776.4000244141</ele>
        <time>2019-03-27T07:26:37.000Z</time>
      </trkpt>
      <trkpt lat="45.61827" lon="6.6805">
        <ele>1776.8000488281</ele>
        <time>2019-03-27T07:26:40.000Z</time>
      </trkpt>
      <trkpt lat="45.61827" lon="6.68052">
        <ele>1777.4000244141</ele>
        <time>2019-03-27T07:26:43.000Z</time>
      </trkpt>
      <trkpt lat="45.61826" lon="6.68054">
        <ele>1778</ele>
        <time>2019-03-27T07:26:45.000Z</time>
      </trkpt>
      <trkpt lat="45.61827" lon="6.6806">
        <ele>1778.8000488281</ele>
        <time>2019-03-27T07:26:49.000Z</time>
      </trkpt>
      <trkpt lat="45.61827" lon="6.68061">
        <ele>1779</ele>
        <time>2019-03-27T07:26:50.000Z</time>
      </trkpt>
      <trkpt lat="45.61828" lon="6.68067">
        <ele>1779.4000244141</ele>
        <time>2019-03-27T07:26:55.000Z</time>
      </trkpt>
      <trkpt lat="45.6183" lon="6.68069">
        <ele>1780.1999511719</ele>
        <time>2019-03-27T07:26:57.000Z</time>
      </trkpt>
      <trkpt lat="45.6183" lon="6.68074">
        <ele>1781</ele>
        <time>2019-03-27T07:27:02.000Z</time>
      </trkpt>
      <trkpt lat="45.6183" lon="6.68075">
        <ele>1781.1999511719</ele>
        <time>2019-03-27T07:27:04.000Z</time>
      </trkpt>
      <trkpt lat="45.61831" lon="6.68078">
        <ele>1781.5999755859</ele>
        <time>2019-03-27T07:27:07.000Z</time>
      </trkpt>
      <trkpt lat="45.61832" lon="6.68081">
        <ele>1782.1999511719</ele>
        <time>2019-03-27T07:27:10.000Z</time>
      </trkpt>
      <trkpt lat="45.61833" lon="6.68084">
        <ele>1783.1999511719</ele>
        <time>2019-03-27T07:27:14.000Z</time>
      </trkpt>
      <trkpt lat="45.61834" lon="6.68084">
        <ele>1783.4000244141</ele>
        <time>2019-03-27T07:27:15.000Z</time>
      </trkpt>
      <trkpt lat="45.61835" lon="6.68087">
        <ele>1784.5999755859</ele>
        <time>2019-03-27T07:27:20.000Z</time>
      </trkpt>
      <trkpt lat="45.61837" lon="6.6809">
        <ele>1785.5999755859</ele>
        <time>2019-03-27T07:27:24.000Z</time>
      </trkpt>
      <trkpt lat="45.61838" lon="6.68093">
        <ele>1786.5999755859</ele>
        <time>2019-03-27T07:27:28.000Z</time>
      </trkpt>
      <trkpt lat="45.61836" lon="6.68093">
        <ele>1787.8000488281</ele>
        <time>2019-03-27T07:27:32.000Z</time>
      </trkpt>
      <trkpt lat="45.61835" lon="6.68094">
        <ele>1788</ele>
        <time>2019-03-27T07:27:35.000Z</time>
      </trkpt>
      <trkpt lat="45.61833" lon="6.68099">
        <ele>1788.8000488281</ele>
        <time>2019-03-27T07:27:41.000Z</time>
      </trkpt>
      <trkpt lat="45.61828" lon="6.68103">
        <ele>1790</ele>
        <time>2019-03-27T07:27:46.000Z</time>
      </trkpt>
      <trkpt lat="45.61826" lon="6.68104">
        <ele>1790.1999511719</ele>
        <time>2019-03-27T07:27:48.000Z</time>
      </trkpt>
      <trkpt lat="45.61825" lon="6.68106">
        <ele>1791.1999511719</ele>
        <time>2019-03-27T07:27:53.000Z</time>
      </trkpt>
      <trkpt lat="45.61824" lon="6.68108">
        <ele>1791.8000488281</ele>
        <time>2019-03-27T07:27:56.000Z</time>
      </trkpt>
      <trkpt lat="45.61824" lon="6.68109">
        <ele>1792.1999511719</ele>
        <time>2019-03-27T07:27:58.000Z</time>
      </trkpt>
      <trkpt lat="45.61824" lon="6.68111">
        <ele>1792.4000244141</ele>
        <time>2019-03-27T07:28:02.000Z</time>
      </trkpt>
      <trkpt lat="45.61828" lon="6.68113">
        <ele>1793.4000244141</ele>
        <time>2019-03-27T07:28:08.000Z</time>
      </trkpt>
      <trkpt lat="45.6183" lon="6.68114">
        <ele>1794.1999511719</ele>
        <time>2019-03-27T07:28:10.000Z</time>
      </trkpt>
      <trkpt lat="45.6183" lon="6.68114">
        <ele>1794.5999755859</ele>
        <time>2019-03-27T07:28:11.000Z</time>
      </trkpt>
      <trkpt lat="45.61834" lon="6.68118">
        <ele>1795.4000244141</ele>
        <time>2019-03-27T07:28:16.000Z</time>
      </trkpt>
      <trkpt lat="45.61835" lon="6.68118">
        <ele>1795.8000488281</ele>
        <time>2019-03-27T07:28:17.000Z</time>
      </trkpt>
      <trkpt lat="45.61836" lon="6.68118">
        <ele>1796.4000244141</ele>
        <time>2019-03-27T07:28:22.000Z</time>
      </trkpt>
      <trkpt lat="45.61835" lon="6.68119">
        <ele>1797</ele>
        <time>2019-03-27T07:28:24.000Z</time>
      </trkpt>
      <trkpt lat="45.61832" lon="6.68121">
        <ele>1797.8000488281</ele>
        <time>2019-03-27T07:28:27.000Z</time>
      </trkpt>
      <trkpt lat="45.61832" lon="6.68122">
        <ele>1798</ele>
        <time>2019-03-27T07:28:28.000Z</time>
      </trkpt>
      <trkpt lat="45.61827" lon="6.68125">
        <ele>1799</ele>
        <time>2019-03-27T07:28:35.000Z</time>
      </trkpt>
      <trkpt lat="45.61826" lon="6.68125">
        <ele>1799.1999511719</ele>
        <time>2019-03-27T07:28:36.000Z</time>
      </trkpt>
      <trkpt lat="45.61822" lon="6.68126">
        <ele>1800</ele>
        <time>2019-03-27T07:28:42.000Z</time>
      </trkpt>
      <trkpt lat="45.61821" lon="6.68126">
        <ele>1800.4000244141</ele>
        <time>2019-03-27T07:28:44.000Z</time>
      </trkpt>
      <trkpt lat="45.61818" lon="6.68127">
        <ele>1800.8000488281</ele>
        <time>2019-03-27T07:28:49.000Z</time>
      </trkpt>
      <trkpt lat="45.61816" lon="6.68127">
        <ele>1801.4000244141</ele>
        <time>2019-03-27T07:28:54.000Z</time>
      </trkpt>
      <trkpt lat="45.61815" lon="6.68128">
        <ele>1802.1999511719</ele>
        <time>2019-03-27T07:28:56.000Z</time>
      </trkpt>
      <trkpt lat="45.61814" lon="6.68128">
        <ele>1802.5999755859</ele>
        <time>2019-03-27T07:28:58.000Z</time>
      </trkpt>
      <trkpt lat="45.6181" lon="6.6813">
        <ele>1803.5999755859</ele>
        <time>2019-03-27T07:29:04.000Z</time>
      </trkpt>
      <trkpt lat="45.61809" lon="6.6813">
        <ele>1804</ele>
        <time>2019-03-27T07:29:06.000Z</time>
      </trkpt>
      <trkpt lat="45.61807" lon="6.68131">
        <ele>1804.5999755859</ele>
        <time>2019-03-27T07:29:09.000Z</time>
      </trkpt>
      <trkpt lat="45.61804" lon="6.68133">
        <ele>1805</ele>
        <time>2019-03-27T07:29:14.000Z</time>
      </trkpt>
      <trkpt lat="45.61801" lon="6.68135">
        <ele>1805.8000488281</ele>
        <time>2019-03-27T07:29:18.000Z</time>
      </trkpt>
      <trkpt lat="45.61799" lon="6.68136">
        <ele>1806.1999511719</ele>
        <time>2019-03-27T07:29:21.000Z</time>
      </trkpt>
      <trkpt lat="45.61794" lon="6.68137">
        <ele>1806.5999755859</ele>
        <time>2019-03-27T07:29:28.000Z</time>
      </trkpt>
      <trkpt lat="45.61791" lon="6.68139">
        <ele>1806.4000244141</ele>
        <time>2019-03-27T07:29:35.000Z</time>
      </trkpt>
      <trkpt lat="45.61789" lon="6.68141">
        <ele>1807</ele>
        <time>2019-03-27T07:29:38.000Z</time>
      </trkpt>
      <trkpt lat="45.61786" lon="6.68143">
        <ele>1808</ele>
        <time>2019-03-27T07:29:43.000Z</time>
      </trkpt>
      <trkpt lat="45.61786" lon="6.68144">
        <ele>1808.1999511719</ele>
        <time>2019-03-27T07:29:44.000Z</time>
      </trkpt>
      <trkpt lat="45.61783" lon="6.68146">
        <ele>1809.1999511719</ele>
        <time>2019-03-27T07:29:50.000Z</time>
      </trkpt>
      <trkpt lat="45.61782" lon="6.68147">
        <ele>1810</ele>
        <time>2019-03-27T07:29:53.000Z</time>
      </trkpt>
      <trkpt lat="45.61781" lon="6.68148">
        <ele>1810.1999511719</ele>
        <time>2019-03-27T07:29:54.000Z</time>
      </trkpt>
      <trkpt lat="45.61779" lon="6.68151">
        <ele>1811.4000244141</ele>
        <time>2019-03-27T07:29:59.000Z</time>
      </trkpt>
      <trkpt lat="45.61778" lon="6.68152">
        <ele>1811.8000488281</ele>
        <time>2019-03-27T07:30:01.000Z</time>
      </trkpt>
      <trkpt lat="45.61777" lon="6.68154">
        <ele>1812.4000244141</ele>
        <time>2019-03-27T07:30:05.000Z</time>
      </trkpt>
      <trkpt lat="45.61778" lon="6.68157">
        <ele>1813.1999511719</ele>
        <time>2019-03-27T07:30:09.000Z</time>
      </trkpt>
      <trkpt lat="45.6178" lon="6.6816">
        <ele>1813.8000488281</ele>
        <time>2019-03-27T07:30:13.000Z</time>
      </trkpt>
      <trkpt lat="45.61782" lon="6.68161">
        <ele>1814.1999511719</ele>
        <time>2019-03-27T07:30:15.000Z</time>
      </trkpt>
      <trkpt lat="45.61784" lon="6.68163">
        <ele>1815</ele>
        <time>2019-03-27T07:30:19.000Z</time>
      </trkpt>
      <trkpt lat="45.61784" lon="6.68163">
        <ele>1814.8000488281</ele>
        <time>2019-03-27T07:30:20.000Z</time>
      </trkpt>
      <trkpt lat="45.61787" lon="6.68167">
        <ele>1816</ele>
        <time>2019-03-27T07:30:26.000Z</time>
      </trkpt>
      <trkpt lat="45.61787" lon="6.68167">
        <ele>1816.1999511719</ele>
        <time>2019-03-27T07:30:27.000Z</time>
      </trkpt>
      <trkpt lat="45.61786" lon="6.68171">
        <ele>1817</ele>
        <time>2019-03-27T07:30:32.000Z</time>
      </trkpt>
      <trkpt lat="45.61785" lon="6.68172">
        <ele>1817.5999755859</ele>
        <time>2019-03-27T07:30:34.000Z</time>
      </trkpt>
      <trkpt lat="45.61785" lon="6.68173">
        <ele>1818.1999511719</ele>
        <time>2019-03-27T07:30:35.000Z</time>
      </trkpt>
      <trkpt lat="45.61786" lon="6.68177">
        <ele>1818.8000488281</ele>
        <time>2019-03-27T07:30:40.000Z</time>
      </trkpt>
      <trkpt lat="45.61786" lon="6.68177">
        <ele>1819.5999755859</ele>
        <time>2019-03-27T07:30:43.000Z</time>
      </trkpt>
      <trkpt lat="45.6179" lon="6.68176">
        <ele>1820.8000488281</ele>
        <time>2019-03-27T07:30:47.000Z</time>
      </trkpt>
      <trkpt lat="45.61794" lon="6.68176">
        <ele>1821.5999755859</ele>
        <time>2019-03-27T07:30:52.000Z</time>
      </trkpt>
      <trkpt lat="45.61794" lon="6.68176">
        <ele>1821.8000488281</ele>
        <time>2019-03-27T07:30:53.000Z</time>
      </trkpt>
      <trkpt lat="45.61796" lon="6.68176">
        <ele>1822.4000244141</ele>
        <time>2019-03-27T07:30:56.000Z</time>
      </trkpt>
      <trkpt lat="45.61797" lon="6.68176">
        <ele>1822.8000488281</ele>
        <time>2019-03-27T07:30:59.000Z</time>
      </trkpt>
      <trkpt lat="45.61801" lon="6.68175">
        <ele>1823.1999511719</ele>
        <time>2019-03-27T07:31:02.000Z</time>
      </trkpt>
      <trkpt lat="45.61801" lon="6.68175">
        <ele>1823.5999755859</ele>
        <time>2019-03-27T07:31:08.000Z</time>
      </trkpt>
      <trkpt lat="45.61801" lon="6.68176">
        <ele>1824</ele>
        <time>2019-03-27T07:31:09.000Z</time>
      </trkpt>
      <trkpt lat="45.61806" lon="6.68178">
        <ele>1824.8000488281</ele>
        <time>2019-03-27T07:31:16.000Z</time>
      </trkpt>
      <trkpt lat="45.61807" lon="6.6818">
        <ele>1825.1999511719</ele>
        <time>2019-03-27T07:31:20.000Z</time>
      </trkpt>
      <trkpt lat="45.61807" lon="6.6818">
        <ele>1825.4000244141</ele>
        <time>2019-03-27T07:31:21.000Z</time>
      </trkpt>
      <trkpt lat="45.61807" lon="6.6818">
        <ele>1826.4000244141</ele>
        <time>2019-03-27T07:31:23.000Z</time>
      </trkpt>
      <trkpt lat="45.61805" lon="6.68182">
        <ele>1827.5999755859</ele>
        <time>2019-03-27T07:31:26.000Z</time>
      </trkpt>
      <trkpt lat="45.61805" lon="6.68183">
        <ele>1827.8000488281</ele>
        <time>2019-03-27T07:31:28.000Z</time>
      </trkpt>
      <trkpt lat="45.61802" lon="6.68188">
        <ele>1828.5999755859</ele>
        <time>2019-03-27T07:31:37.000Z</time>
      </trkpt>
      <trkpt lat="45.61801" lon="6.6819">
        <ele>1828.8000488281</ele>
        <time>2019-03-27T07:31:39.000Z</time>
      </trkpt>
      <trkpt lat="45.61799" lon="6.68195">
        <ele>1829.8000488281</ele>
        <time>2019-03-27T07:31:44.000Z</time>
      </trkpt>
      <trkpt lat="45.61799" lon="6.68195">
        <ele>1829.8000488281</ele>
        <time>2019-03-27T07:31:45.000Z</time>
      </trkpt>
      <trkpt lat="45.61798" lon="6.68197">
        <ele>1831</ele>
        <time>2019-03-27T07:31:51.000Z</time>
      </trkpt>
      <trkpt lat="45.61798" lon="6.68198">
        <ele>1831.4000244141</ele>
        <time>2019-03-27T07:31:52.000Z</time>
      </trkpt>
      <trkpt lat="45.61799" lon="6.68202">
        <ele>1832.1999511719</ele>
        <time>2019-03-27T07:31:57.000Z</time>
      </trkpt>
      <trkpt lat="45.61799" lon="6.68202">
        <ele>1832.4000244141</ele>
        <time>2019-03-27T07:31:58.000Z</time>
      </trkpt>
      <trkpt lat="45.61802" lon="6.68202">
        <ele>1833.4000244141</ele>
        <time>2019-03-27T07:32:01.000Z</time>
      </trkpt>
      <trkpt lat="45.61804" lon="6.68203">
        <ele>1833.8000488281</ele>
        <time>2019-03-27T07:32:03.000Z</time>
      </trkpt>
      <trkpt lat="45.61808" lon="6.68202">
        <ele>1834.4000244141</ele>
        <time>2019-03-27T07:32:09.000Z</time>
      </trkpt>
      <trkpt lat="45.61811" lon="6.68202">
        <ele>1835.4000244141</ele>
        <time>2019-03-27T07:32:14.000Z</time>
      </trkpt>
      <trkpt lat="45.61813" lon="6.68203">
        <ele>1836.4000244141</ele>
        <time>2019-03-27T07:32:20.000Z</time>
      </trkpt>
      <trkpt lat="45.61817" lon="6.68204">
        <ele>1837.5999755859</ele>
        <time>2019-03-27T07:32:26.000Z</time>
      </trkpt>
      <trkpt lat="45.61819" lon="6.68206">
        <ele>1838.1999511719</ele>
        <time>2019-03-27T07:32:31.000Z</time>
      </trkpt>
      <trkpt lat="45.6182" lon="6.68206">
        <ele>1838.5999755859</ele>
        <time>2019-03-27T07:32:33.000Z</time>
      </trkpt>
      <trkpt lat="45.61822" lon="6.68207">
        <ele>1839.5999755859</ele>
        <time>2019-03-27T07:32:38.000Z</time>
      </trkpt>
      <trkpt lat="45.61823" lon="6.68207">
        <ele>1840</ele>
        <time>2019-03-27T07:32:40.000Z</time>
      </trkpt>
      <trkpt lat="45.61823" lon="6.68208">
        <ele>1840.1999511719</ele>
        <time>2019-03-27T07:32:42.000Z</time>
      </trkpt>
      <trkpt lat="45.61825" lon="6.68209">
        <ele>1841</ele>
        <time>2019-03-27T07:32:46.000Z</time>
      </trkpt>
      <trkpt lat="45.61826" lon="6.6821">
        <ele>1840.8000488281</ele>
        <time>2019-03-27T07:32:48.000Z</time>
      </trkpt>
      <trkpt lat="45.61824" lon="6.68211">
        <ele>1841.8000488281</ele>
        <time>2019-03-27T07:32:54.000Z</time>
      </trkpt>
      <trkpt lat="45.61823" lon="6.68211">
        <ele>1842.4000244141</ele>
        <time>2019-03-27T07:32:55.000Z</time>
      </trkpt>
      <trkpt lat="45.61819" lon="6.68215">
        <ele>1843.1999511719</ele>
        <time>2019-03-27T07:33:03.000Z</time>
      </trkpt>
      <trkpt lat="45.61818" lon="6.68216">
        <ele>1843.5999755859</ele>
        <time>2019-03-27T07:33:06.000Z</time>
      </trkpt>
      <trkpt lat="45.61817" lon="6.68219">
        <ele>1844.5999755859</ele>
        <time>2019-03-27T07:33:11.000Z</time>
      </trkpt>
      <trkpt lat="45.61813" lon="6.68224">
        <ele>1845.5999755859</ele>
        <time>2019-03-27T07:33:19.000Z</time>
      </trkpt>
      <trkpt lat="45.61811" lon="6.68225">
        <ele>1846</ele>
        <time>2019-03-27T07:33:22.000Z</time>
      </trkpt>
      <trkpt lat="45.6181" lon="6.68228">
        <ele>1846.8000488281</ele>
        <time>2019-03-27T07:33:26.000Z</time>
      </trkpt>
      <trkpt lat="45.61807" lon="6.68231">
        <ele>1847.4000244141</ele>
        <time>2019-03-27T07:33:31.000Z</time>
      </trkpt>
      <trkpt lat="45.61805" lon="6.68234">
        <ele>1847.8000488281</ele>
        <time>2019-03-27T07:33:37.000Z</time>
      </trkpt>
      <trkpt lat="45.61803" lon="6.68235">
        <ele>1848.1999511719</ele>
        <time>2019-03-27T07:33:40.000Z</time>
      </trkpt>
      <trkpt lat="45.61802" lon="6.68237">
        <ele>1849</ele>
        <time>2019-03-27T07:33:44.000Z</time>
      </trkpt>
      <trkpt lat="45.618" lon="6.6824">
        <ele>1850.1999511719</ele>
        <time>2019-03-27T07:33:48.000Z</time>
      </trkpt>
      <trkpt lat="45.61799" lon="6.68241">
        <ele>1850.4000244141</ele>
        <time>2019-03-27T07:33:50.000Z</time>
      </trkpt>
      <trkpt lat="45.61796" lon="6.68244">
        <ele>1851.1999511719</ele>
        <time>2019-03-27T07:33:57.000Z</time>
      </trkpt>
      <trkpt lat="45.61796" lon="6.68244">
        <ele>1851.1999511719</ele>
        <time>2019-03-27T07:33:59.000Z</time>
      </trkpt>
      <trkpt lat="45.61796" lon="6.68248">
        <ele>1852.4000244141</ele>
        <time>2019-03-27T07:34:05.000Z</time>
      </trkpt>
      <trkpt lat="45.61796" lon="6.68249">
        <ele>1852.8000488281</ele>
        <time>2019-03-27T07:34:07.000Z</time>
      </trkpt>
      <trkpt lat="45.61796" lon="6.68251">
        <ele>1853.5999755859</ele>
        <time>2019-03-27T07:34:09.000Z</time>
      </trkpt>
      <trkpt lat="45.61797" lon="6.68253">
        <ele>1854.4000244141</ele>
        <time>2019-03-27T07:34:12.000Z</time>
      </trkpt>
      <trkpt lat="45.61797" lon="6.68255">
        <ele>1854.8000488281</ele>
        <time>2019-03-27T07:34:13.000Z</time>
      </trkpt>
      <trkpt lat="45.61799" lon="6.68258">
        <ele>1855.8000488281</ele>
        <time>2019-03-27T07:34:17.000Z</time>
      </trkpt>
      <trkpt lat="45.618" lon="6.68259">
        <ele>1856</ele>
        <time>2019-03-27T07:34:19.000Z</time>
      </trkpt>
      <trkpt lat="45.61801" lon="6.68259">
        <ele>1857</ele>
        <time>2019-03-27T07:34:24.000Z</time>
      </trkpt>
      <trkpt lat="45.61801" lon="6.68259">
        <ele>1857</ele>
        <time>2019-03-27T07:34:26.000Z</time>
      </trkpt>
      <trkpt lat="45.61803" lon="6.68259">
        <ele>1856.5999755859</ele>
        <time>2019-03-27T07:34:30.000Z</time>
      </trkpt>
      <trkpt lat="45.61804" lon="6.68259">
        <ele>1858</ele>
        <time>2019-03-27T07:34:35.000Z</time>
      </trkpt>
      <trkpt lat="45.61805" lon="6.68259">
        <ele>1858</ele>
        <time>2019-03-27T07:34:36.000Z</time>
      </trkpt>
      <trkpt lat="45.61812" lon="6.68258">
        <ele>1858.5999755859</ele>
        <time>2019-03-27T07:34:42.000Z</time>
      </trkpt>
      <trkpt lat="45.61813" lon="6.68259">
        <ele>1859.1999511719</ele>
        <time>2019-03-27T07:34:45.000Z</time>
      </trkpt>
      <trkpt lat="45.61814" lon="6.6826">
        <ele>1859.4000244141</ele>
        <time>2019-03-27T07:34:47.000Z</time>
      </trkpt>
      <trkpt lat="45.61817" lon="6.6826">
        <ele>1860.1999511719</ele>
        <time>2019-03-27T07:34:52.000Z</time>
      </trkpt>
      <trkpt lat="45.61817" lon="6.68259">
        <ele>1860.5999755859</ele>
        <time>2019-03-27T07:34:54.000Z</time>
      </trkpt>
      <trkpt lat="45.61818" lon="6.68259">
        <ele>1861.4000244141</ele>
        <time>2019-03-27T07:34:57.000Z</time>
      </trkpt>
      <trkpt lat="45.61821" lon="6.68259">
        <ele>1861.8000488281</ele>
        <time>2019-03-27T07:35:01.000Z</time>
      </trkpt>
      <trkpt lat="45.61824" lon="6.68259">
        <ele>1862.4000244141</ele>
        <time>2019-03-27T07:35:05.000Z</time>
      </trkpt>
      <trkpt lat="45.61828" lon="6.68259">
        <ele>1863.4000244141</ele>
        <time>2019-03-27T07:35:10.000Z</time>
      </trkpt>
      <trkpt lat="45.61828" lon="6.68259">
        <ele>1863.4000244141</ele>
        <time>2019-03-27T07:35:11.000Z</time>
      </trkpt>
      <trkpt lat="45.6183" lon="6.6826">
        <ele>1864.1999511719</ele>
        <time>2019-03-27T07:35:16.000Z</time>
      </trkpt>
      <trkpt lat="45.61835" lon="6.68258">
        <ele>1864.5999755859</ele>
        <time>2019-03-27T07:35:20.000Z</time>
      </trkpt>
      <trkpt lat="45.61835" lon="6.68258">
        <ele>1865</ele>
        <time>2019-03-27T07:35:22.000Z</time>
      </trkpt>
      <trkpt lat="45.61838" lon="6.68258">
        <ele>1865.5999755859</ele>
        <time>2019-03-27T07:35:25.000Z</time>
      </trkpt>
      <trkpt lat="45.61839" lon="6.68258">
        <ele>1866</ele>
        <time>2019-03-27T07:35:27.000Z</time>
      </trkpt>
      <trkpt lat="45.61842" lon="6.68257">
        <ele>1866.5999755859</ele>
        <time>2019-03-27T07:35:32.000Z</time>
      </trkpt>
      <trkpt lat="45.61845" lon="6.68257">
        <ele>1867.1999511719</ele>
        <time>2019-03-27T07:35:37.000Z</time>
      </trkpt>
      <trkpt lat="45.61848" lon="6.68256">
        <ele>1867.8000488281</ele>
        <time>2019-03-27T07:35:40.000Z</time>
      </trkpt>
      <trkpt lat="45.61848" lon="6.68256">
        <ele>1868</ele>
        <time>2019-03-27T07:35:41.000Z</time>
      </trkpt>
      <trkpt lat="45.61851" lon="6.68256">
        <ele>1869</ele>
        <time>2019-03-27T07:35:45.000Z</time>
      </trkpt>
      <trkpt lat="45.61851" lon="6.68256">
        <ele>1869.1999511719</ele>
        <time>2019-03-27T07:35:46.000Z</time>
      </trkpt>
      <trkpt lat="45.61855" lon="6.68255">
        <ele>1870</ele>
        <time>2019-03-27T07:35:52.000Z</time>
      </trkpt>
      <trkpt lat="45.61857" lon="6.68255">
        <ele>1871.1999511719</ele>
        <time>2019-03-27T07:35:58.000Z</time>
      </trkpt>
      <trkpt lat="45.61858" lon="6.68256">
        <ele>1871.4000244141</ele>
        <time>2019-03-27T07:36:00.000Z</time>
      </trkpt>
      <trkpt lat="45.61861" lon="6.68256">
        <ele>1872.4000244141</ele>
        <time>2019-03-27T07:36:04.000Z</time>
      </trkpt>
      <trkpt lat="45.61861" lon="6.68256">
        <ele>1872.5999755859</ele>
        <time>2019-03-27T07:36:05.000Z</time>
      </trkpt>
      <trkpt lat="45.61864" lon="6.68257">
        <ele>1873.5999755859</ele>
        <time>2019-03-27T07:36:10.000Z</time>
      </trkpt>
      <trkpt lat="45.61864" lon="6.68257">
        <ele>1873.5999755859</ele>
        <time>2019-03-27T07:36:11.000Z</time>
      </trkpt>
      <trkpt lat="45.61871" lon="6.68258">
        <ele>1874.4000244141</ele>
        <time>2019-03-27T07:36:17.000Z</time>
      </trkpt>
      <trkpt lat="45.6187" lon="6.68258">
        <ele>1874.5999755859</ele>
        <time>2019-03-27T07:36:18.000Z</time>
      </trkpt>
      <trkpt lat="45.61873" lon="6.68259">
        <ele>1875.5999755859</ele>
        <time>2019-03-27T07:36:22.000Z</time>
      </trkpt>
      <trkpt lat="45.61875" lon="6.68259">
        <ele>1875.8000488281</ele>
        <time>2019-03-27T07:36:24.000Z</time>
      </trkpt>
      <trkpt lat="45.61875" lon="6.68259">
        <ele>1876.4000244141</ele>
        <time>2019-03-27T07:36:27.000Z</time>
      </trkpt>
      <trkpt lat="45.61877" lon="6.6826">
        <ele>1877</ele>
        <time>2019-03-27T07:36:30.000Z</time>
      </trkpt>
      <trkpt lat="45.61878" lon="6.6826">
        <ele>1877.1999511719</ele>
        <time>2019-03-27T07:36:32.000Z</time>
      </trkpt>
      <trkpt lat="45.61881" lon="6.6826">
        <ele>1878</ele>
        <time>2019-03-27T07:36:38.000Z</time>
      </trkpt>
      <trkpt lat="45.61885" lon="6.68261">
        <ele>1878.5999755859</ele>
        <time>2019-03-27T07:36:42.000Z</time>
      </trkpt>
      <trkpt lat="45.61886" lon="6.68262">
        <ele>1879.1999511719</ele>
        <time>2019-03-27T07:36:45.000Z</time>
      </trkpt>
      <trkpt lat="45.61888" lon="6.68262">
        <ele>1880.1999511719</ele>
        <time>2019-03-27T07:36:48.000Z</time>
      </trkpt>
      <trkpt lat="45.61888" lon="6.68263">
        <ele>1880.4000244141</ele>
        <time>2019-03-27T07:36:49.000Z</time>
      </trkpt>
      <trkpt lat="45.61891" lon="6.68265">
        <ele>1880.8000488281</ele>
        <time>2019-03-27T07:36:53.000Z</time>
      </trkpt>
      <trkpt lat="45.61893" lon="6.68266">
        <ele>1881.4000244141</ele>
        <time>2019-03-27T07:36:58.000Z</time>
      </trkpt>
      <trkpt lat="45.61894" lon="6.68266">
        <ele>1881.8000488281</ele>
        <time>2019-03-27T07:37:00.000Z</time>
      </trkpt>
      <trkpt lat="45.61898" lon="6.68268">
        <ele>1882.5999755859</ele>
        <time>2019-03-27T07:37:06.000Z</time>
      </trkpt>
      <trkpt lat="45.61899" lon="6.68269">
        <ele>1882.5999755859</ele>
        <time>2019-03-27T07:37:07.000Z</time>
      </trkpt>
      <trkpt lat="45.61902" lon="6.68274">
        <ele>1883.8000488281</ele>
        <time>2019-03-27T07:37:12.000Z</time>
      </trkpt>
      <trkpt lat="45.61904" lon="6.68279">
        <ele>1884.5999755859</ele>
        <time>2019-03-27T07:37:17.000Z</time>
      </trkpt>
      <trkpt lat="45.61905" lon="6.68278">
        <ele>1885</ele>
        <time>2019-03-27T07:37:18.000Z</time>
      </trkpt>
      <trkpt lat="45.61906" lon="6.68281">
        <ele>1886.1999511719</ele>
        <time>2019-03-27T07:37:22.000Z</time>
      </trkpt>
      <trkpt lat="45.61906" lon="6.68281">
        <ele>1886.4000244141</ele>
        <time>2019-03-27T07:37:23.000Z</time>
      </trkpt>
      <trkpt lat="45.61907" lon="6.68282">
        <ele>1885</ele>
        <time>2019-03-27T07:37:28.000Z</time>
      </trkpt>
      <trkpt lat="45.61906" lon="6.68282">
        <ele>1884.8000488281</ele>
        <time>2019-03-27T07:37:30.000Z</time>
      </trkpt>
      <trkpt lat="45.61906" lon="6.68282">
        <ele>1886.4000244141</ele>
        <time>2019-03-27T07:37:32.000Z</time>
      </trkpt>
      <trkpt lat="45.61906" lon="6.68282">
        <ele>1887.8000488281</ele>
        <time>2019-03-27T07:37:33.000Z</time>
      </trkpt>
      <trkpt lat="45.61905" lon="6.68281">
        <ele>1889</ele>
        <time>2019-03-27T07:37:35.000Z</time>
      </trkpt>
      <trkpt lat="45.61904" lon="6.68281">
        <ele>1889.1999511719</ele>
        <time>2019-03-27T07:37:36.000Z</time>
      </trkpt>
      <trkpt lat="45.619" lon="6.68278">
        <ele>1888.1999511719</ele>
        <time>2019-03-27T07:37:43.000Z</time>
      </trkpt>
      <trkpt lat="45.61896" lon="6.6828">
        <ele>1889.4000244141</ele>
        <time>2019-03-27T07:37:50.000Z</time>
      </trkpt>
      <trkpt lat="45.61893" lon="6.68282">
        <ele>1890</ele>
        <time>2019-03-27T07:37:56.000Z</time>
      </trkpt>
      <trkpt lat="45.61893" lon="6.68283">
        <ele>1890.1999511719</ele>
        <time>2019-03-27T07:37:57.000Z</time>
      </trkpt>
      <trkpt lat="45.6189" lon="6.68283">
        <ele>1891.1999511719</ele>
        <time>2019-03-27T07:38:03.000Z</time>
      </trkpt>
      <trkpt lat="45.61887" lon="6.68286">
        <ele>1892.4000244141</ele>
        <time>2019-03-27T07:38:09.000Z</time>
      </trkpt>
      <trkpt lat="45.61886" lon="6.68286">
        <ele>1892.5999755859</ele>
        <time>2019-03-27T07:38:10.000Z</time>
      </trkpt>
      <trkpt lat="45.61885" lon="6.68288">
        <ele>1893.5999755859</ele>
        <time>2019-03-27T07:38:16.000Z</time>
      </trkpt>
      <trkpt lat="45.61883" lon="6.68292">
        <ele>1894.8000488281</ele>
        <time>2019-03-27T07:38:22.000Z</time>
      </trkpt>
      <trkpt lat="45.61882" lon="6.68292">
        <ele>1895.1999511719</ele>
        <time>2019-03-27T07:38:24.000Z</time>
      </trkpt>
      <trkpt lat="45.61882" lon="6.68293">
        <ele>1895.8000488281</ele>
        <time>2019-03-27T07:38:27.000Z</time>
      </trkpt>
      <trkpt lat="45.61882" lon="6.68293">
        <ele>1896.4000244141</ele>
        <time>2019-03-27T07:38:31.000Z</time>
      </trkpt>
      <trkpt lat="45.61882" lon="6.68293">
        <ele>1896</ele>
        <time>2019-03-27T07:38:44.000Z</time>
      </trkpt>
      <trkpt lat="45.61882" lon="6.68293">
        <ele>1896.1999511719</ele>
        <time>2019-03-27T07:38:58.000Z</time>
      </trkpt>
      <trkpt lat="45.61882" lon="6.68292">
        <ele>1896.1999511719</ele>
        <time>2019-03-27T07:39:13.000Z</time>
      </trkpt>
      <trkpt lat="45.61882" lon="6.68292">
        <ele>1896</ele>
        <time>2019-03-27T07:39:29.000Z</time>
      </trkpt>
      <trkpt lat="45.61882" lon="6.68292">
        <ele>1895.8000488281</ele>
        <time>2019-03-27T07:39:40.000Z</time>
      </trkpt>
      <trkpt lat="45.61882" lon="6.68292">
        <ele>1896</ele>
        <time>2019-03-27T07:39:58.000Z</time>
      </trkpt>
      <trkpt lat="45.61882" lon="6.68292">
        <ele>1895.1999511719</ele>
        <time>2019-03-27T07:40:12.000Z</time>
      </trkpt>
      <trkpt lat="45.61881" lon="6.68292">
        <ele>1896</ele>
        <time>2019-03-27T07:40:28.000Z</time>
      </trkpt>
      <trkpt lat="45.61881" lon="6.68292">
        <ele>1895.8000488281</ele>
        <time>2019-03-27T07:40:42.000Z</time>
      </trkpt>
      <trkpt lat="45.6188" lon="6.68291">
        <ele>1895.8000488281</ele>
        <time>2019-03-27T07:40:54.000Z</time>
      </trkpt>
      <trkpt lat="45.6188" lon="6.68291">
        <ele>1895.8000488281</ele>
        <time>2019-03-27T07:41:11.000Z</time>
      </trkpt>
      <trkpt lat="45.6188" lon="6.68291">
        <ele>1896</ele>
        <time>2019-03-27T07:41:28.000Z</time>
      </trkpt>
      <trkpt lat="45.6188" lon="6.68291">
        <ele>1895.5999755859</ele>
        <time>2019-03-27T07:41:42.000Z</time>
      </trkpt>
      <trkpt lat="45.6188" lon="6.68292">
        <ele>1895.4000244141</ele>
        <time>2019-03-27T07:41:56.000Z</time>
      </trkpt>
      <trkpt lat="45.61877" lon="6.68297">
        <ele>1896</ele>
        <time>2019-03-27T07:42:03.000Z</time>
      </trkpt>
      <trkpt lat="45.61876" lon="6.68304">
        <ele>1896.8000488281</ele>
        <time>2019-03-27T07:42:10.000Z</time>
      </trkpt>
      <trkpt lat="45.61875" lon="6.68305">
        <ele>1897.1999511719</ele>
        <time>2019-03-27T07:42:11.000Z</time>
      </trkpt>
      <trkpt lat="45.61875" lon="6.68308">
        <ele>1898</ele>
        <time>2019-03-27T07:42:14.000Z</time>
      </trkpt>
      <trkpt lat="45.61874" lon="6.6831">
        <ele>1898.5999755859</ele>
        <time>2019-03-27T07:42:17.000Z</time>
      </trkpt>
      <trkpt lat="45.61874" lon="6.6831">
        <ele>1899.1999511719</ele>
        <time>2019-03-27T07:42:19.000Z</time>
      </trkpt>
      <trkpt lat="45.61874" lon="6.68311">
        <ele>1899.8000488281</ele>
        <time>2019-03-27T07:42:30.000Z</time>
      </trkpt>
      <trkpt lat="45.61873" lon="6.68316">
        <ele>1900.1999511719</ele>
        <time>2019-03-27T07:42:35.000Z</time>
      </trkpt>
      <trkpt lat="45.61873" lon="6.68317">
        <ele>1900.8000488281</ele>
        <time>2019-03-27T07:42:37.000Z</time>
      </trkpt>
      <trkpt lat="45.61872" lon="6.6832">
        <ele>1901.4000244141</ele>
        <time>2019-03-27T07:42:40.000Z</time>
      </trkpt>
      <trkpt lat="45.61871" lon="6.68323">
        <ele>1902.1999511719</ele>
        <time>2019-03-27T07:42:44.000Z</time>
      </trkpt>
      <trkpt lat="45.61871" lon="6.68324">
        <ele>1902.5999755859</ele>
        <time>2019-03-27T07:42:46.000Z</time>
      </trkpt>
      <trkpt lat="45.61871" lon="6.68326">
        <ele>1903.4000244141</ele>
        <time>2019-03-27T07:42:51.000Z</time>
      </trkpt>
      <trkpt lat="45.61872" lon="6.68328">
        <ele>1903.5999755859</ele>
        <time>2019-03-27T07:42:53.000Z</time>
      </trkpt>
      <trkpt lat="45.61872" lon="6.68331">
        <ele>1904.1999511719</ele>
        <time>2019-03-27T07:42:57.000Z</time>
      </trkpt>
      <trkpt lat="45.61872" lon="6.68332">
        <ele>1904.5999755859</ele>
        <time>2019-03-27T07:42:58.000Z</time>
      </trkpt>
      <trkpt lat="45.61873" lon="6.68335">
        <ele>1905.8000488281</ele>
        <time>2019-03-27T07:43:03.000Z</time>
      </trkpt>
      <trkpt lat="45.61873" lon="6.68335">
        <ele>1907</ele>
        <time>2019-03-27T07:43:06.000Z</time>
      </trkpt>
      <trkpt lat="45.61874" lon="6.68335">
        <ele>1907.1999511719</ele>
        <time>2019-03-27T07:43:11.000Z</time>
      </trkpt>
      <trkpt lat="45.61881" lon="6.68337">
        <ele>1907.8000488281</ele>
        <time>2019-03-27T07:43:18.000Z</time>
      </trkpt>
      <trkpt lat="45.61882" lon="6.68337">
        <ele>1908</ele>
        <time>2019-03-27T07:43:19.000Z</time>
      </trkpt>
      <trkpt lat="45.61884" lon="6.68336">
        <ele>1909.1999511719</ele>
        <time>2019-03-27T07:43:24.000Z</time>
      </trkpt>
      <trkpt lat="45.61884" lon="6.68336">
        <ele>1909.1999511719</ele>
        <time>2019-03-27T07:43:25.000Z</time>
      </trkpt>
      <trkpt lat="45.61884" lon="6.68336">
        <ele>1910.1999511719</ele>
        <time>2019-03-27T07:43:29.000Z</time>
      </trkpt>
      <trkpt lat="45.61887" lon="6.68338">
        <ele>1910.8000488281</ele>
        <time>2019-03-27T07:43:32.000Z</time>
      </trkpt>
      <trkpt lat="45.61889" lon="6.68338">
        <ele>1911.4000244141</ele>
        <time>2019-03-27T07:43:35.000Z</time>
      </trkpt>
      <trkpt lat="45.6189" lon="6.68339">
        <ele>1911.8000488281</ele>
        <time>2019-03-27T07:43:37.000Z</time>
      </trkpt>
      <trkpt lat="45.61891" lon="6.68339">
        <ele>1912.4000244141</ele>
        <time>2019-03-27T07:43:39.000Z</time>
      </trkpt>
      <trkpt lat="45.61893" lon="6.68341">
        <ele>1913.5999755859</ele>
        <time>2019-03-27T07:43:43.000Z</time>
      </trkpt>
      <trkpt lat="45.61894" lon="6.68341">
        <ele>1914.1999511719</ele>
        <time>2019-03-27T07:43:48.000Z</time>
      </trkpt>
      <trkpt lat="45.61896" lon="6.68342">
        <ele>1914.5999755859</ele>
        <time>2019-03-27T07:43:50.000Z</time>
      </trkpt>
      <trkpt lat="45.61901" lon="6.68342">
        <ele>1915.5999755859</ele>
        <time>2019-03-27T07:43:57.000Z</time>
      </trkpt>
      <trkpt lat="45.61901" lon="6.68342">
        <ele>1915.8000488281</ele>
        <time>2019-03-27T07:43:58.000Z</time>
      </trkpt>
      <trkpt lat="45.61902" lon="6.68342">
        <ele>1916</ele>
        <time>2019-03-27T07:44:04.000Z</time>
      </trkpt>
      <trkpt lat="45.61902" lon="6.68342">
        <ele>1916.5999755859</ele>
        <time>2019-03-27T07:44:22.000Z</time>
      </trkpt>
      <trkpt lat="45.61905" lon="6.68344">
        <ele>1916.8000488281</ele>
        <time>2019-03-27T07:44:30.000Z</time>
      </trkpt>
      <trkpt lat="45.61912" lon="6.68344">
        <ele>1917.8000488281</ele>
        <time>2019-03-27T07:44:36.000Z</time>
      </trkpt>
      <trkpt lat="45.61914" lon="6.68345">
        <ele>1917.8000488281</ele>
        <time>2019-03-27T07:44:38.000Z</time>
      </trkpt>
      <trkpt lat="45.61915" lon="6.68345">
        <ele>1918.1999511719</ele>
        <time>2019-03-27T07:44:40.000Z</time>
      </trkpt>
      <trkpt lat="45.61918" lon="6.68347">
        <ele>1919</ele>
        <time>2019-03-27T07:44:45.000Z</time>
      </trkpt>
      <trkpt lat="45.61917" lon="6.68348">
        <ele>1919.4000244141</ele>
        <time>2019-03-27T07:44:47.000Z</time>
      </trkpt>
      <trkpt lat="45.61914" lon="6.68351">
        <ele>1920.1999511719</ele>
        <time>2019-03-27T07:44:52.000Z</time>
      </trkpt>
      <trkpt lat="45.61914" lon="6.68352">
        <ele>1920.5999755859</ele>
        <time>2019-03-27T07:44:54.000Z</time>
      </trkpt>
      <trkpt lat="45.61913" lon="6.68355">
        <ele>1921.1999511719</ele>
        <time>2019-03-27T07:44:57.000Z</time>
      </trkpt>
      <trkpt lat="45.61912" lon="6.68359">
        <ele>1922.4000244141</ele>
        <time>2019-03-27T07:45:02.000Z</time>
      </trkpt>
      <trkpt lat="45.6191" lon="6.68365">
        <ele>1923.1999511719</ele>
        <time>2019-03-27T07:45:10.000Z</time>
      </trkpt>
      <trkpt lat="45.6191" lon="6.68365">
        <ele>1923.4000244141</ele>
        <time>2019-03-27T07:45:11.000Z</time>
      </trkpt>
      <trkpt lat="45.61907" lon="6.68371">
        <ele>1924.4000244141</ele>
        <time>2019-03-27T07:45:19.000Z</time>
      </trkpt>
      <trkpt lat="45.61907" lon="6.68372">
        <ele>1924.5999755859</ele>
        <time>2019-03-27T07:45:21.000Z</time>
      </trkpt>
      <trkpt lat="45.61907" lon="6.68374">
        <ele>1925.5999755859</ele>
        <time>2019-03-27T07:45:26.000Z</time>
      </trkpt>
      <trkpt lat="45.61908" lon="6.68375">
        <ele>1926.1999511719</ele>
        <time>2019-03-27T07:45:31.000Z</time>
      </trkpt>
      <trkpt lat="45.6191" lon="6.68376">
        <ele>1926.8000488281</ele>
        <time>2019-03-27T07:45:34.000Z</time>
      </trkpt>
      <trkpt lat="45.61911" lon="6.68377">
        <ele>1927</ele>
        <time>2019-03-27T07:45:36.000Z</time>
      </trkpt>
      <trkpt lat="45.61913" lon="6.68377">
        <ele>1927.8000488281</ele>
        <time>2019-03-27T07:45:40.000Z</time>
      </trkpt>
      <trkpt lat="45.61914" lon="6.68377">
        <ele>1928</ele>
        <time>2019-03-27T07:45:41.000Z</time>
      </trkpt>
      <trkpt lat="45.61918" lon="6.68376">
        <ele>1929</ele>
        <time>2019-03-27T07:45:45.000Z</time>
      </trkpt>
      <trkpt lat="45.61918" lon="6.68376">
        <ele>1929.5999755859</ele>
        <time>2019-03-27T07:45:46.000Z</time>
      </trkpt>
      <trkpt lat="45.61918" lon="6.68376">
        <ele>1930</ele>
        <time>2019-03-27T07:45:48.000Z</time>
      </trkpt>
      <trkpt lat="45.61921" lon="6.68376">
        <ele>1930.5999755859</ele>
        <time>2019-03-27T07:45:52.000Z</time>
      </trkpt>
      <trkpt lat="45.61925" lon="6.68375">
        <ele>1931.1999511719</ele>
        <time>2019-03-27T07:45:56.000Z</time>
      </trkpt>
      <trkpt lat="45.61927" lon="6.68375">
        <ele>1931.4000244141</ele>
        <time>2019-03-27T07:45:59.000Z</time>
      </trkpt>
      <trkpt lat="45.61928" lon="6.68376">
        <ele>1932.4000244141</ele>
        <time>2019-03-27T07:46:04.000Z</time>
      </trkpt>
      <trkpt lat="45.61929" lon="6.68376">
        <ele>1932.1999511719</ele>
        <time>2019-03-27T07:46:05.000Z</time>
      </trkpt>
      <trkpt lat="45.61933" lon="6.68378">
        <ele>1933.1999511719</ele>
        <time>2019-03-27T07:46:12.000Z</time>
      </trkpt>
      <trkpt lat="45.61933" lon="6.68378">
        <ele>1933.5999755859</ele>
        <time>2019-03-27T07:46:13.000Z</time>
      </trkpt>
      <trkpt lat="45.61933" lon="6.6838">
        <ele>1934.8000488281</ele>
        <time>2019-03-27T07:46:17.000Z</time>
      </trkpt>
      <trkpt lat="45.61932" lon="6.68381">
        <ele>1935.4000244141</ele>
        <time>2019-03-27T07:46:19.000Z</time>
      </trkpt>
      <trkpt lat="45.61932" lon="6.68383">
        <ele>1936</ele>
        <time>2019-03-27T07:46:22.000Z</time>
      </trkpt>
      <trkpt lat="45.61932" lon="6.68385">
        <ele>1936.8000488281</ele>
        <time>2019-03-27T07:46:26.000Z</time>
      </trkpt>
      <trkpt lat="45.61932" lon="6.68386">
        <ele>1937</ele>
        <time>2019-03-27T07:46:28.000Z</time>
      </trkpt>
      <trkpt lat="45.61931" lon="6.68388">
        <ele>1938</ele>
        <time>2019-03-27T07:46:31.000Z</time>
      </trkpt>
      <trkpt lat="45.61931" lon="6.68389">
        <ele>1938.4000244141</ele>
        <time>2019-03-27T07:46:32.000Z</time>
      </trkpt>
      <trkpt lat="45.61932" lon="6.68393">
        <ele>1939.1999511719</ele>
        <time>2019-03-27T07:46:37.000Z</time>
      </trkpt>
      <trkpt lat="45.61933" lon="6.68397">
        <ele>1939.1999511719</ele>
        <time>2019-03-27T07:46:43.000Z</time>
      </trkpt>
      <trkpt lat="45.61934" lon="6.68398">
        <ele>1939.4000244141</ele>
        <time>2019-03-27T07:46:44.000Z</time>
      </trkpt>
      <trkpt lat="45.61935" lon="6.684">
        <ele>1940.5999755859</ele>
        <time>2019-03-27T07:46:48.000Z</time>
      </trkpt>
      <trkpt lat="45.61935" lon="6.68401">
        <ele>1940.8000488281</ele>
        <time>2019-03-27T07:46:49.000Z</time>
      </trkpt>
      <trkpt lat="45.61939" lon="6.68405">
        <ele>1941.4000244141</ele>
        <time>2019-03-27T07:46:56.000Z</time>
      </trkpt>
      <trkpt lat="45.6194" lon="6.68406">
        <ele>1941.8000488281</ele>
        <time>2019-03-27T07:46:58.000Z</time>
      </trkpt>
      <trkpt lat="45.61942" lon="6.68409">
        <ele>1942.5999755859</ele>
        <time>2019-03-27T07:47:03.000Z</time>
      </trkpt>
      <trkpt lat="45.61944" lon="6.68412">
        <ele>1942.8000488281</ele>
        <time>2019-03-27T07:47:06.000Z</time>
      </trkpt>
      <trkpt lat="45.61946" lon="6.68416">
        <ele>1943.1999511719</ele>
        <time>2019-03-27T07:47:11.000Z</time>
      </trkpt>
      <trkpt lat="45.61948" lon="6.6842">
        <ele>1944</ele>
        <time>2019-03-27T07:47:15.000Z</time>
      </trkpt>
      <trkpt lat="45.61948" lon="6.6842">
        <ele>1944.1999511719</ele>
        <time>2019-03-27T07:47:16.000Z</time>
      </trkpt>
      <trkpt lat="45.61949" lon="6.68425">
        <ele>1945</ele>
        <time>2019-03-27T07:47:22.000Z</time>
      </trkpt>
      <trkpt lat="45.61952" lon="6.68429">
        <ele>1945.5999755859</ele>
        <time>2019-03-27T07:47:28.000Z</time>
      </trkpt>
      <trkpt lat="45.61953" lon="6.68432">
        <ele>1946.4000244141</ele>
        <time>2019-03-27T07:47:34.000Z</time>
      </trkpt>
      <trkpt lat="45.61954" lon="6.68431">
        <ele>1947.4000244141</ele>
        <time>2019-03-27T07:47:37.000Z</time>
      </trkpt>
      <trkpt lat="45.61957" lon="6.68431">
        <ele>1948</ele>
        <time>2019-03-27T07:47:40.000Z</time>
      </trkpt>
      <trkpt lat="45.6196" lon="6.68431">
        <ele>1948.5999755859</ele>
        <time>2019-03-27T07:47:44.000Z</time>
      </trkpt>
      <trkpt lat="45.61961" lon="6.68432">
        <ele>1948.4000244141</ele>
        <time>2019-03-27T07:47:45.000Z</time>
      </trkpt>
      <trkpt lat="45.61962" lon="6.68434">
        <ele>1949.5999755859</ele>
        <time>2019-03-27T07:47:49.000Z</time>
      </trkpt>
      <trkpt lat="45.61963" lon="6.68435">
        <ele>1950.1999511719</ele>
        <time>2019-03-27T07:47:51.000Z</time>
      </trkpt>
      <trkpt lat="45.61964" lon="6.68436">
        <ele>1950.8000488281</ele>
        <time>2019-03-27T07:47:53.000Z</time>
      </trkpt>
      <trkpt lat="45.61963" lon="6.6844">
        <ele>1951.8000488281</ele>
        <time>2019-03-27T07:47:58.000Z</time>
      </trkpt>
      <trkpt lat="45.6196" lon="6.68446">
        <ele>1952.4000244141</ele>
        <time>2019-03-27T07:48:05.000Z</time>
      </trkpt>
      <trkpt lat="45.61959" lon="6.68449">
        <ele>1953.1999511719</ele>
        <time>2019-03-27T07:48:09.000Z</time>
      </trkpt>
      <trkpt lat="45.61958" lon="6.68452">
        <ele>1954</ele>
        <time>2019-03-27T07:48:13.000Z</time>
      </trkpt>
      <trkpt lat="45.61958" lon="6.68452">
        <ele>1954.1999511719</ele>
        <time>2019-03-27T07:48:14.000Z</time>
      </trkpt>
      <trkpt lat="45.61957" lon="6.68455">
        <ele>1954.8000488281</ele>
        <time>2019-03-27T07:48:18.000Z</time>
      </trkpt>
      <trkpt lat="45.61957" lon="6.68457">
        <ele>1955.4000244141</ele>
        <time>2019-03-27T07:48:23.000Z</time>
      </trkpt>
      <trkpt lat="45.61961" lon="6.68458">
        <ele>1956.4000244141</ele>
        <time>2019-03-27T07:48:27.000Z</time>
      </trkpt>
      <trkpt lat="45.61962" lon="6.68458">
        <ele>1956.5999755859</ele>
        <time>2019-03-27T07:48:28.000Z</time>
      </trkpt>
      <trkpt lat="45.61964" lon="6.68457">
        <ele>1957.5999755859</ele>
        <time>2019-03-27T07:48:31.000Z</time>
      </trkpt>
      <trkpt lat="45.61966" lon="6.68457">
        <ele>1958.1999511719</ele>
        <time>2019-03-27T07:48:34.000Z</time>
      </trkpt>
      <trkpt lat="45.61967" lon="6.68455">
        <ele>1958.5999755859</ele>
        <time>2019-03-27T07:48:37.000Z</time>
      </trkpt>
      <trkpt lat="45.6197" lon="6.68453">
        <ele>1959.1999511719</ele>
        <time>2019-03-27T07:48:42.000Z</time>
      </trkpt>
      <trkpt lat="45.61972" lon="6.68453">
        <ele>1960</ele>
        <time>2019-03-27T07:48:45.000Z</time>
      </trkpt>
      <trkpt lat="45.61974" lon="6.68452">
        <ele>1960.1999511719</ele>
        <time>2019-03-27T07:48:47.000Z</time>
      </trkpt>
      <trkpt lat="45.61981" lon="6.68461">
        <ele>1961</ele>
        <time>2019-03-27T07:48:53.000Z</time>
      </trkpt>
      <trkpt lat="45.61982" lon="6.68458">
        <ele>1961.1999511719</ele>
        <time>2019-03-27T07:48:55.000Z</time>
      </trkpt>
      <trkpt lat="45.61983" lon="6.68454">
        <ele>1962.4000244141</ele>
        <time>2019-03-27T07:49:00.000Z</time>
      </trkpt>
      <trkpt lat="45.61984" lon="6.68452">
        <ele>1962.4000244141</ele>
        <time>2019-03-27T07:49:02.000Z</time>
      </trkpt>
      <trkpt lat="45.61985" lon="6.68449">
        <ele>1963.1999511719</ele>
        <time>2019-03-27T07:49:07.000Z</time>
      </trkpt>
      <trkpt lat="45.61985" lon="6.68449">
        <ele>1963.5999755859</ele>
        <time>2019-03-27T07:49:08.000Z</time>
      </trkpt>
      <trkpt lat="45.61986" lon="6.68449">
        <ele>1963.4000244141</ele>
        <time>2019-03-27T07:49:12.000Z</time>
      </trkpt>
      <trkpt lat="45.61986" lon="6.68451">
        <ele>1964.5999755859</ele>
        <time>2019-03-27T07:49:16.000Z</time>
      </trkpt>
      <trkpt lat="45.61984" lon="6.68454">
        <ele>1965.4000244141</ele>
        <time>2019-03-27T07:49:20.000Z</time>
      </trkpt>
      <trkpt lat="45.61983" lon="6.68456">
        <ele>1965.5999755859</ele>
        <time>2019-03-27T07:49:22.000Z</time>
      </trkpt>
      <trkpt lat="45.61983" lon="6.6846">
        <ele>1966.1999511719</ele>
        <time>2019-03-27T07:49:27.000Z</time>
      </trkpt>
      <trkpt lat="45.61983" lon="6.6846">
        <ele>1966.8000488281</ele>
        <time>2019-03-27T07:49:30.000Z</time>
      </trkpt>
      <trkpt lat="45.61982" lon="6.6846">
        <ele>1967.1999511719</ele>
        <time>2019-03-27T07:49:36.000Z</time>
      </trkpt>
      <trkpt lat="45.61983" lon="6.68463">
        <ele>1966.8000488281</ele>
        <time>2019-03-27T07:49:47.000Z</time>
      </trkpt>
      <trkpt lat="45.61982" lon="6.68468">
        <ele>1968</ele>
        <time>2019-03-27T07:49:52.000Z</time>
      </trkpt>
      <trkpt lat="45.61981" lon="6.68471">
        <ele>1968.5999755859</ele>
        <time>2019-03-27T07:49:55.000Z</time>
      </trkpt>
      <trkpt lat="45.61981" lon="6.68475">
        <ele>1969</ele>
        <time>2019-03-27T07:49:59.000Z</time>
      </trkpt>
      <trkpt lat="45.61982" lon="6.68475">
        <ele>1969.5999755859</ele>
        <time>2019-03-27T07:50:02.000Z</time>
      </trkpt>
      <trkpt lat="45.61985" lon="6.68474">
        <ele>1969.8000488281</ele>
        <time>2019-03-27T07:50:08.000Z</time>
      </trkpt>
      <trkpt lat="45.61986" lon="6.68473">
        <ele>1970</ele>
        <time>2019-03-27T07:50:10.000Z</time>
      </trkpt>
      <trkpt lat="45.61988" lon="6.68471">
        <ele>1971.1999511719</ele>
        <time>2019-03-27T07:50:14.000Z</time>
      </trkpt>
      <trkpt lat="45.61991" lon="6.68469">
        <ele>1972.1999511719</ele>
        <time>2019-03-27T07:50:19.000Z</time>
      </trkpt>
      <trkpt lat="45.61992" lon="6.68468">
        <ele>1972.4000244141</ele>
        <time>2019-03-27T07:50:21.000Z</time>
      </trkpt>
      <trkpt lat="45.61993" lon="6.68465">
        <ele>1973.4000244141</ele>
        <time>2019-03-27T07:50:26.000Z</time>
      </trkpt>
      <trkpt lat="45.61994" lon="6.68464">
        <ele>1974.4000244141</ele>
        <time>2019-03-27T07:50:34.000Z</time>
      </trkpt>
      <trkpt lat="45.61994" lon="6.68465">
        <ele>1975.5999755859</ele>
        <time>2019-03-27T07:50:36.000Z</time>
      </trkpt>
      <trkpt lat="45.61992" lon="6.68469">
        <ele>1975</ele>
        <time>2019-03-27T07:50:41.000Z</time>
      </trkpt>
      <trkpt lat="45.61991" lon="6.68475">
        <ele>1975.5999755859</ele>
        <time>2019-03-27T07:50:48.000Z</time>
      </trkpt>
      <trkpt lat="45.6199" lon="6.68481">
        <ele>1976.4000244141</ele>
        <time>2019-03-27T07:50:54.000Z</time>
      </trkpt>
      <trkpt lat="45.6199" lon="6.68482">
        <ele>1976.5999755859</ele>
        <time>2019-03-27T07:50:55.000Z</time>
      </trkpt>
      <trkpt lat="45.61989" lon="6.68485">
        <ele>1977.5999755859</ele>
        <time>2019-03-27T07:51:00.000Z</time>
      </trkpt>
      <trkpt lat="45.61989" lon="6.68487">
        <ele>1978</ele>
        <time>2019-03-27T07:51:02.000Z</time>
      </trkpt>
      <trkpt lat="45.61988" lon="6.68489">
        <ele>1978.8000488281</ele>
        <time>2019-03-27T07:51:07.000Z</time>
      </trkpt>
      <trkpt lat="45.61988" lon="6.68489">
        <ele>1979.1999511719</ele>
        <time>2019-03-27T07:51:09.000Z</time>
      </trkpt>
      <trkpt lat="45.61992" lon="6.68488">
        <ele>1979.1999511719</ele>
        <time>2019-03-27T07:51:15.000Z</time>
      </trkpt>
      <trkpt lat="45.61997" lon="6.68486">
        <ele>1979.8000488281</ele>
        <time>2019-03-27T07:51:19.000Z</time>
      </trkpt>
      <trkpt lat="45.61998" lon="6.68486">
        <ele>1980</ele>
        <time>2019-03-27T07:51:20.000Z</time>
      </trkpt>
      <trkpt lat="45.62002" lon="6.68482">
        <ele>1980.8000488281</ele>
        <time>2019-03-27T07:51:26.000Z</time>
      </trkpt>
      <trkpt lat="45.62003" lon="6.68481">
        <ele>1981</ele>
        <time>2019-03-27T07:51:27.000Z</time>
      </trkpt>
      <trkpt lat="45.62005" lon="6.68476">
        <ele>1981.8000488281</ele>
        <time>2019-03-27T07:51:33.000Z</time>
      </trkpt>
      <trkpt lat="45.62007" lon="6.68475">
        <ele>1982</ele>
        <time>2019-03-27T07:51:35.000Z</time>
      </trkpt>
      <trkpt lat="45.62008" lon="6.68473">
        <ele>1982.4000244141</ele>
        <time>2019-03-27T07:51:39.000Z</time>
      </trkpt>
      <trkpt lat="45.6201" lon="6.6847">
        <ele>1983</ele>
        <time>2019-03-27T07:51:43.000Z</time>
      </trkpt>
      <trkpt lat="45.6201" lon="6.68469">
        <ele>1983.1999511719</ele>
        <time>2019-03-27T07:51:46.000Z</time>
      </trkpt>
      <trkpt lat="45.62009" lon="6.68465">
        <ele>1984</ele>
        <time>2019-03-27T07:51:49.000Z</time>
      </trkpt>
      <trkpt lat="45.62008" lon="6.68462">
        <ele>1984.5999755859</ele>
        <time>2019-03-27T07:51:53.000Z</time>
      </trkpt>
      <trkpt lat="45.6201" lon="6.6846">
        <ele>1985.1999511719</ele>
        <time>2019-03-27T07:51:56.000Z</time>
      </trkpt>
      <trkpt lat="45.62011" lon="6.6846">
        <ele>1986</ele>
        <time>2019-03-27T07:51:58.000Z</time>
      </trkpt>
      <trkpt lat="45.62013" lon="6.68458">
        <ele>1986.4000244141</ele>
        <time>2019-03-27T07:52:00.000Z</time>
      </trkpt>
      <trkpt lat="45.62016" lon="6.68454">
        <ele>1986.5999755859</ele>
        <time>2019-03-27T07:52:04.000Z</time>
      </trkpt>
      <trkpt lat="45.62018" lon="6.68451">
        <ele>1987</ele>
        <time>2019-03-27T07:52:09.000Z</time>
      </trkpt>
      <trkpt lat="45.62019" lon="6.68451">
        <ele>1987.5999755859</ele>
        <time>2019-03-27T07:52:10.000Z</time>
      </trkpt>
      <trkpt lat="45.62021" lon="6.68447">
        <ele>1988.8000488281</ele>
        <time>2019-03-27T07:52:15.000Z</time>
      </trkpt>
      <trkpt lat="45.62023" lon="6.68446">
        <ele>1989.8000488281</ele>
        <time>2019-03-27T07:52:20.000Z</time>
      </trkpt>
      <trkpt lat="45.62027" lon="6.68444">
        <ele>1990.4000244141</ele>
        <time>2019-03-27T07:52:26.000Z</time>
      </trkpt>
      <trkpt lat="45.62028" lon="6.68442">
        <ele>1991</ele>
        <time>2019-03-27T07:52:30.000Z</time>
      </trkpt>
      <trkpt lat="45.6203" lon="6.6844">
        <ele>1991.1999511719</ele>
        <time>2019-03-27T07:52:31.000Z</time>
      </trkpt>
      <trkpt lat="45.62031" lon="6.68439">
        <ele>1992.4000244141</ele>
        <time>2019-03-27T07:52:34.000Z</time>
      </trkpt>
      <trkpt lat="45.62032" lon="6.68438">
        <ele>1992.8000488281</ele>
        <time>2019-03-27T07:52:38.000Z</time>
      </trkpt>
      <trkpt lat="45.62033" lon="6.68437">
        <ele>1993.4000244141</ele>
        <time>2019-03-27T07:52:43.000Z</time>
      </trkpt>
      <trkpt lat="45.62034" lon="6.68437">
        <ele>1993.8000488281</ele>
        <time>2019-03-27T07:52:44.000Z</time>
      </trkpt>
      <trkpt lat="45.62037" lon="6.68437">
        <ele>1994.1999511719</ele>
        <time>2019-03-27T07:52:48.000Z</time>
      </trkpt>
      <trkpt lat="45.62038" lon="6.68437">
        <ele>1994.5999755859</ele>
        <time>2019-03-27T07:52:50.000Z</time>
      </trkpt>
      <trkpt lat="45.62041" lon="6.68436">
        <ele>1995.4000244141</ele>
        <time>2019-03-27T07:52:54.000Z</time>
      </trkpt>
      <trkpt lat="45.62041" lon="6.68436">
        <ele>1995.5999755859</ele>
        <time>2019-03-27T07:52:55.000Z</time>
      </trkpt>
      <trkpt lat="45.62043" lon="6.68434">
        <ele>1996.8000488281</ele>
        <time>2019-03-27T07:52:59.000Z</time>
      </trkpt>
      <trkpt lat="45.62048" lon="6.68433">
        <ele>1997.8000488281</ele>
        <time>2019-03-27T07:53:06.000Z</time>
      </trkpt>
      <trkpt lat="45.62048" lon="6.68433">
        <ele>1997.5999755859</ele>
        <time>2019-03-27T07:53:07.000Z</time>
      </trkpt>
      <trkpt lat="45.62053" lon="6.68431">
        <ele>1998.1999511719</ele>
        <time>2019-03-27T07:53:13.000Z</time>
      </trkpt>
      <trkpt lat="45.62054" lon="6.68431">
        <ele>1999</ele>
        <time>2019-03-27T07:53:16.000Z</time>
      </trkpt>
      <trkpt lat="45.62055" lon="6.6843">
        <ele>1999.4000244141</ele>
        <time>2019-03-27T07:53:18.000Z</time>
      </trkpt>
      <trkpt lat="45.62058" lon="6.6843">
        <ele>1999.8000488281</ele>
        <time>2019-03-27T07:53:22.000Z</time>
      </trkpt>
      <trkpt lat="45.62059" lon="6.68429">
        <ele>2000.1999511719</ele>
        <time>2019-03-27T07:53:23.000Z</time>
      </trkpt>
      <trkpt lat="45.62063" lon="6.68428">
        <ele>2000.8000488281</ele>
        <time>2019-03-27T07:53:28.000Z</time>
      </trkpt>
      <trkpt lat="45.62063" lon="6.68428">
        <ele>2001.1999511719</ele>
        <time>2019-03-27T07:53:29.000Z</time>
      </trkpt>
      <trkpt lat="45.62063" lon="6.68428">
        <ele>2002.4000244141</ele>
        <time>2019-03-27T07:53:32.000Z</time>
      </trkpt>
      <trkpt lat="45.62063" lon="6.68428">
        <ele>2003.4000244141</ele>
        <time>2019-03-27T07:53:35.000Z</time>
      </trkpt>
      <trkpt lat="45.62063" lon="6.68428">
        <ele>2003.5999755859</ele>
        <time>2019-03-27T07:53:36.000Z</time>
      </trkpt>
      <trkpt lat="45.62063" lon="6.68429">
        <ele>2003</ele>
        <time>2019-03-27T07:53:45.000Z</time>
      </trkpt>
      <trkpt lat="45.62062" lon="6.68433">
        <ele>2004.5999755859</ele>
        <time>2019-03-27T07:53:49.000Z</time>
      </trkpt>
      <trkpt lat="45.62061" lon="6.68437">
        <ele>2005</ele>
        <time>2019-03-27T07:53:53.000Z</time>
      </trkpt>
      <trkpt lat="45.62059" lon="6.68443">
        <ele>2005.5999755859</ele>
        <time>2019-03-27T07:53:59.000Z</time>
      </trkpt>
      <trkpt lat="45.62059" lon="6.68443">
        <ele>2005.8000488281</ele>
        <time>2019-03-27T07:54:00.000Z</time>
      </trkpt>
      <trkpt lat="45.62058" lon="6.68447">
        <ele>2006.5999755859</ele>
        <time>2019-03-27T07:54:04.000Z</time>
      </trkpt>
      <trkpt lat="45.62059" lon="6.6845">
        <ele>2007.1999511719</ele>
        <time>2019-03-27T07:54:07.000Z</time>
      </trkpt>
      <trkpt lat="45.62059" lon="6.68452">
        <ele>2007.5999755859</ele>
        <time>2019-03-27T07:54:09.000Z</time>
      </trkpt>
      <trkpt lat="45.62059" lon="6.68453">
        <ele>2008.5999755859</ele>
        <time>2019-03-27T07:54:12.000Z</time>
      </trkpt>
      <trkpt lat="45.62059" lon="6.68453">
        <ele>2009</ele>
        <time>2019-03-27T07:54:13.000Z</time>
      </trkpt>
      <trkpt lat="45.62064" lon="6.68452">
        <ele>2009.4000244141</ele>
        <time>2019-03-27T07:54:18.000Z</time>
      </trkpt>
      <trkpt lat="45.62067" lon="6.68452">
        <ele>2010</ele>
        <time>2019-03-27T07:54:21.000Z</time>
      </trkpt>
      <trkpt lat="45.62068" lon="6.68452">
        <ele>2010.1999511719</ele>
        <time>2019-03-27T07:54:22.000Z</time>
      </trkpt>
      <trkpt lat="45.6207" lon="6.68451">
        <ele>2011.1999511719</ele>
        <time>2019-03-27T07:54:27.000Z</time>
      </trkpt>
      <trkpt lat="45.62071" lon="6.68452">
        <ele>2011.1999511719</ele>
        <time>2019-03-27T07:54:28.000Z</time>
      </trkpt>
      <trkpt lat="45.62074" lon="6.68451">
        <ele>2012</ele>
        <time>2019-03-27T07:54:33.000Z</time>
      </trkpt>
      <trkpt lat="45.62074" lon="6.68451">
        <ele>2012.4000244141</ele>
        <time>2019-03-27T07:54:34.000Z</time>
      </trkpt>
      <trkpt lat="45.62079" lon="6.68449">
        <ele>2013.4000244141</ele>
        <time>2019-03-27T07:54:39.000Z</time>
      </trkpt>
      <trkpt lat="45.62079" lon="6.68449">
        <ele>2013.4000244141</ele>
        <time>2019-03-27T07:54:40.000Z</time>
      </trkpt>
      <trkpt lat="45.62082" lon="6.68448">
        <ele>2014.1999511719</ele>
        <time>2019-03-27T07:54:44.000Z</time>
      </trkpt>
      <trkpt lat="45.62083" lon="6.68448">
        <ele>2014.5999755859</ele>
        <time>2019-03-27T07:54:46.000Z</time>
      </trkpt>
      <trkpt lat="45.62084" lon="6.68447">
        <ele>2015.1999511719</ele>
        <time>2019-03-27T07:54:49.000Z</time>
      </trkpt>
      <trkpt lat="45.62086" lon="6.68447">
        <ele>2015.5999755859</ele>
        <time>2019-03-27T07:54:54.000Z</time>
      </trkpt>
      <trkpt lat="45.62086" lon="6.68447">
        <ele>2016.1999511719</ele>
        <time>2019-03-27T07:54:57.000Z</time>
      </trkpt>
      <trkpt lat="45.62086" lon="6.68447">
        <ele>2017.1999511719</ele>
        <time>2019-03-27T07:54:59.000Z</time>
      </trkpt>
      <trkpt lat="45.62087" lon="6.6845">
        <ele>2018.1999511719</ele>
        <time>2019-03-27T07:55:04.000Z</time>
      </trkpt>
      <trkpt lat="45.62089" lon="6.68453">
        <ele>2018.8000488281</ele>
        <time>2019-03-27T07:55:09.000Z</time>
      </trkpt>
      <trkpt lat="45.6209" lon="6.68455">
        <ele>2019.4000244141</ele>
        <time>2019-03-27T07:55:12.000Z</time>
      </trkpt>
      <trkpt lat="45.6209" lon="6.68457">
        <ele>2020.4000244141</ele>
        <time>2019-03-27T07:55:15.000Z</time>
      </trkpt>
      <trkpt lat="45.62092" lon="6.68459">
        <ele>2021.5999755859</ele>
        <time>2019-03-27T07:55:20.000Z</time>
      </trkpt>
      <trkpt lat="45.62093" lon="6.6846">
        <ele>2022</ele>
        <time>2019-03-27T07:55:22.000Z</time>
      </trkpt>
      <trkpt lat="45.62093" lon="6.68461">
        <ele>2022.5999755859</ele>
        <time>2019-03-27T07:55:23.000Z</time>
      </trkpt>
      <trkpt lat="45.62096" lon="6.68464">
        <ele>2023.5999755859</ele>
        <time>2019-03-27T07:55:28.000Z</time>
      </trkpt>
      <trkpt lat="45.62097" lon="6.68465">
        <ele>2024.8000488281</ele>
        <time>2019-03-27T07:55:33.000Z</time>
      </trkpt>
      <trkpt lat="45.62099" lon="6.68468">
        <ele>2025.5999755859</ele>
        <time>2019-03-27T07:55:39.000Z</time>
      </trkpt>
      <trkpt lat="45.621" lon="6.68469">
        <ele>2025.8000488281</ele>
        <time>2019-03-27T07:55:40.000Z</time>
      </trkpt>
      <trkpt lat="45.62103" lon="6.68474">
        <ele>2026.8000488281</ele>
        <time>2019-03-27T07:55:46.000Z</time>
      </trkpt>
      <trkpt lat="45.62103" lon="6.68475">
        <ele>2027</ele>
        <time>2019-03-27T07:55:47.000Z</time>
      </trkpt>
      <trkpt lat="45.62103" lon="6.68477">
        <ele>2027.8000488281</ele>
        <time>2019-03-27T07:55:52.000Z</time>
      </trkpt>
      <trkpt lat="45.62104" lon="6.68478">
        <ele>2028</ele>
        <time>2019-03-27T07:55:53.000Z</time>
      </trkpt>
      <trkpt lat="45.62105" lon="6.68481">
        <ele>2029.1999511719</ele>
        <time>2019-03-27T07:55:57.000Z</time>
      </trkpt>
      <trkpt lat="45.62105" lon="6.68482">
        <ele>2029.4000244141</ele>
        <time>2019-03-27T07:55:58.000Z</time>
      </trkpt>
      <trkpt lat="45.62106" lon="6.68484">
        <ele>2030.1999511719</ele>
        <time>2019-03-27T07:56:04.000Z</time>
      </trkpt>
      <trkpt lat="45.62107" lon="6.68485">
        <ele>2030.1999511719</ele>
        <time>2019-03-27T07:56:05.000Z</time>
      </trkpt>
      <trkpt lat="45.62108" lon="6.68486">
        <ele>2031.4000244141</ele>
        <time>2019-03-27T07:56:10.000Z</time>
      </trkpt>
      <trkpt lat="45.6211" lon="6.68489">
        <ele>2032</ele>
        <time>2019-03-27T07:56:17.000Z</time>
      </trkpt>
      <trkpt lat="45.62111" lon="6.68492">
        <ele>2032.4000244141</ele>
        <time>2019-03-27T07:56:20.000Z</time>
      </trkpt>
      <trkpt lat="45.62112" lon="6.68494">
        <ele>2033</ele>
        <time>2019-03-27T07:56:23.000Z</time>
      </trkpt>
      <trkpt lat="45.62113" lon="6.68495">
        <ele>2033.5999755859</ele>
        <time>2019-03-27T07:56:26.000Z</time>
      </trkpt>
      <trkpt lat="45.62114" lon="6.68495">
        <ele>2033.5999755859</ele>
        <time>2019-03-27T07:56:29.000Z</time>
      </trkpt>
      <trkpt lat="45.62118" lon="6.68493">
        <ele>2034.8000488281</ele>
        <time>2019-03-27T07:56:34.000Z</time>
      </trkpt>
      <trkpt lat="45.62121" lon="6.68491">
        <ele>2036</ele>
        <time>2019-03-27T07:56:37.000Z</time>
      </trkpt>
      <trkpt lat="45.62123" lon="6.68489">
        <ele>2036.4000244141</ele>
        <time>2019-03-27T07:56:40.000Z</time>
      </trkpt>
      <trkpt lat="45.62125" lon="6.68486">
        <ele>2037</ele>
        <time>2019-03-27T07:56:44.000Z</time>
      </trkpt>
      <trkpt lat="45.62126" lon="6.68485">
        <ele>2037.4000244141</ele>
        <time>2019-03-27T07:56:45.000Z</time>
      </trkpt>
      <trkpt lat="45.62127" lon="6.68483">
        <ele>2038.1999511719</ele>
        <time>2019-03-27T07:56:49.000Z</time>
      </trkpt>
      <trkpt lat="45.62127" lon="6.68481">
        <ele>2038.5999755859</ele>
        <time>2019-03-27T07:56:51.000Z</time>
      </trkpt>
      <trkpt lat="45.62128" lon="6.6848">
        <ele>2039.1999511719</ele>
        <time>2019-03-27T07:56:56.000Z</time>
      </trkpt>
      <trkpt lat="45.62128" lon="6.68479">
        <ele>2039.4000244141</ele>
        <time>2019-03-27T07:56:57.000Z</time>
      </trkpt>
      <trkpt lat="45.62129" lon="6.68478">
        <ele>2040.4000244141</ele>
        <time>2019-03-27T07:57:00.000Z</time>
      </trkpt>
      <trkpt lat="45.62129" lon="6.68481">
        <ele>2041.1999511719</ele>
        <time>2019-03-27T07:57:03.000Z</time>
      </trkpt>
      <trkpt lat="45.62129" lon="6.68482">
        <ele>2041.4000244141</ele>
        <time>2019-03-27T07:57:04.000Z</time>
      </trkpt>
      <trkpt lat="45.6213" lon="6.68485">
        <ele>2042</ele>
        <time>2019-03-27T07:57:10.000Z</time>
      </trkpt>
      <trkpt lat="45.62132" lon="6.68486">
        <ele>2042.1999511719</ele>
        <time>2019-03-27T07:57:16.000Z</time>
      </trkpt>
      <trkpt lat="45.62133" lon="6.68485">
        <ele>2042.4000244141</ele>
        <time>2019-03-27T07:57:18.000Z</time>
      </trkpt>
      <trkpt lat="45.62133" lon="6.68482">
        <ele>2043.1999511719</ele>
        <time>2019-03-27T07:57:21.000Z</time>
      </trkpt>
      <trkpt lat="45.62133" lon="6.6848">
        <ele>2044</ele>
        <time>2019-03-27T07:57:23.000Z</time>
      </trkpt>
      <trkpt lat="45.62133" lon="6.68476">
        <ele>2044.4000244141</ele>
        <time>2019-03-27T07:57:27.000Z</time>
      </trkpt>
      <trkpt lat="45.62133" lon="6.68471">
        <ele>2045</ele>
        <time>2019-03-27T07:57:33.000Z</time>
      </trkpt>
      <trkpt lat="45.62133" lon="6.68471">
        <ele>2045.4000244141</ele>
        <time>2019-03-27T07:57:34.000Z</time>
      </trkpt>
      <trkpt lat="45.62133" lon="6.68467">
        <ele>2046.1999511719</ele>
        <time>2019-03-27T07:57:38.000Z</time>
      </trkpt>
      <trkpt lat="45.62133" lon="6.68466">
        <ele>2047.1999511719</ele>
        <time>2019-03-27T07:57:41.000Z</time>
      </trkpt>
      <trkpt lat="45.62135" lon="6.68464">
        <ele>2047.8000488281</ele>
        <time>2019-03-27T07:57:47.000Z</time>
      </trkpt>
      <trkpt lat="45.62135" lon="6.68462">
        <ele>2048.1999511719</ele>
        <time>2019-03-27T07:57:49.000Z</time>
      </trkpt>
      <trkpt lat="45.62136" lon="6.68461">
        <ele>2048.8000488281</ele>
        <time>2019-03-27T07:57:52.000Z</time>
      </trkpt>
      <trkpt lat="45.62141" lon="6.68458">
        <ele>2049.1999511719</ele>
        <time>2019-03-27T07:57:57.000Z</time>
      </trkpt>
      <trkpt lat="45.62142" lon="6.68457">
        <ele>2049.1999511719</ele>
        <time>2019-03-27T07:57:58.000Z</time>
      </trkpt>
      <trkpt lat="45.62146" lon="6.68454">
        <ele>2050.1999511719</ele>
        <time>2019-03-27T07:58:05.000Z</time>
      </trkpt>
      <trkpt lat="45.62148" lon="6.68453">
        <ele>2050.6000976562</ele>
        <time>2019-03-27T07:58:07.000Z</time>
      </trkpt>
      <trkpt lat="45.62149" lon="6.68452">
        <ele>2050.8000488281</ele>
        <time>2019-03-27T07:58:10.000Z</time>
      </trkpt>
      <trkpt lat="45.62151" lon="6.68451">
        <ele>2051.8000488281</ele>
        <time>2019-03-27T07:58:14.000Z</time>
      </trkpt>
      <trkpt lat="45.62152" lon="6.68449">
        <ele>2052.8000488281</ele>
        <time>2019-03-27T07:58:18.000Z</time>
      </trkpt>
      <trkpt lat="45.62153" lon="6.68449">
        <ele>2053</ele>
        <time>2019-03-27T07:58:19.000Z</time>
      </trkpt>
      <trkpt lat="45.62156" lon="6.68446">
        <ele>2054.1999511719</ele>
        <time>2019-03-27T07:58:24.000Z</time>
      </trkpt>
      <trkpt lat="45.62157" lon="6.68446">
        <ele>2054</ele>
        <time>2019-03-27T07:58:25.000Z</time>
      </trkpt>
      <trkpt lat="45.62157" lon="6.68443">
        <ele>2055.1999511719</ele>
        <time>2019-03-27T07:58:30.000Z</time>
      </trkpt>
      <trkpt lat="45.62157" lon="6.68443">
        <ele>2055.3999023438</ele>
        <time>2019-03-27T07:58:32.000Z</time>
      </trkpt>
      <trkpt lat="45.62157" lon="6.6844">
        <ele>2056</ele>
        <time>2019-03-27T07:58:40.000Z</time>
      </trkpt>
      <trkpt lat="45.62158" lon="6.68439">
        <ele>2056.1999511719</ele>
        <time>2019-03-27T07:58:41.000Z</time>
      </trkpt>
      <trkpt lat="45.62159" lon="6.68437">
        <ele>2056.1999511719</ele>
        <time>2019-03-27T07:58:47.000Z</time>
      </trkpt>
      <trkpt lat="45.62165" lon="6.68434">
        <ele>2056.3999023438</ele>
        <time>2019-03-27T07:58:52.000Z</time>
      </trkpt>
      <trkpt lat="45.6217" lon="6.68433">
        <ele>2057</ele>
        <time>2019-03-27T07:58:56.000Z</time>
      </trkpt>
      <trkpt lat="45.62171" lon="6.68433">
        <ele>2057.3999023438</ele>
        <time>2019-03-27T07:58:57.000Z</time>
      </trkpt>
      <trkpt lat="45.62171" lon="6.68433">
        <ele>2057.1999511719</ele>
        <time>2019-03-27T07:59:01.000Z</time>
      </trkpt>
      <trkpt lat="45.62171" lon="6.68433">
        <ele>2059.1999511719</ele>
        <time>2019-03-27T07:59:05.000Z</time>
      </trkpt>
      <trkpt lat="45.6217" lon="6.68433">
        <ele>2060.3999023438</ele>
        <time>2019-03-27T07:59:07.000Z</time>
      </trkpt>
      <trkpt lat="45.6217" lon="6.68434">
        <ele>2060.8000488281</ele>
        <time>2019-03-27T07:59:09.000Z</time>
      </trkpt>
      <trkpt lat="45.62167" lon="6.68438">
        <ele>2060.8000488281</ele>
        <time>2019-03-27T07:59:15.000Z</time>
      </trkpt>
      <trkpt lat="45.62164" lon="6.68445">
        <ele>2061.3999023438</ele>
        <time>2019-03-27T07:59:23.000Z</time>
      </trkpt>
      <trkpt lat="45.62164" lon="6.68447">
        <ele>2062.3999023438</ele>
        <time>2019-03-27T07:59:29.000Z</time>
      </trkpt>
      <trkpt lat="45.62164" lon="6.68447">
        <ele>2062.6000976562</ele>
        <time>2019-03-27T07:59:30.000Z</time>
      </trkpt>
      <trkpt lat="45.62163" lon="6.68452">
        <ele>2062.3999023438</ele>
        <time>2019-03-27T07:59:40.000Z</time>
      </trkpt>
      <trkpt lat="45.62161" lon="6.68457">
        <ele>2063.1999511719</ele>
        <time>2019-03-27T07:59:46.000Z</time>
      </trkpt>
      <trkpt lat="45.62161" lon="6.68457">
        <ele>2063.8000488281</ele>
        <time>2019-03-27T07:59:47.000Z</time>
      </trkpt>
      <trkpt lat="45.6216" lon="6.68464">
        <ele>2064.1999511719</ele>
        <time>2019-03-27T07:59:55.000Z</time>
      </trkpt>
      <trkpt lat="45.6216" lon="6.68469">
        <ele>2064.8000488281</ele>
        <time>2019-03-27T08:00:00.000Z</time>
      </trkpt>
      <trkpt lat="45.6216" lon="6.6847">
        <ele>2065.1999511719</ele>
        <time>2019-03-27T08:00:02.000Z</time>
      </trkpt>
      <trkpt lat="45.62161" lon="6.68469">
        <ele>2065.6000976562</ele>
        <time>2019-03-27T08:00:08.000Z</time>
      </trkpt>
      <trkpt lat="45.62164" lon="6.68465">
        <ele>2065.8000488281</ele>
        <time>2019-03-27T08:00:13.000Z</time>
      </trkpt>
      <trkpt lat="45.62165" lon="6.68465">
        <ele>2066.1999511719</ele>
        <time>2019-03-27T08:00:14.000Z</time>
      </trkpt>
      <trkpt lat="45.62167" lon="6.68463">
        <ele>2067</ele>
        <time>2019-03-27T08:00:19.000Z</time>
      </trkpt>
      <trkpt lat="45.62167" lon="6.68464">
        <ele>2067.8000488281</ele>
        <time>2019-03-27T08:00:26.000Z</time>
      </trkpt>
      <trkpt lat="45.62167" lon="6.68465">
        <ele>2068.8000488281</ele>
        <time>2019-03-27T08:00:27.000Z</time>
      </trkpt>
      <trkpt lat="45.62167" lon="6.68465">
        <ele>2069.1999511719</ele>
        <time>2019-03-27T08:00:28.000Z</time>
      </trkpt>
      <trkpt lat="45.62167" lon="6.68467">
        <ele>2069.1999511719</ele>
        <time>2019-03-27T08:00:34.000Z</time>
      </trkpt>
      <trkpt lat="45.62168" lon="6.68472">
        <ele>2069.6000976562</ele>
        <time>2019-03-27T08:00:40.000Z</time>
      </trkpt>
      <trkpt lat="45.62169" lon="6.68477">
        <ele>2070.3999023438</ele>
        <time>2019-03-27T08:00:46.000Z</time>
      </trkpt>
      <trkpt lat="45.62169" lon="6.68477">
        <ele>2070.6000976562</ele>
        <time>2019-03-27T08:00:47.000Z</time>
      </trkpt>
      <trkpt lat="45.6217" lon="6.68476">
        <ele>2071.1999511719</ele>
        <time>2019-03-27T08:00:52.000Z</time>
      </trkpt>
      <trkpt lat="45.62172" lon="6.68472">
        <ele>2071.6000976562</ele>
        <time>2019-03-27T08:00:57.000Z</time>
      </trkpt>
      <trkpt lat="45.62172" lon="6.68472">
        <ele>2072</ele>
        <time>2019-03-27T08:00:58.000Z</time>
      </trkpt>
      <trkpt lat="45.62172" lon="6.68471">
        <ele>2072</ele>
        <time>2019-03-27T08:01:04.000Z</time>
      </trkpt>
      <trkpt lat="45.62172" lon="6.68471">
        <ele>2072</ele>
        <time>2019-03-27T08:01:05.000Z</time>
      </trkpt>
      <trkpt lat="45.62172" lon="6.68471">
        <ele>2072.8000488281</ele>
        <time>2019-03-27T08:01:08.000Z</time>
      </trkpt>
      <trkpt lat="45.62172" lon="6.68471">
        <ele>2073.1999511719</ele>
        <time>2019-03-27T08:01:18.000Z</time>
      </trkpt>
      <trkpt lat="45.62172" lon="6.68471">
        <ele>2073.1999511719</ele>
        <time>2019-03-27T08:01:28.000Z</time>
      </trkpt>
      <trkpt lat="45.62175" lon="6.68469">
        <ele>2074</ele>
        <time>2019-03-27T08:01:33.000Z</time>
      </trkpt>
      <trkpt lat="45.62175" lon="6.68469">
        <ele>2074.1999511719</ele>
        <time>2019-03-27T08:01:34.000Z</time>
      </trkpt>
      <trkpt lat="45.62175" lon="6.6847">
        <ele>2074.3999023438</ele>
        <time>2019-03-27T08:01:39.000Z</time>
      </trkpt>
      <trkpt lat="45.62176" lon="6.68475">
        <ele>2075.1999511719</ele>
        <time>2019-03-27T08:01:44.000Z</time>
      </trkpt>
      <trkpt lat="45.62177" lon="6.68482">
        <ele>2075.8000488281</ele>
        <time>2019-03-27T08:01:50.000Z</time>
      </trkpt>
      <trkpt lat="45.62177" lon="6.68484">
        <ele>2076.1999511719</ele>
        <time>2019-03-27T08:01:53.000Z</time>
      </trkpt>
      <trkpt lat="45.62177" lon="6.68486">
        <ele>2076.3999023438</ele>
        <time>2019-03-27T08:01:55.000Z</time>
      </trkpt>
      <trkpt lat="45.62177" lon="6.68489">
        <ele>2077.3999023438</ele>
        <time>2019-03-27T08:02:00.000Z</time>
      </trkpt>
      <trkpt lat="45.62177" lon="6.68491">
        <ele>2077.8000488281</ele>
        <time>2019-03-27T08:02:03.000Z</time>
      </trkpt>
      <trkpt lat="45.62178" lon="6.68488">
        <ele>2078.1999511719</ele>
        <time>2019-03-27T08:02:11.000Z</time>
      </trkpt>
      <trkpt lat="45.62178" lon="6.68487">
        <ele>2078.3999023438</ele>
        <time>2019-03-27T08:02:12.000Z</time>
      </trkpt>
      <trkpt lat="45.6218" lon="6.68485">
        <ele>2079.6000976562</ele>
        <time>2019-03-27T08:02:16.000Z</time>
      </trkpt>
      <trkpt lat="45.6218" lon="6.68484">
        <ele>2079.6000976562</ele>
        <time>2019-03-27T08:02:17.000Z</time>
      </trkpt>
      <trkpt lat="45.62182" lon="6.68482">
        <ele>2080.3999023438</ele>
        <time>2019-03-27T08:02:23.000Z</time>
      </trkpt>
      <trkpt lat="45.62182" lon="6.68482">
        <ele>2080.8000488281</ele>
        <time>2019-03-27T08:02:24.000Z</time>
      </trkpt>
      <trkpt lat="45.62182" lon="6.68482">
        <ele>2081.3999023438</ele>
        <time>2019-03-27T08:02:31.000Z</time>
      </trkpt>
      <trkpt lat="45.62182" lon="6.68482">
        <ele>2081.3999023438</ele>
        <time>2019-03-27T08:02:35.000Z</time>
      </trkpt>
      <trkpt lat="45.62184" lon="6.68479">
        <ele>2080.6000976562</ele>
        <time>2019-03-27T08:02:40.000Z</time>
      </trkpt>
      <trkpt lat="45.62185" lon="6.68478">
        <ele>2081.8000488281</ele>
        <time>2019-03-27T08:02:44.000Z</time>
      </trkpt>
      <trkpt lat="45.62185" lon="6.68479">
        <ele>2082.1999511719</ele>
        <time>2019-03-27T08:02:45.000Z</time>
      </trkpt>
      <trkpt lat="45.62185" lon="6.6848">
        <ele>2083.3999023438</ele>
        <time>2019-03-27T08:02:48.000Z</time>
      </trkpt>
      <trkpt lat="45.62186" lon="6.68485">
        <ele>2084.1999511719</ele>
        <time>2019-03-27T08:02:53.000Z</time>
      </trkpt>
      <trkpt lat="45.62186" lon="6.6849">
        <ele>2084.6000976562</ele>
        <time>2019-03-27T08:03:00.000Z</time>
      </trkpt>
      <trkpt lat="45.62186" lon="6.68494">
        <ele>2085.8000488281</ele>
        <time>2019-03-27T08:03:06.000Z</time>
      </trkpt>
      <trkpt lat="45.62188" lon="6.68497">
        <ele>2087</ele>
        <time>2019-03-27T08:03:11.000Z</time>
      </trkpt>
      <trkpt lat="45.62188" lon="6.68498">
        <ele>2087</ele>
        <time>2019-03-27T08:03:12.000Z</time>
      </trkpt>
      <trkpt lat="45.62187" lon="6.685">
        <ele>2087.1999511719</ele>
        <time>2019-03-27T08:03:13.000Z</time>
      </trkpt>
      <trkpt lat="45.62187" lon="6.68504">
        <ele>2088</ele>
        <time>2019-03-27T08:03:17.000Z</time>
      </trkpt>
      <trkpt lat="45.62188" lon="6.68505">
        <ele>2088.1999511719</ele>
        <time>2019-03-27T08:03:18.000Z</time>
      </trkpt>
      <trkpt lat="45.62188" lon="6.68508">
        <ele>2089</ele>
        <time>2019-03-27T08:03:24.000Z</time>
      </trkpt>
      <trkpt lat="45.62188" lon="6.68509">
        <ele>2089.1999511719</ele>
        <time>2019-03-27T08:03:25.000Z</time>
      </trkpt>
      <trkpt lat="45.62188" lon="6.68514">
        <ele>2089.8000488281</ele>
        <time>2019-03-27T08:03:31.000Z</time>
      </trkpt>
      <trkpt lat="45.62188" lon="6.68515">
        <ele>2090.3999023438</ele>
        <time>2019-03-27T08:03:33.000Z</time>
      </trkpt>
      <trkpt lat="45.6219" lon="6.68513">
        <ele>2090.6000976562</ele>
        <time>2019-03-27T08:03:39.000Z</time>
      </trkpt>
      <trkpt lat="45.62194" lon="6.68509">
        <ele>2090.6000976562</ele>
        <time>2019-03-27T08:03:44.000Z</time>
      </trkpt>
      <trkpt lat="45.62195" lon="6.68508">
        <ele>2091.6000976562</ele>
        <time>2019-03-27T08:03:47.000Z</time>
      </trkpt>
      <trkpt lat="45.62195" lon="6.68506">
        <ele>2092.3999023438</ele>
        <time>2019-03-27T08:03:50.000Z</time>
      </trkpt>
      <trkpt lat="45.62197" lon="6.68503">
        <ele>2092.8000488281</ele>
        <time>2019-03-27T08:03:56.000Z</time>
      </trkpt>
      <trkpt lat="45.62198" lon="6.68502">
        <ele>2093.1999511719</ele>
        <time>2019-03-27T08:03:57.000Z</time>
      </trkpt>
      <trkpt lat="45.62199" lon="6.68498">
        <ele>2093.8000488281</ele>
        <time>2019-03-27T08:04:01.000Z</time>
      </trkpt>
      <trkpt lat="45.622" lon="6.68497">
        <ele>2094</ele>
        <time>2019-03-27T08:04:03.000Z</time>
      </trkpt>
      <trkpt lat="45.622" lon="6.68496">
        <ele>2095.3999023438</ele>
        <time>2019-03-27T08:04:12.000Z</time>
      </trkpt>
      <trkpt lat="45.62201" lon="6.68496">
        <ele>2095.3999023438</ele>
        <time>2019-03-27T08:04:13.000Z</time>
      </trkpt>
      <trkpt lat="45.62201" lon="6.68495">
        <ele>2095</ele>
        <time>2019-03-27T08:04:18.000Z</time>
      </trkpt>
      <trkpt lat="45.62202" lon="6.68496">
        <ele>2096.6000976562</ele>
        <time>2019-03-27T08:04:22.000Z</time>
      </trkpt>
      <trkpt lat="45.62202" lon="6.68496">
        <ele>2098</ele>
        <time>2019-03-27T08:04:24.000Z</time>
      </trkpt>
      <trkpt lat="45.62202" lon="6.68496">
        <ele>2098.1999511719</ele>
        <time>2019-03-27T08:04:25.000Z</time>
      </trkpt>
      <trkpt lat="45.62202" lon="6.68499">
        <ele>2097</ele>
        <time>2019-03-27T08:04:30.000Z</time>
      </trkpt>
      <trkpt lat="45.62204" lon="6.68503">
        <ele>2097.3999023438</ele>
        <time>2019-03-27T08:04:36.000Z</time>
      </trkpt>
      <trkpt lat="45.62204" lon="6.68504">
        <ele>2096.6000976562</ele>
        <time>2019-03-27T08:04:44.000Z</time>
      </trkpt>
      <trkpt lat="45.62204" lon="6.68504">
        <ele>2097.3999023438</ele>
        <time>2019-03-27T08:04:58.000Z</time>
      </trkpt>
      <trkpt lat="45.62204" lon="6.68504">
        <ele>2098</ele>
        <time>2019-03-27T08:05:01.000Z</time>
      </trkpt>
      <trkpt lat="45.62203" lon="6.68507">
        <ele>2097.1999511719</ele>
        <time>2019-03-27T08:05:07.000Z</time>
      </trkpt>
      <trkpt lat="45.62204" lon="6.68511">
        <ele>2098.1999511719</ele>
        <time>2019-03-27T08:05:14.000Z</time>
      </trkpt>
      <trkpt lat="45.62206" lon="6.68516">
        <ele>2098.8000488281</ele>
        <time>2019-03-27T08:05:21.000Z</time>
      </trkpt>
      <trkpt lat="45.62205" lon="6.68517">
        <ele>2099</ele>
        <time>2019-03-27T08:05:23.000Z</time>
      </trkpt>
      <trkpt lat="45.62204" lon="6.68522">
        <ele>2100.1999511719</ele>
        <time>2019-03-27T08:05:29.000Z</time>
      </trkpt>
      <trkpt lat="45.62203" lon="6.68525">
        <ele>2101.1999511719</ele>
        <time>2019-03-27T08:05:34.000Z</time>
      </trkpt>
      <trkpt lat="45.62203" lon="6.68528">
        <ele>2101.8000488281</ele>
        <time>2019-03-27T08:05:37.000Z</time>
      </trkpt>
      <trkpt lat="45.62203" lon="6.68535">
        <ele>2102.1999511719</ele>
        <time>2019-03-27T08:05:42.000Z</time>
      </trkpt>
      <trkpt lat="45.62203" lon="6.68536">
        <ele>2102.6000976562</ele>
        <time>2019-03-27T08:05:44.000Z</time>
      </trkpt>
      <trkpt lat="45.62203" lon="6.68537">
        <ele>2103.3999023438</ele>
        <time>2019-03-27T08:05:47.000Z</time>
      </trkpt>
      <trkpt lat="45.62203" lon="6.68537">
        <ele>2103.8000488281</ele>
        <time>2019-03-27T08:05:50.000Z</time>
      </trkpt>
      <trkpt lat="45.62204" lon="6.68536">
        <ele>2103.1999511719</ele>
        <time>2019-03-27T08:05:57.000Z</time>
      </trkpt>
      <trkpt lat="45.62204" lon="6.68536">
        <ele>2102.8000488281</ele>
        <time>2019-03-27T08:05:59.000Z</time>
      </trkpt>
      <trkpt lat="45.62204" lon="6.68536">
        <ele>2104.1999511719</ele>
        <time>2019-03-27T08:06:05.000Z</time>
      </trkpt>
      <trkpt lat="45.62204" lon="6.68536">
        <ele>2104.3999023438</ele>
        <time>2019-03-27T08:06:06.000Z</time>
      </trkpt>
      <trkpt lat="45.62204" lon="6.68536">
        <ele>2105</ele>
        <time>2019-03-27T08:06:21.000Z</time>
      </trkpt>
      <trkpt lat="45.62205" lon="6.68535">
        <ele>2105.6000976562</ele>
        <time>2019-03-27T08:06:28.000Z</time>
      </trkpt>
      <trkpt lat="45.62206" lon="6.68534">
        <ele>2106</ele>
        <time>2019-03-27T08:06:29.000Z</time>
      </trkpt>
      <trkpt lat="45.62211" lon="6.68531">
        <ele>2106</ele>
        <time>2019-03-27T08:06:34.000Z</time>
      </trkpt>
      <trkpt lat="45.62217" lon="6.68526">
        <ele>2106</ele>
        <time>2019-03-27T08:06:40.000Z</time>
      </trkpt>
      <trkpt lat="45.62218" lon="6.68523">
        <ele>2107</ele>
        <time>2019-03-27T08:06:44.000Z</time>
      </trkpt>
      <trkpt lat="45.62218" lon="6.68521">
        <ele>2107.3999023438</ele>
        <time>2019-03-27T08:06:46.000Z</time>
      </trkpt>
      <trkpt lat="45.62218" lon="6.68521">
        <ele>2106.6000976562</ele>
        <time>2019-03-27T08:06:52.000Z</time>
      </trkpt>
      <trkpt lat="45.62218" lon="6.68521">
        <ele>2108</ele>
        <time>2019-03-27T08:06:56.000Z</time>
      </trkpt>
      <trkpt lat="45.62218" lon="6.68521">
        <ele>2109.6000976562</ele>
        <time>2019-03-27T08:07:00.000Z</time>
      </trkpt>
      <trkpt lat="45.62219" lon="6.68522">
        <ele>2110</ele>
        <time>2019-03-27T08:07:01.000Z</time>
      </trkpt>
      <trkpt lat="45.6222" lon="6.68524">
        <ele>2109.6000976562</ele>
        <time>2019-03-27T08:07:07.000Z</time>
      </trkpt>
      <trkpt lat="45.6222" lon="6.68528">
        <ele>2110.3999023438</ele>
        <time>2019-03-27T08:07:14.000Z</time>
      </trkpt>
      <trkpt lat="45.62219" lon="6.68537">
        <ele>2110.8000488281</ele>
        <time>2019-03-27T08:07:20.000Z</time>
      </trkpt>
      <trkpt lat="45.62218" lon="6.68545">
        <ele>2111.6000976562</ele>
        <time>2019-03-27T08:07:26.000Z</time>
      </trkpt>
      <trkpt lat="45.62218" lon="6.68545">
        <ele>2112</ele>
        <time>2019-03-27T08:07:27.000Z</time>
      </trkpt>
      <trkpt lat="45.62217" lon="6.68551">
        <ele>2113</ele>
        <time>2019-03-27T08:07:31.000Z</time>
      </trkpt>
      <trkpt lat="45.62217" lon="6.68553">
        <ele>2113.6000976562</ele>
        <time>2019-03-27T08:07:34.000Z</time>
      </trkpt>
      <trkpt lat="45.62218" lon="6.68555">
        <ele>2114.1999511719</ele>
        <time>2019-03-27T08:07:38.000Z</time>
      </trkpt>
      <trkpt lat="45.6222" lon="6.68552">
        <ele>2114.8000488281</ele>
        <time>2019-03-27T08:07:40.000Z</time>
      </trkpt>
      <trkpt lat="45.62221" lon="6.68552">
        <ele>2115</ele>
        <time>2019-03-27T08:07:41.000Z</time>
      </trkpt>
      <trkpt lat="45.62222" lon="6.68552">
        <ele>2115.1999511719</ele>
        <time>2019-03-27T08:07:42.000Z</time>
      </trkpt>
      <trkpt lat="45.62223" lon="6.68551">
        <ele>2116</ele>
        <time>2019-03-27T08:07:44.000Z</time>
      </trkpt>
      <trkpt lat="45.62224" lon="6.68551">
        <ele>2116.3999023438</ele>
        <time>2019-03-27T08:07:46.000Z</time>
      </trkpt>
      <trkpt lat="45.62227" lon="6.68549">
        <ele>2117</ele>
        <time>2019-03-27T08:07:52.000Z</time>
      </trkpt>
      <trkpt lat="45.62229" lon="6.68548">
        <ele>2117.3999023438</ele>
        <time>2019-03-27T08:07:54.000Z</time>
      </trkpt>
      <trkpt lat="45.6223" lon="6.68548">
        <ele>2117.8000488281</ele>
        <time>2019-03-27T08:07:56.000Z</time>
      </trkpt>
      <trkpt lat="45.62232" lon="6.68548">
        <ele>2118.6000976562</ele>
        <time>2019-03-27T08:07:59.000Z</time>
      </trkpt>
      <trkpt lat="45.62232" lon="6.68548">
        <ele>2119</ele>
        <time>2019-03-27T08:08:01.000Z</time>
      </trkpt>
      <trkpt lat="45.62234" lon="6.68547">
        <ele>2119.8000488281</ele>
        <time>2019-03-27T08:08:05.000Z</time>
      </trkpt>
      <trkpt lat="45.62236" lon="6.68546">
        <ele>2120.1999511719</ele>
        <time>2019-03-27T08:08:07.000Z</time>
      </trkpt>
      <trkpt lat="45.62239" lon="6.68545">
        <ele>2120.8000488281</ele>
        <time>2019-03-27T08:08:11.000Z</time>
      </trkpt>
      <trkpt lat="45.6224" lon="6.68545">
        <ele>2122</ele>
        <time>2019-03-27T08:08:15.000Z</time>
      </trkpt>
      <trkpt lat="45.62241" lon="6.68547">
        <ele>2123</ele>
        <time>2019-03-27T08:08:20.000Z</time>
      </trkpt>
      <trkpt lat="45.62241" lon="6.68548">
        <ele>2123.3999023438</ele>
        <time>2019-03-27T08:08:22.000Z</time>
      </trkpt>
      <trkpt lat="45.6224" lon="6.68551">
        <ele>2124.1999511719</ele>
        <time>2019-03-27T08:08:27.000Z</time>
      </trkpt>
      <trkpt lat="45.62242" lon="6.68553">
        <ele>2124.8000488281</ele>
        <time>2019-03-27T08:08:32.000Z</time>
      </trkpt>
      <trkpt lat="45.62242" lon="6.68553">
        <ele>2125.3999023438</ele>
        <time>2019-03-27T08:08:34.000Z</time>
      </trkpt>
      <trkpt lat="45.62244" lon="6.68552">
        <ele>2126.6000976562</ele>
        <time>2019-03-27T08:08:37.000Z</time>
      </trkpt>
      <trkpt lat="45.62245" lon="6.68551">
        <ele>2127</ele>
        <time>2019-03-27T08:08:40.000Z</time>
      </trkpt>
      <trkpt lat="45.62246" lon="6.68551">
        <ele>2127.6000976562</ele>
        <time>2019-03-27T08:08:49.000Z</time>
      </trkpt>
      <trkpt lat="45.6225" lon="6.6855">
        <ele>2128.8000488281</ele>
        <time>2019-03-27T08:08:54.000Z</time>
      </trkpt>
      <trkpt lat="45.62255" lon="6.68547">
        <ele>2129.3999023438</ele>
        <time>2019-03-27T08:09:00.000Z</time>
      </trkpt>
      <trkpt lat="45.62256" lon="6.68546">
        <ele>2130</ele>
        <time>2019-03-27T08:09:02.000Z</time>
      </trkpt>
      <trkpt lat="45.62258" lon="6.68545">
        <ele>2131</ele>
        <time>2019-03-27T08:09:06.000Z</time>
      </trkpt>
      <trkpt lat="45.62261" lon="6.68543">
        <ele>2131.8000488281</ele>
        <time>2019-03-27T08:09:12.000Z</time>
      </trkpt>
      <trkpt lat="45.62262" lon="6.68543">
        <ele>2132</ele>
        <time>2019-03-27T08:09:13.000Z</time>
      </trkpt>
      <trkpt lat="45.62263" lon="6.68543">
        <ele>2132.6000976562</ele>
        <time>2019-03-27T08:09:15.000Z</time>
      </trkpt>
      <trkpt lat="45.62264" lon="6.68543">
        <ele>2133.3999023438</ele>
        <time>2019-03-27T08:09:17.000Z</time>
      </trkpt>
      <trkpt lat="45.62267" lon="6.68542">
        <ele>2134.3999023438</ele>
        <time>2019-03-27T08:09:22.000Z</time>
      </trkpt>
      <trkpt lat="45.62268" lon="6.68541">
        <ele>2134.8000488281</ele>
        <time>2019-03-27T08:09:24.000Z</time>
      </trkpt>
      <trkpt lat="45.62267" lon="6.68541">
        <ele>2135.1999511719</ele>
        <time>2019-03-27T08:09:25.000Z</time>
      </trkpt>
      <trkpt lat="45.62268" lon="6.68541">
        <ele>2135.3999023438</ele>
        <time>2019-03-27T08:09:27.000Z</time>
      </trkpt>
      <trkpt lat="45.62269" lon="6.68541">
        <ele>2135.6000976562</ele>
        <time>2019-03-27T08:09:28.000Z</time>
      </trkpt>
      <trkpt lat="45.62272" lon="6.68541">
        <ele>2136.3999023438</ele>
        <time>2019-03-27T08:09:32.000Z</time>
      </trkpt>
      <trkpt lat="45.62273" lon="6.68541">
        <ele>2136.8000488281</ele>
        <time>2019-03-27T08:09:33.000Z</time>
      </trkpt>
      <trkpt lat="45.62276" lon="6.6854">
        <ele>2138.1999511719</ele>
        <time>2019-03-27T08:09:39.000Z</time>
      </trkpt>
      <trkpt lat="45.62279" lon="6.6854">
        <ele>2139</ele>
        <time>2019-03-27T08:09:46.000Z</time>
      </trkpt>
      <trkpt lat="45.6228" lon="6.6854">
        <ele>2139.1999511719</ele>
        <time>2019-03-27T08:09:47.000Z</time>
      </trkpt>
      <trkpt lat="45.62283" lon="6.6854">
        <ele>2140.3999023438</ele>
        <time>2019-03-27T08:09:51.000Z</time>
      </trkpt>
      <trkpt lat="45.62284" lon="6.6854">
        <ele>2140.8000488281</ele>
        <time>2019-03-27T08:09:53.000Z</time>
      </trkpt>
      <trkpt lat="45.62289" lon="6.6854">
        <ele>2141.3999023438</ele>
        <time>2019-03-27T08:09:56.000Z</time>
      </trkpt>
      <trkpt lat="45.6229" lon="6.6854">
        <ele>2142</ele>
        <time>2019-03-27T08:09:59.000Z</time>
      </trkpt>
      <trkpt lat="45.62294" lon="6.68542">
        <ele>2142.6000976562</ele>
        <time>2019-03-27T08:10:04.000Z</time>
      </trkpt>
      <trkpt lat="45.62295" lon="6.68545">
        <ele>2143</ele>
        <time>2019-03-27T08:10:07.000Z</time>
      </trkpt>
      <trkpt lat="45.62297" lon="6.68547">
        <ele>2143.8000488281</ele>
        <time>2019-03-27T08:10:10.000Z</time>
      </trkpt>
      <trkpt lat="45.62297" lon="6.68549">
        <ele>2144.3999023438</ele>
        <time>2019-03-27T08:10:13.000Z</time>
      </trkpt>
      <trkpt lat="45.62297" lon="6.68554">
        <ele>2145</ele>
        <time>2019-03-27T08:10:18.000Z</time>
      </trkpt>
      <trkpt lat="45.62297" lon="6.68556">
        <ele>2145.3999023438</ele>
        <time>2019-03-27T08:10:21.000Z</time>
      </trkpt>
      <trkpt lat="45.62296" lon="6.68558">
        <ele>2146.3999023438</ele>
        <time>2019-03-27T08:10:24.000Z</time>
      </trkpt>
      <trkpt lat="45.62294" lon="6.6856">
        <ele>2147.6000976562</ele>
        <time>2019-03-27T08:10:28.000Z</time>
      </trkpt>
      <trkpt lat="45.62293" lon="6.68565">
        <ele>2148.6000976562</ele>
        <time>2019-03-27T08:10:35.000Z</time>
      </trkpt>
      <trkpt lat="45.62297" lon="6.68567">
        <ele>2148.6000976562</ele>
        <time>2019-03-27T08:10:38.000Z</time>
      </trkpt>
      <trkpt lat="45.62298" lon="6.68569">
        <ele>2149.1999511719</ele>
        <time>2019-03-27T08:10:41.000Z</time>
      </trkpt>
      <trkpt lat="45.62298" lon="6.68569">
        <ele>2149.8000488281</ele>
        <time>2019-03-27T08:10:42.000Z</time>
      </trkpt>
      <trkpt lat="45.62299" lon="6.68569">
        <ele>2151</ele>
        <time>2019-03-27T08:10:46.000Z</time>
      </trkpt>
      <trkpt lat="45.62299" lon="6.68569">
        <ele>2151.6000976562</ele>
        <time>2019-03-27T08:11:00.000Z</time>
      </trkpt>
      <trkpt lat="45.62299" lon="6.68569">
        <ele>2151.6000976562</ele>
        <time>2019-03-27T08:11:10.000Z</time>
      </trkpt>
      <trkpt lat="45.62299" lon="6.6857">
        <ele>2152</ele>
        <time>2019-03-27T08:11:27.000Z</time>
      </trkpt>
      <trkpt lat="45.62299" lon="6.6857">
        <ele>2152</ele>
        <time>2019-03-27T08:11:31.000Z</time>
      </trkpt>
      <trkpt lat="45.62299" lon="6.6857">
        <ele>2152.3999023438</ele>
        <time>2019-03-27T08:11:49.000Z</time>
      </trkpt>
      <trkpt lat="45.62299" lon="6.6857">
        <ele>2152</ele>
        <time>2019-03-27T08:12:01.000Z</time>
      </trkpt>
      <trkpt lat="45.62299" lon="6.6857">
        <ele>2152</ele>
        <time>2019-03-27T08:12:17.000Z</time>
      </trkpt>
      <trkpt lat="45.62299" lon="6.6857">
        <ele>2150.8000488281</ele>
        <time>2019-03-27T08:12:21.000Z</time>
      </trkpt>
      <trkpt lat="45.62299" lon="6.6857">
        <ele>2149.6000976562</ele>
        <time>2019-03-27T08:12:23.000Z</time>
      </trkpt>
      <trkpt lat="45.62299" lon="6.6857">
        <ele>2149.8000488281</ele>
        <time>2019-03-27T08:12:26.000Z</time>
      </trkpt>
      <trkpt lat="45.62299" lon="6.6857">
        <ele>2151.3999023438</ele>
        <time>2019-03-27T08:12:28.000Z</time>
      </trkpt>
      <trkpt lat="45.62299" lon="6.6857">
        <ele>2152.8000488281</ele>
        <time>2019-03-27T08:12:38.000Z</time>
      </trkpt>
      <trkpt lat="45.62299" lon="6.6857">
        <ele>2153.3999023438</ele>
        <time>2019-03-27T08:12:39.000Z</time>
      </trkpt>
      <trkpt lat="45.62299" lon="6.6857">
        <ele>2151.8000488281</ele>
        <time>2019-03-27T08:12:47.000Z</time>
      </trkpt>
      <trkpt lat="45.62299" lon="6.6857">
        <ele>2152.1999511719</ele>
        <time>2019-03-27T08:12:51.000Z</time>
      </trkpt>
      <trkpt lat="45.62299" lon="6.6857">
        <ele>2152.8000488281</ele>
        <time>2019-03-27T08:13:07.000Z</time>
      </trkpt>
      <trkpt lat="45.62299" lon="6.6857">
        <ele>2153.8000488281</ele>
        <time>2019-03-27T08:13:11.000Z</time>
      </trkpt>
      <trkpt lat="45.62299" lon="6.6857">
        <ele>2153</ele>
        <time>2019-03-27T08:13:15.000Z</time>
      </trkpt>
      <trkpt lat="45.62299" lon="6.6857">
        <ele>2152.1999511719</ele>
        <time>2019-03-27T08:13:16.000Z</time>
      </trkpt>
      <trkpt lat="45.62299" lon="6.6857">
        <ele>2151</ele>
        <time>2019-03-27T08:13:18.000Z</time>
      </trkpt>
      <trkpt lat="45.62299" lon="6.6857">
        <ele>2151.8000488281</ele>
        <time>2019-03-27T08:13:27.000Z</time>
      </trkpt>
      <trkpt lat="45.62299" lon="6.6857">
        <ele>2152</ele>
        <time>2019-03-27T08:13:28.000Z</time>
      </trkpt>
      <trkpt lat="45.62299" lon="6.6857">
        <ele>2152.8000488281</ele>
        <time>2019-03-27T08:13:34.000Z</time>
      </trkpt>
      <trkpt lat="45.62299" lon="6.6857">
        <ele>2152</ele>
        <time>2019-03-27T08:13:42.000Z</time>
      </trkpt>
      <trkpt lat="45.62299" lon="6.6857">
        <ele>2152.1999511719</ele>
        <time>2019-03-27T08:13:56.000Z</time>
      </trkpt>
      <trkpt lat="45.62299" lon="6.6857">
        <ele>2152.1999511719</ele>
        <time>2019-03-27T08:14:09.000Z</time>
      </trkpt>
      <trkpt lat="45.62299" lon="6.6857">
        <ele>2152.1999511719</ele>
        <time>2019-03-27T08:14:27.000Z</time>
      </trkpt>
      <trkpt lat="45.62299" lon="6.6857">
        <ele>2152.1999511719</ele>
        <time>2019-03-27T08:14:39.000Z</time>
      </trkpt>
      <trkpt lat="45.62299" lon="6.68571">
        <ele>2152.1999511719</ele>
        <time>2019-03-27T08:14:49.000Z</time>
      </trkpt>
      <trkpt lat="45.62299" lon="6.68571">
        <ele>2152.1999511719</ele>
        <time>2019-03-27T08:15:05.000Z</time>
      </trkpt>
      <trkpt lat="45.62299" lon="6.68571">
        <ele>2152.1999511719</ele>
        <time>2019-03-27T08:15:20.000Z</time>
      </trkpt>
      <trkpt lat="45.62299" lon="6.6857">
        <ele>2152.1999511719</ele>
        <time>2019-03-27T08:15:38.000Z</time>
      </trkpt>
      <trkpt lat="45.62299" lon="6.6857">
        <ele>2152.3999023438</ele>
        <time>2019-03-27T08:15:51.000Z</time>
      </trkpt>
      <trkpt lat="45.62299" lon="6.68571">
        <ele>2152.8000488281</ele>
        <time>2019-03-27T08:15:58.000Z</time>
      </trkpt>
      <trkpt lat="45.62299" lon="6.68571">
        <ele>2153</ele>
        <time>2019-03-27T08:15:59.000Z</time>
      </trkpt>
      <trkpt lat="45.62298" lon="6.68572">
        <ele>2153.1999511719</ele>
        <time>2019-03-27T08:16:06.000Z</time>
      </trkpt>
      <trkpt lat="45.62298" lon="6.68572">
        <ele>2153.1999511719</ele>
        <time>2019-03-27T08:16:13.000Z</time>
      </trkpt>
      <trkpt lat="45.62298" lon="6.68572">
        <ele>2153</ele>
        <time>2019-03-27T08:16:27.000Z</time>
      </trkpt>
      <trkpt lat="45.62298" lon="6.68572">
        <ele>2153</ele>
        <time>2019-03-27T08:16:39.000Z</time>
      </trkpt>
      <trkpt lat="45.62298" lon="6.6857">
        <ele>2152.8000488281</ele>
        <time>2019-03-27T08:16:46.000Z</time>
      </trkpt>
      <trkpt lat="45.62298" lon="6.6857">
        <ele>2152.3999023438</ele>
        <time>2019-03-27T08:16:56.000Z</time>
      </trkpt>
      <trkpt lat="45.62298" lon="6.6857">
        <ele>2152.3999023438</ele>
        <time>2019-03-27T08:17:10.000Z</time>
      </trkpt>
      <trkpt lat="45.62298" lon="6.6857">
        <ele>2152.3999023438</ele>
        <time>2019-03-27T08:17:26.000Z</time>
      </trkpt>
      <trkpt lat="45.62298" lon="6.6857">
        <ele>2152.3999023438</ele>
        <time>2019-03-27T08:17:39.000Z</time>
      </trkpt>
      <trkpt lat="45.62298" lon="6.6857">
        <ele>2152.3999023438</ele>
        <time>2019-03-27T08:17:54.000Z</time>
      </trkpt>
      <trkpt lat="45.62298" lon="6.68569">
        <ele>2152.1999511719</ele>
        <time>2019-03-27T08:18:01.000Z</time>
      </trkpt>
      <trkpt lat="45.62298" lon="6.68569">
        <ele>2152.3999023438</ele>
        <time>2019-03-27T08:18:10.000Z</time>
      </trkpt>
      <trkpt lat="45.62298" lon="6.68569">
        <ele>2152.6000976562</ele>
        <time>2019-03-27T08:18:25.000Z</time>
      </trkpt>
      <trkpt lat="45.62298" lon="6.6857">
        <ele>2152.3999023438</ele>
        <time>2019-03-27T08:18:38.000Z</time>
      </trkpt>
      <trkpt lat="45.62298" lon="6.6857">
        <ele>2152.3999023438</ele>
        <time>2019-03-27T08:18:54.000Z</time>
      </trkpt>
      <trkpt lat="45.62298" lon="6.6857">
        <ele>2152.1999511719</ele>
        <time>2019-03-27T08:19:11.000Z</time>
      </trkpt>
      <trkpt lat="45.62298" lon="6.6857">
        <ele>2152.3999023438</ele>
        <time>2019-03-27T08:19:16.000Z</time>
      </trkpt>
      <trkpt lat="45.62299" lon="6.6857">
        <ele>2152.3999023438</ele>
        <time>2019-03-27T08:19:22.000Z</time>
      </trkpt>
      <trkpt lat="45.62299" lon="6.68571">
        <ele>2152.1999511719</ele>
        <time>2019-03-27T08:19:36.000Z</time>
      </trkpt>
      <trkpt lat="45.623" lon="6.68574">
        <ele>2152.6000976562</ele>
        <time>2019-03-27T08:19:43.000Z</time>
      </trkpt>
      <trkpt lat="45.62302" lon="6.68578">
        <ele>2153.1999511719</ele>
        <time>2019-03-27T08:19:48.000Z</time>
      </trkpt>
      <trkpt lat="45.62304" lon="6.6858">
        <ele>2154</ele>
        <time>2019-03-27T08:19:53.000Z</time>
      </trkpt>
      <trkpt lat="45.62304" lon="6.6858">
        <ele>2154.3999023438</ele>
        <time>2019-03-27T08:19:54.000Z</time>
      </trkpt>
      <trkpt lat="45.62306" lon="6.68583">
        <ele>2155.1999511719</ele>
        <time>2019-03-27T08:19:58.000Z</time>
      </trkpt>
      <trkpt lat="45.62306" lon="6.68583">
        <ele>2155.3999023438</ele>
        <time>2019-03-27T08:19:59.000Z</time>
      </trkpt>
      <trkpt lat="45.62309" lon="6.68586">
        <ele>2155.6000976562</ele>
        <time>2019-03-27T08:20:03.000Z</time>
      </trkpt>
      <trkpt lat="45.62311" lon="6.68588">
        <ele>2156.1999511719</ele>
        <time>2019-03-27T08:20:06.000Z</time>
      </trkpt>
      <trkpt lat="45.62313" lon="6.68591">
        <ele>2157.1999511719</ele>
        <time>2019-03-27T08:20:09.000Z</time>
      </trkpt>
      <trkpt lat="45.62315" lon="6.68593">
        <ele>2157.8000488281</ele>
        <time>2019-03-27T08:20:14.000Z</time>
      </trkpt>
      <trkpt lat="45.62317" lon="6.68596">
        <ele>2158.3999023438</ele>
        <time>2019-03-27T08:20:17.000Z</time>
      </trkpt>
      <trkpt lat="45.62318" lon="6.68598">
        <ele>2158.8000488281</ele>
        <time>2019-03-27T08:20:19.000Z</time>
      </trkpt>
      <trkpt lat="45.6232" lon="6.686">
        <ele>2159.3999023438</ele>
        <time>2019-03-27T08:20:23.000Z</time>
      </trkpt>
      <trkpt lat="45.62321" lon="6.68601">
        <ele>2159.6000976562</ele>
        <time>2019-03-27T08:20:25.000Z</time>
      </trkpt>
      <trkpt lat="45.62322" lon="6.68602">
        <ele>2160.3999023438</ele>
        <time>2019-03-27T08:20:30.000Z</time>
      </trkpt>
      <trkpt lat="45.62323" lon="6.68603">
        <ele>2160.8000488281</ele>
        <time>2019-03-27T08:20:31.000Z</time>
      </trkpt>
      <trkpt lat="45.62324" lon="6.68604">
        <ele>2161.6000976562</ele>
        <time>2019-03-27T08:20:34.000Z</time>
      </trkpt>
      <trkpt lat="45.62325" lon="6.68604">
        <ele>2162</ele>
        <time>2019-03-27T08:20:36.000Z</time>
      </trkpt>
      <trkpt lat="45.62326" lon="6.68604">
        <ele>2162.8000488281</ele>
        <time>2019-03-27T08:20:38.000Z</time>
      </trkpt>
      <trkpt lat="45.62328" lon="6.68604">
        <ele>2163.8000488281</ele>
        <time>2019-03-27T08:20:43.000Z</time>
      </trkpt>
      <trkpt lat="45.62329" lon="6.68604">
        <ele>2163.8000488281</ele>
        <time>2019-03-27T08:20:44.000Z</time>
      </trkpt>
      <trkpt lat="45.62331" lon="6.68605">
        <ele>2164.8000488281</ele>
        <time>2019-03-27T08:20:48.000Z</time>
      </trkpt>
      <trkpt lat="45.62333" lon="6.68606">
        <ele>2165.1999511719</ele>
        <time>2019-03-27T08:20:50.000Z</time>
      </trkpt>
      <trkpt lat="45.62335" lon="6.68608">
        <ele>2165.6000976562</ele>
        <time>2019-03-27T08:20:54.000Z</time>
      </trkpt>
      <trkpt lat="45.62336" lon="6.68608">
        <ele>2166</ele>
        <time>2019-03-27T08:20:55.000Z</time>
      </trkpt>
      <trkpt lat="45.62339" lon="6.68608">
        <ele>2166.1999511719</ele>
        <time>2019-03-27T08:21:00.000Z</time>
      </trkpt>
      <trkpt lat="45.62344" lon="6.6861">
        <ele>2166.8000488281</ele>
        <time>2019-03-27T08:21:05.000Z</time>
      </trkpt>
      <trkpt lat="45.62344" lon="6.68609">
        <ele>2167.1999511719</ele>
        <time>2019-03-27T08:21:06.000Z</time>
      </trkpt>
      <trkpt lat="45.62346" lon="6.68609">
        <ele>2168.1999511719</ele>
        <time>2019-03-27T08:21:10.000Z</time>
      </trkpt>
      <trkpt lat="45.62346" lon="6.6861">
        <ele>2168.1999511719</ele>
        <time>2019-03-27T08:21:11.000Z</time>
      </trkpt>
      <trkpt lat="45.62349" lon="6.68611">
        <ele>2169.1999511719</ele>
        <time>2019-03-27T08:21:16.000Z</time>
      </trkpt>
      <trkpt lat="45.6235" lon="6.68611">
        <ele>2169.6000976562</ele>
        <time>2019-03-27T08:21:17.000Z</time>
      </trkpt>
      <trkpt lat="45.62353" lon="6.68614">
        <ele>2170.3999023438</ele>
        <time>2019-03-27T08:21:22.000Z</time>
      </trkpt>
      <trkpt lat="45.62356" lon="6.68616">
        <ele>2170.6000976562</ele>
        <time>2019-03-27T08:21:25.000Z</time>
      </trkpt>
      <trkpt lat="45.62357" lon="6.68616">
        <ele>2170.8000488281</ele>
        <time>2019-03-27T08:21:27.000Z</time>
      </trkpt>
      <trkpt lat="45.62361" lon="6.68619">
        <ele>2171.6000976562</ele>
        <time>2019-03-27T08:21:33.000Z</time>
      </trkpt>
      <trkpt lat="45.62366" lon="6.68623">
        <ele>2172.6000976562</ele>
        <time>2019-03-27T08:21:40.000Z</time>
      </trkpt>
      <trkpt lat="45.62367" lon="6.68624">
        <ele>2173</ele>
        <time>2019-03-27T08:21:42.000Z</time>
      </trkpt>
      <trkpt lat="45.6237" lon="6.68624">
        <ele>2173.8000488281</ele>
        <time>2019-03-27T08:21:47.000Z</time>
      </trkpt>
      <trkpt lat="45.62372" lon="6.68625">
        <ele>2174.3999023438</ele>
        <time>2019-03-27T08:21:50.000Z</time>
      </trkpt>
      <trkpt lat="45.62375" lon="6.68625">
        <ele>2175</ele>
        <time>2019-03-27T08:21:55.000Z</time>
      </trkpt>
      <trkpt lat="45.62377" lon="6.68626">
        <ele>2175.3999023438</ele>
        <time>2019-03-27T08:21:58.000Z</time>
      </trkpt>
      <trkpt lat="45.6238" lon="6.68627">
        <ele>2175.6000976562</ele>
        <time>2019-03-27T08:22:02.000Z</time>
      </trkpt>
      <trkpt lat="45.62384" lon="6.68629">
        <ele>2176.6000976562</ele>
        <time>2019-03-27T08:22:05.000Z</time>
      </trkpt>
      <trkpt lat="45.62386" lon="6.68631">
        <ele>2177.1999511719</ele>
        <time>2019-03-27T08:22:09.000Z</time>
      </trkpt>
      <trkpt lat="45.62391" lon="6.68632">
        <ele>2177.8000488281</ele>
        <time>2019-03-27T08:22:14.000Z</time>
      </trkpt>
      <trkpt lat="45.62392" lon="6.68633">
        <ele>2178.3999023438</ele>
        <time>2019-03-27T08:22:17.000Z</time>
      </trkpt>
      <trkpt lat="45.62395" lon="6.68634">
        <ele>2179</ele>
        <time>2019-03-27T08:22:24.000Z</time>
      </trkpt>
      <trkpt lat="45.62399" lon="6.68636">
        <ele>2180.1999511719</ele>
        <time>2019-03-27T08:22:28.000Z</time>
      </trkpt>
      <trkpt lat="45.62401" lon="6.68637">
        <ele>2180.3999023438</ele>
        <time>2019-03-27T08:22:31.000Z</time>
      </trkpt>
      <trkpt lat="45.62403" lon="6.68637">
        <ele>2181.1999511719</ele>
        <time>2019-03-27T08:22:35.000Z</time>
      </trkpt>
      <trkpt lat="45.62405" lon="6.68638">
        <ele>2182</ele>
        <time>2019-03-27T08:22:38.000Z</time>
      </trkpt>
      <trkpt lat="45.62405" lon="6.68638">
        <ele>2182.1999511719</ele>
        <time>2019-03-27T08:22:39.000Z</time>
      </trkpt>
      <trkpt lat="45.62409" lon="6.68639">
        <ele>2183</ele>
        <time>2019-03-27T08:22:45.000Z</time>
      </trkpt>
      <trkpt lat="45.6241" lon="6.68639">
        <ele>2183.3999023438</ele>
        <time>2019-03-27T08:22:47.000Z</time>
      </trkpt>
      <trkpt lat="45.62413" lon="6.68641">
        <ele>2184</ele>
        <time>2019-03-27T08:22:51.000Z</time>
      </trkpt>
      <trkpt lat="45.62415" lon="6.68641">
        <ele>2184.3999023438</ele>
        <time>2019-03-27T08:22:55.000Z</time>
      </trkpt>
      <trkpt lat="45.62419" lon="6.68643">
        <ele>2185.6000976562</ele>
        <time>2019-03-27T08:22:59.000Z</time>
      </trkpt>
      <trkpt lat="45.6242" lon="6.68644">
        <ele>2185.8000488281</ele>
        <time>2019-03-27T08:23:01.000Z</time>
      </trkpt>
      <trkpt lat="45.62424" lon="6.68645">
        <ele>2186.1999511719</ele>
        <time>2019-03-27T08:23:07.000Z</time>
      </trkpt>
      <trkpt lat="45.62427" lon="6.68647">
        <ele>2186.6000976562</ele>
        <time>2019-03-27T08:23:10.000Z</time>
      </trkpt>
      <trkpt lat="45.62428" lon="6.68647">
        <ele>2186.8000488281</ele>
        <time>2019-03-27T08:23:13.000Z</time>
      </trkpt>
      <trkpt lat="45.62431" lon="6.68647">
        <ele>2187.6000976562</ele>
        <time>2019-03-27T08:23:18.000Z</time>
      </trkpt>
      <trkpt lat="45.62433" lon="6.68648">
        <ele>2188.3999023438</ele>
        <time>2019-03-27T08:23:22.000Z</time>
      </trkpt>
      <trkpt lat="45.62435" lon="6.68649">
        <ele>2189</ele>
        <time>2019-03-27T08:23:26.000Z</time>
      </trkpt>
      <trkpt lat="45.62438" lon="6.6865">
        <ele>2190.1999511719</ele>
        <time>2019-03-27T08:23:29.000Z</time>
      </trkpt>
      <trkpt lat="45.62439" lon="6.68651">
        <ele>2190.6000976562</ele>
        <time>2019-03-27T08:23:31.000Z</time>
      </trkpt>
      <trkpt lat="45.62442" lon="6.68652">
        <ele>2191.1999511719</ele>
        <time>2019-03-27T08:23:37.000Z</time>
      </trkpt>
      <trkpt lat="45.62444" lon="6.68652">
        <ele>2192.1999511719</ele>
        <time>2019-03-27T08:23:41.000Z</time>
      </trkpt>
      <trkpt lat="45.6245" lon="6.68655">
        <ele>2192.8000488281</ele>
        <time>2019-03-27T08:23:49.000Z</time>
      </trkpt>
      <trkpt lat="45.6245" lon="6.68655">
        <ele>2193.3999023438</ele>
        <time>2019-03-27T08:23:50.000Z</time>
      </trkpt>
      <trkpt lat="45.62454" lon="6.68656">
        <ele>2193.3999023438</ele>
        <time>2019-03-27T08:23:57.000Z</time>
      </trkpt>
      <trkpt lat="45.62457" lon="6.68658">
        <ele>2194.6000976562</ele>
        <time>2019-03-27T08:24:02.000Z</time>
      </trkpt>
      <trkpt lat="45.62462" lon="6.68661">
        <ele>2195.6000976562</ele>
        <time>2019-03-27T08:24:08.000Z</time>
      </trkpt>
      <trkpt lat="45.62465" lon="6.68661">
        <ele>2196.8000488281</ele>
        <time>2019-03-27T08:24:15.000Z</time>
      </trkpt>
      <trkpt lat="45.62468" lon="6.68665">
        <ele>2197.3999023438</ele>
        <time>2019-03-27T08:24:21.000Z</time>
      </trkpt>
      <trkpt lat="45.6247" lon="6.68666">
        <ele>2198</ele>
        <time>2019-03-27T08:24:23.000Z</time>
      </trkpt>
      <trkpt lat="45.62472" lon="6.68667">
        <ele>2198.1999511719</ele>
        <time>2019-03-27T08:24:26.000Z</time>
      </trkpt>
      <trkpt lat="45.62474" lon="6.68668">
        <ele>2199.1999511719</ele>
        <time>2019-03-27T08:24:31.000Z</time>
      </trkpt>
      <trkpt lat="45.62477" lon="6.68669">
        <ele>2200</ele>
        <time>2019-03-27T08:24:35.000Z</time>
      </trkpt>
      <trkpt lat="45.6248" lon="6.68669">
        <ele>2200.1999511719</ele>
        <time>2019-03-27T08:24:38.000Z</time>
      </trkpt>
      <trkpt lat="45.62483" lon="6.68672">
        <ele>2200.8000488281</ele>
        <time>2019-03-27T08:24:41.000Z</time>
      </trkpt>
      <trkpt lat="45.62485" lon="6.68673">
        <ele>2201.3999023438</ele>
        <time>2019-03-27T08:24:44.000Z</time>
      </trkpt>
      <trkpt lat="45.62486" lon="6.68673">
        <ele>2201.6000976562</ele>
        <time>2019-03-27T08:24:47.000Z</time>
      </trkpt>
      <trkpt lat="45.62489" lon="6.68674">
        <ele>2202.3999023438</ele>
        <time>2019-03-27T08:24:51.000Z</time>
      </trkpt>
      <trkpt lat="45.62491" lon="6.68675">
        <ele>2202.6000976562</ele>
        <time>2019-03-27T08:24:53.000Z</time>
      </trkpt>
      <trkpt lat="45.62494" lon="6.68676">
        <ele>2203.1999511719</ele>
        <time>2019-03-27T08:24:58.000Z</time>
      </trkpt>
      <trkpt lat="45.62494" lon="6.68676">
        <ele>2203.6000976562</ele>
        <time>2019-03-27T08:25:00.000Z</time>
      </trkpt>
      <trkpt lat="45.62496" lon="6.68676">
        <ele>2204.3999023438</ele>
        <time>2019-03-27T08:25:04.000Z</time>
      </trkpt>
      <trkpt lat="45.62499" lon="6.68678">
        <ele>2204.8000488281</ele>
        <time>2019-03-27T08:25:08.000Z</time>
      </trkpt>
      <trkpt lat="45.62502" lon="6.68681">
        <ele>2204.8000488281</ele>
        <time>2019-03-27T08:25:11.000Z</time>
      </trkpt>
      <trkpt lat="45.62504" lon="6.68681">
        <ele>2205.8000488281</ele>
        <time>2019-03-27T08:25:14.000Z</time>
      </trkpt>
      <trkpt lat="45.62506" lon="6.68683">
        <ele>2206.3999023438</ele>
        <time>2019-03-27T08:25:16.000Z</time>
      </trkpt>
      <trkpt lat="45.62506" lon="6.68683">
        <ele>2207</ele>
        <time>2019-03-27T08:25:18.000Z</time>
      </trkpt>
      <trkpt lat="45.62508" lon="6.68683">
        <ele>2207.3999023438</ele>
        <time>2019-03-27T08:25:22.000Z</time>
      </trkpt>
      <trkpt lat="45.6251" lon="6.68685">
        <ele>2208.1999511719</ele>
        <time>2019-03-27T08:25:26.000Z</time>
      </trkpt>
      <trkpt lat="45.62512" lon="6.68686">
        <ele>2208.6000976562</ele>
        <time>2019-03-27T08:25:28.000Z</time>
      </trkpt>
      <trkpt lat="45.62514" lon="6.68688">
        <ele>2209.3999023438</ele>
        <time>2019-03-27T08:25:32.000Z</time>
      </trkpt>
      <trkpt lat="45.62518" lon="6.68692">
        <ele>2210.1999511719</ele>
        <time>2019-03-27T08:25:38.000Z</time>
      </trkpt>
      <trkpt lat="45.62518" lon="6.68692">
        <ele>2210.3999023438</ele>
        <time>2019-03-27T08:25:40.000Z</time>
      </trkpt>
      <trkpt lat="45.62519" lon="6.68693">
        <ele>2211</ele>
        <time>2019-03-27T08:25:43.000Z</time>
      </trkpt>
      <trkpt lat="45.62519" lon="6.68695">
        <ele>2211.6000976562</ele>
        <time>2019-03-27T08:25:46.000Z</time>
      </trkpt>
      <trkpt lat="45.62519" lon="6.68695">
        <ele>2212</ele>
        <time>2019-03-27T08:25:47.000Z</time>
      </trkpt>
      <trkpt lat="45.62518" lon="6.68696">
        <ele>2213</ele>
        <time>2019-03-27T08:25:50.000Z</time>
      </trkpt>
      <trkpt lat="45.62514" lon="6.68699">
        <ele>2213.6000976562</ele>
        <time>2019-03-27T08:25:54.000Z</time>
      </trkpt>
      <trkpt lat="45.6251" lon="6.68701">
        <ele>2214</ele>
        <time>2019-03-27T08:26:01.000Z</time>
      </trkpt>
      <trkpt lat="45.6251" lon="6.68701">
        <ele>2214.3999023438</ele>
        <time>2019-03-27T08:26:03.000Z</time>
      </trkpt>
      <trkpt lat="45.62507" lon="6.68702">
        <ele>2215</ele>
        <time>2019-03-27T08:26:08.000Z</time>
      </trkpt>
      <trkpt lat="45.62506" lon="6.68703">
        <ele>2215.1999511719</ele>
        <time>2019-03-27T08:26:09.000Z</time>
      </trkpt>
      <trkpt lat="45.62505" lon="6.68703">
        <ele>2216.3999023438</ele>
        <time>2019-03-27T08:26:15.000Z</time>
      </trkpt>
      <trkpt lat="45.62504" lon="6.68704">
        <ele>2216</ele>
        <time>2019-03-27T08:26:29.000Z</time>
      </trkpt>
      <trkpt lat="45.625" lon="6.68705">
        <ele>2216.8000488281</ele>
        <time>2019-03-27T08:26:35.000Z</time>
      </trkpt>
      <trkpt lat="45.62498" lon="6.68707">
        <ele>2217.8000488281</ele>
        <time>2019-03-27T08:26:38.000Z</time>
      </trkpt>
      <trkpt lat="45.62496" lon="6.68709">
        <ele>2218</ele>
        <time>2019-03-27T08:26:41.000Z</time>
      </trkpt>
      <trkpt lat="45.62496" lon="6.68713">
        <ele>2218.8000488281</ele>
        <time>2019-03-27T08:26:45.000Z</time>
      </trkpt>
      <trkpt lat="45.62497" lon="6.68714">
        <ele>2219.1999511719</ele>
        <time>2019-03-27T08:26:46.000Z</time>
      </trkpt>
      <trkpt lat="45.62498" lon="6.68716">
        <ele>2219.8000488281</ele>
        <time>2019-03-27T08:26:48.000Z</time>
      </trkpt>
      <trkpt lat="45.62499" lon="6.68717">
        <ele>2220.3999023438</ele>
        <time>2019-03-27T08:26:51.000Z</time>
      </trkpt>
      <trkpt lat="45.62501" lon="6.6872">
        <ele>2221</ele>
        <time>2019-03-27T08:26:54.000Z</time>
      </trkpt>
      <trkpt lat="45.62502" lon="6.68722">
        <ele>2221.3999023438</ele>
        <time>2019-03-27T08:26:57.000Z</time>
      </trkpt>
      <trkpt lat="45.62505" lon="6.68727">
        <ele>2222.1999511719</ele>
        <time>2019-03-27T08:27:02.000Z</time>
      </trkpt>
      <trkpt lat="45.62506" lon="6.68728">
        <ele>2222.8000488281</ele>
        <time>2019-03-27T08:27:03.000Z</time>
      </trkpt>
      <trkpt lat="45.62506" lon="6.68728">
        <ele>2223.1999511719</ele>
        <time>2019-03-27T08:27:05.000Z</time>
      </trkpt>
      <trkpt lat="45.62507" lon="6.68728">
        <ele>2224.1999511719</ele>
        <time>2019-03-27T08:27:10.000Z</time>
      </trkpt>
      <trkpt lat="45.6251" lon="6.6873">
        <ele>2223.1999511719</ele>
        <time>2019-03-27T08:27:22.000Z</time>
      </trkpt>
      <trkpt lat="45.62515" lon="6.68731">
        <ele>2224.3999023438</ele>
        <time>2019-03-27T08:27:27.000Z</time>
      </trkpt>
      <trkpt lat="45.6252" lon="6.68732">
        <ele>2225.3999023438</ele>
        <time>2019-03-27T08:27:32.000Z</time>
      </trkpt>
      <trkpt lat="45.62522" lon="6.68732">
        <ele>2225.8000488281</ele>
        <time>2019-03-27T08:27:34.000Z</time>
      </trkpt>
      <trkpt lat="45.62523" lon="6.68733">
        <ele>2226.3999023438</ele>
        <time>2019-03-27T08:27:38.000Z</time>
      </trkpt>
      <trkpt lat="45.62524" lon="6.68733">
        <ele>2226.8000488281</ele>
        <time>2019-03-27T08:27:42.000Z</time>
      </trkpt>
      <trkpt lat="45.62524" lon="6.68733">
        <ele>2227.1999511719</ele>
        <time>2019-03-27T08:27:50.000Z</time>
      </trkpt>
      <trkpt lat="45.62524" lon="6.68733">
        <ele>2227.3999023438</ele>
        <time>2019-03-27T08:27:54.000Z</time>
      </trkpt>
      <trkpt lat="45.62527" lon="6.68733">
        <ele>2227.8000488281</ele>
        <time>2019-03-27T08:27:59.000Z</time>
      </trkpt>
      <trkpt lat="45.6253" lon="6.68733">
        <ele>2228.3999023438</ele>
        <time>2019-03-27T08:28:03.000Z</time>
      </trkpt>
      <trkpt lat="45.6253" lon="6.68734">
        <ele>2228.6000976562</ele>
        <time>2019-03-27T08:28:04.000Z</time>
      </trkpt>
      <trkpt lat="45.62535" lon="6.68735">
        <ele>2229</ele>
        <time>2019-03-27T08:28:10.000Z</time>
      </trkpt>
      <trkpt lat="45.62537" lon="6.68737">
        <ele>2229.8000488281</ele>
        <time>2019-03-27T08:28:14.000Z</time>
      </trkpt>
      <trkpt lat="45.62538" lon="6.68737">
        <ele>2230</ele>
        <time>2019-03-27T08:28:15.000Z</time>
      </trkpt>
      <trkpt lat="45.6254" lon="6.68738">
        <ele>2230.8000488281</ele>
        <time>2019-03-27T08:28:18.000Z</time>
      </trkpt>
      <trkpt lat="45.62542" lon="6.68739">
        <ele>2231.1999511719</ele>
        <time>2019-03-27T08:28:21.000Z</time>
      </trkpt>
      <trkpt lat="45.62543" lon="6.68741">
        <ele>2232</ele>
        <time>2019-03-27T08:28:24.000Z</time>
      </trkpt>
      <trkpt lat="45.62546" lon="6.68743">
        <ele>2232.1999511719</ele>
        <time>2019-03-27T08:28:27.000Z</time>
      </trkpt>
      <trkpt lat="45.62548" lon="6.68743">
        <ele>2233</ele>
        <time>2019-03-27T08:28:31.000Z</time>
      </trkpt>
      <trkpt lat="45.62551" lon="6.68745">
        <ele>2233.6000976562</ele>
        <time>2019-03-27T08:28:36.000Z</time>
      </trkpt>
      <trkpt lat="45.62552" lon="6.68745">
        <ele>2234.1999511719</ele>
        <time>2019-03-27T08:28:38.000Z</time>
      </trkpt>
      <trkpt lat="45.62554" lon="6.68746">
        <ele>2235</ele>
        <time>2019-03-27T08:28:41.000Z</time>
      </trkpt>
      <trkpt lat="45.62555" lon="6.68747">
        <ele>2235.3999023438</ele>
        <time>2019-03-27T08:28:43.000Z</time>
      </trkpt>
      <trkpt lat="45.62557" lon="6.68749">
        <ele>2236.1999511719</ele>
        <time>2019-03-27T08:28:48.000Z</time>
      </trkpt>
      <trkpt lat="45.62557" lon="6.68751">
        <ele>2236.3999023438</ele>
        <time>2019-03-27T08:28:49.000Z</time>
      </trkpt>
      <trkpt lat="45.62559" lon="6.68755">
        <ele>2236.8000488281</ele>
        <time>2019-03-27T08:28:53.000Z</time>
      </trkpt>
      <trkpt lat="45.62561" lon="6.68758">
        <ele>2237.3999023438</ele>
        <time>2019-03-27T08:28:56.000Z</time>
      </trkpt>
      <trkpt lat="45.62562" lon="6.68759">
        <ele>2237.6000976562</ele>
        <time>2019-03-27T08:28:57.000Z</time>
      </trkpt>
      <trkpt lat="45.62563" lon="6.68764">
        <ele>2238.6000976562</ele>
        <time>2019-03-27T08:29:03.000Z</time>
      </trkpt>
      <trkpt lat="45.62564" lon="6.68765">
        <ele>2238.8000488281</ele>
        <time>2019-03-27T08:29:04.000Z</time>
      </trkpt>
      <trkpt lat="45.62565" lon="6.68769">
        <ele>2239.6000976562</ele>
        <time>2019-03-27T08:29:09.000Z</time>
      </trkpt>
      <trkpt lat="45.62565" lon="6.6877">
        <ele>2239.8000488281</ele>
        <time>2019-03-27T08:29:10.000Z</time>
      </trkpt>
      <trkpt lat="45.62567" lon="6.68773">
        <ele>2240.1999511719</ele>
        <time>2019-03-27T08:29:15.000Z</time>
      </trkpt>
      <trkpt lat="45.62568" lon="6.68774">
        <ele>2241</ele>
        <time>2019-03-27T08:29:18.000Z</time>
      </trkpt>
      <trkpt lat="45.62569" lon="6.68776">
        <ele>2241.6000976562</ele>
        <time>2019-03-27T08:29:21.000Z</time>
      </trkpt>
      <trkpt lat="45.6257" lon="6.68777">
        <ele>2242.1999511719</ele>
        <time>2019-03-27T08:29:23.000Z</time>
      </trkpt>
      <trkpt lat="45.62571" lon="6.68777">
        <ele>2243.6000976562</ele>
        <time>2019-03-27T08:29:27.000Z</time>
      </trkpt>
      <trkpt lat="45.62571" lon="6.68777">
        <ele>2243.8000488281</ele>
        <time>2019-03-27T08:29:38.000Z</time>
      </trkpt>
      <trkpt lat="45.62571" lon="6.68777">
        <ele>2242</ele>
        <time>2019-03-27T08:29:44.000Z</time>
      </trkpt>
      <trkpt lat="45.62571" lon="6.68777">
        <ele>2240.8000488281</ele>
        <time>2019-03-27T08:29:46.000Z</time>
      </trkpt>
      <trkpt lat="45.62571" lon="6.68777">
        <ele>2242.1999511719</ele>
        <time>2019-03-27T08:29:49.000Z</time>
      </trkpt>
      <trkpt lat="45.62571" lon="6.68777">
        <ele>2243.6000976562</ele>
        <time>2019-03-27T08:29:51.000Z</time>
      </trkpt>
      <trkpt lat="45.62571" lon="6.68777">
        <ele>2244.6000976562</ele>
        <time>2019-03-27T08:29:53.000Z</time>
      </trkpt>
      <trkpt lat="45.62571" lon="6.68777">
        <ele>2244</ele>
        <time>2019-03-27T08:30:00.000Z</time>
      </trkpt>
      <trkpt lat="45.62571" lon="6.68777">
        <ele>2243.3999023438</ele>
        <time>2019-03-27T08:30:02.000Z</time>
      </trkpt>
      <trkpt lat="45.62571" lon="6.68777">
        <ele>2243.3999023438</ele>
        <time>2019-03-27T08:30:14.000Z</time>
      </trkpt>
      <trkpt lat="45.62571" lon="6.68777">
        <ele>2243.1999511719</ele>
        <time>2019-03-27T08:30:29.000Z</time>
      </trkpt>
      <trkpt lat="45.62572" lon="6.68777">
        <ele>2244.8000488281</ele>
        <time>2019-03-27T08:30:32.000Z</time>
      </trkpt>
      <trkpt lat="45.62573" lon="6.68777">
        <ele>2245.8000488281</ele>
        <time>2019-03-27T08:30:34.000Z</time>
      </trkpt>
      <trkpt lat="45.62574" lon="6.68776">
        <ele>2245.1999511719</ele>
        <time>2019-03-27T08:30:37.000Z</time>
      </trkpt>
      <trkpt lat="45.62574" lon="6.68776">
        <ele>2244.3999023438</ele>
        <time>2019-03-27T08:30:39.000Z</time>
      </trkpt>
      <trkpt lat="45.62574" lon="6.68776">
        <ele>2244.6000976562</ele>
        <time>2019-03-27T08:30:47.000Z</time>
      </trkpt>
      <trkpt lat="45.62578" lon="6.68775">
        <ele>2244.6000976562</ele>
        <time>2019-03-27T08:30:55.000Z</time>
      </trkpt>
      <trkpt lat="45.6258" lon="6.68775">
        <ele>2244.8000488281</ele>
        <time>2019-03-27T08:30:58.000Z</time>
      </trkpt>
      <trkpt lat="45.62581" lon="6.68776">
        <ele>2245.1999511719</ele>
        <time>2019-03-27T08:31:00.000Z</time>
      </trkpt>
      <trkpt lat="45.62582" lon="6.68776">
        <ele>2245.6000976562</ele>
        <time>2019-03-27T08:31:02.000Z</time>
      </trkpt>
      <trkpt lat="45.62584" lon="6.68775">
        <ele>2246.6000976562</ele>
        <time>2019-03-27T08:31:05.000Z</time>
      </trkpt>
      <trkpt lat="45.62589" lon="6.68775">
        <ele>2247.6000976562</ele>
        <time>2019-03-27T08:31:11.000Z</time>
      </trkpt>
      <trkpt lat="45.6259" lon="6.68774">
        <ele>2248</ele>
        <time>2019-03-27T08:31:12.000Z</time>
      </trkpt>
      <trkpt lat="45.62594" lon="6.68774">
        <ele>2248.8000488281</ele>
        <time>2019-03-27T08:31:17.000Z</time>
      </trkpt>
      <trkpt lat="45.62598" lon="6.68776">
        <ele>2249.8000488281</ele>
        <time>2019-03-27T08:31:24.000Z</time>
      </trkpt>
      <trkpt lat="45.62598" lon="6.68777">
        <ele>2249.8000488281</ele>
        <time>2019-03-27T08:31:25.000Z</time>
      </trkpt>
      <trkpt lat="45.62601" lon="6.68778">
        <ele>2250.8000488281</ele>
        <time>2019-03-27T08:31:30.000Z</time>
      </trkpt>
      <trkpt lat="45.62602" lon="6.68778">
        <ele>2251</ele>
        <time>2019-03-27T08:31:31.000Z</time>
      </trkpt>
      <trkpt lat="45.62605" lon="6.68781">
        <ele>2252</ele>
        <time>2019-03-27T08:31:36.000Z</time>
      </trkpt>
      <trkpt lat="45.62606" lon="6.68782">
        <ele>2252.1999511719</ele>
        <time>2019-03-27T08:31:37.000Z</time>
      </trkpt>
      <trkpt lat="45.62608" lon="6.68784">
        <ele>2253.1999511719</ele>
        <time>2019-03-27T08:31:42.000Z</time>
      </trkpt>
      <trkpt lat="45.62609" lon="6.68784">
        <ele>2253.3999023438</ele>
        <time>2019-03-27T08:31:43.000Z</time>
      </trkpt>
      <trkpt lat="45.62611" lon="6.68785">
        <ele>2254.1999511719</ele>
        <time>2019-03-27T08:31:48.000Z</time>
      </trkpt>
      <trkpt lat="45.62611" lon="6.68785">
        <ele>2254.3999023438</ele>
        <time>2019-03-27T08:31:49.000Z</time>
      </trkpt>
      <trkpt lat="45.62613" lon="6.68786">
        <ele>2255.1999511719</ele>
        <time>2019-03-27T08:31:53.000Z</time>
      </trkpt>
      <trkpt lat="45.62613" lon="6.68786">
        <ele>2255.6000976562</ele>
        <time>2019-03-27T08:31:55.000Z</time>
      </trkpt>
      <trkpt lat="45.62615" lon="6.68787">
        <ele>2256</ele>
        <time>2019-03-27T08:31:58.000Z</time>
      </trkpt>
      <trkpt lat="45.62618" lon="6.68788">
        <ele>2256.8000488281</ele>
        <time>2019-03-27T08:32:02.000Z</time>
      </trkpt>
      <trkpt lat="45.62619" lon="6.68788">
        <ele>2256.8000488281</ele>
        <time>2019-03-27T08:32:03.000Z</time>
      </trkpt>
      <trkpt lat="45.62625" lon="6.68791">
        <ele>2257.8000488281</ele>
        <time>2019-03-27T08:32:09.000Z</time>
      </trkpt>
      <trkpt lat="45.62627" lon="6.68792">
        <ele>2258.8000488281</ele>
        <time>2019-03-27T08:32:16.000Z</time>
      </trkpt>
      <trkpt lat="45.6263" lon="6.68795">
        <ele>2259.8000488281</ele>
        <time>2019-03-27T08:32:22.000Z</time>
      </trkpt>
      <trkpt lat="45.62631" lon="6.68795">
        <ele>2260</ele>
        <time>2019-03-27T08:32:23.000Z</time>
      </trkpt>
      <trkpt lat="45.62635" lon="6.68797">
        <ele>2260.8000488281</ele>
        <time>2019-03-27T08:32:28.000Z</time>
      </trkpt>
      <trkpt lat="45.62636" lon="6.68797">
        <ele>2261.1999511719</ele>
        <time>2019-03-27T08:32:30.000Z</time>
      </trkpt>
      <trkpt lat="45.62638" lon="6.68798">
        <ele>2261.6000976562</ele>
        <time>2019-03-27T08:32:33.000Z</time>
      </trkpt>
      <trkpt lat="45.62642" lon="6.68799">
        <ele>2262.1999511719</ele>
        <time>2019-03-27T08:32:37.000Z</time>
      </trkpt>
      <trkpt lat="45.62644" lon="6.688">
        <ele>2262.8000488281</ele>
        <time>2019-03-27T08:32:39.000Z</time>
      </trkpt>
      <trkpt lat="45.62646" lon="6.68802">
        <ele>2263.3999023438</ele>
        <time>2019-03-27T08:32:43.000Z</time>
      </trkpt>
      <trkpt lat="45.62646" lon="6.68803">
        <ele>2263.8000488281</ele>
        <time>2019-03-27T08:32:44.000Z</time>
      </trkpt>
      <trkpt lat="45.62646" lon="6.68805">
        <ele>2264.6000976562</ele>
        <time>2019-03-27T08:32:46.000Z</time>
      </trkpt>
      <trkpt lat="45.62647" lon="6.68807">
        <ele>2265.1999511719</ele>
        <time>2019-03-27T08:32:49.000Z</time>
      </trkpt>
      <trkpt lat="45.62648" lon="6.68809">
        <ele>2265.6000976562</ele>
        <time>2019-03-27T08:32:52.000Z</time>
      </trkpt>
      <trkpt lat="45.62648" lon="6.6881">
        <ele>2265.8000488281</ele>
        <time>2019-03-27T08:32:55.000Z</time>
      </trkpt>
      <trkpt lat="45.62649" lon="6.68812">
        <ele>2266.6000976562</ele>
        <time>2019-03-27T08:32:58.000Z</time>
      </trkpt>
      <trkpt lat="45.6265" lon="6.68813">
        <ele>2267.1999511719</ele>
        <time>2019-03-27T08:33:02.000Z</time>
      </trkpt>
      <trkpt lat="45.6265" lon="6.68814">
        <ele>2267.6000976562</ele>
        <time>2019-03-27T08:33:03.000Z</time>
      </trkpt>
      <trkpt lat="45.62651" lon="6.68815">
        <ele>2268.6000976562</ele>
        <time>2019-03-27T08:33:06.000Z</time>
      </trkpt>
      <trkpt lat="45.62651" lon="6.68816">
        <ele>2268.8000488281</ele>
        <time>2019-03-27T08:33:07.000Z</time>
      </trkpt>
      <trkpt lat="45.62653" lon="6.68815">
        <ele>2269.1999511719</ele>
        <time>2019-03-27T08:33:11.000Z</time>
      </trkpt>
      <trkpt lat="45.62655" lon="6.68814">
        <ele>2269.8000488281</ele>
        <time>2019-03-27T08:33:14.000Z</time>
      </trkpt>
      <trkpt lat="45.62658" lon="6.68813">
        <ele>2270.6000976562</ele>
        <time>2019-03-27T08:33:17.000Z</time>
      </trkpt>
      <trkpt lat="45.62659" lon="6.68813">
        <ele>2270.8000488281</ele>
        <time>2019-03-27T08:33:19.000Z</time>
      </trkpt>
      <trkpt lat="45.62662" lon="6.68815">
        <ele>2272</ele>
        <time>2019-03-27T08:33:24.000Z</time>
      </trkpt>
      <trkpt lat="45.62665" lon="6.68818">
        <ele>2273</ele>
        <time>2019-03-27T08:33:29.000Z</time>
      </trkpt>
      <trkpt lat="45.62666" lon="6.68821">
        <ele>2274</ele>
        <time>2019-03-27T08:33:35.000Z</time>
      </trkpt>
      <trkpt lat="45.62668" lon="6.68824">
        <ele>2275</ele>
        <time>2019-03-27T08:33:40.000Z</time>
      </trkpt>
      <trkpt lat="45.62668" lon="6.68825">
        <ele>2275.1999511719</ele>
        <time>2019-03-27T08:33:41.000Z</time>
      </trkpt>
      <trkpt lat="45.62671" lon="6.68829">
        <ele>2276.1999511719</ele>
        <time>2019-03-27T08:33:46.000Z</time>
      </trkpt>
      <trkpt lat="45.62671" lon="6.68829">
        <ele>2276.3999023438</ele>
        <time>2019-03-27T08:33:47.000Z</time>
      </trkpt>
      <trkpt lat="45.62674" lon="6.68828">
        <ele>2276.6000976562</ele>
        <time>2019-03-27T08:33:50.000Z</time>
      </trkpt>
      <trkpt lat="45.62674" lon="6.68828">
        <ele>2277.3999023438</ele>
        <time>2019-03-27T08:33:52.000Z</time>
      </trkpt>
      <trkpt lat="45.62675" lon="6.68828">
        <ele>2277.6000976562</ele>
        <time>2019-03-27T08:33:53.000Z</time>
      </trkpt>
      <trkpt lat="45.62676" lon="6.68829">
        <ele>2278.3999023438</ele>
        <time>2019-03-27T08:33:57.000Z</time>
      </trkpt>
      <trkpt lat="45.62678" lon="6.68829">
        <ele>2278.8000488281</ele>
        <time>2019-03-27T08:34:00.000Z</time>
      </trkpt>
      <trkpt lat="45.62681" lon="6.68829">
        <ele>2279.6000976562</ele>
        <time>2019-03-27T08:34:03.000Z</time>
      </trkpt>
      <trkpt lat="45.62683" lon="6.68829">
        <ele>2280.3999023438</ele>
        <time>2019-03-27T08:34:07.000Z</time>
      </trkpt>
      <trkpt lat="45.62685" lon="6.6883">
        <ele>2280.8000488281</ele>
        <time>2019-03-27T08:34:10.000Z</time>
      </trkpt>
      <trkpt lat="45.62689" lon="6.6883">
        <ele>2281.6000976562</ele>
        <time>2019-03-27T08:34:13.000Z</time>
      </trkpt>
      <trkpt lat="45.6269" lon="6.6883">
        <ele>2282</ele>
        <time>2019-03-27T08:34:15.000Z</time>
      </trkpt>
      <trkpt lat="45.62693" lon="6.6883">
        <ele>2282.6000976562</ele>
        <time>2019-03-27T08:34:19.000Z</time>
      </trkpt>
      <trkpt lat="45.62694" lon="6.6883">
        <ele>2283</ele>
        <time>2019-03-27T08:34:20.000Z</time>
      </trkpt>
      <trkpt lat="45.62699" lon="6.68828">
        <ele>2284</ele>
        <time>2019-03-27T08:34:26.000Z</time>
      </trkpt>
      <trkpt lat="45.62701" lon="6.68825">
        <ele>2284.6000976562</ele>
        <time>2019-03-27T08:34:31.000Z</time>
      </trkpt>
      <trkpt lat="45.62703" lon="6.68824">
        <ele>2285.3999023438</ele>
        <time>2019-03-27T08:34:34.000Z</time>
      </trkpt>
      <trkpt lat="45.62704" lon="6.68822">
        <ele>2285.8000488281</ele>
        <time>2019-03-27T08:34:38.000Z</time>
      </trkpt>
      <trkpt lat="45.62705" lon="6.6882">
        <ele>2286.6000976562</ele>
        <time>2019-03-27T08:34:41.000Z</time>
      </trkpt>
      <trkpt lat="45.62706" lon="6.68819">
        <ele>2287.1999511719</ele>
        <time>2019-03-27T08:34:44.000Z</time>
      </trkpt>
      <trkpt lat="45.62708" lon="6.68816">
        <ele>2287.6000976562</ele>
        <time>2019-03-27T08:34:47.000Z</time>
      </trkpt>
      <trkpt lat="45.62709" lon="6.68816">
        <ele>2287.6000976562</ele>
        <time>2019-03-27T08:34:48.000Z</time>
      </trkpt>
      <trkpt lat="45.62711" lon="6.68813">
        <ele>2288.6000976562</ele>
        <time>2019-03-27T08:34:53.000Z</time>
      </trkpt>
      <trkpt lat="45.62712" lon="6.68812">
        <ele>2288.8000488281</ele>
        <time>2019-03-27T08:34:54.000Z</time>
      </trkpt>
      <trkpt lat="45.62715" lon="6.68808">
        <ele>2289.6000976562</ele>
        <time>2019-03-27T08:34:58.000Z</time>
      </trkpt>
      <trkpt lat="45.62716" lon="6.68807">
        <ele>2290</ele>
        <time>2019-03-27T08:35:01.000Z</time>
      </trkpt>
      <trkpt lat="45.62717" lon="6.68806">
        <ele>2290.8000488281</ele>
        <time>2019-03-27T08:35:04.000Z</time>
      </trkpt>
      <trkpt lat="45.62718" lon="6.68806">
        <ele>2291.3999023438</ele>
        <time>2019-03-27T08:35:06.000Z</time>
      </trkpt>
      <trkpt lat="45.6272" lon="6.68805">
        <ele>2292</ele>
        <time>2019-03-27T08:35:09.000Z</time>
      </trkpt>
      <trkpt lat="45.62721" lon="6.68803">
        <ele>2292.3999023438</ele>
        <time>2019-03-27T08:35:12.000Z</time>
      </trkpt>
      <trkpt lat="45.62724" lon="6.68804">
        <ele>2293</ele>
        <time>2019-03-27T08:35:17.000Z</time>
      </trkpt>
      <trkpt lat="45.62725" lon="6.68804">
        <ele>2293.3999023438</ele>
        <time>2019-03-27T08:35:18.000Z</time>
      </trkpt>
      <trkpt lat="45.62726" lon="6.68807">
        <ele>2294.1999511719</ele>
        <time>2019-03-27T08:35:21.000Z</time>
      </trkpt>
      <trkpt lat="45.62727" lon="6.68807">
        <ele>2294.8000488281</ele>
        <time>2019-03-27T08:35:24.000Z</time>
      </trkpt>
      <trkpt lat="45.62727" lon="6.68807">
        <ele>2295.3999023438</ele>
        <time>2019-03-27T08:35:27.000Z</time>
      </trkpt>
      <trkpt lat="45.62727" lon="6.68807">
        <ele>2295.1999511719</ele>
        <time>2019-03-27T08:35:37.000Z</time>
      </trkpt>
      <trkpt lat="45.62729" lon="6.68811">
        <ele>2295</ele>
        <time>2019-03-27T08:35:47.000Z</time>
      </trkpt>
      <trkpt lat="45.6273" lon="6.68815">
        <ele>2295.6000976562</ele>
        <time>2019-03-27T08:35:52.000Z</time>
      </trkpt>
      <trkpt lat="45.62732" lon="6.68816">
        <ele>2296.3999023438</ele>
        <time>2019-03-27T08:35:55.000Z</time>
      </trkpt>
      <trkpt lat="45.62732" lon="6.68818">
        <ele>2296.8000488281</ele>
        <time>2019-03-27T08:35:57.000Z</time>
      </trkpt>
      <trkpt lat="45.62734" lon="6.68821">
        <ele>2297.6000976562</ele>
        <time>2019-03-27T08:36:01.000Z</time>
      </trkpt>
      <trkpt lat="45.62734" lon="6.68822">
        <ele>2297.8000488281</ele>
        <time>2019-03-27T08:36:02.000Z</time>
      </trkpt>
      <trkpt lat="45.62736" lon="6.68825">
        <ele>2298.6000976562</ele>
        <time>2019-03-27T08:36:07.000Z</time>
      </trkpt>
      <trkpt lat="45.62737" lon="6.68825">
        <ele>2299.8000488281</ele>
        <time>2019-03-27T08:36:11.000Z</time>
      </trkpt>
      <trkpt lat="45.62737" lon="6.68826">
        <ele>2300</ele>
        <time>2019-03-27T08:36:13.000Z</time>
      </trkpt>
      <trkpt lat="45.62739" lon="6.68829">
        <ele>2300.8000488281</ele>
        <time>2019-03-27T08:36:16.000Z</time>
      </trkpt>
      <trkpt lat="45.62739" lon="6.68831">
        <ele>2301.1999511719</ele>
        <time>2019-03-27T08:36:18.000Z</time>
      </trkpt>
      <trkpt lat="45.6274" lon="6.68832">
        <ele>2301.8000488281</ele>
        <time>2019-03-27T08:36:21.000Z</time>
      </trkpt>
      <trkpt lat="45.62741" lon="6.68832">
        <ele>2302.1999511719</ele>
        <time>2019-03-27T08:36:24.000Z</time>
      </trkpt>
      <trkpt lat="45.62744" lon="6.68829">
        <ele>2303.1999511719</ele>
        <time>2019-03-27T08:36:29.000Z</time>
      </trkpt>
      <trkpt lat="45.62747" lon="6.68827">
        <ele>2304</ele>
        <time>2019-03-27T08:36:33.000Z</time>
      </trkpt>
      <trkpt lat="45.62748" lon="6.68826">
        <ele>2304.3999023438</ele>
        <time>2019-03-27T08:36:36.000Z</time>
      </trkpt>
      <trkpt lat="45.62749" lon="6.68825">
        <ele>2305.3999023438</ele>
        <time>2019-03-27T08:36:39.000Z</time>
      </trkpt>
      <trkpt lat="45.62749" lon="6.68825">
        <ele>2305.6000976562</ele>
        <time>2019-03-27T08:36:40.000Z</time>
      </trkpt>
      <trkpt lat="45.62752" lon="6.68821">
        <ele>2306.1999511719</ele>
        <time>2019-03-27T08:36:47.000Z</time>
      </trkpt>
      <trkpt lat="45.62752" lon="6.6882">
        <ele>2306.3999023438</ele>
        <time>2019-03-27T08:36:48.000Z</time>
      </trkpt>
      <trkpt lat="45.62754" lon="6.68819">
        <ele>2307</ele>
        <time>2019-03-27T08:36:51.000Z</time>
      </trkpt>
      <trkpt lat="45.62755" lon="6.68817">
        <ele>2307.6000976562</ele>
        <time>2019-03-27T08:36:54.000Z</time>
      </trkpt>
      <trkpt lat="45.62757" lon="6.68813">
        <ele>2308.3999023438</ele>
        <time>2019-03-27T08:36:59.000Z</time>
      </trkpt>
      <trkpt lat="45.62758" lon="6.68813">
        <ele>2308.6000976562</ele>
        <time>2019-03-27T08:37:00.000Z</time>
      </trkpt>
      <trkpt lat="45.62759" lon="6.6881">
        <ele>2309.1999511719</ele>
        <time>2019-03-27T08:37:04.000Z</time>
      </trkpt>
      <trkpt lat="45.6276" lon="6.68808">
        <ele>2309.6000976562</ele>
        <time>2019-03-27T08:37:06.000Z</time>
      </trkpt>
      <trkpt lat="45.6276" lon="6.68807">
        <ele>2309.6000976562</ele>
        <time>2019-03-27T08:37:07.000Z</time>
      </trkpt>
      <trkpt lat="45.62761" lon="6.68806">
        <ele>2310.3999023438</ele>
        <time>2019-03-27T08:37:10.000Z</time>
      </trkpt>
      <trkpt lat="45.62761" lon="6.68805">
        <ele>2310.8000488281</ele>
        <time>2019-03-27T08:37:12.000Z</time>
      </trkpt>
      <trkpt lat="45.62761" lon="6.68805">
        <ele>2311.3999023438</ele>
        <time>2019-03-27T08:37:16.000Z</time>
      </trkpt>
      <trkpt lat="45.62763" lon="6.68807">
        <ele>2312</ele>
        <time>2019-03-27T08:37:19.000Z</time>
      </trkpt>
      <trkpt lat="45.62764" lon="6.68808">
        <ele>2312.1999511719</ele>
        <time>2019-03-27T08:37:21.000Z</time>
      </trkpt>
      <trkpt lat="45.62766" lon="6.68811">
        <ele>2312.8000488281</ele>
        <time>2019-03-27T08:37:26.000Z</time>
      </trkpt>
      <trkpt lat="45.62767" lon="6.68812">
        <ele>2313.1999511719</ele>
        <time>2019-03-27T08:37:27.000Z</time>
      </trkpt>
      <trkpt lat="45.62769" lon="6.68813">
        <ele>2314</ele>
        <time>2019-03-27T08:37:31.000Z</time>
      </trkpt>
      <trkpt lat="45.62769" lon="6.68814">
        <ele>2314.3999023438</ele>
        <time>2019-03-27T08:37:34.000Z</time>
      </trkpt>
      <trkpt lat="45.62771" lon="6.68814">
        <ele>2314.6000976562</ele>
        <time>2019-03-27T08:37:37.000Z</time>
      </trkpt>
      <trkpt lat="45.62772" lon="6.68813">
        <ele>2314.8000488281</ele>
        <time>2019-03-27T08:37:39.000Z</time>
      </trkpt>
      <trkpt lat="45.62773" lon="6.68812">
        <ele>2315.1999511719</ele>
        <time>2019-03-27T08:37:41.000Z</time>
      </trkpt>
      <trkpt lat="45.62774" lon="6.68812">
        <ele>2315.3999023438</ele>
        <time>2019-03-27T08:37:42.000Z</time>
      </trkpt>
      <trkpt lat="45.62774" lon="6.6881">
        <ele>2316.3999023438</ele>
        <time>2019-03-27T08:37:47.000Z</time>
      </trkpt>
      <trkpt lat="45.62776" lon="6.68805">
        <ele>2317.6000976562</ele>
        <time>2019-03-27T08:37:53.000Z</time>
      </trkpt>
      <trkpt lat="45.62777" lon="6.68804">
        <ele>2317.8000488281</ele>
        <time>2019-03-27T08:37:54.000Z</time>
      </trkpt>
      <trkpt lat="45.62778" lon="6.68801">
        <ele>2318.6000976562</ele>
        <time>2019-03-27T08:37:58.000Z</time>
      </trkpt>
      <trkpt lat="45.62778" lon="6.68796">
        <ele>2319.8000488281</ele>
        <time>2019-03-27T08:38:05.000Z</time>
      </trkpt>
      <trkpt lat="45.62778" lon="6.68792">
        <ele>2320.6000976562</ele>
        <time>2019-03-27T08:38:10.000Z</time>
      </trkpt>
      <trkpt lat="45.62779" lon="6.6879">
        <ele>2321</ele>
        <time>2019-03-27T08:38:13.000Z</time>
      </trkpt>
      <trkpt lat="45.62779" lon="6.6879">
        <ele>2321.1999511719</ele>
        <time>2019-03-27T08:38:16.000Z</time>
      </trkpt>
      <trkpt lat="45.62781" lon="6.68791">
        <ele>2322.1999511719</ele>
        <time>2019-03-27T08:38:20.000Z</time>
      </trkpt>
      <trkpt lat="45.62781" lon="6.68792">
        <ele>2322.3999023438</ele>
        <time>2019-03-27T08:38:22.000Z</time>
      </trkpt>
      <trkpt lat="45.62783" lon="6.68794">
        <ele>2323.1999511719</ele>
        <time>2019-03-27T08:38:26.000Z</time>
      </trkpt>
      <trkpt lat="45.62784" lon="6.68795">
        <ele>2323.3999023438</ele>
        <time>2019-03-27T08:38:27.000Z</time>
      </trkpt>
      <trkpt lat="45.62786" lon="6.68797">
        <ele>2324.3999023438</ele>
        <time>2019-03-27T08:38:31.000Z</time>
      </trkpt>
      <trkpt lat="45.62787" lon="6.68798">
        <ele>2324.6000976562</ele>
        <time>2019-03-27T08:38:33.000Z</time>
      </trkpt>
      <trkpt lat="45.62789" lon="6.68802">
        <ele>2325.1999511719</ele>
        <time>2019-03-27T08:38:38.000Z</time>
      </trkpt>
      <trkpt lat="45.6279" lon="6.68802">
        <ele>2325.6000976562</ele>
        <time>2019-03-27T08:38:39.000Z</time>
      </trkpt>
      <trkpt lat="45.62791" lon="6.68807">
        <ele>2326.3999023438</ele>
        <time>2019-03-27T08:38:44.000Z</time>
      </trkpt>
      <trkpt lat="45.62793" lon="6.6881">
        <ele>2326.6000976562</ele>
        <time>2019-03-27T08:38:47.000Z</time>
      </trkpt>
      <trkpt lat="45.62794" lon="6.68814">
        <ele>2327.3999023438</ele>
        <time>2019-03-27T08:38:51.000Z</time>
      </trkpt>
      <trkpt lat="45.62795" lon="6.68815">
        <ele>2327.8000488281</ele>
        <time>2019-03-27T08:38:53.000Z</time>
      </trkpt>
      <trkpt lat="45.62795" lon="6.68819">
        <ele>2328.3999023438</ele>
        <time>2019-03-27T08:38:57.000Z</time>
      </trkpt>
      <trkpt lat="45.62796" lon="6.68822">
        <ele>2328.8000488281</ele>
        <time>2019-03-27T08:39:00.000Z</time>
      </trkpt>
      <trkpt lat="45.62795" lon="6.68825">
        <ele>2329.3999023438</ele>
        <time>2019-03-27T08:39:04.000Z</time>
      </trkpt>
      <trkpt lat="45.62796" lon="6.68828">
        <ele>2329.8000488281</ele>
        <time>2019-03-27T08:39:08.000Z</time>
      </trkpt>
      <trkpt lat="45.62796" lon="6.68831">
        <ele>2330.1999511719</ele>
        <time>2019-03-27T08:39:11.000Z</time>
      </trkpt>
      <trkpt lat="45.62796" lon="6.68833">
        <ele>2330.8000488281</ele>
        <time>2019-03-27T08:39:15.000Z</time>
      </trkpt>
      <trkpt lat="45.62796" lon="6.68834">
        <ele>2331</ele>
        <time>2019-03-27T08:39:17.000Z</time>
      </trkpt>
      <trkpt lat="45.62796" lon="6.68838">
        <ele>2332</ele>
        <time>2019-03-27T08:39:23.000Z</time>
      </trkpt>
      <trkpt lat="45.62796" lon="6.68844">
        <ele>2333</ele>
        <time>2019-03-27T08:39:29.000Z</time>
      </trkpt>
      <trkpt lat="45.62796" lon="6.6885">
        <ele>2334</ele>
        <time>2019-03-27T08:39:35.000Z</time>
      </trkpt>
      <trkpt lat="45.62796" lon="6.68851">
        <ele>2334.1999511719</ele>
        <time>2019-03-27T08:39:36.000Z</time>
      </trkpt>
      <trkpt lat="45.62796" lon="6.68857">
        <ele>2334.8000488281</ele>
        <time>2019-03-27T08:39:41.000Z</time>
      </trkpt>
      <trkpt lat="45.62796" lon="6.68859">
        <ele>2335.3999023438</ele>
        <time>2019-03-27T08:39:44.000Z</time>
      </trkpt>
      <trkpt lat="45.62797" lon="6.68861">
        <ele>2335.8000488281</ele>
        <time>2019-03-27T08:39:47.000Z</time>
      </trkpt>
      <trkpt lat="45.62798" lon="6.68863">
        <ele>2336.3999023438</ele>
        <time>2019-03-27T08:39:50.000Z</time>
      </trkpt>
      <trkpt lat="45.62798" lon="6.68865">
        <ele>2337.1999511719</ele>
        <time>2019-03-27T08:39:53.000Z</time>
      </trkpt>
      <trkpt lat="45.628" lon="6.68865">
        <ele>2337.6000976562</ele>
        <time>2019-03-27T08:39:56.000Z</time>
      </trkpt>
      <trkpt lat="45.62801" lon="6.68866">
        <ele>2338.1999511719</ele>
        <time>2019-03-27T08:39:59.000Z</time>
      </trkpt>
      <trkpt lat="45.62802" lon="6.68868">
        <ele>2338.8000488281</ele>
        <time>2019-03-27T08:40:01.000Z</time>
      </trkpt>
      <trkpt lat="45.62803" lon="6.6887">
        <ele>2339.1999511719</ele>
        <time>2019-03-27T08:40:04.000Z</time>
      </trkpt>
      <trkpt lat="45.62804" lon="6.68871">
        <ele>2339.8000488281</ele>
        <time>2019-03-27T08:40:08.000Z</time>
      </trkpt>
      <trkpt lat="45.62805" lon="6.68873">
        <ele>2340</ele>
        <time>2019-03-27T08:40:09.000Z</time>
      </trkpt>
      <trkpt lat="45.62807" lon="6.68874">
        <ele>2341</ele>
        <time>2019-03-27T08:40:12.000Z</time>
      </trkpt>
      <trkpt lat="45.62809" lon="6.68875">
        <ele>2341.3999023438</ele>
        <time>2019-03-27T08:40:15.000Z</time>
      </trkpt>
      <trkpt lat="45.6281" lon="6.68876">
        <ele>2342.1999511719</ele>
        <time>2019-03-27T08:40:17.000Z</time>
      </trkpt>
      <trkpt lat="45.6281" lon="6.68876">
        <ele>2343</ele>
        <time>2019-03-27T08:40:24.000Z</time>
      </trkpt>
      <trkpt lat="45.62813" lon="6.68877">
        <ele>2342.8000488281</ele>
        <time>2019-03-27T08:40:30.000Z</time>
      </trkpt>
      <trkpt lat="45.62815" lon="6.68878">
        <ele>2343.3999023438</ele>
        <time>2019-03-27T08:40:34.000Z</time>
      </trkpt>
      <trkpt lat="45.62816" lon="6.68878">
        <ele>2343.3999023438</ele>
        <time>2019-03-27T08:40:35.000Z</time>
      </trkpt>
      <trkpt lat="45.6282" lon="6.68879">
        <ele>2344.6000976562</ele>
        <time>2019-03-27T08:40:40.000Z</time>
      </trkpt>
      <trkpt lat="45.62823" lon="6.6888">
        <ele>2345.6000976562</ele>
        <time>2019-03-27T08:40:45.000Z</time>
      </trkpt>
      <trkpt lat="45.62823" lon="6.6888">
        <ele>2345.6000976562</ele>
        <time>2019-03-27T08:40:46.000Z</time>
      </trkpt>
      <trkpt lat="45.62825" lon="6.6888">
        <ele>2346.1999511719</ele>
        <time>2019-03-27T08:40:51.000Z</time>
      </trkpt>
      <trkpt lat="45.62826" lon="6.68881">
        <ele>2346.8000488281</ele>
        <time>2019-03-27T08:40:54.000Z</time>
      </trkpt>
      <trkpt lat="45.62828" lon="6.68881">
        <ele>2346.8000488281</ele>
        <time>2019-03-27T08:40:56.000Z</time>
      </trkpt>
      <trkpt lat="45.62828" lon="6.68882">
        <ele>2347.3999023438</ele>
        <time>2019-03-27T08:41:00.000Z</time>
      </trkpt>
      <trkpt lat="45.6283" lon="6.68883">
        <ele>2347.8000488281</ele>
        <time>2019-03-27T08:41:02.000Z</time>
      </trkpt>
      <trkpt lat="45.62831" lon="6.68884">
        <ele>2348.3999023438</ele>
        <time>2019-03-27T08:41:05.000Z</time>
      </trkpt>
      <trkpt lat="45.62834" lon="6.68884">
        <ele>2349.1999511719</ele>
        <time>2019-03-27T08:41:10.000Z</time>
      </trkpt>
      <trkpt lat="45.62835" lon="6.68884">
        <ele>2349.3999023438</ele>
        <time>2019-03-27T08:41:11.000Z</time>
      </trkpt>
      <trkpt lat="45.62838" lon="6.68884">
        <ele>2350.1999511719</ele>
        <time>2019-03-27T08:41:14.000Z</time>
      </trkpt>
      <trkpt lat="45.62841" lon="6.68885">
        <ele>2350.6000976562</ele>
        <time>2019-03-27T08:41:17.000Z</time>
      </trkpt>
      <trkpt lat="45.62845" lon="6.68885">
        <ele>2351.3999023438</ele>
        <time>2019-03-27T08:41:22.000Z</time>
      </trkpt>
      <trkpt lat="45.62847" lon="6.68885">
        <ele>2351.8000488281</ele>
        <time>2019-03-27T08:41:24.000Z</time>
      </trkpt>
      <trkpt lat="45.62849" lon="6.68885">
        <ele>2352.3999023438</ele>
        <time>2019-03-27T08:41:27.000Z</time>
      </trkpt>
      <trkpt lat="45.62849" lon="6.68885">
        <ele>2352.8000488281</ele>
        <time>2019-03-27T08:41:29.000Z</time>
      </trkpt>
      <trkpt lat="45.62851" lon="6.68885">
        <ele>2353.3999023438</ele>
        <time>2019-03-27T08:41:34.000Z</time>
      </trkpt>
      <trkpt lat="45.62852" lon="6.68885">
        <ele>2353.8000488281</ele>
        <time>2019-03-27T08:41:36.000Z</time>
      </trkpt>
      <trkpt lat="45.62855" lon="6.68886">
        <ele>2354.6000976562</ele>
        <time>2019-03-27T08:41:40.000Z</time>
      </trkpt>
      <trkpt lat="45.62856" lon="6.68886">
        <ele>2354.8000488281</ele>
        <time>2019-03-27T08:41:41.000Z</time>
      </trkpt>
      <trkpt lat="45.62859" lon="6.68887">
        <ele>2355.8000488281</ele>
        <time>2019-03-27T08:41:46.000Z</time>
      </trkpt>
      <trkpt lat="45.62861" lon="6.68887">
        <ele>2356.8000488281</ele>
        <time>2019-03-27T08:41:51.000Z</time>
      </trkpt>
      <trkpt lat="45.62861" lon="6.68887">
        <ele>2357.1999511719</ele>
        <time>2019-03-27T08:41:52.000Z</time>
      </trkpt>
      <trkpt lat="45.62864" lon="6.68889">
        <ele>2357.8000488281</ele>
        <time>2019-03-27T08:41:57.000Z</time>
      </trkpt>
      <trkpt lat="45.62864" lon="6.68889">
        <ele>2358</ele>
        <time>2019-03-27T08:41:58.000Z</time>
      </trkpt>
      <trkpt lat="45.62865" lon="6.68889">
        <ele>2359</ele>
        <time>2019-03-27T08:42:02.000Z</time>
      </trkpt>
      <trkpt lat="45.62865" lon="6.68889">
        <ele>2359.3999023438</ele>
        <time>2019-03-27T08:42:05.000Z</time>
      </trkpt>
      <trkpt lat="45.62868" lon="6.68892">
        <ele>2359.1999511719</ele>
        <time>2019-03-27T08:42:13.000Z</time>
      </trkpt>
      <trkpt lat="45.62869" lon="6.68894">
        <ele>2360</ele>
        <time>2019-03-27T08:42:17.000Z</time>
      </trkpt>
      <trkpt lat="45.6287" lon="6.68894">
        <ele>2360.1999511719</ele>
        <time>2019-03-27T08:42:18.000Z</time>
      </trkpt>
      <trkpt lat="45.62872" lon="6.68898">
        <ele>2361.1999511719</ele>
        <time>2019-03-27T08:42:23.000Z</time>
      </trkpt>
      <trkpt lat="45.62873" lon="6.68899">
        <ele>2361.6000976562</ele>
        <time>2019-03-27T08:42:24.000Z</time>
      </trkpt>
      <trkpt lat="45.62873" lon="6.68901">
        <ele>2362.3999023438</ele>
        <time>2019-03-27T08:42:28.000Z</time>
      </trkpt>
      <trkpt lat="45.62874" lon="6.68902">
        <ele>2362.6000976562</ele>
        <time>2019-03-27T08:42:30.000Z</time>
      </trkpt>
      <trkpt lat="45.62876" lon="6.68904">
        <ele>2363.6000976562</ele>
        <time>2019-03-27T08:42:35.000Z</time>
      </trkpt>
      <trkpt lat="45.62877" lon="6.68909">
        <ele>2364.1999511719</ele>
        <time>2019-03-27T08:42:40.000Z</time>
      </trkpt>
      <trkpt lat="45.62878" lon="6.68912">
        <ele>2364.8000488281</ele>
        <time>2019-03-27T08:42:43.000Z</time>
      </trkpt>
      <trkpt lat="45.62879" lon="6.68912">
        <ele>2365.3999023438</ele>
        <time>2019-03-27T08:42:46.000Z</time>
      </trkpt>
      <trkpt lat="45.62881" lon="6.68913">
        <ele>2365.8000488281</ele>
        <time>2019-03-27T08:42:50.000Z</time>
      </trkpt>
      <trkpt lat="45.62881" lon="6.68913">
        <ele>2366</ele>
        <time>2019-03-27T08:42:52.000Z</time>
      </trkpt>
      <trkpt lat="45.62885" lon="6.68913">
        <ele>2367</ele>
        <time>2019-03-27T08:42:57.000Z</time>
      </trkpt>
      <trkpt lat="45.62887" lon="6.68912">
        <ele>2367.1999511719</ele>
        <time>2019-03-27T08:42:58.000Z</time>
      </trkpt>
      <trkpt lat="45.62889" lon="6.68912">
        <ele>2368</ele>
        <time>2019-03-27T08:43:03.000Z</time>
      </trkpt>
      <trkpt lat="45.62889" lon="6.68911">
        <ele>2368.3999023438</ele>
        <time>2019-03-27T08:43:04.000Z</time>
      </trkpt>
      <trkpt lat="45.62891" lon="6.68911">
        <ele>2369</ele>
        <time>2019-03-27T08:43:07.000Z</time>
      </trkpt>
      <trkpt lat="45.62893" lon="6.6891">
        <ele>2369.6000976562</ele>
        <time>2019-03-27T08:43:10.000Z</time>
      </trkpt>
      <trkpt lat="45.62896" lon="6.68907">
        <ele>2370.1999511719</ele>
        <time>2019-03-27T08:43:16.000Z</time>
      </trkpt>
      <trkpt lat="45.62898" lon="6.68908">
        <ele>2370.3999023438</ele>
        <time>2019-03-27T08:43:18.000Z</time>
      </trkpt>
      <trkpt lat="45.62899" lon="6.68911">
        <ele>2371.3999023438</ele>
        <time>2019-03-27T08:43:23.000Z</time>
      </trkpt>
      <trkpt lat="45.62899" lon="6.68912">
        <ele>2371.3999023438</ele>
        <time>2019-03-27T08:43:24.000Z</time>
      </trkpt>
      <trkpt lat="45.62901" lon="6.68916">
        <ele>2372.6000976562</ele>
        <time>2019-03-27T08:43:28.000Z</time>
      </trkpt>
      <trkpt lat="45.62901" lon="6.68918">
        <ele>2372.8000488281</ele>
        <time>2019-03-27T08:43:30.000Z</time>
      </trkpt>
      <trkpt lat="45.62901" lon="6.68922">
        <ele>2373.3999023438</ele>
        <time>2019-03-27T08:43:36.000Z</time>
      </trkpt>
      <trkpt lat="45.62901" lon="6.68924">
        <ele>2373.6000976562</ele>
        <time>2019-03-27T08:43:37.000Z</time>
      </trkpt>
      <trkpt lat="45.62902" lon="6.6893">
        <ele>2374.6000976562</ele>
        <time>2019-03-27T08:43:42.000Z</time>
      </trkpt>
      <trkpt lat="45.62902" lon="6.68933">
        <ele>2375.6000976562</ele>
        <time>2019-03-27T08:43:47.000Z</time>
      </trkpt>
      <trkpt lat="45.62902" lon="6.68933">
        <ele>2375.8000488281</ele>
        <time>2019-03-27T08:43:48.000Z</time>
      </trkpt>
      <trkpt lat="45.62903" lon="6.68938">
        <ele>2377</ele>
        <time>2019-03-27T08:43:55.000Z</time>
      </trkpt>
      <trkpt lat="45.62903" lon="6.68939">
        <ele>2377.1999511719</ele>
        <time>2019-03-27T08:44:02.000Z</time>
      </trkpt>
      <trkpt lat="45.62903" lon="6.68939">
        <ele>2378.1999511719</ele>
        <time>2019-03-27T08:44:08.000Z</time>
      </trkpt>
      <trkpt lat="45.62903" lon="6.68939">
        <ele>2378.3999023438</ele>
        <time>2019-03-27T08:44:17.000Z</time>
      </trkpt>
      <trkpt lat="45.62903" lon="6.68939">
        <ele>2379</ele>
        <time>2019-03-27T08:44:33.000Z</time>
      </trkpt>
      <trkpt lat="45.62903" lon="6.68939">
        <ele>2378.6000976562</ele>
        <time>2019-03-27T08:44:45.000Z</time>
      </trkpt>
      <trkpt lat="45.62905" lon="6.68938">
        <ele>2379.6000976562</ele>
        <time>2019-03-27T08:44:49.000Z</time>
      </trkpt>
      <trkpt lat="45.62905" lon="6.68938">
        <ele>2379.8000488281</ele>
        <time>2019-03-27T08:44:50.000Z</time>
      </trkpt>
      <trkpt lat="45.62909" lon="6.68937">
        <ele>2380.1999511719</ele>
        <time>2019-03-27T08:44:55.000Z</time>
      </trkpt>
      <trkpt lat="45.62909" lon="6.68937">
        <ele>2380</ele>
        <time>2019-03-27T08:44:56.000Z</time>
      </trkpt>
      <trkpt lat="45.6291" lon="6.68936">
        <ele>2380.8000488281</ele>
        <time>2019-03-27T08:44:59.000Z</time>
      </trkpt>
      <trkpt lat="45.62913" lon="6.68933">
        <ele>2381.6000976562</ele>
        <time>2019-03-27T08:45:02.000Z</time>
      </trkpt>
      <trkpt lat="45.62916" lon="6.68932">
        <ele>2382</ele>
        <time>2019-03-27T08:45:07.000Z</time>
      </trkpt>
      <trkpt lat="45.62919" lon="6.6893">
        <ele>2383.1999511719</ele>
        <time>2019-03-27T08:45:11.000Z</time>
      </trkpt>
      <trkpt lat="45.62923" lon="6.68928">
        <ele>2384</ele>
        <time>2019-03-27T08:45:18.000Z</time>
      </trkpt>
      <trkpt lat="45.62923" lon="6.68928">
        <ele>2384.3999023438</ele>
        <time>2019-03-27T08:45:20.000Z</time>
      </trkpt>
      <trkpt lat="45.62927" lon="6.68925">
        <ele>2385.3999023438</ele>
        <time>2019-03-27T08:45:25.000Z</time>
      </trkpt>
      <trkpt lat="45.62928" lon="6.68924">
        <ele>2385.6000976562</ele>
        <time>2019-03-27T08:45:26.000Z</time>
      </trkpt>
      <trkpt lat="45.62929" lon="6.68923">
        <ele>2386.3999023438</ele>
        <time>2019-03-27T08:45:29.000Z</time>
      </trkpt>
      <trkpt lat="45.62929" lon="6.68922">
        <ele>2386.6000976562</ele>
        <time>2019-03-27T08:45:31.000Z</time>
      </trkpt>
      <trkpt lat="45.6293" lon="6.68922">
        <ele>2386.3999023438</ele>
        <time>2019-03-27T08:45:36.000Z</time>
      </trkpt>
      <trkpt lat="45.6293" lon="6.68922">
        <ele>2387.8000488281</ele>
        <time>2019-03-27T08:45:43.000Z</time>
      </trkpt>
      <trkpt lat="45.6293" lon="6.68923">
        <ele>2388.3999023438</ele>
        <time>2019-03-27T08:45:45.000Z</time>
      </trkpt>
      <trkpt lat="45.62932" lon="6.68928">
        <ele>2388.3999023438</ele>
        <time>2019-03-27T08:45:50.000Z</time>
      </trkpt>
      <trkpt lat="45.62933" lon="6.6893">
        <ele>2389.1999511719</ele>
        <time>2019-03-27T08:45:52.000Z</time>
      </trkpt>
      <trkpt lat="45.62934" lon="6.68933">
        <ele>2389.8000488281</ele>
        <time>2019-03-27T08:45:56.000Z</time>
      </trkpt>
      <trkpt lat="45.62934" lon="6.68937">
        <ele>2390.1999511719</ele>
        <time>2019-03-27T08:46:01.000Z</time>
      </trkpt>
      <trkpt lat="45.62934" lon="6.68938">
        <ele>2390.3999023438</ele>
        <time>2019-03-27T08:46:02.000Z</time>
      </trkpt>
      <trkpt lat="45.62934" lon="6.68943">
        <ele>2391.1999511719</ele>
        <time>2019-03-27T08:46:06.000Z</time>
      </trkpt>
      <trkpt lat="45.62934" lon="6.68945">
        <ele>2391.6000976562</ele>
        <time>2019-03-27T08:46:09.000Z</time>
      </trkpt>
      <trkpt lat="45.62933" lon="6.68951">
        <ele>2392.1999511719</ele>
        <time>2019-03-27T08:46:15.000Z</time>
      </trkpt>
      <trkpt lat="45.62933" lon="6.68956">
        <ele>2393.1999511719</ele>
        <time>2019-03-27T08:46:20.000Z</time>
      </trkpt>
      <trkpt lat="45.62933" lon="6.68958">
        <ele>2393.3999023438</ele>
        <time>2019-03-27T08:46:21.000Z</time>
      </trkpt>
      <trkpt lat="45.62933" lon="6.68962">
        <ele>2394</ele>
        <time>2019-03-27T08:46:26.000Z</time>
      </trkpt>
      <trkpt lat="45.62933" lon="6.68964">
        <ele>2394.3999023438</ele>
        <time>2019-03-27T08:46:29.000Z</time>
      </trkpt>
      <trkpt lat="45.62934" lon="6.68965">
        <ele>2395</ele>
        <time>2019-03-27T08:46:31.000Z</time>
      </trkpt>
      <trkpt lat="45.62934" lon="6.68967">
        <ele>2395.6000976562</ele>
        <time>2019-03-27T08:46:34.000Z</time>
      </trkpt>
      <trkpt lat="45.62935" lon="6.68967">
        <ele>2395.8000488281</ele>
        <time>2019-03-27T08:46:37.000Z</time>
      </trkpt>
      <trkpt lat="45.62937" lon="6.68966">
        <ele>2396.6000976562</ele>
        <time>2019-03-27T08:46:40.000Z</time>
      </trkpt>
      <trkpt lat="45.62939" lon="6.68965">
        <ele>2397.6000976562</ele>
        <time>2019-03-27T08:46:44.000Z</time>
      </trkpt>
      <trkpt lat="45.6294" lon="6.68965">
        <ele>2398</ele>
        <time>2019-03-27T08:46:45.000Z</time>
      </trkpt>
      <trkpt lat="45.62943" lon="6.68964">
        <ele>2398.6000976562</ele>
        <time>2019-03-27T08:46:50.000Z</time>
      </trkpt>
      <trkpt lat="45.62945" lon="6.68964">
        <ele>2398.8000488281</ele>
        <time>2019-03-27T08:46:51.000Z</time>
      </trkpt>
      <trkpt lat="45.62947" lon="6.68963">
        <ele>2399.8000488281</ele>
        <time>2019-03-27T08:46:55.000Z</time>
      </trkpt>
      <trkpt lat="45.62947" lon="6.68963">
        <ele>2399.8000488281</ele>
        <time>2019-03-27T08:46:56.000Z</time>
      </trkpt>
      <trkpt lat="45.62948" lon="6.68964">
        <ele>2400.8000488281</ele>
        <time>2019-03-27T08:47:01.000Z</time>
      </trkpt>
      <trkpt lat="45.6295" lon="6.68964">
        <ele>2401</ele>
        <time>2019-03-27T08:47:03.000Z</time>
      </trkpt>
      <trkpt lat="45.6295" lon="6.68964">
        <ele>2401.8000488281</ele>
        <time>2019-03-27T08:47:07.000Z</time>
      </trkpt>
      <trkpt lat="45.62951" lon="6.68964">
        <ele>2401.8000488281</ele>
        <time>2019-03-27T08:47:08.000Z</time>
      </trkpt>
      <trkpt lat="45.62956" lon="6.68968">
        <ele>2402.8000488281</ele>
        <time>2019-03-27T08:47:15.000Z</time>
      </trkpt>
      <trkpt lat="45.62957" lon="6.68972">
        <ele>2403.8000488281</ele>
        <time>2019-03-27T08:47:20.000Z</time>
      </trkpt>
      <trkpt lat="45.62958" lon="6.68973">
        <ele>2404.1999511719</ele>
        <time>2019-03-27T08:47:21.000Z</time>
      </trkpt>
      <trkpt lat="45.62961" lon="6.68977">
        <ele>2404.6000976562</ele>
        <time>2019-03-27T08:47:27.000Z</time>
      </trkpt>
      <trkpt lat="45.6296" lon="6.68979">
        <ele>2405.1999511719</ele>
        <time>2019-03-27T08:47:29.000Z</time>
      </trkpt>
      <trkpt lat="45.62961" lon="6.68982">
        <ele>2406</ele>
        <time>2019-03-27T08:47:34.000Z</time>
      </trkpt>
      <trkpt lat="45.62961" lon="6.68983">
        <ele>2406.1999511719</ele>
        <time>2019-03-27T08:47:35.000Z</time>
      </trkpt>
      <trkpt lat="45.62962" lon="6.68989">
        <ele>2407</ele>
        <time>2019-03-27T08:47:40.000Z</time>
      </trkpt>
      <trkpt lat="45.62962" lon="6.6899">
        <ele>2407.1999511719</ele>
        <time>2019-03-27T08:47:41.000Z</time>
      </trkpt>
      <trkpt lat="45.62962" lon="6.68992">
        <ele>2408.1999511719</ele>
        <time>2019-03-27T08:47:46.000Z</time>
      </trkpt>
      <trkpt lat="45.62962" lon="6.68993">
        <ele>2408.3999023438</ele>
        <time>2019-03-27T08:47:47.000Z</time>
      </trkpt>
      <trkpt lat="45.62964" lon="6.68995">
        <ele>2409.8000488281</ele>
        <time>2019-03-27T08:47:52.000Z</time>
      </trkpt>
      <trkpt lat="45.62966" lon="6.68998">
        <ele>2410.1999511719</ele>
        <time>2019-03-27T08:47:57.000Z</time>
      </trkpt>
      <trkpt lat="45.62967" lon="6.68999">
        <ele>2410.8000488281</ele>
        <time>2019-03-27T08:48:01.000Z</time>
      </trkpt>
      <trkpt lat="45.6297" lon="6.68999">
        <ele>2411.1999511719</ele>
        <time>2019-03-27T08:48:03.000Z</time>
      </trkpt>
      <trkpt lat="45.62971" lon="6.68999">
        <ele>2412</ele>
        <time>2019-03-27T08:48:06.000Z</time>
      </trkpt>
      <trkpt lat="45.62972" lon="6.69">
        <ele>2412.6000976562</ele>
        <time>2019-03-27T08:48:08.000Z</time>
      </trkpt>
      <trkpt lat="45.62975" lon="6.69002">
        <ele>2413.1999511719</ele>
        <time>2019-03-27T08:48:13.000Z</time>
      </trkpt>
      <trkpt lat="45.62978" lon="6.69004">
        <ele>2414.1999511719</ele>
        <time>2019-03-27T08:48:18.000Z</time>
      </trkpt>
      <trkpt lat="45.62979" lon="6.69004">
        <ele>2414.3999023438</ele>
        <time>2019-03-27T08:48:19.000Z</time>
      </trkpt>
      <trkpt lat="45.62984" lon="6.69006">
        <ele>2415.3999023438</ele>
        <time>2019-03-27T08:48:25.000Z</time>
      </trkpt>
      <trkpt lat="45.62985" lon="6.69006">
        <ele>2415.3999023438</ele>
        <time>2019-03-27T08:48:28.000Z</time>
      </trkpt>
      <trkpt lat="45.62986" lon="6.69006">
        <ele>2416</ele>
        <time>2019-03-27T08:48:32.000Z</time>
      </trkpt>
      <trkpt lat="45.62989" lon="6.69005">
        <ele>2416.6000976562</ele>
        <time>2019-03-27T08:48:35.000Z</time>
      </trkpt>
      <trkpt lat="45.62991" lon="6.69005">
        <ele>2417</ele>
        <time>2019-03-27T08:48:37.000Z</time>
      </trkpt>
      <trkpt lat="45.62994" lon="6.69006">
        <ele>2417.6000976562</ele>
        <time>2019-03-27T08:48:43.000Z</time>
      </trkpt>
      <trkpt lat="45.62997" lon="6.69008">
        <ele>2418.6000976562</ele>
        <time>2019-03-27T08:48:48.000Z</time>
      </trkpt>
      <trkpt lat="45.62997" lon="6.69009">
        <ele>2418.8000488281</ele>
        <time>2019-03-27T08:48:49.000Z</time>
      </trkpt>
      <trkpt lat="45.62998" lon="6.69009">
        <ele>2419.6000976562</ele>
        <time>2019-03-27T08:48:54.000Z</time>
      </trkpt>
      <trkpt lat="45.62998" lon="6.69009">
        <ele>2419.8000488281</ele>
        <time>2019-03-27T08:48:56.000Z</time>
      </trkpt>
      <trkpt lat="45.63002" lon="6.69012">
        <ele>2419.6000976562</ele>
        <time>2019-03-27T08:49:00.000Z</time>
      </trkpt>
      <trkpt lat="45.63006" lon="6.69015">
        <ele>2420.6000976562</ele>
        <time>2019-03-27T08:49:06.000Z</time>
      </trkpt>
      <trkpt lat="45.63006" lon="6.69016">
        <ele>2420.8000488281</ele>
        <time>2019-03-27T08:49:08.000Z</time>
      </trkpt>
      <trkpt lat="45.63008" lon="6.69018">
        <ele>2421.6000976562</ele>
        <time>2019-03-27T08:49:12.000Z</time>
      </trkpt>
      <trkpt lat="45.63009" lon="6.69019">
        <ele>2421.8000488281</ele>
        <time>2019-03-27T08:49:14.000Z</time>
      </trkpt>
      <trkpt lat="45.6301" lon="6.69021">
        <ele>2422.8000488281</ele>
        <time>2019-03-27T08:49:19.000Z</time>
      </trkpt>
      <trkpt lat="45.6301" lon="6.69021">
        <ele>2422.8000488281</ele>
        <time>2019-03-27T08:49:20.000Z</time>
      </trkpt>
      <trkpt lat="45.63011" lon="6.69025">
        <ele>2423.8000488281</ele>
        <time>2019-03-27T08:49:25.000Z</time>
      </trkpt>
      <trkpt lat="45.63011" lon="6.69026">
        <ele>2424</ele>
        <time>2019-03-27T08:49:26.000Z</time>
      </trkpt>
      <trkpt lat="45.63015" lon="6.69029">
        <ele>2425.1999511719</ele>
        <time>2019-03-27T08:49:31.000Z</time>
      </trkpt>
      <trkpt lat="45.63019" lon="6.69031">
        <ele>2425.8000488281</ele>
        <time>2019-03-27T08:49:37.000Z</time>
      </trkpt>
      <trkpt lat="45.63021" lon="6.69031">
        <ele>2426.3999023438</ele>
        <time>2019-03-27T08:49:40.000Z</time>
      </trkpt>
      <trkpt lat="45.63024" lon="6.6903">
        <ele>2427.6000976562</ele>
        <time>2019-03-27T08:49:45.000Z</time>
      </trkpt>
      <trkpt lat="45.63026" lon="6.69034">
        <ele>2428.6000976562</ele>
        <time>2019-03-27T08:49:52.000Z</time>
      </trkpt>
      <trkpt lat="45.63025" lon="6.69039">
        <ele>2429.6000976562</ele>
        <time>2019-03-27T08:49:57.000Z</time>
      </trkpt>
      <trkpt lat="45.63024" lon="6.69043">
        <ele>2430.6000976562</ele>
        <time>2019-03-27T08:50:04.000Z</time>
      </trkpt>
      <trkpt lat="45.63024" lon="6.69045">
        <ele>2430.8000488281</ele>
        <time>2019-03-27T08:50:06.000Z</time>
      </trkpt>
      <trkpt lat="45.63024" lon="6.69046">
        <ele>2431.1999511719</ele>
        <time>2019-03-27T08:50:09.000Z</time>
      </trkpt>
      <trkpt lat="45.63027" lon="6.69047">
        <ele>2432</ele>
        <time>2019-03-27T08:50:13.000Z</time>
      </trkpt>
      <trkpt lat="45.63028" lon="6.69047">
        <ele>2432.3999023438</ele>
        <time>2019-03-27T08:50:14.000Z</time>
      </trkpt>
      <trkpt lat="45.63029" lon="6.69047">
        <ele>2433.1999511719</ele>
        <time>2019-03-27T08:50:17.000Z</time>
      </trkpt>
      <trkpt lat="45.6303" lon="6.69048">
        <ele>2434.1999511719</ele>
        <time>2019-03-27T08:50:21.000Z</time>
      </trkpt>
      <trkpt lat="45.6303" lon="6.69049">
        <ele>2434.3999023438</ele>
        <time>2019-03-27T08:50:22.000Z</time>
      </trkpt>
      <trkpt lat="45.63029" lon="6.69053">
        <ele>2435.3999023438</ele>
        <time>2019-03-27T08:50:27.000Z</time>
      </trkpt>
      <trkpt lat="45.63029" lon="6.69053">
        <ele>2435.6000976562</ele>
        <time>2019-03-27T08:50:36.000Z</time>
      </trkpt>
      <trkpt lat="45.63029" lon="6.69053">
        <ele>2436.1999511719</ele>
        <time>2019-03-27T08:50:39.000Z</time>
      </trkpt>
      <trkpt lat="45.63029" lon="6.69057">
        <ele>2436.3999023438</ele>
        <time>2019-03-27T08:50:44.000Z</time>
      </trkpt>
      <trkpt lat="45.63029" lon="6.69061">
        <ele>2436.8000488281</ele>
        <time>2019-03-27T08:50:47.000Z</time>
      </trkpt>
      <trkpt lat="45.63027" lon="6.69066">
        <ele>2437.6000976562</ele>
        <time>2019-03-27T08:50:50.000Z</time>
      </trkpt>
      <trkpt lat="45.63027" lon="6.69068">
        <ele>2437.8000488281</ele>
        <time>2019-03-27T08:50:52.000Z</time>
      </trkpt>
      <trkpt lat="45.63026" lon="6.69071">
        <ele>2438.6000976562</ele>
        <time>2019-03-27T08:50:56.000Z</time>
      </trkpt>
      <trkpt lat="45.63026" lon="6.69071">
        <ele>2438.8000488281</ele>
        <time>2019-03-27T08:50:57.000Z</time>
      </trkpt>
      <trkpt lat="45.63025" lon="6.69073">
        <ele>2440</ele>
        <time>2019-03-27T08:51:03.000Z</time>
      </trkpt>
      <trkpt lat="45.63024" lon="6.69076">
        <ele>2441.1999511719</ele>
        <time>2019-03-27T08:51:06.000Z</time>
      </trkpt>
      <trkpt lat="45.63024" lon="6.69078">
        <ele>2442.3999023438</ele>
        <time>2019-03-27T08:51:10.000Z</time>
      </trkpt>
      <trkpt lat="45.63024" lon="6.69078">
        <ele>2442.6000976562</ele>
        <time>2019-03-27T08:51:11.000Z</time>
      </trkpt>
      <trkpt lat="45.63024" lon="6.69078">
        <ele>2440.6000976562</ele>
        <time>2019-03-27T08:51:30.000Z</time>
      </trkpt>
      <trkpt lat="45.63024" lon="6.69078">
        <ele>2440</ele>
        <time>2019-03-27T08:51:31.000Z</time>
      </trkpt>
      <trkpt lat="45.63024" lon="6.69078">
        <ele>2439.6000976562</ele>
        <time>2019-03-27T08:51:33.000Z</time>
      </trkpt>
      <trkpt lat="45.63024" lon="6.69078">
        <ele>2441</ele>
        <time>2019-03-27T08:51:36.000Z</time>
      </trkpt>
      <trkpt lat="45.63024" lon="6.69078">
        <ele>2442</ele>
        <time>2019-03-27T08:51:42.000Z</time>
      </trkpt>
      <trkpt lat="45.63024" lon="6.69078">
        <ele>2442.6000976562</ele>
        <time>2019-03-27T08:51:47.000Z</time>
      </trkpt>
      <trkpt lat="45.63024" lon="6.69078">
        <ele>2442</ele>
        <time>2019-03-27T08:51:58.000Z</time>
      </trkpt>
      <trkpt lat="45.63024" lon="6.69078">
        <ele>2443.3999023438</ele>
        <time>2019-03-27T08:52:04.000Z</time>
      </trkpt>
      <trkpt lat="45.63024" lon="6.69078">
        <ele>2443.8000488281</ele>
        <time>2019-03-27T08:52:06.000Z</time>
      </trkpt>
      <trkpt lat="45.63024" lon="6.69078">
        <ele>2442.3999023438</ele>
        <time>2019-03-27T08:52:10.000Z</time>
      </trkpt>
      <trkpt lat="45.63024" lon="6.69078">
        <ele>2442.8000488281</ele>
        <time>2019-03-27T08:52:18.000Z</time>
      </trkpt>
      <trkpt lat="45.63026" lon="6.69086">
        <ele>2442.6000976562</ele>
        <time>2019-03-27T08:52:25.000Z</time>
      </trkpt>
      <trkpt lat="45.63025" lon="6.69093">
        <ele>2443.1999511719</ele>
        <time>2019-03-27T08:52:30.000Z</time>
      </trkpt>
      <trkpt lat="45.63026" lon="6.69094">
        <ele>2443.3999023438</ele>
        <time>2019-03-27T08:52:31.000Z</time>
      </trkpt>
      <trkpt lat="45.63026" lon="6.691">
        <ele>2444.6000976562</ele>
        <time>2019-03-27T08:52:38.000Z</time>
      </trkpt>
      <trkpt lat="45.63026" lon="6.691">
        <ele>2444.6000976562</ele>
        <time>2019-03-27T08:52:39.000Z</time>
      </trkpt>
      <trkpt lat="45.63026" lon="6.691">
        <ele>2445.6000976562</ele>
        <time>2019-03-27T08:52:43.000Z</time>
      </trkpt>
      <trkpt lat="45.63026" lon="6.69104">
        <ele>2445.6000976562</ele>
        <time>2019-03-27T08:52:47.000Z</time>
      </trkpt>
      <trkpt lat="45.63026" lon="6.69109">
        <ele>2446.6000976562</ele>
        <time>2019-03-27T08:52:53.000Z</time>
      </trkpt>
      <trkpt lat="45.63025" lon="6.69114">
        <ele>2447.8000488281</ele>
        <time>2019-03-27T08:53:00.000Z</time>
      </trkpt>
      <trkpt lat="45.63025" lon="6.69115">
        <ele>2447.8000488281</ele>
        <time>2019-03-27T08:53:01.000Z</time>
      </trkpt>
      <trkpt lat="45.63023" lon="6.69119">
        <ele>2448.8000488281</ele>
        <time>2019-03-27T08:53:07.000Z</time>
      </trkpt>
      <trkpt lat="45.63022" lon="6.69121">
        <ele>2449.1999511719</ele>
        <time>2019-03-27T08:53:09.000Z</time>
      </trkpt>
      <trkpt lat="45.6302" lon="6.69125">
        <ele>2450</ele>
        <time>2019-03-27T08:53:15.000Z</time>
      </trkpt>
      <trkpt lat="45.63019" lon="6.69125">
        <ele>2450.1999511719</ele>
        <time>2019-03-27T08:53:16.000Z</time>
      </trkpt>
      <trkpt lat="45.63018" lon="6.69129">
        <ele>2451</ele>
        <time>2019-03-27T08:53:21.000Z</time>
      </trkpt>
      <trkpt lat="45.63017" lon="6.6913">
        <ele>2451.1999511719</ele>
        <time>2019-03-27T08:53:24.000Z</time>
      </trkpt>
      <trkpt lat="45.63014" lon="6.69133">
        <ele>2452</ele>
        <time>2019-03-27T08:53:30.000Z</time>
      </trkpt>
      <trkpt lat="45.63014" lon="6.69134">
        <ele>2452.1999511719</ele>
        <time>2019-03-27T08:53:31.000Z</time>
      </trkpt>
      <trkpt lat="45.63013" lon="6.69136">
        <ele>2453</ele>
        <time>2019-03-27T08:53:39.000Z</time>
      </trkpt>
      <trkpt lat="45.63011" lon="6.69139">
        <ele>2453.1999511719</ele>
        <time>2019-03-27T08:53:43.000Z</time>
      </trkpt>
      <trkpt lat="45.63011" lon="6.69141">
        <ele>2453.8000488281</ele>
        <time>2019-03-27T08:53:47.000Z</time>
      </trkpt>
      <trkpt lat="45.63009" lon="6.69145">
        <ele>2454.3999023438</ele>
        <time>2019-03-27T08:53:54.000Z</time>
      </trkpt>
      <trkpt lat="45.63006" lon="6.69151">
        <ele>2455.3999023438</ele>
        <time>2019-03-27T08:54:01.000Z</time>
      </trkpt>
      <trkpt lat="45.63006" lon="6.69151">
        <ele>2455.6000976562</ele>
        <time>2019-03-27T08:54:02.000Z</time>
      </trkpt>
      <trkpt lat="45.63002" lon="6.69155">
        <ele>2456.6000976562</ele>
        <time>2019-03-27T08:54:09.000Z</time>
      </trkpt>
      <trkpt lat="45.63" lon="6.6916">
        <ele>2457.6000976562</ele>
        <time>2019-03-27T08:54:16.000Z</time>
      </trkpt>
      <trkpt lat="45.62998" lon="6.69165">
        <ele>2458.3999023438</ele>
        <time>2019-03-27T08:54:24.000Z</time>
      </trkpt>
      <trkpt lat="45.62997" lon="6.69167">
        <ele>2458.8000488281</ele>
        <time>2019-03-27T08:54:27.000Z</time>
      </trkpt>
      <trkpt lat="45.62994" lon="6.69169">
        <ele>2459.6000976562</ele>
        <time>2019-03-27T08:54:32.000Z</time>
      </trkpt>
      <trkpt lat="45.62994" lon="6.6917">
        <ele>2459.8000488281</ele>
        <time>2019-03-27T08:54:33.000Z</time>
      </trkpt>
      <trkpt lat="45.62991" lon="6.69172">
        <ele>2460.3999023438</ele>
        <time>2019-03-27T08:54:39.000Z</time>
      </trkpt>
      <trkpt lat="45.6299" lon="6.69174">
        <ele>2461.1999511719</ele>
        <time>2019-03-27T08:54:42.000Z</time>
      </trkpt>
      <trkpt lat="45.62989" lon="6.69176">
        <ele>2462.3999023438</ele>
        <time>2019-03-27T08:54:46.000Z</time>
      </trkpt>
      <trkpt lat="45.62988" lon="6.69176">
        <ele>2462.3999023438</ele>
        <time>2019-03-27T08:54:47.000Z</time>
      </trkpt>
      <trkpt lat="45.62984" lon="6.69181">
        <ele>2463.1999511719</ele>
        <time>2019-03-27T08:54:56.000Z</time>
      </trkpt>
      <trkpt lat="45.62983" lon="6.69182">
        <ele>2463.3999023438</ele>
        <time>2019-03-27T08:54:58.000Z</time>
      </trkpt>
      <trkpt lat="45.62981" lon="6.69184">
        <ele>2464</ele>
        <time>2019-03-27T08:55:02.000Z</time>
      </trkpt>
      <trkpt lat="45.6298" lon="6.69185">
        <ele>2464.6000976562</ele>
        <time>2019-03-27T08:55:06.000Z</time>
      </trkpt>
      <trkpt lat="45.62979" lon="6.69187">
        <ele>2464.6000976562</ele>
        <time>2019-03-27T08:55:08.000Z</time>
      </trkpt>
      <trkpt lat="45.62977" lon="6.69189">
        <ele>2465.8000488281</ele>
        <time>2019-03-27T08:55:13.000Z</time>
      </trkpt>
      <trkpt lat="45.62977" lon="6.69189">
        <ele>2466.1999511719</ele>
        <time>2019-03-27T08:55:14.000Z</time>
      </trkpt>
      <trkpt lat="45.62975" lon="6.69191">
        <ele>2466.8000488281</ele>
        <time>2019-03-27T08:55:18.000Z</time>
      </trkpt>
      <trkpt lat="45.62975" lon="6.69192">
        <ele>2466.8000488281</ele>
        <time>2019-03-27T08:55:20.000Z</time>
      </trkpt>
      <trkpt lat="45.62972" lon="6.69194">
        <ele>2468</ele>
        <time>2019-03-27T08:55:28.000Z</time>
      </trkpt>
      <trkpt lat="45.62969" lon="6.69196">
        <ele>2468.6000976562</ele>
        <time>2019-03-27T08:55:34.000Z</time>
      </trkpt>
      <trkpt lat="45.62969" lon="6.69196">
        <ele>2469</ele>
        <time>2019-03-27T08:55:36.000Z</time>
      </trkpt>
      <trkpt lat="45.62969" lon="6.69196">
        <ele>2468.8000488281</ele>
        <time>2019-03-27T08:55:44.000Z</time>
      </trkpt>
      <trkpt lat="45.62969" lon="6.69196">
        <ele>2467.8000488281</ele>
        <time>2019-03-27T08:55:52.000Z</time>
      </trkpt>
      <trkpt lat="45.6297" lon="6.69195">
        <ele>2469.6000976562</ele>
        <time>2019-03-27T08:55:55.000Z</time>
      </trkpt>
      <trkpt lat="45.62971" lon="6.69195">
        <ele>2471</ele>
        <time>2019-03-27T08:55:57.000Z</time>
      </trkpt>
      <trkpt lat="45.62973" lon="6.69194">
        <ele>2471.6000976562</ele>
        <time>2019-03-27T08:55:59.000Z</time>
      </trkpt>
      <trkpt lat="45.62976" lon="6.69195">
        <ele>2471.1999511719</ele>
        <time>2019-03-27T08:56:06.000Z</time>
      </trkpt>
      <trkpt lat="45.62979" lon="6.69194">
        <ele>2471.3999023438</ele>
        <time>2019-03-27T08:56:14.000Z</time>
      </trkpt>
      <trkpt lat="45.62981" lon="6.69194">
        <ele>2472.1999511719</ele>
        <time>2019-03-27T08:56:18.000Z</time>
      </trkpt>
      <trkpt lat="45.62981" lon="6.69194">
        <ele>2472.1999511719</ele>
        <time>2019-03-27T08:56:20.000Z</time>
      </trkpt>
      <trkpt lat="45.62985" lon="6.69195">
        <ele>2472.8000488281</ele>
        <time>2019-03-27T08:56:25.000Z</time>
      </trkpt>
      <trkpt lat="45.62986" lon="6.69195">
        <ele>2473.3999023438</ele>
        <time>2019-03-27T08:56:28.000Z</time>
      </trkpt>
      <trkpt lat="45.62988" lon="6.69195">
        <ele>2473.8000488281</ele>
        <time>2019-03-27T08:56:31.000Z</time>
      </trkpt>
      <trkpt lat="45.62989" lon="6.69195">
        <ele>2474.3999023438</ele>
        <time>2019-03-27T08:56:35.000Z</time>
      </trkpt>
      <trkpt lat="45.6299" lon="6.69195">
        <ele>2475</ele>
        <time>2019-03-27T08:56:39.000Z</time>
      </trkpt>
      <trkpt lat="45.62992" lon="6.69196">
        <ele>2475.6000976562</ele>
        <time>2019-03-27T08:56:42.000Z</time>
      </trkpt>
      <trkpt lat="45.62994" lon="6.69197">
        <ele>2476.6000976562</ele>
        <time>2019-03-27T08:56:47.000Z</time>
      </trkpt>
      <trkpt lat="45.62999" lon="6.69197">
        <ele>2477.3999023438</ele>
        <time>2019-03-27T08:56:55.000Z</time>
      </trkpt>
      <trkpt lat="45.63" lon="6.69197">
        <ele>2477.6000976562</ele>
        <time>2019-03-27T08:56:58.000Z</time>
      </trkpt>
      <trkpt lat="45.63002" lon="6.69196">
        <ele>2477.8000488281</ele>
        <time>2019-03-27T08:57:03.000Z</time>
      </trkpt>
      <trkpt lat="45.63005" lon="6.69196">
        <ele>2478.6000976562</ele>
        <time>2019-03-27T08:57:07.000Z</time>
      </trkpt>
      <trkpt lat="45.63005" lon="6.69196">
        <ele>2479</ele>
        <time>2019-03-27T08:57:09.000Z</time>
      </trkpt>
      <trkpt lat="45.63009" lon="6.69196">
        <ele>2479.6000976562</ele>
        <time>2019-03-27T08:57:14.000Z</time>
      </trkpt>
      <trkpt lat="45.63014" lon="6.69198">
        <ele>2480.8000488281</ele>
        <time>2019-03-27T08:57:20.000Z</time>
      </trkpt>
      <trkpt lat="45.63019" lon="6.69197">
        <ele>2481.8000488281</ele>
        <time>2019-03-27T08:57:26.000Z</time>
      </trkpt>
      <trkpt lat="45.6302" lon="6.69197">
        <ele>2482</ele>
        <time>2019-03-27T08:57:27.000Z</time>
      </trkpt>
      <trkpt lat="45.63026" lon="6.69197">
        <ele>2482.1999511719</ele>
        <time>2019-03-27T08:57:34.000Z</time>
      </trkpt>
      <trkpt lat="45.63029" lon="6.69196">
        <ele>2482.6000976562</ele>
        <time>2019-03-27T08:57:40.000Z</time>
      </trkpt>
      <trkpt lat="45.63029" lon="6.69196">
        <ele>2482.8000488281</ele>
        <time>2019-03-27T08:57:41.000Z</time>
      </trkpt>
      <trkpt lat="45.63031" lon="6.69195">
        <ele>2484</ele>
        <time>2019-03-27T08:57:46.000Z</time>
      </trkpt>
      <trkpt lat="45.63032" lon="6.69196">
        <ele>2484.1999511719</ele>
        <time>2019-03-27T08:57:47.000Z</time>
      </trkpt>
      <trkpt lat="45.63033" lon="6.69196">
        <ele>2485</ele>
        <time>2019-03-27T08:57:50.000Z</time>
      </trkpt>
      <trkpt lat="45.63034" lon="6.69196">
        <ele>2485.6000976562</ele>
        <time>2019-03-27T08:57:54.000Z</time>
      </trkpt>
      <trkpt lat="45.63037" lon="6.69195">
        <ele>2485.8000488281</ele>
        <time>2019-03-27T08:58:00.000Z</time>
      </trkpt>
      <trkpt lat="45.63038" lon="6.69197">
        <ele>2485.1999511719</ele>
        <time>2019-03-27T08:58:06.000Z</time>
      </trkpt>
      <trkpt lat="45.63038" lon="6.69197">
        <ele>2486.6000976562</ele>
        <time>2019-03-27T08:58:08.000Z</time>
      </trkpt>
      <trkpt lat="45.63038" lon="6.69197">
        <ele>2487.8000488281</ele>
        <time>2019-03-27T08:58:11.000Z</time>
      </trkpt>
      <trkpt lat="45.63036" lon="6.69197">
        <ele>2488.1999511719</ele>
        <time>2019-03-27T08:58:14.000Z</time>
      </trkpt>
      <trkpt lat="45.63032" lon="6.692">
        <ele>2487.8000488281</ele>
        <time>2019-03-27T08:58:21.000Z</time>
      </trkpt>
      <trkpt lat="45.63028" lon="6.69204">
        <ele>2488.6000976562</ele>
        <time>2019-03-27T08:58:28.000Z</time>
      </trkpt>
      <trkpt lat="45.63026" lon="6.69205">
        <ele>2488.8000488281</ele>
        <time>2019-03-27T08:58:33.000Z</time>
      </trkpt>
      <trkpt lat="45.63026" lon="6.69206">
        <ele>2489</ele>
        <time>2019-03-27T08:58:35.000Z</time>
      </trkpt>
      <trkpt lat="45.63024" lon="6.69208">
        <ele>2489.8000488281</ele>
        <time>2019-03-27T08:58:42.000Z</time>
      </trkpt>
      <trkpt lat="45.63021" lon="6.69212">
        <ele>2490.8000488281</ele>
        <time>2019-03-27T08:58:48.000Z</time>
      </trkpt>
      <trkpt lat="45.6302" lon="6.69213">
        <ele>2491</ele>
        <time>2019-03-27T08:58:49.000Z</time>
      </trkpt>
      <trkpt lat="45.63018" lon="6.69216">
        <ele>2492</ele>
        <time>2019-03-27T08:58:55.000Z</time>
      </trkpt>
      <trkpt lat="45.63018" lon="6.69216">
        <ele>2492</ele>
        <time>2019-03-27T08:58:56.000Z</time>
      </trkpt>
      <trkpt lat="45.63017" lon="6.69218">
        <ele>2493.1999511719</ele>
        <time>2019-03-27T08:58:59.000Z</time>
      </trkpt>
      <trkpt lat="45.63017" lon="6.69218">
        <ele>2493.6000976562</ele>
        <time>2019-03-27T08:59:01.000Z</time>
      </trkpt>
      <trkpt lat="45.63018" lon="6.69218">
        <ele>2493.1999511719</ele>
        <time>2019-03-27T08:59:10.000Z</time>
      </trkpt>
      <trkpt lat="45.63021" lon="6.69217">
        <ele>2493.6000976562</ele>
        <time>2019-03-27T08:59:16.000Z</time>
      </trkpt>
      <trkpt lat="45.63022" lon="6.69217">
        <ele>2494.3999023438</ele>
        <time>2019-03-27T08:59:18.000Z</time>
      </trkpt>
      <trkpt lat="45.63023" lon="6.69218">
        <ele>2494.8000488281</ele>
        <time>2019-03-27T08:59:21.000Z</time>
      </trkpt>
      <trkpt lat="45.63026" lon="6.69217">
        <ele>2495</ele>
        <time>2019-03-27T08:59:26.000Z</time>
      </trkpt>
      <trkpt lat="45.63028" lon="6.69217">
        <ele>2495.6000976562</ele>
        <time>2019-03-27T08:59:30.000Z</time>
      </trkpt>
      <trkpt lat="45.6303" lon="6.69218">
        <ele>2496</ele>
        <time>2019-03-27T08:59:33.000Z</time>
      </trkpt>
      <trkpt lat="45.63031" lon="6.69218">
        <ele>2496.8000488281</ele>
        <time>2019-03-27T08:59:37.000Z</time>
      </trkpt>
      <trkpt lat="45.63033" lon="6.69218">
        <ele>2497.3999023438</ele>
        <time>2019-03-27T08:59:41.000Z</time>
      </trkpt>
      <trkpt lat="45.63034" lon="6.69217">
        <ele>2497.8000488281</ele>
        <time>2019-03-27T08:59:46.000Z</time>
      </trkpt>
      <trkpt lat="45.63035" lon="6.69217">
        <ele>2498</ele>
        <time>2019-03-27T08:59:47.000Z</time>
      </trkpt>
      <trkpt lat="45.63037" lon="6.69216">
        <ele>2498.3999023438</ele>
        <time>2019-03-27T08:59:51.000Z</time>
      </trkpt>
      <trkpt lat="45.63037" lon="6.69216">
        <ele>2498.6000976562</ele>
        <time>2019-03-27T08:59:52.000Z</time>
      </trkpt>
      <trkpt lat="45.6304" lon="6.69214">
        <ele>2499.1999511719</ele>
        <time>2019-03-27T08:59:57.000Z</time>
      </trkpt>
      <trkpt lat="45.63043" lon="6.69213">
        <ele>2499.8000488281</ele>
        <time>2019-03-27T09:00:02.000Z</time>
      </trkpt>
      <trkpt lat="45.63044" lon="6.69213">
        <ele>2500.1999511719</ele>
        <time>2019-03-27T09:00:05.000Z</time>
      </trkpt>
      <trkpt lat="45.63047" lon="6.69212">
        <ele>2501</ele>
        <time>2019-03-27T09:00:09.000Z</time>
      </trkpt>
      <trkpt lat="45.63047" lon="6.69212">
        <ele>2501.3999023438</ele>
        <time>2019-03-27T09:00:11.000Z</time>
      </trkpt>
      <trkpt lat="45.63047" lon="6.69212">
        <ele>2502.6000976562</ele>
        <time>2019-03-27T09:00:17.000Z</time>
      </trkpt>
      <trkpt lat="45.63047" lon="6.69212">
        <ele>2502.8000488281</ele>
        <time>2019-03-27T09:00:18.000Z</time>
      </trkpt>
      <trkpt lat="45.63049" lon="6.69212">
        <ele>2503.6000976562</ele>
        <time>2019-03-27T09:00:22.000Z</time>
      </trkpt>
      <trkpt lat="45.6305" lon="6.69212">
        <ele>2503.8000488281</ele>
        <time>2019-03-27T09:00:24.000Z</time>
      </trkpt>
      <trkpt lat="45.63053" lon="6.69211">
        <ele>2504</ele>
        <time>2019-03-27T09:00:30.000Z</time>
      </trkpt>
      <trkpt lat="45.63055" lon="6.69211">
        <ele>2504.8000488281</ele>
        <time>2019-03-27T09:00:33.000Z</time>
      </trkpt>
      <trkpt lat="45.63056" lon="6.6921">
        <ele>2505.3999023438</ele>
        <time>2019-03-27T09:00:35.000Z</time>
      </trkpt>
      <trkpt lat="45.63057" lon="6.69209">
        <ele>2506</ele>
        <time>2019-03-27T09:00:41.000Z</time>
      </trkpt>
      <trkpt lat="45.63057" lon="6.69209">
        <ele>2507.1999511719</ele>
        <time>2019-03-27T09:00:45.000Z</time>
      </trkpt>
      <trkpt lat="45.63058" lon="6.69208">
        <ele>2507.8000488281</ele>
        <time>2019-03-27T09:00:52.000Z</time>
      </trkpt>
      <trkpt lat="45.63059" lon="6.69208">
        <ele>2507.3999023438</ele>
        <time>2019-03-27T09:01:02.000Z</time>
      </trkpt>
      <trkpt lat="45.63059" lon="6.69208">
        <ele>2508.6000976562</ele>
        <time>2019-03-27T09:01:06.000Z</time>
      </trkpt>
      <trkpt lat="45.63059" lon="6.69208">
        <ele>2508.6000976562</ele>
        <time>2019-03-27T09:01:19.000Z</time>
      </trkpt>
      <trkpt lat="45.63058" lon="6.69208">
        <ele>2508.8000488281</ele>
        <time>2019-03-27T09:01:30.000Z</time>
      </trkpt>
      <trkpt lat="45.63058" lon="6.69208">
        <ele>2510</ele>
        <time>2019-03-27T09:01:32.000Z</time>
      </trkpt>
      <trkpt lat="45.63056" lon="6.69209">
        <ele>2509</ele>
        <time>2019-03-27T09:01:40.000Z</time>
      </trkpt>
      <trkpt lat="45.63054" lon="6.69215">
        <ele>2509.8000488281</ele>
        <time>2019-03-27T09:01:48.000Z</time>
      </trkpt>
      <trkpt lat="45.63054" lon="6.69217">
        <ele>2510</ele>
        <time>2019-03-27T09:01:50.000Z</time>
      </trkpt>
      <trkpt lat="45.63053" lon="6.69219">
        <ele>2511.1999511719</ele>
        <time>2019-03-27T09:01:56.000Z</time>
      </trkpt>
      <trkpt lat="45.63053" lon="6.6922">
        <ele>2511.3999023438</ele>
        <time>2019-03-27T09:01:58.000Z</time>
      </trkpt>
      <trkpt lat="45.63052" lon="6.69223">
        <ele>2512</ele>
        <time>2019-03-27T09:02:05.000Z</time>
      </trkpt>
      <trkpt lat="45.63051" lon="6.69224">
        <ele>2512.1999511719</ele>
        <time>2019-03-27T09:02:07.000Z</time>
      </trkpt>
      <trkpt lat="45.6305" lon="6.69226">
        <ele>2512.8000488281</ele>
        <time>2019-03-27T09:02:11.000Z</time>
      </trkpt>
      <trkpt lat="45.6305" lon="6.69226">
        <ele>2513.1999511719</ele>
        <time>2019-03-27T09:02:14.000Z</time>
      </trkpt>
      <trkpt lat="45.63048" lon="6.69227">
        <ele>2513.8000488281</ele>
        <time>2019-03-27T09:02:18.000Z</time>
      </trkpt>
      <trkpt lat="45.63048" lon="6.69227">
        <ele>2514</ele>
        <time>2019-03-27T09:02:28.000Z</time>
      </trkpt>
      <trkpt lat="45.63052" lon="6.69227">
        <ele>2514</ele>
        <time>2019-03-27T09:02:35.000Z</time>
      </trkpt>
      <trkpt lat="45.63052" lon="6.69228">
        <ele>2514.6000976562</ele>
        <time>2019-03-27T09:02:36.000Z</time>
      </trkpt>
      <trkpt lat="45.63054" lon="6.69228">
        <ele>2515.8000488281</ele>
        <time>2019-03-27T09:02:39.000Z</time>
      </trkpt>
      <trkpt lat="45.63055" lon="6.69227">
        <ele>2515.3999023438</ele>
        <time>2019-03-27T09:02:43.000Z</time>
      </trkpt>
      <trkpt lat="45.63058" lon="6.69227">
        <ele>2516.1999511719</ele>
        <time>2019-03-27T09:02:49.000Z</time>
      </trkpt>
      <trkpt lat="45.63059" lon="6.69227">
        <ele>2517</ele>
        <time>2019-03-27T09:02:52.000Z</time>
      </trkpt>
      <trkpt lat="45.6306" lon="6.69227">
        <ele>2517.3999023438</ele>
        <time>2019-03-27T09:02:54.000Z</time>
      </trkpt>
      <trkpt lat="45.63062" lon="6.69226">
        <ele>2518</ele>
        <time>2019-03-27T09:02:56.000Z</time>
      </trkpt>
      <trkpt lat="45.63063" lon="6.69226">
        <ele>2518.6000976562</ele>
        <time>2019-03-27T09:02:59.000Z</time>
      </trkpt>
      <trkpt lat="45.63064" lon="6.69226">
        <ele>2519.1999511719</ele>
        <time>2019-03-27T09:03:02.000Z</time>
      </trkpt>
      <trkpt lat="45.63064" lon="6.69226">
        <ele>2520</ele>
        <time>2019-03-27T09:03:06.000Z</time>
      </trkpt>
      <trkpt lat="45.63064" lon="6.69226">
        <ele>2520.1999511719</ele>
        <time>2019-03-27T09:03:07.000Z</time>
      </trkpt>
      <trkpt lat="45.63065" lon="6.69225">
        <ele>2521.3999023438</ele>
        <time>2019-03-27T09:03:13.000Z</time>
      </trkpt>
      <trkpt lat="45.63065" lon="6.69225">
        <ele>2521.3999023438</ele>
        <time>2019-03-27T09:03:14.000Z</time>
      </trkpt>
      <trkpt lat="45.63067" lon="6.69225">
        <ele>2522.3999023438</ele>
        <time>2019-03-27T09:03:18.000Z</time>
      </trkpt>
      <trkpt lat="45.63068" lon="6.69224">
        <ele>2523</ele>
        <time>2019-03-27T09:03:21.000Z</time>
      </trkpt>
      <trkpt lat="45.63068" lon="6.69224">
        <ele>2523.6000976562</ele>
        <time>2019-03-27T09:03:28.000Z</time>
      </trkpt>
      <trkpt lat="45.63074" lon="6.69221">
        <ele>2524.6000976562</ele>
        <time>2019-03-27T09:03:34.000Z</time>
      </trkpt>
      <trkpt lat="45.63075" lon="6.69221">
        <ele>2525</ele>
        <time>2019-03-27T09:03:35.000Z</time>
      </trkpt>
      <trkpt lat="45.63077" lon="6.69221">
        <ele>2526.1999511719</ele>
        <time>2019-03-27T09:03:39.000Z</time>
      </trkpt>
      <trkpt lat="45.63077" lon="6.69221">
        <ele>2526.6000976562</ele>
        <time>2019-03-27T09:03:41.000Z</time>
      </trkpt>
      <trkpt lat="45.63078" lon="6.69222">
        <ele>2527.1999511719</ele>
        <time>2019-03-27T09:03:46.000Z</time>
      </trkpt>
      <trkpt lat="45.63078" lon="6.69222">
        <ele>2527.6000976562</ele>
        <time>2019-03-27T09:03:47.000Z</time>
      </trkpt>
      <trkpt lat="45.6308" lon="6.69223">
        <ele>2528.3999023438</ele>
        <time>2019-03-27T09:03:49.000Z</time>
      </trkpt>
      <trkpt lat="45.63081" lon="6.69224">
        <ele>2528.8000488281</ele>
        <time>2019-03-27T09:03:55.000Z</time>
      </trkpt>
      <trkpt lat="45.63082" lon="6.69225">
        <ele>2528.8000488281</ele>
        <time>2019-03-27T09:04:15.000Z</time>
      </trkpt>
      <trkpt lat="45.63082" lon="6.69228">
        <ele>2529</ele>
        <time>2019-03-27T09:04:20.000Z</time>
      </trkpt>
      <trkpt lat="45.63082" lon="6.69228">
        <ele>2529.3999023438</ele>
        <time>2019-03-27T09:04:23.000Z</time>
      </trkpt>
      <trkpt lat="45.63083" lon="6.69227">
        <ele>2529.3999023438</ele>
        <time>2019-03-27T09:04:35.000Z</time>
      </trkpt>
      <trkpt lat="45.63083" lon="6.69227">
        <ele>2529.6000976562</ele>
        <time>2019-03-27T09:04:49.000Z</time>
      </trkpt>
      <trkpt lat="45.63083" lon="6.69227">
        <ele>2529.6000976562</ele>
        <time>2019-03-27T09:05:02.000Z</time>
      </trkpt>
      <trkpt lat="45.63083" lon="6.69228">
        <ele>2529.3999023438</ele>
        <time>2019-03-27T09:05:18.000Z</time>
      </trkpt>
      <trkpt lat="45.63083" lon="6.69228">
        <ele>2529.3999023438</ele>
        <time>2019-03-27T09:05:32.000Z</time>
      </trkpt>
      <trkpt lat="45.63083" lon="6.69228">
        <ele>2529.3999023438</ele>
        <time>2019-03-27T09:05:49.000Z</time>
      </trkpt>
      <trkpt lat="45.63083" lon="6.69227">
        <ele>2527.8000488281</ele>
        <time>2019-03-27T09:05:58.000Z</time>
      </trkpt>
      <trkpt lat="45.63083" lon="6.69227">
        <ele>2526.8000488281</ele>
        <time>2019-03-27T09:06:00.000Z</time>
      </trkpt>
      <trkpt lat="45.63083" lon="6.69227">
        <ele>2527.8000488281</ele>
        <time>2019-03-27T09:06:04.000Z</time>
      </trkpt>
      <trkpt lat="45.63083" lon="6.69227">
        <ele>2529</ele>
        <time>2019-03-27T09:06:06.000Z</time>
      </trkpt>
      <trkpt lat="45.63083" lon="6.69227">
        <ele>2529.1999511719</ele>
        <time>2019-03-27T09:06:15.000Z</time>
      </trkpt>
      <trkpt lat="45.63083" lon="6.69227">
        <ele>2529</ele>
        <time>2019-03-27T09:06:27.000Z</time>
      </trkpt>
      <trkpt lat="45.63083" lon="6.69227">
        <ele>2529</ele>
        <time>2019-03-27T09:06:38.000Z</time>
      </trkpt>
      <trkpt lat="45.63083" lon="6.69227">
        <ele>2528.8000488281</ele>
        <time>2019-03-27T09:06:53.000Z</time>
      </trkpt>
      <trkpt lat="45.63083" lon="6.69227">
        <ele>2528.8000488281</ele>
        <time>2019-03-27T09:07:07.000Z</time>
      </trkpt>
      <trkpt lat="45.63083" lon="6.69227">
        <ele>2528.8000488281</ele>
        <time>2019-03-27T09:07:24.000Z</time>
      </trkpt>
      <trkpt lat="45.63083" lon="6.69227">
        <ele>2529.1999511719</ele>
        <time>2019-03-27T09:07:37.000Z</time>
      </trkpt>
      <trkpt lat="45.63083" lon="6.69227">
        <ele>2528.3999023438</ele>
        <time>2019-03-27T09:07:50.000Z</time>
      </trkpt>
      <trkpt lat="45.63083" lon="6.69227">
        <ele>2528.6000976562</ele>
        <time>2019-03-27T09:08:05.000Z</time>
      </trkpt>
      <trkpt lat="45.63083" lon="6.69227">
        <ele>2528.8000488281</ele>
        <time>2019-03-27T09:08:18.000Z</time>
      </trkpt>
      <trkpt lat="45.63083" lon="6.69227">
        <ele>2528.6000976562</ele>
        <time>2019-03-27T09:08:34.000Z</time>
      </trkpt>
      <trkpt lat="45.63083" lon="6.69227">
        <ele>2528.3999023438</ele>
        <time>2019-03-27T09:08:50.000Z</time>
      </trkpt>
      <trkpt lat="45.63083" lon="6.69227">
        <ele>2528.3999023438</ele>
        <time>2019-03-27T09:09:02.000Z</time>
      </trkpt>
      <trkpt lat="45.63083" lon="6.69227">
        <ele>2528.1999511719</ele>
        <time>2019-03-27T09:09:17.000Z</time>
      </trkpt>
      <trkpt lat="45.63083" lon="6.69227">
        <ele>2528.3999023438</ele>
        <time>2019-03-27T09:09:32.000Z</time>
      </trkpt>
      <trkpt lat="45.63083" lon="6.69227">
        <ele>2528.3999023438</ele>
        <time>2019-03-27T09:09:48.000Z</time>
      </trkpt>
      <trkpt lat="45.63083" lon="6.69227">
        <ele>2528.8000488281</ele>
        <time>2019-03-27T09:10:02.000Z</time>
      </trkpt>
      <trkpt lat="45.63083" lon="6.69227">
        <ele>2528</ele>
        <time>2019-03-27T09:10:11.000Z</time>
      </trkpt>
      <trkpt lat="45.63083" lon="6.69227">
        <ele>2527</ele>
        <time>2019-03-27T09:10:15.000Z</time>
      </trkpt>
      <trkpt lat="45.63083" lon="6.69227">
        <ele>2527.3999023438</ele>
        <time>2019-03-27T09:10:18.000Z</time>
      </trkpt>
      <trkpt lat="45.63083" lon="6.69227">
        <ele>2525.8000488281</ele>
        <time>2019-03-27T09:10:20.000Z</time>
      </trkpt>
      <trkpt lat="45.63083" lon="6.69227">
        <ele>2528.3999023438</ele>
        <time>2019-03-27T09:10:25.000Z</time>
      </trkpt>
      <trkpt lat="45.63083" lon="6.69227">
        <ele>2530</ele>
        <time>2019-03-27T09:10:26.000Z</time>
      </trkpt>
      <trkpt lat="45.63083" lon="6.69227">
        <ele>2531</ele>
        <time>2019-03-27T09:10:28.000Z</time>
      </trkpt>
      <trkpt lat="45.63083" lon="6.69227">
        <ele>2531.1999511719</ele>
        <time>2019-03-27T09:10:30.000Z</time>
      </trkpt>
      <trkpt lat="45.63083" lon="6.69227">
        <ele>2529.8000488281</ele>
        <time>2019-03-27T09:10:33.000Z</time>
      </trkpt>
      <trkpt lat="45.63083" lon="6.69227">
        <ele>2528.8000488281</ele>
        <time>2019-03-27T09:10:45.000Z</time>
      </trkpt>
      <trkpt lat="45.63083" lon="6.69227">
        <ele>2528.8000488281</ele>
        <time>2019-03-27T09:10:46.000Z</time>
      </trkpt>
      <trkpt lat="45.63083" lon="6.69227">
        <ele>2527.3999023438</ele>
        <time>2019-03-27T09:10:51.000Z</time>
      </trkpt>
      <trkpt lat="45.63083" lon="6.69227">
        <ele>2526.1999511719</ele>
        <time>2019-03-27T09:10:53.000Z</time>
      </trkpt>
      <trkpt lat="45.63083" lon="6.69227">
        <ele>2527.1999511719</ele>
        <time>2019-03-27T09:10:58.000Z</time>
      </trkpt>
      <trkpt lat="45.63083" lon="6.69227">
        <ele>2527.8000488281</ele>
        <time>2019-03-27T09:10:59.000Z</time>
      </trkpt>
      <trkpt lat="45.63083" lon="6.69227">
        <ele>2528.6000976562</ele>
        <time>2019-03-27T09:11:00.000Z</time>
      </trkpt>
      <trkpt lat="45.63083" lon="6.69227">
        <ele>2529.8000488281</ele>
        <time>2019-03-27T09:11:01.000Z</time>
      </trkpt>
      <trkpt lat="45.63083" lon="6.69227">
        <ele>2530.8000488281</ele>
        <time>2019-03-27T09:11:04.000Z</time>
      </trkpt>
      <trkpt lat="45.63083" lon="6.69227">
        <ele>2529.1999511719</ele>
        <time>2019-03-27T09:11:07.000Z</time>
      </trkpt>
      <trkpt lat="45.63083" lon="6.69227">
        <ele>2528.8000488281</ele>
        <time>2019-03-27T09:11:16.000Z</time>
      </trkpt>
      <trkpt lat="45.63083" lon="6.69227">
        <ele>2528.6000976562</ele>
        <time>2019-03-27T09:11:33.000Z</time>
      </trkpt>
      <trkpt lat="45.63084" lon="6.69226">
        <ele>2528.8000488281</ele>
        <time>2019-03-27T09:11:55.000Z</time>
      </trkpt>
      <trkpt lat="45.63084" lon="6.69226">
        <ele>2527.8000488281</ele>
        <time>2019-03-27T09:12:03.000Z</time>
      </trkpt>
      <trkpt lat="45.63084" lon="6.69226">
        <ele>2526</ele>
        <time>2019-03-27T09:12:04.000Z</time>
      </trkpt>
      <trkpt lat="45.63084" lon="6.69226">
        <ele>2523.8000488281</ele>
        <time>2019-03-27T09:12:05.000Z</time>
      </trkpt>
      <trkpt lat="45.63084" lon="6.69226">
        <ele>2522.6000976562</ele>
        <time>2019-03-27T09:12:06.000Z</time>
      </trkpt>
      <trkpt lat="45.63084" lon="6.69226">
        <ele>2524.6000976562</ele>
        <time>2019-03-27T09:12:09.000Z</time>
      </trkpt>
      <trkpt lat="45.63084" lon="6.69226">
        <ele>2526.8000488281</ele>
        <time>2019-03-27T09:12:10.000Z</time>
      </trkpt>
      <trkpt lat="45.63084" lon="6.69226">
        <ele>2528</ele>
        <time>2019-03-27T09:12:11.000Z</time>
      </trkpt>
      <trkpt lat="45.63084" lon="6.69226">
        <ele>2529.3999023438</ele>
        <time>2019-03-27T09:12:25.000Z</time>
      </trkpt>
      <trkpt lat="45.63084" lon="6.69226">
        <ele>2529.6000976562</ele>
        <time>2019-03-27T09:12:31.000Z</time>
      </trkpt>
      <trkpt lat="45.63084" lon="6.69226">
        <ele>2529.3999023438</ele>
        <time>2019-03-27T09:12:53.000Z</time>
      </trkpt>
      <trkpt lat="45.63084" lon="6.69226">
        <ele>2528.1999511719</ele>
        <time>2019-03-27T09:13:01.000Z</time>
      </trkpt>
      <trkpt lat="45.63084" lon="6.69226">
        <ele>2528.6000976562</ele>
        <time>2019-03-27T09:13:11.000Z</time>
      </trkpt>
      <trkpt lat="45.63084" lon="6.69226">
        <ele>2528.6000976562</ele>
        <time>2019-03-27T09:13:28.000Z</time>
      </trkpt>
      <trkpt lat="45.63084" lon="6.69226">
        <ele>2529.3999023438</ele>
        <time>2019-03-27T09:13:32.000Z</time>
      </trkpt>
      <trkpt lat="45.63084" lon="6.69226">
        <ele>2529.3999023438</ele>
        <time>2019-03-27T09:13:42.000Z</time>
      </trkpt>
      <trkpt lat="45.63084" lon="6.69226">
        <ele>2529.3999023438</ele>
        <time>2019-03-27T09:13:56.000Z</time>
      </trkpt>
      <trkpt lat="45.63084" lon="6.69226">
        <ele>2529</ele>
        <time>2019-03-27T09:14:13.000Z</time>
      </trkpt>
      <trkpt lat="45.63084" lon="6.69226">
        <ele>2529.1999511719</ele>
        <time>2019-03-27T09:14:15.000Z</time>
      </trkpt>
      <trkpt lat="45.63084" lon="6.69226">
        <ele>2528.3999023438</ele>
        <time>2019-03-27T09:14:30.000Z</time>
      </trkpt>
      <trkpt lat="45.63084" lon="6.69226">
        <ele>2528.3999023438</ele>
        <time>2019-03-27T09:14:32.000Z</time>
      </trkpt>
      <trkpt lat="45.63084" lon="6.69226">
        <ele>2529.3999023438</ele>
        <time>2019-03-27T09:14:38.000Z</time>
      </trkpt>
      <trkpt lat="45.63084" lon="6.69226">
        <ele>2529</ele>
        <time>2019-03-27T09:14:46.000Z</time>
      </trkpt>
      <trkpt lat="45.63084" lon="6.69226">
        <ele>2528.8000488281</ele>
        <time>2019-03-27T09:15:01.000Z</time>
      </trkpt>
      <trkpt lat="45.63084" lon="6.69226">
        <ele>2528.8000488281</ele>
        <time>2019-03-27T09:15:20.000Z</time>
      </trkpt>
      <trkpt lat="45.63084" lon="6.69226">
        <ele>2528.8000488281</ele>
        <time>2019-03-27T09:15:29.000Z</time>
      </trkpt>
      <trkpt lat="45.63084" lon="6.69226">
        <ele>2528.3999023438</ele>
        <time>2019-03-27T09:15:44.000Z</time>
      </trkpt>
      <trkpt lat="45.63084" lon="6.69226">
        <ele>2528.3999023438</ele>
        <time>2019-03-27T09:15:57.000Z</time>
      </trkpt>
      <trkpt lat="45.63084" lon="6.69226">
        <ele>2528.3999023438</ele>
        <time>2019-03-27T09:16:03.000Z</time>
      </trkpt>
      <trkpt lat="45.63084" lon="6.69226">
        <ele>2528.1999511719</ele>
        <time>2019-03-27T09:16:17.000Z</time>
      </trkpt>
      <trkpt lat="45.63084" lon="6.69226">
        <ele>2527.3999023438</ele>
        <time>2019-03-27T09:16:23.000Z</time>
      </trkpt>
      <trkpt lat="45.63084" lon="6.69226">
        <ele>2528.3999023438</ele>
        <time>2019-03-27T09:16:27.000Z</time>
      </trkpt>
      <trkpt lat="45.63084" lon="6.69226">
        <ele>2529.3999023438</ele>
        <time>2019-03-27T09:16:29.000Z</time>
      </trkpt>
      <trkpt lat="45.63084" lon="6.69226">
        <ele>2528</ele>
        <time>2019-03-27T09:16:37.000Z</time>
      </trkpt>
      <trkpt lat="45.63084" lon="6.69226">
        <ele>2526.8000488281</ele>
        <time>2019-03-27T09:16:39.000Z</time>
      </trkpt>
      <trkpt lat="45.63084" lon="6.69226">
        <ele>2528.6000976562</ele>
        <time>2019-03-27T09:16:44.000Z</time>
      </trkpt>
      <trkpt lat="45.63084" lon="6.69226">
        <ele>2528.3999023438</ele>
        <time>2019-03-27T09:16:54.000Z</time>
      </trkpt>
      <trkpt lat="45.63084" lon="6.69226">
        <ele>2527.1999511719</ele>
        <time>2019-03-27T09:17:05.000Z</time>
      </trkpt>
      <trkpt lat="45.63084" lon="6.69226">
        <ele>2526.3999023438</ele>
        <time>2019-03-27T09:17:07.000Z</time>
      </trkpt>
      <trkpt lat="45.63084" lon="6.69226">
        <ele>2528.6000976562</ele>
        <time>2019-03-27T09:17:10.000Z</time>
      </trkpt>
      <trkpt lat="45.63084" lon="6.69226">
        <ele>2529.6000976562</ele>
        <time>2019-03-27T09:17:12.000Z</time>
      </trkpt>
      <trkpt lat="45.63084" lon="6.69226">
        <ele>2529</ele>
        <time>2019-03-27T09:17:15.000Z</time>
      </trkpt>
      <trkpt lat="45.63084" lon="6.69226">
        <ele>2528.6000976562</ele>
        <time>2019-03-27T09:17:16.000Z</time>
      </trkpt>
      <trkpt lat="45.63084" lon="6.69225">
        <ele>2527.6000976562</ele>
        <time>2019-03-27T09:17:25.000Z</time>
      </trkpt>
      <trkpt lat="45.63084" lon="6.69225">
        <ele>2528.6000976562</ele>
        <time>2019-03-27T09:17:29.000Z</time>
      </trkpt>
      <trkpt lat="45.63084" lon="6.69225">
        <ele>2528.1999511719</ele>
        <time>2019-03-27T09:17:45.000Z</time>
      </trkpt>
      <trkpt lat="45.63084" lon="6.69225">
        <ele>2528</ele>
        <time>2019-03-27T09:18:06.000Z</time>
      </trkpt>
      <trkpt lat="45.63084" lon="6.69225">
        <ele>2528.1999511719</ele>
        <time>2019-03-27T09:18:18.000Z</time>
      </trkpt>
      <trkpt lat="45.63084" lon="6.69225">
        <ele>2528</ele>
        <time>2019-03-27T09:18:44.000Z</time>
      </trkpt>
      <trkpt lat="45.63084" lon="6.69225">
        <ele>2527.8000488281</ele>
        <time>2019-03-27T09:19:04.000Z</time>
      </trkpt>
      <trkpt lat="45.63084" lon="6.69225">
        <ele>2527.6000976562</ele>
        <time>2019-03-27T09:19:12.000Z</time>
      </trkpt>
      <trkpt lat="45.63084" lon="6.69225">
        <ele>2527.6000976562</ele>
        <time>2019-03-27T09:19:14.000Z</time>
      </trkpt>
      <trkpt lat="45.63084" lon="6.69225">
        <ele>2528</ele>
        <time>2019-03-27T09:19:29.000Z</time>
      </trkpt>
      <trkpt lat="45.63084" lon="6.69225">
        <ele>2528</ele>
        <time>2019-03-27T09:19:49.000Z</time>
      </trkpt>
      <trkpt lat="45.63084" lon="6.69225">
        <ele>2527.8000488281</ele>
        <time>2019-03-27T09:20:00.000Z</time>
      </trkpt>
      <trkpt lat="45.63084" lon="6.69224">
        <ele>2527.6000976562</ele>
        <time>2019-03-27T09:20:04.000Z</time>
      </trkpt>
      <trkpt lat="45.63086" lon="6.69225">
        <ele>2528</ele>
        <time>2019-03-27T09:20:09.000Z</time>
      </trkpt>
      <trkpt lat="45.63086" lon="6.69225">
        <ele>2528</ele>
        <time>2019-03-27T09:20:22.000Z</time>
      </trkpt>
      <trkpt lat="45.63086" lon="6.69225">
        <ele>2528</ele>
        <time>2019-03-27T09:20:33.000Z</time>
      </trkpt>
      <trkpt lat="45.63086" lon="6.69225">
        <ele>2528</ele>
        <time>2019-03-27T09:20:42.000Z</time>
      </trkpt>
      <trkpt lat="45.63086" lon="6.69225">
        <ele>2528</ele>
        <time>2019-03-27T09:20:58.000Z</time>
      </trkpt>
      <trkpt lat="45.63086" lon="6.69226">
        <ele>2527.8000488281</ele>
        <time>2019-03-27T09:21:18.000Z</time>
      </trkpt>
      <trkpt lat="45.63086" lon="6.69225">
        <ele>2527.8000488281</ele>
        <time>2019-03-27T09:21:23.000Z</time>
      </trkpt>
      <trkpt lat="45.63087" lon="6.69226">
        <ele>2528.1999511719</ele>
        <time>2019-03-27T09:21:30.000Z</time>
      </trkpt>
      <trkpt lat="45.63087" lon="6.69226">
        <ele>2527.8000488281</ele>
        <time>2019-03-27T09:21:49.000Z</time>
      </trkpt>
      <trkpt lat="45.63087" lon="6.69225">
        <ele>2527.8000488281</ele>
        <time>2019-03-27T09:22:02.000Z</time>
      </trkpt>
      <trkpt lat="45.63088" lon="6.69219">
        <ele>2527.6000976562</ele>
        <time>2019-03-27T09:22:08.000Z</time>
      </trkpt>
      <trkpt lat="45.63091" lon="6.69216">
        <ele>2527.8000488281</ele>
        <time>2019-03-27T09:22:15.000Z</time>
      </trkpt>
      <trkpt lat="45.63092" lon="6.69216">
        <ele>2528.8000488281</ele>
        <time>2019-03-27T09:22:18.000Z</time>
      </trkpt>
      <trkpt lat="45.63093" lon="6.69214">
        <ele>2529</ele>
        <time>2019-03-27T09:22:21.000Z</time>
      </trkpt>
      <trkpt lat="45.63093" lon="6.69214">
        <ele>2530</ele>
        <time>2019-03-27T09:22:28.000Z</time>
      </trkpt>
      <trkpt lat="45.63093" lon="6.69214">
        <ele>2530</ele>
        <time>2019-03-27T09:22:31.000Z</time>
      </trkpt>
      <trkpt lat="45.63096" lon="6.69213">
        <ele>2530.1999511719</ele>
        <time>2019-03-27T09:22:38.000Z</time>
      </trkpt>
      <trkpt lat="45.63096" lon="6.69212">
        <ele>2531.1999511719</ele>
        <time>2019-03-27T09:22:46.000Z</time>
      </trkpt>
      <trkpt lat="45.63096" lon="6.69212">
        <ele>2531.1999511719</ele>
        <time>2019-03-27T09:22:58.000Z</time>
      </trkpt>
      <trkpt lat="45.63097" lon="6.69212">
        <ele>2531.1999511719</ele>
        <time>2019-03-27T09:23:08.000Z</time>
      </trkpt>
      <trkpt lat="45.63099" lon="6.69212">
        <ele>2531.1999511719</ele>
        <time>2019-03-27T09:23:09.000Z</time>
      </trkpt>
      <trkpt lat="45.63099" lon="6.69213">
        <ele>2531</ele>
        <time>2019-03-27T09:23:12.000Z</time>
      </trkpt>
      <trkpt lat="45.63098" lon="6.69216">
        <ele>2530.3999023438</ele>
        <time>2019-03-27T09:23:14.000Z</time>
      </trkpt>
      <trkpt lat="45.63098" lon="6.69217">
        <ele>2529.1999511719</ele>
        <time>2019-03-27T09:23:15.000Z</time>
      </trkpt>
      <trkpt lat="45.63098" lon="6.69218">
        <ele>2527.6000976562</ele>
        <time>2019-03-27T09:23:17.000Z</time>
      </trkpt>
      <trkpt lat="45.63098" lon="6.69218">
        <ele>2527.1999511719</ele>
        <time>2019-03-27T09:23:18.000Z</time>
      </trkpt>
      <trkpt lat="45.63098" lon="6.69218">
        <ele>2526.3999023438</ele>
        <time>2019-03-27T09:23:19.000Z</time>
      </trkpt>
      <trkpt lat="45.63098" lon="6.69218">
        <ele>2526.3999023438</ele>
        <time>2019-03-27T09:23:20.000Z</time>
      </trkpt>
      <trkpt lat="45.63099" lon="6.69222">
        <ele>2526.8000488281</ele>
        <time>2019-03-27T09:23:21.000Z</time>
      </trkpt>
      <trkpt lat="45.63105" lon="6.69224">
        <ele>2527</ele>
        <time>2019-03-27T09:23:24.000Z</time>
      </trkpt>
      <trkpt lat="45.63105" lon="6.69226">
        <ele>2526.6000976562</ele>
        <time>2019-03-27T09:23:25.000Z</time>
      </trkpt>
      <trkpt lat="45.63101" lon="6.69234">
        <ele>2525.1999511719</ele>
        <time>2019-03-27T09:23:27.000Z</time>
      </trkpt>
      <trkpt lat="45.631" lon="6.69239">
        <ele>2523.1999511719</ele>
        <time>2019-03-27T09:23:28.000Z</time>
      </trkpt>
      <trkpt lat="45.631" lon="6.69244">
        <ele>2521.3999023438</ele>
        <time>2019-03-27T09:23:29.000Z</time>
      </trkpt>
      <trkpt lat="45.63102" lon="6.69246">
        <ele>2520.1999511719</ele>
        <time>2019-03-27T09:23:30.000Z</time>
      </trkpt>
      <trkpt lat="45.63104" lon="6.69247">
        <ele>2519</ele>
        <time>2019-03-27T09:23:31.000Z</time>
      </trkpt>
      <trkpt lat="45.63106" lon="6.69249">
        <ele>2516.8000488281</ele>
        <time>2019-03-27T09:23:32.000Z</time>
      </trkpt>
      <trkpt lat="45.6311" lon="6.69254">
        <ele>2514.1999511719</ele>
        <time>2019-03-27T09:23:34.000Z</time>
      </trkpt>
      <trkpt lat="45.63112" lon="6.69258">
        <ele>2511.8000488281</ele>
        <time>2019-03-27T09:23:35.000Z</time>
      </trkpt>
      <trkpt lat="45.63114" lon="6.69262">
        <ele>2509.8000488281</ele>
        <time>2019-03-27T09:23:36.000Z</time>
      </trkpt>
      <trkpt lat="45.63116" lon="6.69265">
        <ele>2508.3999023438</ele>
        <time>2019-03-27T09:23:37.000Z</time>
      </trkpt>
      <trkpt lat="45.63119" lon="6.69272">
        <ele>2506.1999511719</ele>
        <time>2019-03-27T09:23:39.000Z</time>
      </trkpt>
      <trkpt lat="45.63121" lon="6.69274">
        <ele>2504</ele>
        <time>2019-03-27T09:23:40.000Z</time>
      </trkpt>
      <trkpt lat="45.63124" lon="6.69274">
        <ele>2501.6000976562</ele>
        <time>2019-03-27T09:23:41.000Z</time>
      </trkpt>
      <trkpt lat="45.63127" lon="6.69273">
        <ele>2500</ele>
        <time>2019-03-27T09:23:42.000Z</time>
      </trkpt>
      <trkpt lat="45.6313" lon="6.69272">
        <ele>2498.8000488281</ele>
        <time>2019-03-27T09:23:43.000Z</time>
      </trkpt>
      <trkpt lat="45.63133" lon="6.6927">
        <ele>2497.8000488281</ele>
        <time>2019-03-27T09:23:44.000Z</time>
      </trkpt>
      <trkpt lat="45.63135" lon="6.69271">
        <ele>2496</ele>
        <time>2019-03-27T09:23:45.000Z</time>
      </trkpt>
      <trkpt lat="45.63136" lon="6.69276">
        <ele>2493.6000976562</ele>
        <time>2019-03-27T09:23:46.000Z</time>
      </trkpt>
      <trkpt lat="45.63137" lon="6.6928">
        <ele>2491.6000976562</ele>
        <time>2019-03-27T09:23:47.000Z</time>
      </trkpt>
      <trkpt lat="45.63139" lon="6.69281">
        <ele>2490.1999511719</ele>
        <time>2019-03-27T09:23:48.000Z</time>
      </trkpt>
      <trkpt lat="45.63141" lon="6.69282">
        <ele>2489</ele>
        <time>2019-03-27T09:23:49.000Z</time>
      </trkpt>
      <trkpt lat="45.63144" lon="6.69283">
        <ele>2487</ele>
        <time>2019-03-27T09:23:51.000Z</time>
      </trkpt>
      <trkpt lat="45.63146" lon="6.69285">
        <ele>2486</ele>
        <time>2019-03-27T09:23:52.000Z</time>
      </trkpt>
      <trkpt lat="45.63148" lon="6.69285">
        <ele>2484.1999511719</ele>
        <time>2019-03-27T09:23:53.000Z</time>
      </trkpt>
      <trkpt lat="45.6315" lon="6.69286">
        <ele>2482.3999023438</ele>
        <time>2019-03-27T09:23:54.000Z</time>
      </trkpt>
      <trkpt lat="45.63151" lon="6.69289">
        <ele>2480.6000976562</ele>
        <time>2019-03-27T09:23:55.000Z</time>
      </trkpt>
      <trkpt lat="45.63153" lon="6.69293">
        <ele>2477.6000976562</ele>
        <time>2019-03-27T09:23:56.000Z</time>
      </trkpt>
      <trkpt lat="45.6315" lon="6.693">
        <ele>2476</ele>
        <time>2019-03-27T09:23:57.000Z</time>
      </trkpt>
      <trkpt lat="45.6315" lon="6.69307">
        <ele>2474.6000976562</ele>
        <time>2019-03-27T09:23:58.000Z</time>
      </trkpt>
      <trkpt lat="45.63151" lon="6.69312">
        <ele>2473.3999023438</ele>
        <time>2019-03-27T09:23:59.000Z</time>
      </trkpt>
      <trkpt lat="45.63153" lon="6.69316">
        <ele>2472.6000976562</ele>
        <time>2019-03-27T09:24:00.000Z</time>
      </trkpt>
      <trkpt lat="45.63156" lon="6.69318">
        <ele>2471.8000488281</ele>
        <time>2019-03-27T09:24:01.000Z</time>
      </trkpt>
      <trkpt lat="45.63158" lon="6.69319">
        <ele>2470.8000488281</ele>
        <time>2019-03-27T09:24:02.000Z</time>
      </trkpt>
      <trkpt lat="45.63161" lon="6.69321">
        <ele>2469</ele>
        <time>2019-03-27T09:24:03.000Z</time>
      </trkpt>
      <trkpt lat="45.63163" lon="6.69324">
        <ele>2466.8000488281</ele>
        <time>2019-03-27T09:24:04.000Z</time>
      </trkpt>
      <trkpt lat="45.63163" lon="6.69331">
        <ele>2464.1999511719</ele>
        <time>2019-03-27T09:24:05.000Z</time>
      </trkpt>
      <trkpt lat="45.63163" lon="6.69337">
        <ele>2461.8000488281</ele>
        <time>2019-03-27T09:24:06.000Z</time>
      </trkpt>
      <trkpt lat="45.63164" lon="6.69343">
        <ele>2459.8000488281</ele>
        <time>2019-03-27T09:24:07.000Z</time>
      </trkpt>
      <trkpt lat="45.63167" lon="6.69345">
        <ele>2458.6000976562</ele>
        <time>2019-03-27T09:24:08.000Z</time>
      </trkpt>
      <trkpt lat="45.63172" lon="6.69349">
        <ele>2456.3999023438</ele>
        <time>2019-03-27T09:24:10.000Z</time>
      </trkpt>
      <trkpt lat="45.63174" lon="6.6935">
        <ele>2454.1999511719</ele>
        <time>2019-03-27T09:24:11.000Z</time>
      </trkpt>
      <trkpt lat="45.63176" lon="6.69353">
        <ele>2451.6000976562</ele>
        <time>2019-03-27T09:24:12.000Z</time>
      </trkpt>
      <trkpt lat="45.63177" lon="6.69357">
        <ele>2449</ele>
        <time>2019-03-27T09:24:13.000Z</time>
      </trkpt>
      <trkpt lat="45.63178" lon="6.69362">
        <ele>2446.8000488281</ele>
        <time>2019-03-27T09:24:14.000Z</time>
      </trkpt>
      <trkpt lat="45.63179" lon="6.69368">
        <ele>2444.3999023438</ele>
        <time>2019-03-27T09:24:15.000Z</time>
      </trkpt>
      <trkpt lat="45.63183" lon="6.6937">
        <ele>2442.6000976562</ele>
        <time>2019-03-27T09:24:16.000Z</time>
      </trkpt>
      <trkpt lat="45.63187" lon="6.69371">
        <ele>2441.3999023438</ele>
        <time>2019-03-27T09:24:17.000Z</time>
      </trkpt>
      <trkpt lat="45.6319" lon="6.69373">
        <ele>2439.3999023438</ele>
        <time>2019-03-27T09:24:19.000Z</time>
      </trkpt>
      <trkpt lat="45.63189" lon="6.69377">
        <ele>2435.8000488281</ele>
        <time>2019-03-27T09:24:20.000Z</time>
      </trkpt>
      <trkpt lat="45.63187" lon="6.69381">
        <ele>2433.6000976562</ele>
        <time>2019-03-27T09:24:21.000Z</time>
      </trkpt>
      <trkpt lat="45.63185" lon="6.69382">
        <ele>2431.3999023438</ele>
        <time>2019-03-27T09:24:22.000Z</time>
      </trkpt>
      <trkpt lat="45.63184" lon="6.69381">
        <ele>2429.6000976562</ele>
        <time>2019-03-27T09:24:23.000Z</time>
      </trkpt>
      <trkpt lat="45.63183" lon="6.6938">
        <ele>2428.3999023438</ele>
        <time>2019-03-27T09:24:24.000Z</time>
      </trkpt>
      <trkpt lat="45.63182" lon="6.69378">
        <ele>2427.1999511719</ele>
        <time>2019-03-27T09:24:25.000Z</time>
      </trkpt>
      <trkpt lat="45.63181" lon="6.69375">
        <ele>2426</ele>
        <time>2019-03-27T09:24:27.000Z</time>
      </trkpt>
      <trkpt lat="45.63181" lon="6.69375">
        <ele>2425.3999023438</ele>
        <time>2019-03-27T09:24:28.000Z</time>
      </trkpt>
      <trkpt lat="45.63181" lon="6.69375">
        <ele>2424.3999023438</ele>
        <time>2019-03-27T09:24:30.000Z</time>
      </trkpt>
      <trkpt lat="45.63181" lon="6.69375">
        <ele>2424.1999511719</ele>
        <time>2019-03-27T09:24:40.000Z</time>
      </trkpt>
      <trkpt lat="45.63181" lon="6.69375">
        <ele>2424.3999023438</ele>
        <time>2019-03-27T09:24:45.000Z</time>
      </trkpt>
      <trkpt lat="45.63181" lon="6.6938">
        <ele>2424.3999023438</ele>
        <time>2019-03-27T09:24:47.000Z</time>
      </trkpt>
      <trkpt lat="45.63186" lon="6.69386">
        <ele>2424.1999511719</ele>
        <time>2019-03-27T09:24:49.000Z</time>
      </trkpt>
      <trkpt lat="45.63188" lon="6.69382">
        <ele>2423.6000976562</ele>
        <time>2019-03-27T09:24:52.000Z</time>
      </trkpt>
      <trkpt lat="45.63188" lon="6.69382">
        <ele>2422.8000488281</ele>
        <time>2019-03-27T09:24:53.000Z</time>
      </trkpt>
      <trkpt lat="45.63188" lon="6.69382">
        <ele>2421.6000976562</ele>
        <time>2019-03-27T09:24:54.000Z</time>
      </trkpt>
      <trkpt lat="45.63188" lon="6.69382">
        <ele>2420.3999023438</ele>
        <time>2019-03-27T09:24:55.000Z</time>
      </trkpt>
      <trkpt lat="45.63188" lon="6.69382">
        <ele>2419.1999511719</ele>
        <time>2019-03-27T09:24:57.000Z</time>
      </trkpt>
      <trkpt lat="45.63188" lon="6.69382">
        <ele>2418.1999511719</ele>
        <time>2019-03-27T09:25:05.000Z</time>
      </trkpt>
      <trkpt lat="45.63188" lon="6.69382">
        <ele>2418.1999511719</ele>
        <time>2019-03-27T09:25:13.000Z</time>
      </trkpt>
      <trkpt lat="45.63188" lon="6.69382">
        <ele>2418.1999511719</ele>
        <time>2019-03-27T09:25:19.000Z</time>
      </trkpt>
      <trkpt lat="45.63187" lon="6.69383">
        <ele>2418.1999511719</ele>
        <time>2019-03-27T09:25:32.000Z</time>
      </trkpt>
      <trkpt lat="45.63187" lon="6.69383">
        <ele>2418</ele>
        <time>2019-03-27T09:25:46.000Z</time>
      </trkpt>
      <trkpt lat="45.63187" lon="6.69383">
        <ele>2417.8000488281</ele>
        <time>2019-03-27T09:26:07.000Z</time>
      </trkpt>
      <trkpt lat="45.63187" lon="6.69381">
        <ele>2417.8000488281</ele>
        <time>2019-03-27T09:26:27.000Z</time>
      </trkpt>
      <trkpt lat="45.63187" lon="6.69381">
        <ele>2417.8000488281</ele>
        <time>2019-03-27T09:26:46.000Z</time>
      </trkpt>
      <trkpt lat="45.63187" lon="6.69381">
        <ele>2417.8000488281</ele>
        <time>2019-03-27T09:27:04.000Z</time>
      </trkpt>
      <trkpt lat="45.63187" lon="6.69381">
        <ele>2417.6000976562</ele>
        <time>2019-03-27T09:27:22.000Z</time>
      </trkpt>
      <trkpt lat="45.63194" lon="6.69374">
        <ele>2417.8000488281</ele>
        <time>2019-03-27T09:27:26.000Z</time>
      </trkpt>
      <trkpt lat="45.63205" lon="6.69364">
        <ele>2417.3999023438</ele>
        <time>2019-03-27T09:27:29.000Z</time>
      </trkpt>
      <trkpt lat="45.63208" lon="6.69361">
        <ele>2417.1999511719</ele>
        <time>2019-03-27T09:27:30.000Z</time>
      </trkpt>
      <trkpt lat="45.63211" lon="6.69358">
        <ele>2416.8000488281</ele>
        <time>2019-03-27T09:27:31.000Z</time>
      </trkpt>
      <trkpt lat="45.63215" lon="6.69359">
        <ele>2415</ele>
        <time>2019-03-27T09:27:33.000Z</time>
      </trkpt>
      <trkpt lat="45.63217" lon="6.69364">
        <ele>2413.8000488281</ele>
        <time>2019-03-27T09:27:34.000Z</time>
      </trkpt>
      <trkpt lat="45.63218" lon="6.69368">
        <ele>2412.6000976562</ele>
        <time>2019-03-27T09:27:35.000Z</time>
      </trkpt>
      <trkpt lat="45.6322" lon="6.6937">
        <ele>2411.3999023438</ele>
        <time>2019-03-27T09:27:36.000Z</time>
      </trkpt>
      <trkpt lat="45.63223" lon="6.6937">
        <ele>2410.3999023438</ele>
        <time>2019-03-27T09:27:37.000Z</time>
      </trkpt>
      <trkpt lat="45.63226" lon="6.6937">
        <ele>2409.3999023438</ele>
        <time>2019-03-27T09:27:38.000Z</time>
      </trkpt>
      <trkpt lat="45.63228" lon="6.6937">
        <ele>2408.3999023438</ele>
        <time>2019-03-27T09:27:39.000Z</time>
      </trkpt>
      <trkpt lat="45.63232" lon="6.69371">
        <ele>2406.3999023438</ele>
        <time>2019-03-27T09:27:41.000Z</time>
      </trkpt>
      <trkpt lat="45.63234" lon="6.69372">
        <ele>2405.3999023438</ele>
        <time>2019-03-27T09:27:42.000Z</time>
      </trkpt>
      <trkpt lat="45.63236" lon="6.69372">
        <ele>2404.8000488281</ele>
        <time>2019-03-27T09:27:43.000Z</time>
      </trkpt>
      <trkpt lat="45.63246" lon="6.69372">
        <ele>2403.6000976562</ele>
        <time>2019-03-27T09:27:46.000Z</time>
      </trkpt>
      <trkpt lat="45.6325" lon="6.69371">
        <ele>2403.1999511719</ele>
        <time>2019-03-27T09:27:47.000Z</time>
      </trkpt>
      <trkpt lat="45.63257" lon="6.69366">
        <ele>2402.3999023438</ele>
        <time>2019-03-27T09:27:49.000Z</time>
      </trkpt>
      <trkpt lat="45.63268" lon="6.6936">
        <ele>2401.1999511719</ele>
        <time>2019-03-27T09:27:52.000Z</time>
      </trkpt>
      <trkpt lat="45.63273" lon="6.69358">
        <ele>2401</ele>
        <time>2019-03-27T09:27:53.000Z</time>
      </trkpt>
      <trkpt lat="45.63282" lon="6.69357">
        <ele>2400.1999511719</ele>
        <time>2019-03-27T09:27:55.000Z</time>
      </trkpt>
      <trkpt lat="45.63292" lon="6.6936">
        <ele>2398.6000976562</ele>
        <time>2019-03-27T09:27:57.000Z</time>
      </trkpt>
      <trkpt lat="45.63296" lon="6.69362">
        <ele>2398</ele>
        <time>2019-03-27T09:27:58.000Z</time>
      </trkpt>
      <trkpt lat="45.63301" lon="6.69365">
        <ele>2397.3999023438</ele>
        <time>2019-03-27T09:27:59.000Z</time>
      </trkpt>
      <trkpt lat="45.63305" lon="6.69367">
        <ele>2396.8000488281</ele>
        <time>2019-03-27T09:28:00.000Z</time>
      </trkpt>
      <trkpt lat="45.63313" lon="6.69372">
        <ele>2396</ele>
        <time>2019-03-27T09:28:02.000Z</time>
      </trkpt>
      <trkpt lat="45.63321" lon="6.69378">
        <ele>2395.3999023438</ele>
        <time>2019-03-27T09:28:04.000Z</time>
      </trkpt>
      <trkpt lat="45.63329" lon="6.69382">
        <ele>2395</ele>
        <time>2019-03-27T09:28:06.000Z</time>
      </trkpt>
      <trkpt lat="45.63344" lon="6.69387">
        <ele>2393.6000976562</ele>
        <time>2019-03-27T09:28:10.000Z</time>
      </trkpt>
      <trkpt lat="45.63358" lon="6.69391">
        <ele>2392.6000976562</ele>
        <time>2019-03-27T09:28:14.000Z</time>
      </trkpt>
      <trkpt lat="45.63368" lon="6.69393">
        <ele>2391.3999023438</ele>
        <time>2019-03-27T09:28:17.000Z</time>
      </trkpt>
      <trkpt lat="45.63383" lon="6.69396">
        <ele>2390</ele>
        <time>2019-03-27T09:28:21.000Z</time>
      </trkpt>
      <trkpt lat="45.63391" lon="6.69399">
        <ele>2389.3999023438</ele>
        <time>2019-03-27T09:28:23.000Z</time>
      </trkpt>
      <trkpt lat="45.63399" lon="6.69401">
        <ele>2388.6000976562</ele>
        <time>2019-03-27T09:28:25.000Z</time>
      </trkpt>
      <trkpt lat="45.63416" lon="6.69406">
        <ele>2387.3999023438</ele>
        <time>2019-03-27T09:28:29.000Z</time>
      </trkpt>
      <trkpt lat="45.63424" lon="6.69408">
        <ele>2386.6000976562</ele>
        <time>2019-03-27T09:28:31.000Z</time>
      </trkpt>
      <trkpt lat="45.63428" lon="6.69409">
        <ele>2386.1999511719</ele>
        <time>2019-03-27T09:28:32.000Z</time>
      </trkpt>
      <trkpt lat="45.6344" lon="6.69413">
        <ele>2385</ele>
        <time>2019-03-27T09:28:35.000Z</time>
      </trkpt>
      <trkpt lat="45.63447" lon="6.69417">
        <ele>2384.1999511719</ele>
        <time>2019-03-27T09:28:37.000Z</time>
      </trkpt>
      <trkpt lat="45.63451" lon="6.6942">
        <ele>2383.8000488281</ele>
        <time>2019-03-27T09:28:38.000Z</time>
      </trkpt>
      <trkpt lat="45.63465" lon="6.69436">
        <ele>2382.8000488281</ele>
        <time>2019-03-27T09:28:42.000Z</time>
      </trkpt>
      <trkpt lat="45.63474" lon="6.69445">
        <ele>2381</ele>
        <time>2019-03-27T09:28:45.000Z</time>
      </trkpt>
      <trkpt lat="45.63478" lon="6.69449">
        <ele>2380.3999023438</ele>
        <time>2019-03-27T09:28:47.000Z</time>
      </trkpt>
      <trkpt lat="45.63482" lon="6.69453">
        <ele>2380</ele>
        <time>2019-03-27T09:28:49.000Z</time>
      </trkpt>
      <trkpt lat="45.63494" lon="6.69462">
        <ele>2379.1999511719</ele>
        <time>2019-03-27T09:28:54.000Z</time>
      </trkpt>
      <trkpt lat="45.63496" lon="6.69461">
        <ele>2378.8000488281</ele>
        <time>2019-03-27T09:28:56.000Z</time>
      </trkpt>
      <trkpt lat="45.63496" lon="6.69461">
        <ele>2378.3999023438</ele>
        <time>2019-03-27T09:28:58.000Z</time>
      </trkpt>
      <trkpt lat="45.63496" lon="6.69461">
        <ele>2378</ele>
        <time>2019-03-27T09:29:12.000Z</time>
      </trkpt>
      <trkpt lat="45.63496" lon="6.69461">
        <ele>2377.8000488281</ele>
        <time>2019-03-27T09:29:16.000Z</time>
      </trkpt>
      <trkpt lat="45.63498" lon="6.69465">
        <ele>2377.8000488281</ele>
        <time>2019-03-27T09:29:18.000Z</time>
      </trkpt>
      <trkpt lat="45.63501" lon="6.69468">
        <ele>2377.8000488281</ele>
        <time>2019-03-27T09:29:19.000Z</time>
      </trkpt>
      <trkpt lat="45.63507" lon="6.69474">
        <ele>2377.3999023438</ele>
        <time>2019-03-27T09:29:22.000Z</time>
      </trkpt>
      <trkpt lat="45.63506" lon="6.69477">
        <ele>2376.8000488281</ele>
        <time>2019-03-27T09:29:23.000Z</time>
      </trkpt>
      <trkpt lat="45.63505" lon="6.69481">
        <ele>2375.6000976562</ele>
        <time>2019-03-27T09:29:24.000Z</time>
      </trkpt>
      <trkpt lat="45.63508" lon="6.69484">
        <ele>2374.6000976562</ele>
        <time>2019-03-27T09:29:25.000Z</time>
      </trkpt>
      <trkpt lat="45.63512" lon="6.69484">
        <ele>2373.8000488281</ele>
        <time>2019-03-27T09:29:26.000Z</time>
      </trkpt>
      <trkpt lat="45.63523" lon="6.69483">
        <ele>2372.6000976562</ele>
        <time>2019-03-27T09:29:28.000Z</time>
      </trkpt>
      <trkpt lat="45.63528" lon="6.69484">
        <ele>2371.8000488281</ele>
        <time>2019-03-27T09:29:29.000Z</time>
      </trkpt>
      <trkpt lat="45.63532" lon="6.69485">
        <ele>2371.1999511719</ele>
        <time>2019-03-27T09:29:30.000Z</time>
      </trkpt>
      <trkpt lat="45.63536" lon="6.69488">
        <ele>2370</ele>
        <time>2019-03-27T09:29:31.000Z</time>
      </trkpt>
      <trkpt lat="45.63539" lon="6.6949">
        <ele>2368.6000976562</ele>
        <time>2019-03-27T09:29:32.000Z</time>
      </trkpt>
      <trkpt lat="45.63542" lon="6.69494">
        <ele>2366.1999511719</ele>
        <time>2019-03-27T09:29:33.000Z</time>
      </trkpt>
      <trkpt lat="45.63544" lon="6.69496">
        <ele>2365.1999511719</ele>
        <time>2019-03-27T09:29:34.000Z</time>
      </trkpt>
      <trkpt lat="45.63546" lon="6.69499">
        <ele>2364.3999023438</ele>
        <time>2019-03-27T09:29:35.000Z</time>
      </trkpt>
      <trkpt lat="45.63548" lon="6.69501">
        <ele>2364</ele>
        <time>2019-03-27T09:29:36.000Z</time>
      </trkpt>
      <trkpt lat="45.63559" lon="6.69508">
        <ele>2363.1999511719</ele>
        <time>2019-03-27T09:29:39.000Z</time>
      </trkpt>
      <trkpt lat="45.63562" lon="6.6951">
        <ele>2362.6000976562</ele>
        <time>2019-03-27T09:29:40.000Z</time>
      </trkpt>
      <trkpt lat="45.63565" lon="6.69513">
        <ele>2362.1999511719</ele>
        <time>2019-03-27T09:29:41.000Z</time>
      </trkpt>
      <trkpt lat="45.63575" lon="6.69521">
        <ele>2361.1999511719</ele>
        <time>2019-03-27T09:29:44.000Z</time>
      </trkpt>
      <trkpt lat="45.6358" lon="6.69524">
        <ele>2361</ele>
        <time>2019-03-27T09:29:45.000Z</time>
      </trkpt>
      <trkpt lat="45.63595" lon="6.69533">
        <ele>2359.8000488281</ele>
        <time>2019-03-27T09:29:48.000Z</time>
      </trkpt>
      <trkpt lat="45.636" lon="6.69537">
        <ele>2359</ele>
        <time>2019-03-27T09:29:49.000Z</time>
      </trkpt>
      <trkpt lat="45.63604" lon="6.69541">
        <ele>2358.1999511719</ele>
        <time>2019-03-27T09:29:50.000Z</time>
      </trkpt>
      <trkpt lat="45.63611" lon="6.69552">
        <ele>2357.1999511719</ele>
        <time>2019-03-27T09:29:52.000Z</time>
      </trkpt>
      <trkpt lat="45.63613" lon="6.69556">
        <ele>2356.8000488281</ele>
        <time>2019-03-27T09:29:53.000Z</time>
      </trkpt>
      <trkpt lat="45.63616" lon="6.69561">
        <ele>2356.1999511719</ele>
        <time>2019-03-27T09:29:54.000Z</time>
      </trkpt>
      <trkpt lat="45.63617" lon="6.69563">
        <ele>2354.8000488281</ele>
        <time>2019-03-27T09:29:57.000Z</time>
      </trkpt>
      <trkpt lat="45.63619" lon="6.69565">
        <ele>2354</ele>
        <time>2019-03-27T09:29:59.000Z</time>
      </trkpt>
      <trkpt lat="45.63621" lon="6.69567">
        <ele>2353.6000976562</ele>
        <time>2019-03-27T09:30:00.000Z</time>
      </trkpt>
      <trkpt lat="45.63626" lon="6.69572">
        <ele>2352.8000488281</ele>
        <time>2019-03-27T09:30:04.000Z</time>
      </trkpt>
      <trkpt lat="45.63628" lon="6.69573">
        <ele>2352.6000976562</ele>
        <time>2019-03-27T09:30:06.000Z</time>
      </trkpt>
      <trkpt lat="45.63629" lon="6.69565">
        <ele>2352</ele>
        <time>2019-03-27T09:30:10.000Z</time>
      </trkpt>
      <trkpt lat="45.63629" lon="6.69565">
        <ele>2351.8000488281</ele>
        <time>2019-03-27T09:30:26.000Z</time>
      </trkpt>
      <trkpt lat="45.63629" lon="6.69565">
        <ele>2351.6000976562</ele>
        <time>2019-03-27T09:30:41.000Z</time>
      </trkpt>
      <trkpt lat="45.63629" lon="6.69564">
        <ele>2351.8000488281</ele>
        <time>2019-03-27T09:30:51.000Z</time>
      </trkpt>
      <trkpt lat="45.63629" lon="6.69564">
        <ele>2351.6000976562</ele>
        <time>2019-03-27T09:31:05.000Z</time>
      </trkpt>
      <trkpt lat="45.63629" lon="6.69564">
        <ele>2351.6000976562</ele>
        <time>2019-03-27T09:31:09.000Z</time>
      </trkpt>
      <trkpt lat="45.63628" lon="6.69563">
        <ele>2351</ele>
        <time>2019-03-27T09:31:16.000Z</time>
      </trkpt>
      <trkpt lat="45.63628" lon="6.69563">
        <ele>2352.6000976562</ele>
        <time>2019-03-27T09:31:22.000Z</time>
      </trkpt>
      <trkpt lat="45.63628" lon="6.69563">
        <ele>2352.6000976562</ele>
        <time>2019-03-27T09:31:26.000Z</time>
      </trkpt>
      <trkpt lat="45.63628" lon="6.69563">
        <ele>2351.6000976562</ele>
        <time>2019-03-27T09:31:43.000Z</time>
      </trkpt>
      <trkpt lat="45.63628" lon="6.69563">
        <ele>2351.3999023438</ele>
        <time>2019-03-27T09:31:50.000Z</time>
      </trkpt>
      <trkpt lat="45.63628" lon="6.69562">
        <ele>2351.8000488281</ele>
        <time>2019-03-27T09:32:02.000Z</time>
      </trkpt>
      <trkpt lat="45.63628" lon="6.69562">
        <ele>2351.6000976562</ele>
        <time>2019-03-27T09:32:17.000Z</time>
      </trkpt>
      <trkpt lat="45.63628" lon="6.69562">
        <ele>2351.3999023438</ele>
        <time>2019-03-27T09:32:28.000Z</time>
      </trkpt>
      <trkpt lat="45.63628" lon="6.69562">
        <ele>2352</ele>
        <time>2019-03-27T09:32:43.000Z</time>
      </trkpt>
      <trkpt lat="45.63628" lon="6.69562">
        <ele>2351.6000976562</ele>
        <time>2019-03-27T09:32:56.000Z</time>
      </trkpt>
      <trkpt lat="45.63628" lon="6.69562">
        <ele>2351.6000976562</ele>
        <time>2019-03-27T09:33:07.000Z</time>
      </trkpt>
      <trkpt lat="45.63627" lon="6.69563">
        <ele>2351.6000976562</ele>
        <time>2019-03-27T09:33:22.000Z</time>
      </trkpt>
      <trkpt lat="45.63627" lon="6.69563">
        <ele>2351.3999023438</ele>
        <time>2019-03-27T09:33:36.000Z</time>
      </trkpt>
      <trkpt lat="45.63627" lon="6.69563">
        <ele>2351.6000976562</ele>
        <time>2019-03-27T09:33:47.000Z</time>
      </trkpt>
      <trkpt lat="45.63627" lon="6.69563">
        <ele>2351.6000976562</ele>
        <time>2019-03-27T09:34:01.000Z</time>
      </trkpt>
      <trkpt lat="45.63627" lon="6.69563">
        <ele>2351.6000976562</ele>
        <time>2019-03-27T09:34:16.000Z</time>
      </trkpt>
      <trkpt lat="45.63627" lon="6.69563">
        <ele>2351.6000976562</ele>
        <time>2019-03-27T09:34:29.000Z</time>
      </trkpt>
      <trkpt lat="45.63627" lon="6.69562">
        <ele>2351.3999023438</ele>
        <time>2019-03-27T09:34:43.000Z</time>
      </trkpt>
      <trkpt lat="45.63627" lon="6.69562">
        <ele>2351.3999023438</ele>
        <time>2019-03-27T09:34:57.000Z</time>
      </trkpt>
      <trkpt lat="45.63627" lon="6.69562">
        <ele>2351.3999023438</ele>
        <time>2019-03-27T09:35:14.000Z</time>
      </trkpt>
      <trkpt lat="45.63627" lon="6.69562">
        <ele>2351</ele>
        <time>2019-03-27T09:35:30.000Z</time>
      </trkpt>
      <trkpt lat="45.63627" lon="6.69562">
        <ele>2351.1999511719</ele>
        <time>2019-03-27T09:35:44.000Z</time>
      </trkpt>
      <trkpt lat="45.63627" lon="6.69562">
        <ele>2350.6000976562</ele>
        <time>2019-03-27T09:35:59.000Z</time>
      </trkpt>
      <trkpt lat="45.63627" lon="6.69562">
        <ele>2350.1999511719</ele>
        <time>2019-03-27T09:36:00.000Z</time>
      </trkpt>
      <trkpt lat="45.63627" lon="6.69562">
        <ele>2351.1999511719</ele>
        <time>2019-03-27T09:36:05.000Z</time>
      </trkpt>
      <trkpt lat="45.63627" lon="6.69562">
        <ele>2352.6000976562</ele>
        <time>2019-03-27T09:36:08.000Z</time>
      </trkpt>
      <trkpt lat="45.63627" lon="6.69562">
        <ele>2353</ele>
        <time>2019-03-27T09:36:10.000Z</time>
      </trkpt>
      <trkpt lat="45.63627" lon="6.69562">
        <ele>2351.6000976562</ele>
        <time>2019-03-27T09:36:15.000Z</time>
      </trkpt>
      <trkpt lat="45.63627" lon="6.69562">
        <ele>2350.6000976562</ele>
        <time>2019-03-27T09:36:24.000Z</time>
      </trkpt>
      <trkpt lat="45.63627" lon="6.69562">
        <ele>2350.1999511719</ele>
        <time>2019-03-27T09:36:32.000Z</time>
      </trkpt>
      <trkpt lat="45.63627" lon="6.69562">
        <ele>2349.6000976562</ele>
        <time>2019-03-27T09:36:35.000Z</time>
      </trkpt>
      <trkpt lat="45.63627" lon="6.69561">
        <ele>2351.6000976562</ele>
        <time>2019-03-27T09:36:37.000Z</time>
      </trkpt>
      <trkpt lat="45.63627" lon="6.69561">
        <ele>2352.6000976562</ele>
        <time>2019-03-27T09:36:40.000Z</time>
      </trkpt>
      <trkpt lat="45.63627" lon="6.69561">
        <ele>2351.3999023438</ele>
        <time>2019-03-27T09:36:43.000Z</time>
      </trkpt>
      <trkpt lat="45.63627" lon="6.69561">
        <ele>2350.8000488281</ele>
        <time>2019-03-27T09:36:49.000Z</time>
      </trkpt>
      <trkpt lat="45.63627" lon="6.69561">
        <ele>2351.3999023438</ele>
        <time>2019-03-27T09:37:03.000Z</time>
      </trkpt>
      <trkpt lat="45.63627" lon="6.69561">
        <ele>2350.8000488281</ele>
        <time>2019-03-27T09:37:18.000Z</time>
      </trkpt>
      <trkpt lat="45.63627" lon="6.69561">
        <ele>2350.8000488281</ele>
        <time>2019-03-27T09:37:28.000Z</time>
      </trkpt>
      <trkpt lat="45.63627" lon="6.69556">
        <ele>2350.6000976562</ele>
        <time>2019-03-27T09:37:34.000Z</time>
      </trkpt>
      <trkpt lat="45.63627" lon="6.69556">
        <ele>2350.1999511719</ele>
        <time>2019-03-27T09:37:35.000Z</time>
      </trkpt>
      <trkpt lat="45.63627" lon="6.69553">
        <ele>2351.6000976562</ele>
        <time>2019-03-27T09:37:40.000Z</time>
      </trkpt>
      <trkpt lat="45.63627" lon="6.69553">
        <ele>2352</ele>
        <time>2019-03-27T09:37:41.000Z</time>
      </trkpt>
      <trkpt lat="45.63627" lon="6.6955">
        <ele>2351.8000488281</ele>
        <time>2019-03-27T09:37:47.000Z</time>
      </trkpt>
      <trkpt lat="45.63627" lon="6.69548">
        <ele>2353.1999511719</ele>
        <time>2019-03-27T09:37:53.000Z</time>
      </trkpt>
      <trkpt lat="45.63627" lon="6.69547">
        <ele>2354.1999511719</ele>
        <time>2019-03-27T09:37:55.000Z</time>
      </trkpt>
      <trkpt lat="45.63627" lon="6.69547">
        <ele>2353.1999511719</ele>
        <time>2019-03-27T09:38:00.000Z</time>
      </trkpt>
      <trkpt lat="45.63627" lon="6.69544">
        <ele>2352.3999023438</ele>
        <time>2019-03-27T09:38:05.000Z</time>
      </trkpt>
      <trkpt lat="45.63627" lon="6.69537">
        <ele>2353.3999023438</ele>
        <time>2019-03-27T09:38:12.000Z</time>
      </trkpt>
      <trkpt lat="45.63627" lon="6.69531">
        <ele>2353.3999023438</ele>
        <time>2019-03-27T09:38:19.000Z</time>
      </trkpt>
      <trkpt lat="45.63627" lon="6.69529">
        <ele>2354.1999511719</ele>
        <time>2019-03-27T09:38:22.000Z</time>
      </trkpt>
      <trkpt lat="45.63627" lon="6.69527">
        <ele>2355</ele>
        <time>2019-03-27T09:38:25.000Z</time>
      </trkpt>
      <trkpt lat="45.63627" lon="6.69527">
        <ele>2355.1999511719</ele>
        <time>2019-03-27T09:38:26.000Z</time>
      </trkpt>
      <trkpt lat="45.63628" lon="6.69524">
        <ele>2356.1999511719</ele>
        <time>2019-03-27T09:38:30.000Z</time>
      </trkpt>
      <trkpt lat="45.63628" lon="6.69522">
        <ele>2356.3999023438</ele>
        <time>2019-03-27T09:38:33.000Z</time>
      </trkpt>
      <trkpt lat="45.63628" lon="6.69522">
        <ele>2356.6000976562</ele>
        <time>2019-03-27T09:38:42.000Z</time>
      </trkpt>
      <trkpt lat="45.63628" lon="6.69522">
        <ele>2357.3999023438</ele>
        <time>2019-03-27T09:38:45.000Z</time>
      </trkpt>
      <trkpt lat="45.63628" lon="6.69522">
        <ele>2357.6000976562</ele>
        <time>2019-03-27T09:39:01.000Z</time>
      </trkpt>
      <trkpt lat="45.63629" lon="6.69518">
        <ele>2358.3999023438</ele>
        <time>2019-03-27T09:39:07.000Z</time>
      </trkpt>
      <trkpt lat="45.6363" lon="6.69513">
        <ele>2358.1999511719</ele>
        <time>2019-03-27T09:39:12.000Z</time>
      </trkpt>
      <trkpt lat="45.63631" lon="6.69507">
        <ele>2359.1999511719</ele>
        <time>2019-03-27T09:39:18.000Z</time>
      </trkpt>
      <trkpt lat="45.63631" lon="6.69507">
        <ele>2359.3999023438</ele>
        <time>2019-03-27T09:39:19.000Z</time>
      </trkpt>
      <trkpt lat="45.63631" lon="6.69507">
        <ele>2358</ele>
        <time>2019-03-27T09:39:23.000Z</time>
      </trkpt>
      <trkpt lat="45.63631" lon="6.69507">
        <ele>2357.8000488281</ele>
        <time>2019-03-27T09:39:27.000Z</time>
      </trkpt>
      <trkpt lat="45.63631" lon="6.69507">
        <ele>2359.3999023438</ele>
        <time>2019-03-27T09:39:29.000Z</time>
      </trkpt>
      <trkpt lat="45.63631" lon="6.69507">
        <ele>2360.3999023438</ele>
        <time>2019-03-27T09:39:32.000Z</time>
      </trkpt>
      <trkpt lat="45.63631" lon="6.69507">
        <ele>2359.1999511719</ele>
        <time>2019-03-27T09:39:35.000Z</time>
      </trkpt>
      <trkpt lat="45.63631" lon="6.69507">
        <ele>2358.3999023438</ele>
        <time>2019-03-27T09:39:39.000Z</time>
      </trkpt>
      <trkpt lat="45.63631" lon="6.69507">
        <ele>2360.3999023438</ele>
        <time>2019-03-27T09:39:42.000Z</time>
      </trkpt>
      <trkpt lat="45.63631" lon="6.69507">
        <ele>2361.3999023438</ele>
        <time>2019-03-27T09:39:43.000Z</time>
      </trkpt>
      <trkpt lat="45.63632" lon="6.69503">
        <ele>2361.8000488281</ele>
        <time>2019-03-27T09:39:47.000Z</time>
      </trkpt>
      <trkpt lat="45.63632" lon="6.69502">
        <ele>2360.1999511719</ele>
        <time>2019-03-27T09:39:51.000Z</time>
      </trkpt>
      <trkpt lat="45.63632" lon="6.69502">
        <ele>2360.1999511719</ele>
        <time>2019-03-27T09:39:53.000Z</time>
      </trkpt>
      <trkpt lat="45.63631" lon="6.69504">
        <ele>2361.1999511719</ele>
        <time>2019-03-27T09:39:55.000Z</time>
      </trkpt>
      <trkpt lat="45.63633" lon="6.69508">
        <ele>2361.6000976562</ele>
        <time>2019-03-27T09:40:00.000Z</time>
      </trkpt>
      <trkpt lat="45.63637" lon="6.69512">
        <ele>2362</ele>
        <time>2019-03-27T09:40:06.000Z</time>
      </trkpt>
      <trkpt lat="45.63638" lon="6.69512">
        <ele>2362.1999511719</ele>
        <time>2019-03-27T09:40:10.000Z</time>
      </trkpt>
      <trkpt lat="45.6364" lon="6.69512">
        <ele>2362.3999023438</ele>
        <time>2019-03-27T09:40:11.000Z</time>
      </trkpt>
      <trkpt lat="45.63642" lon="6.69513">
        <ele>2363.1999511719</ele>
        <time>2019-03-27T09:40:15.000Z</time>
      </trkpt>
      <trkpt lat="45.63642" lon="6.69513">
        <ele>2363.3999023438</ele>
        <time>2019-03-27T09:40:16.000Z</time>
      </trkpt>
      <trkpt lat="45.63643" lon="6.69515">
        <ele>2364.6000976562</ele>
        <time>2019-03-27T09:40:21.000Z</time>
      </trkpt>
      <trkpt lat="45.63646" lon="6.69512">
        <ele>2365.6000976562</ele>
        <time>2019-03-27T09:40:26.000Z</time>
      </trkpt>
      <trkpt lat="45.63647" lon="6.69511">
        <ele>2366</ele>
        <time>2019-03-27T09:40:28.000Z</time>
      </trkpt>
      <trkpt lat="45.63648" lon="6.69508">
        <ele>2366.6000976562</ele>
        <time>2019-03-27T09:40:33.000Z</time>
      </trkpt>
      <trkpt lat="45.63648" lon="6.69504">
        <ele>2367.6000976562</ele>
        <time>2019-03-27T09:40:36.000Z</time>
      </trkpt>
      <trkpt lat="45.63649" lon="6.69501">
        <ele>2368.1999511719</ele>
        <time>2019-03-27T09:40:40.000Z</time>
      </trkpt>
      <trkpt lat="45.63648" lon="6.69497">
        <ele>2368.8000488281</ele>
        <time>2019-03-27T09:40:45.000Z</time>
      </trkpt>
      <trkpt lat="45.63648" lon="6.69495">
        <ele>2369.1999511719</ele>
        <time>2019-03-27T09:40:47.000Z</time>
      </trkpt>
      <trkpt lat="45.63649" lon="6.69491">
        <ele>2369.8000488281</ele>
        <time>2019-03-27T09:40:53.000Z</time>
      </trkpt>
      <trkpt lat="45.63649" lon="6.69491">
        <ele>2369.6000976562</ele>
        <time>2019-03-27T09:40:54.000Z</time>
      </trkpt>
      <trkpt lat="45.63649" lon="6.69487">
        <ele>2370.1999511719</ele>
        <time>2019-03-27T09:41:00.000Z</time>
      </trkpt>
      <trkpt lat="45.63649" lon="6.69484">
        <ele>2371</ele>
        <time>2019-03-27T09:41:03.000Z</time>
      </trkpt>
      <trkpt lat="45.63649" lon="6.69481">
        <ele>2372</ele>
        <time>2019-03-27T09:41:07.000Z</time>
      </trkpt>
      <trkpt lat="45.63649" lon="6.69478">
        <ele>2372.3999023438</ele>
        <time>2019-03-27T09:41:13.000Z</time>
      </trkpt>
      <trkpt lat="45.63647" lon="6.69473">
        <ele>2373</ele>
        <time>2019-03-27T09:41:19.000Z</time>
      </trkpt>
      <trkpt lat="45.63647" lon="6.69473">
        <ele>2373.3999023438</ele>
        <time>2019-03-27T09:41:20.000Z</time>
      </trkpt>
      <trkpt lat="45.63646" lon="6.69467">
        <ele>2374.1999511719</ele>
        <time>2019-03-27T09:41:26.000Z</time>
      </trkpt>
      <trkpt lat="45.63646" lon="6.69461">
        <ele>2375.1999511719</ele>
        <time>2019-03-27T09:41:33.000Z</time>
      </trkpt>
      <trkpt lat="45.63645" lon="6.69459">
        <ele>2376.1999511719</ele>
        <time>2019-03-27T09:41:37.000Z</time>
      </trkpt>
      <trkpt lat="45.63644" lon="6.69455">
        <ele>2376.6000976562</ele>
        <time>2019-03-27T09:41:41.000Z</time>
      </trkpt>
      <trkpt lat="45.6364" lon="6.69452">
        <ele>2377.3999023438</ele>
        <time>2019-03-27T09:41:48.000Z</time>
      </trkpt>
      <trkpt lat="45.63639" lon="6.69451">
        <ele>2377.6000976562</ele>
        <time>2019-03-27T09:41:50.000Z</time>
      </trkpt>
      <trkpt lat="45.63638" lon="6.69449">
        <ele>2378.6000976562</ele>
        <time>2019-03-27T09:41:55.000Z</time>
      </trkpt>
      <trkpt lat="45.63639" lon="6.69444">
        <ele>2379.8000488281</ele>
        <time>2019-03-27T09:41:59.000Z</time>
      </trkpt>
      <trkpt lat="45.63638" lon="6.69439">
        <ele>2380.6000976562</ele>
        <time>2019-03-27T09:42:07.000Z</time>
      </trkpt>
      <trkpt lat="45.63638" lon="6.69435">
        <ele>2381</ele>
        <time>2019-03-27T09:42:13.000Z</time>
      </trkpt>
      <trkpt lat="45.63638" lon="6.69434">
        <ele>2381</ele>
        <time>2019-03-27T09:42:14.000Z</time>
      </trkpt>
      <trkpt lat="45.63637" lon="6.69434">
        <ele>2381</ele>
        <time>2019-03-27T09:42:20.000Z</time>
      </trkpt>
      <trkpt lat="45.63637" lon="6.69434">
        <ele>2382.6000976562</ele>
        <time>2019-03-27T09:42:23.000Z</time>
      </trkpt>
      <trkpt lat="45.63637" lon="6.69437">
        <ele>2383.6000976562</ele>
        <time>2019-03-27T09:42:26.000Z</time>
      </trkpt>
      <trkpt lat="45.6364" lon="6.69438">
        <ele>2382.8000488281</ele>
        <time>2019-03-27T09:42:33.000Z</time>
      </trkpt>
      <trkpt lat="45.63644" lon="6.6944">
        <ele>2384</ele>
        <time>2019-03-27T09:42:39.000Z</time>
      </trkpt>
      <trkpt lat="45.63644" lon="6.69441">
        <ele>2384.6000976562</ele>
        <time>2019-03-27T09:42:42.000Z</time>
      </trkpt>
      <trkpt lat="45.63645" lon="6.69442">
        <ele>2385</ele>
        <time>2019-03-27T09:42:44.000Z</time>
      </trkpt>
      <trkpt lat="45.63649" lon="6.69444">
        <ele>2385.8000488281</ele>
        <time>2019-03-27T09:42:50.000Z</time>
      </trkpt>
      <trkpt lat="45.63651" lon="6.69446">
        <ele>2386.3999023438</ele>
        <time>2019-03-27T09:42:55.000Z</time>
      </trkpt>
      <trkpt lat="45.63653" lon="6.69448">
        <ele>2386.8000488281</ele>
        <time>2019-03-27T09:42:58.000Z</time>
      </trkpt>
      <trkpt lat="45.63656" lon="6.69449">
        <ele>2387.1999511719</ele>
        <time>2019-03-27T09:43:02.000Z</time>
      </trkpt>
      <trkpt lat="45.63659" lon="6.69451">
        <ele>2387.6000976562</ele>
        <time>2019-03-27T09:43:07.000Z</time>
      </trkpt>
      <trkpt lat="45.6366" lon="6.69452">
        <ele>2388</ele>
        <time>2019-03-27T09:43:09.000Z</time>
      </trkpt>
      <trkpt lat="45.63661" lon="6.69454">
        <ele>2388.8000488281</ele>
        <time>2019-03-27T09:43:12.000Z</time>
      </trkpt>
      <trkpt lat="45.63663" lon="6.69456">
        <ele>2389</ele>
        <time>2019-03-27T09:43:14.000Z</time>
      </trkpt>
      <trkpt lat="45.63664" lon="6.69456">
        <ele>2389.3999023438</ele>
        <time>2019-03-27T09:43:17.000Z</time>
      </trkpt>
      <trkpt lat="45.63667" lon="6.69458">
        <ele>2390</ele>
        <time>2019-03-27T09:43:21.000Z</time>
      </trkpt>
      <trkpt lat="45.63668" lon="6.69459">
        <ele>2390.1999511719</ele>
        <time>2019-03-27T09:43:22.000Z</time>
      </trkpt>
      <trkpt lat="45.63672" lon="6.69459">
        <ele>2391</ele>
        <time>2019-03-27T09:43:28.000Z</time>
      </trkpt>
      <trkpt lat="45.63673" lon="6.69459">
        <ele>2391</ele>
        <time>2019-03-27T09:43:29.000Z</time>
      </trkpt>
      <trkpt lat="45.63673" lon="6.69461">
        <ele>2391.3999023438</ele>
        <time>2019-03-27T09:43:33.000Z</time>
      </trkpt>
      <trkpt lat="45.63674" lon="6.69461">
        <ele>2392.1999511719</ele>
        <time>2019-03-27T09:43:36.000Z</time>
      </trkpt>
      <trkpt lat="45.63676" lon="6.69462">
        <ele>2392.6000976562</ele>
        <time>2019-03-27T09:43:38.000Z</time>
      </trkpt>
      <trkpt lat="45.63678" lon="6.69463">
        <ele>2393</ele>
        <time>2019-03-27T09:43:43.000Z</time>
      </trkpt>
      <trkpt lat="45.63678" lon="6.69463">
        <ele>2393.3999023438</ele>
        <time>2019-03-27T09:43:44.000Z</time>
      </trkpt>
      <trkpt lat="45.63678" lon="6.6946">
        <ele>2393.8000488281</ele>
        <time>2019-03-27T09:43:52.000Z</time>
      </trkpt>
      <trkpt lat="45.63678" lon="6.69457">
        <ele>2394.6000976562</ele>
        <time>2019-03-27T09:43:57.000Z</time>
      </trkpt>
      <trkpt lat="45.63677" lon="6.69457">
        <ele>2394.8000488281</ele>
        <time>2019-03-27T09:43:58.000Z</time>
      </trkpt>
      <trkpt lat="45.63675" lon="6.69451">
        <ele>2395.1999511719</ele>
        <time>2019-03-27T09:44:05.000Z</time>
      </trkpt>
      <trkpt lat="45.63675" lon="6.69451">
        <ele>2395.6000976562</ele>
        <time>2019-03-27T09:44:06.000Z</time>
      </trkpt>
      <trkpt lat="45.63672" lon="6.69446">
        <ele>2396.8000488281</ele>
        <time>2019-03-27T09:44:14.000Z</time>
      </trkpt>
      <trkpt lat="45.6367" lon="6.69437">
        <ele>2397.3999023438</ele>
        <time>2019-03-27T09:44:22.000Z</time>
      </trkpt>
      <trkpt lat="45.6367" lon="6.69436">
        <ele>2397.8000488281</ele>
        <time>2019-03-27T09:44:23.000Z</time>
      </trkpt>
      <trkpt lat="45.63669" lon="6.69431">
        <ele>2398.6000976562</ele>
        <time>2019-03-27T09:44:30.000Z</time>
      </trkpt>
      <trkpt lat="45.63669" lon="6.6943">
        <ele>2398.8000488281</ele>
        <time>2019-03-27T09:44:31.000Z</time>
      </trkpt>
      <trkpt lat="45.63668" lon="6.69427">
        <ele>2399.8000488281</ele>
        <time>2019-03-27T09:44:37.000Z</time>
      </trkpt>
      <trkpt lat="45.63668" lon="6.69427">
        <ele>2400</ele>
        <time>2019-03-27T09:44:39.000Z</time>
      </trkpt>
      <trkpt lat="45.63667" lon="6.69428">
        <ele>2399</ele>
        <time>2019-03-27T09:44:44.000Z</time>
      </trkpt>
      <trkpt lat="45.63667" lon="6.69429">
        <ele>2401.1999511719</ele>
        <time>2019-03-27T09:44:47.000Z</time>
      </trkpt>
      <trkpt lat="45.63667" lon="6.69429">
        <ele>2402.3999023438</ele>
        <time>2019-03-27T09:44:49.000Z</time>
      </trkpt>
      <trkpt lat="45.63672" lon="6.69429">
        <ele>2401.6000976562</ele>
        <time>2019-03-27T09:44:56.000Z</time>
      </trkpt>
      <trkpt lat="45.63675" lon="6.6943">
        <ele>2402.1999511719</ele>
        <time>2019-03-27T09:45:01.000Z</time>
      </trkpt>
      <trkpt lat="45.63678" lon="6.6943">
        <ele>2402.8000488281</ele>
        <time>2019-03-27T09:45:07.000Z</time>
      </trkpt>
      <trkpt lat="45.63681" lon="6.69431">
        <ele>2403.6000976562</ele>
        <time>2019-03-27T09:45:12.000Z</time>
      </trkpt>
      <trkpt lat="45.63683" lon="6.6943">
        <ele>2404.6000976562</ele>
        <time>2019-03-27T09:45:16.000Z</time>
      </trkpt>
      <trkpt lat="45.63684" lon="6.6943">
        <ele>2404.8000488281</ele>
        <time>2019-03-27T09:45:17.000Z</time>
      </trkpt>
      <trkpt lat="45.63686" lon="6.69431">
        <ele>2405.3999023438</ele>
        <time>2019-03-27T09:45:21.000Z</time>
      </trkpt>
      <trkpt lat="45.63687" lon="6.69431">
        <ele>2405.8000488281</ele>
        <time>2019-03-27T09:45:24.000Z</time>
      </trkpt>
      <trkpt lat="45.63687" lon="6.69432">
        <ele>2406</ele>
        <time>2019-03-27T09:45:26.000Z</time>
      </trkpt>
      <trkpt lat="45.63688" lon="6.69432">
        <ele>2406.8000488281</ele>
        <time>2019-03-27T09:45:31.000Z</time>
      </trkpt>
      <trkpt lat="45.63686" lon="6.69428">
        <ele>2407</ele>
        <time>2019-03-27T09:45:39.000Z</time>
      </trkpt>
      <trkpt lat="45.63686" lon="6.69425">
        <ele>2408</ele>
        <time>2019-03-27T09:45:43.000Z</time>
      </trkpt>
      <trkpt lat="45.63686" lon="6.69422">
        <ele>2408.6000976562</ele>
        <time>2019-03-27T09:45:45.000Z</time>
      </trkpt>
      <trkpt lat="45.63685" lon="6.69418">
        <ele>2409</ele>
        <time>2019-03-27T09:45:49.000Z</time>
      </trkpt>
      <trkpt lat="45.63685" lon="6.69414">
        <ele>2409.3999023438</ele>
        <time>2019-03-27T09:45:53.000Z</time>
      </trkpt>
      <trkpt lat="45.63684" lon="6.69413">
        <ele>2410.1999511719</ele>
        <time>2019-03-27T09:45:56.000Z</time>
      </trkpt>
      <trkpt lat="45.63681" lon="6.69412">
        <ele>2411</ele>
        <time>2019-03-27T09:46:01.000Z</time>
      </trkpt>
      <trkpt lat="45.6368" lon="6.69407">
        <ele>2411.1999511719</ele>
        <time>2019-03-27T09:46:05.000Z</time>
      </trkpt>
      <trkpt lat="45.63678" lon="6.69406">
        <ele>2411.8000488281</ele>
        <time>2019-03-27T09:46:08.000Z</time>
      </trkpt>
      <trkpt lat="45.63677" lon="6.69403">
        <ele>2412.3999023438</ele>
        <time>2019-03-27T09:46:13.000Z</time>
      </trkpt>
      <trkpt lat="45.63676" lon="6.694">
        <ele>2412.8000488281</ele>
        <time>2019-03-27T09:46:17.000Z</time>
      </trkpt>
      <trkpt lat="45.63675" lon="6.69398">
        <ele>2413.3999023438</ele>
        <time>2019-03-27T09:46:20.000Z</time>
      </trkpt>
      <trkpt lat="45.63676" lon="6.69396">
        <ele>2413.8000488281</ele>
        <time>2019-03-27T09:46:24.000Z</time>
      </trkpt>
      <trkpt lat="45.63675" lon="6.69393">
        <ele>2414.3999023438</ele>
        <time>2019-03-27T09:46:27.000Z</time>
      </trkpt>
      <trkpt lat="45.63675" lon="6.69393">
        <ele>2415</ele>
        <time>2019-03-27T09:46:30.000Z</time>
      </trkpt>
      <trkpt lat="45.63674" lon="6.69392">
        <ele>2415.6000976562</ele>
        <time>2019-03-27T09:46:33.000Z</time>
      </trkpt>
      <trkpt lat="45.63673" lon="6.69391">
        <ele>2415.6000976562</ele>
        <time>2019-03-27T09:46:38.000Z</time>
      </trkpt>
      <trkpt lat="45.63672" lon="6.69389">
        <ele>2417</ele>
        <time>2019-03-27T09:46:42.000Z</time>
      </trkpt>
      <trkpt lat="45.63672" lon="6.69388">
        <ele>2417.6000976562</ele>
        <time>2019-03-27T09:46:43.000Z</time>
      </trkpt>
      <trkpt lat="45.63671" lon="6.69386">
        <ele>2418</ele>
        <time>2019-03-27T09:46:45.000Z</time>
      </trkpt>
      <trkpt lat="45.6367" lon="6.69383">
        <ele>2417</ele>
        <time>2019-03-27T09:46:49.000Z</time>
      </trkpt>
      <trkpt lat="45.6367" lon="6.69383">
        <ele>2416.8000488281</ele>
        <time>2019-03-27T09:46:50.000Z</time>
      </trkpt>
      <trkpt lat="45.63669" lon="6.69384">
        <ele>2418.1999511719</ele>
        <time>2019-03-27T09:46:55.000Z</time>
      </trkpt>
      <trkpt lat="45.63669" lon="6.69384">
        <ele>2419.8000488281</ele>
        <time>2019-03-27T09:46:57.000Z</time>
      </trkpt>
      <trkpt lat="45.6367" lon="6.69385">
        <ele>2421</ele>
        <time>2019-03-27T09:46:59.000Z</time>
      </trkpt>
      <trkpt lat="45.63673" lon="6.69387">
        <ele>2420.1999511719</ele>
        <time>2019-03-27T09:47:04.000Z</time>
      </trkpt>
      <trkpt lat="45.63674" lon="6.69387">
        <ele>2419.8000488281</ele>
        <time>2019-03-27T09:47:05.000Z</time>
      </trkpt>
      <trkpt lat="45.63676" lon="6.69387">
        <ele>2419.6000976562</ele>
        <time>2019-03-27T09:47:09.000Z</time>
      </trkpt>
      <trkpt lat="45.63679" lon="6.69386">
        <ele>2420.8000488281</ele>
        <time>2019-03-27T09:47:13.000Z</time>
      </trkpt>
      <trkpt lat="45.6368" lon="6.69387">
        <ele>2421</ele>
        <time>2019-03-27T09:47:15.000Z</time>
      </trkpt>
      <trkpt lat="45.63683" lon="6.69388">
        <ele>2421.6000976562</ele>
        <time>2019-03-27T09:47:20.000Z</time>
      </trkpt>
      <trkpt lat="45.63685" lon="6.69389">
        <ele>2421.8000488281</ele>
        <time>2019-03-27T09:47:23.000Z</time>
      </trkpt>
      <trkpt lat="45.63686" lon="6.6939">
        <ele>2422</ele>
        <time>2019-03-27T09:47:25.000Z</time>
      </trkpt>
      <trkpt lat="45.6369" lon="6.69392">
        <ele>2422.8000488281</ele>
        <time>2019-03-27T09:47:30.000Z</time>
      </trkpt>
      <trkpt lat="45.63691" lon="6.69392">
        <ele>2423</ele>
        <time>2019-03-27T09:47:31.000Z</time>
      </trkpt>
      <trkpt lat="45.63693" lon="6.69392">
        <ele>2423.8000488281</ele>
        <time>2019-03-27T09:47:35.000Z</time>
      </trkpt>
      <trkpt lat="45.63694" lon="6.69392">
        <ele>2424</ele>
        <time>2019-03-27T09:47:37.000Z</time>
      </trkpt>
      <trkpt lat="45.63694" lon="6.69392">
        <ele>2424.8000488281</ele>
        <time>2019-03-27T09:47:41.000Z</time>
      </trkpt>
      <trkpt lat="45.63693" lon="6.6939">
        <ele>2424.6000976562</ele>
        <time>2019-03-27T09:47:51.000Z</time>
      </trkpt>
      <trkpt lat="45.63693" lon="6.69385">
        <ele>2425.1999511719</ele>
        <time>2019-03-27T09:47:56.000Z</time>
      </trkpt>
      <trkpt lat="45.63693" lon="6.69383">
        <ele>2425.6000976562</ele>
        <time>2019-03-27T09:47:59.000Z</time>
      </trkpt>
      <trkpt lat="45.63693" lon="6.69383">
        <ele>2426.1999511719</ele>
        <time>2019-03-27T09:48:14.000Z</time>
      </trkpt>
      <trkpt lat="45.63693" lon="6.69383">
        <ele>2426.3999023438</ele>
        <time>2019-03-27T09:48:15.000Z</time>
      </trkpt>
      <trkpt lat="45.63693" lon="6.69381">
        <ele>2427.1999511719</ele>
        <time>2019-03-27T09:48:18.000Z</time>
      </trkpt>
      <trkpt lat="45.63692" lon="6.69376">
        <ele>2427.3999023438</ele>
        <time>2019-03-27T09:48:21.000Z</time>
      </trkpt>
      <trkpt lat="45.63691" lon="6.69368">
        <ele>2428.1999511719</ele>
        <time>2019-03-27T09:48:27.000Z</time>
      </trkpt>
      <trkpt lat="45.63687" lon="6.69364">
        <ele>2429.3999023438</ele>
        <time>2019-03-27T09:48:35.000Z</time>
      </trkpt>
      <trkpt lat="45.63684" lon="6.69362">
        <ele>2430.1999511719</ele>
        <time>2019-03-27T09:48:41.000Z</time>
      </trkpt>
      <trkpt lat="45.63683" lon="6.69359">
        <ele>2430.6000976562</ele>
        <time>2019-03-27T09:48:44.000Z</time>
      </trkpt>
      <trkpt lat="45.6368" lon="6.69355">
        <ele>2431.6000976562</ele>
        <time>2019-03-27T09:48:48.000Z</time>
      </trkpt>
      <trkpt lat="45.63679" lon="6.69354">
        <ele>2432</ele>
        <time>2019-03-27T09:48:49.000Z</time>
      </trkpt>
      <trkpt lat="45.63678" lon="6.69351">
        <ele>2432.8000488281</ele>
        <time>2019-03-27T09:48:55.000Z</time>
      </trkpt>
      <trkpt lat="45.63676" lon="6.69353">
        <ele>2433.6000976562</ele>
        <time>2019-03-27T09:49:04.000Z</time>
      </trkpt>
      <trkpt lat="45.63676" lon="6.69353">
        <ele>2434</ele>
        <time>2019-03-27T09:49:05.000Z</time>
      </trkpt>
      <trkpt lat="45.63676" lon="6.69353">
        <ele>2435.3999023438</ele>
        <time>2019-03-27T09:49:08.000Z</time>
      </trkpt>
      <trkpt lat="45.63677" lon="6.69354">
        <ele>2436.1999511719</ele>
        <time>2019-03-27T09:49:11.000Z</time>
      </trkpt>
      <trkpt lat="45.6368" lon="6.69356">
        <ele>2435.6000976562</ele>
        <time>2019-03-27T09:49:16.000Z</time>
      </trkpt>
      <trkpt lat="45.63684" lon="6.69357">
        <ele>2436.1999511719</ele>
        <time>2019-03-27T09:49:22.000Z</time>
      </trkpt>
      <trkpt lat="45.63685" lon="6.69357">
        <ele>2436.3999023438</ele>
        <time>2019-03-27T09:49:24.000Z</time>
      </trkpt>
      <trkpt lat="45.63688" lon="6.69358">
        <ele>2437</ele>
        <time>2019-03-27T09:49:27.000Z</time>
      </trkpt>
      <trkpt lat="45.63691" lon="6.69358">
        <ele>2437.3999023438</ele>
        <time>2019-03-27T09:49:33.000Z</time>
      </trkpt>
      <trkpt lat="45.63692" lon="6.69358">
        <ele>2437.6000976562</ele>
        <time>2019-03-27T09:49:34.000Z</time>
      </trkpt>
      <trkpt lat="45.63695" lon="6.69359">
        <ele>2438.1999511719</ele>
        <time>2019-03-27T09:49:38.000Z</time>
      </trkpt>
      <trkpt lat="45.63696" lon="6.69359">
        <ele>2438.6000976562</ele>
        <time>2019-03-27T09:49:40.000Z</time>
      </trkpt>
      <trkpt lat="45.63697" lon="6.69359">
        <ele>2439.1999511719</ele>
        <time>2019-03-27T09:49:43.000Z</time>
      </trkpt>
      <trkpt lat="45.637" lon="6.6936">
        <ele>2439.8000488281</ele>
        <time>2019-03-27T09:49:47.000Z</time>
      </trkpt>
      <trkpt lat="45.63701" lon="6.6936">
        <ele>2440</ele>
        <time>2019-03-27T09:49:49.000Z</time>
      </trkpt>
      <trkpt lat="45.63703" lon="6.6936">
        <ele>2440.1999511719</ele>
        <time>2019-03-27T09:49:54.000Z</time>
      </trkpt>
      <trkpt lat="45.63705" lon="6.69362">
        <ele>2441</ele>
        <time>2019-03-27T09:49:59.000Z</time>
      </trkpt>
      <trkpt lat="45.63708" lon="6.69362">
        <ele>2442</ele>
        <time>2019-03-27T09:50:04.000Z</time>
      </trkpt>
      <trkpt lat="45.63711" lon="6.69361">
        <ele>2442.6000976562</ele>
        <time>2019-03-27T09:50:10.000Z</time>
      </trkpt>
      <trkpt lat="45.63713" lon="6.69361">
        <ele>2442.8000488281</ele>
        <time>2019-03-27T09:50:14.000Z</time>
      </trkpt>
      <trkpt lat="45.63713" lon="6.69361">
        <ele>2443</ele>
        <time>2019-03-27T09:50:15.000Z</time>
      </trkpt>
      <trkpt lat="45.63714" lon="6.6936">
        <ele>2443.3999023438</ele>
        <time>2019-03-27T09:50:16.000Z</time>
      </trkpt>
      <trkpt lat="45.63717" lon="6.69357">
        <ele>2444.3999023438</ele>
        <time>2019-03-27T09:50:20.000Z</time>
      </trkpt>
      <trkpt lat="45.63718" lon="6.69356">
        <ele>2444.6000976562</ele>
        <time>2019-03-27T09:50:22.000Z</time>
      </trkpt>
      <trkpt lat="45.6372" lon="6.69356">
        <ele>2445.3999023438</ele>
        <time>2019-03-27T09:50:27.000Z</time>
      </trkpt>
      <trkpt lat="45.6372" lon="6.69356">
        <ele>2445.6000976562</ele>
        <time>2019-03-27T09:50:28.000Z</time>
      </trkpt>
      <trkpt lat="45.63723" lon="6.69355">
        <ele>2446.6000976562</ele>
        <time>2019-03-27T09:50:32.000Z</time>
      </trkpt>
      <trkpt lat="45.63725" lon="6.69355">
        <ele>2447.6000976562</ele>
        <time>2019-03-27T09:50:37.000Z</time>
      </trkpt>
      <trkpt lat="45.63725" lon="6.69355">
        <ele>2447.8000488281</ele>
        <time>2019-03-27T09:50:38.000Z</time>
      </trkpt>
      <trkpt lat="45.63725" lon="6.69355">
        <ele>2449</ele>
        <time>2019-03-27T09:50:42.000Z</time>
      </trkpt>
      <trkpt lat="45.63726" lon="6.69355">
        <ele>2448.6000976562</ele>
        <time>2019-03-27T09:50:53.000Z</time>
      </trkpt>
      <trkpt lat="45.6373" lon="6.69353">
        <ele>2449.3999023438</ele>
        <time>2019-03-27T09:51:00.000Z</time>
      </trkpt>
      <trkpt lat="45.63731" lon="6.69352">
        <ele>2450</ele>
        <time>2019-03-27T09:51:03.000Z</time>
      </trkpt>
      <trkpt lat="45.63732" lon="6.69353">
        <ele>2450.1999511719</ele>
        <time>2019-03-27T09:51:05.000Z</time>
      </trkpt>
      <trkpt lat="45.63733" lon="6.69353">
        <ele>2450.8000488281</ele>
        <time>2019-03-27T09:51:10.000Z</time>
      </trkpt>
      <trkpt lat="45.63733" lon="6.69353">
        <ele>2451.3999023438</ele>
        <time>2019-03-27T09:51:12.000Z</time>
      </trkpt>
      <trkpt lat="45.63732" lon="6.69351">
        <ele>2451.8000488281</ele>
        <time>2019-03-27T09:51:19.000Z</time>
      </trkpt>
      <trkpt lat="45.6373" lon="6.69345">
        <ele>2452.1999511719</ele>
        <time>2019-03-27T09:51:24.000Z</time>
      </trkpt>
      <trkpt lat="45.6373" lon="6.69344">
        <ele>2452.6000976562</ele>
        <time>2019-03-27T09:51:26.000Z</time>
      </trkpt>
      <trkpt lat="45.63729" lon="6.69341">
        <ele>2453.1999511719</ele>
        <time>2019-03-27T09:51:30.000Z</time>
      </trkpt>
      <trkpt lat="45.63729" lon="6.6934">
        <ele>2453.8000488281</ele>
        <time>2019-03-27T09:51:33.000Z</time>
      </trkpt>
      <trkpt lat="45.63729" lon="6.69339">
        <ele>2454.1999511719</ele>
        <time>2019-03-27T09:51:35.000Z</time>
      </trkpt>
      <trkpt lat="45.63729" lon="6.69337">
        <ele>2454.3999023438</ele>
        <time>2019-03-27T09:51:42.000Z</time>
      </trkpt>
      <trkpt lat="45.63729" lon="6.69337">
        <ele>2454.8000488281</ele>
        <time>2019-03-27T09:51:45.000Z</time>
      </trkpt>
      <trkpt lat="45.63727" lon="6.69336">
        <ele>2455.3999023438</ele>
        <time>2019-03-27T09:51:58.000Z</time>
      </trkpt>
      <trkpt lat="45.63726" lon="6.69335">
        <ele>2455.8000488281</ele>
        <time>2019-03-27T09:52:00.000Z</time>
      </trkpt>
      <trkpt lat="45.63723" lon="6.69333">
        <ele>2456</ele>
        <time>2019-03-27T09:52:04.000Z</time>
      </trkpt>
      <trkpt lat="45.63722" lon="6.69331">
        <ele>2456</ele>
        <time>2019-03-27T09:52:09.000Z</time>
      </trkpt>
      <trkpt lat="45.6372" lon="6.69323">
        <ele>2457</ele>
        <time>2019-03-27T09:52:15.000Z</time>
      </trkpt>
      <trkpt lat="45.63718" lon="6.69322">
        <ele>2457.8000488281</ele>
        <time>2019-03-27T09:52:20.000Z</time>
      </trkpt>
      <trkpt lat="45.63717" lon="6.6932">
        <ele>2458</ele>
        <time>2019-03-27T09:52:23.000Z</time>
      </trkpt>
      <trkpt lat="45.63716" lon="6.6932">
        <ele>2458</ele>
        <time>2019-03-27T09:52:25.000Z</time>
      </trkpt>
      <trkpt lat="45.63714" lon="6.69318">
        <ele>2459</ele>
        <time>2019-03-27T09:52:33.000Z</time>
      </trkpt>
      <trkpt lat="45.63713" lon="6.69317">
        <ele>2459.6000976562</ele>
        <time>2019-03-27T09:52:38.000Z</time>
      </trkpt>
      <trkpt lat="45.63713" lon="6.69316">
        <ele>2460</ele>
        <time>2019-03-27T09:52:40.000Z</time>
      </trkpt>
      <trkpt lat="45.63711" lon="6.69314">
        <ele>2461</ele>
        <time>2019-03-27T09:52:43.000Z</time>
      </trkpt>
      <trkpt lat="45.6371" lon="6.69313">
        <ele>2461.3999023438</ele>
        <time>2019-03-27T09:52:44.000Z</time>
      </trkpt>
      <trkpt lat="45.63709" lon="6.69312">
        <ele>2460.1999511719</ele>
        <time>2019-03-27T09:52:50.000Z</time>
      </trkpt>
      <trkpt lat="45.63709" lon="6.69312">
        <ele>2460</ele>
        <time>2019-03-27T09:52:51.000Z</time>
      </trkpt>
      <trkpt lat="45.63709" lon="6.69312">
        <ele>2461.8000488281</ele>
        <time>2019-03-27T09:52:55.000Z</time>
      </trkpt>
      <trkpt lat="45.63709" lon="6.69312">
        <ele>2463</ele>
        <time>2019-03-27T09:52:58.000Z</time>
      </trkpt>
      <trkpt lat="45.63709" lon="6.69312">
        <ele>2463</ele>
        <time>2019-03-27T09:53:07.000Z</time>
      </trkpt>
      <trkpt lat="45.63709" lon="6.69312">
        <ele>2462.8000488281</ele>
        <time>2019-03-27T09:53:24.000Z</time>
      </trkpt>
      <trkpt lat="45.63708" lon="6.69317">
        <ele>2464</ele>
        <time>2019-03-27T09:53:31.000Z</time>
      </trkpt>
      <trkpt lat="45.63709" lon="6.69318">
        <ele>2463.1999511719</ele>
        <time>2019-03-27T09:53:37.000Z</time>
      </trkpt>
      <trkpt lat="45.63709" lon="6.69319">
        <ele>2463</ele>
        <time>2019-03-27T09:53:38.000Z</time>
      </trkpt>
      <trkpt lat="45.63712" lon="6.69319">
        <ele>2463.1999511719</ele>
        <time>2019-03-27T09:53:43.000Z</time>
      </trkpt>
      <trkpt lat="45.63715" lon="6.69319">
        <ele>2463.6000976562</ele>
        <time>2019-03-27T09:53:48.000Z</time>
      </trkpt>
      <trkpt lat="45.63716" lon="6.69318">
        <ele>2464.1999511719</ele>
        <time>2019-03-27T09:53:51.000Z</time>
      </trkpt>
      <trkpt lat="45.63718" lon="6.69317">
        <ele>2464.8000488281</ele>
        <time>2019-03-27T09:53:54.000Z</time>
      </trkpt>
      <trkpt lat="45.6372" lon="6.69316">
        <ele>2465.1999511719</ele>
        <time>2019-03-27T09:53:59.000Z</time>
      </trkpt>
      <trkpt lat="45.6372" lon="6.69316">
        <ele>2465.1999511719</ele>
        <time>2019-03-27T09:54:00.000Z</time>
      </trkpt>
      <trkpt lat="45.63721" lon="6.69316">
        <ele>2465.3999023438</ele>
        <time>2019-03-27T09:54:04.000Z</time>
      </trkpt>
      <trkpt lat="45.63724" lon="6.69315">
        <ele>2466.3999023438</ele>
        <time>2019-03-27T09:54:10.000Z</time>
      </trkpt>
      <trkpt lat="45.63726" lon="6.69315">
        <ele>2466.8000488281</ele>
        <time>2019-03-27T09:54:15.000Z</time>
      </trkpt>
      <trkpt lat="45.63727" lon="6.69314">
        <ele>2467.3999023438</ele>
        <time>2019-03-27T09:54:21.000Z</time>
      </trkpt>
      <trkpt lat="45.63732" lon="6.69312">
        <ele>2468.1999511719</ele>
        <time>2019-03-27T09:54:28.000Z</time>
      </trkpt>
      <trkpt lat="45.63732" lon="6.69312">
        <ele>2468.6000976562</ele>
        <time>2019-03-27T09:54:29.000Z</time>
      </trkpt>
      <trkpt lat="45.63734" lon="6.69312">
        <ele>2469</ele>
        <time>2019-03-27T09:54:34.000Z</time>
      </trkpt>
      <trkpt lat="45.63735" lon="6.69311">
        <ele>2469.6000976562</ele>
        <time>2019-03-27T09:54:39.000Z</time>
      </trkpt>
      <trkpt lat="45.63735" lon="6.69311">
        <ele>2469.8000488281</ele>
        <time>2019-03-27T09:54:40.000Z</time>
      </trkpt>
      <trkpt lat="45.63735" lon="6.69311">
        <ele>2470.6000976562</ele>
        <time>2019-03-27T09:54:42.000Z</time>
      </trkpt>
      <trkpt lat="45.63735" lon="6.6931">
        <ele>2470.6000976562</ele>
        <time>2019-03-27T09:54:51.000Z</time>
      </trkpt>
      <trkpt lat="45.63734" lon="6.69307">
        <ele>2471.6000976562</ele>
        <time>2019-03-27T09:55:00.000Z</time>
      </trkpt>
      <trkpt lat="45.63732" lon="6.69305">
        <ele>2471.6000976562</ele>
        <time>2019-03-27T09:55:06.000Z</time>
      </trkpt>
      <trkpt lat="45.6373" lon="6.69302">
        <ele>2472.8000488281</ele>
        <time>2019-03-27T09:55:15.000Z</time>
      </trkpt>
      <trkpt lat="45.6373" lon="6.69302">
        <ele>2473.1999511719</ele>
        <time>2019-03-27T09:55:16.000Z</time>
      </trkpt>
      <trkpt lat="45.63726" lon="6.69294">
        <ele>2473.1999511719</ele>
        <time>2019-03-27T09:55:25.000Z</time>
      </trkpt>
      <trkpt lat="45.63726" lon="6.69295">
        <ele>2474</ele>
        <time>2019-03-27T09:55:31.000Z</time>
      </trkpt>
      <trkpt lat="45.63727" lon="6.69296">
        <ele>2474.6000976562</ele>
        <time>2019-03-27T09:55:32.000Z</time>
      </trkpt>
      <trkpt lat="45.63728" lon="6.69297">
        <ele>2475.1999511719</ele>
        <time>2019-03-27T09:55:34.000Z</time>
      </trkpt>
      <trkpt lat="45.63729" lon="6.69297">
        <ele>2475.1999511719</ele>
        <time>2019-03-27T09:55:37.000Z</time>
      </trkpt>
      <trkpt lat="45.63732" lon="6.69297">
        <ele>2475.3999023438</ele>
        <time>2019-03-27T09:55:44.000Z</time>
      </trkpt>
      <trkpt lat="45.63733" lon="6.69297">
        <ele>2476.3999023438</ele>
        <time>2019-03-27T09:55:49.000Z</time>
      </trkpt>
      <trkpt lat="45.63735" lon="6.69297">
        <ele>2476.6000976562</ele>
        <time>2019-03-27T09:55:55.000Z</time>
      </trkpt>
      <trkpt lat="45.63738" lon="6.69298">
        <ele>2477.1999511719</ele>
        <time>2019-03-27T09:56:00.000Z</time>
      </trkpt>
      <trkpt lat="45.6374" lon="6.69297">
        <ele>2477.6000976562</ele>
        <time>2019-03-27T09:56:02.000Z</time>
      </trkpt>
      <trkpt lat="45.63742" lon="6.69298">
        <ele>2478</ele>
        <time>2019-03-27T09:56:07.000Z</time>
      </trkpt>
      <trkpt lat="45.63743" lon="6.69298">
        <ele>2478.6000976562</ele>
        <time>2019-03-27T09:56:10.000Z</time>
      </trkpt>
      <trkpt lat="45.63743" lon="6.69298">
        <ele>2479</ele>
        <time>2019-03-27T09:56:14.000Z</time>
      </trkpt>
      <trkpt lat="45.63743" lon="6.69298">
        <ele>2479.3999023438</ele>
        <time>2019-03-27T09:56:24.000Z</time>
      </trkpt>
      <trkpt lat="45.63743" lon="6.69298">
        <ele>2479</ele>
        <time>2019-03-27T09:56:36.000Z</time>
      </trkpt>
      <trkpt lat="45.63743" lon="6.69298">
        <ele>2479.6000976562</ele>
        <time>2019-03-27T09:56:39.000Z</time>
      </trkpt>
      <trkpt lat="45.63743" lon="6.69298">
        <ele>2480.3999023438</ele>
        <time>2019-03-27T09:56:43.000Z</time>
      </trkpt>
      <trkpt lat="45.63739" lon="6.69293">
        <ele>2480.6000976562</ele>
        <time>2019-03-27T09:56:50.000Z</time>
      </trkpt>
      <trkpt lat="45.63737" lon="6.69291">
        <ele>2480.8000488281</ele>
        <time>2019-03-27T09:56:53.000Z</time>
      </trkpt>
      <trkpt lat="45.63736" lon="6.69286">
        <ele>2481.3999023438</ele>
        <time>2019-03-27T09:56:57.000Z</time>
      </trkpt>
      <trkpt lat="45.63736" lon="6.69284">
        <ele>2482</ele>
        <time>2019-03-27T09:57:00.000Z</time>
      </trkpt>
      <trkpt lat="45.63733" lon="6.69282">
        <ele>2482.1999511719</ele>
        <time>2019-03-27T09:57:06.000Z</time>
      </trkpt>
      <trkpt lat="45.63733" lon="6.69282">
        <ele>2483</ele>
        <time>2019-03-27T09:57:15.000Z</time>
      </trkpt>
      <trkpt lat="45.63733" lon="6.69282">
        <ele>2482.8000488281</ele>
        <time>2019-03-27T09:57:20.000Z</time>
      </trkpt>
      <trkpt lat="45.63733" lon="6.69282">
        <ele>2483.3999023438</ele>
        <time>2019-03-27T09:57:27.000Z</time>
      </trkpt>
      <trkpt lat="45.63733" lon="6.69281">
        <ele>2483.3999023438</ele>
        <time>2019-03-27T09:57:33.000Z</time>
      </trkpt>
      <trkpt lat="45.63734" lon="6.69281">
        <ele>2484</ele>
        <time>2019-03-27T09:57:34.000Z</time>
      </trkpt>
      <trkpt lat="45.63735" lon="6.69281">
        <ele>2485</ele>
        <time>2019-03-27T09:57:37.000Z</time>
      </trkpt>
      <trkpt lat="45.63738" lon="6.69282">
        <ele>2484.6000976562</ele>
        <time>2019-03-27T09:57:42.000Z</time>
      </trkpt>
      <trkpt lat="45.6374" lon="6.69282">
        <ele>2484.6000976562</ele>
        <time>2019-03-27T09:57:47.000Z</time>
      </trkpt>
      <trkpt lat="45.63744" lon="6.69282">
        <ele>2486</ele>
        <time>2019-03-27T09:57:54.000Z</time>
      </trkpt>
      <trkpt lat="45.63745" lon="6.69282">
        <ele>2486.1999511719</ele>
        <time>2019-03-27T09:57:55.000Z</time>
      </trkpt>
      <trkpt lat="45.63746" lon="6.69281">
        <ele>2486.8000488281</ele>
        <time>2019-03-27T09:58:00.000Z</time>
      </trkpt>
      <trkpt lat="45.63747" lon="6.69282">
        <ele>2487.3999023438</ele>
        <time>2019-03-27T09:58:04.000Z</time>
      </trkpt>
      <trkpt lat="45.63747" lon="6.69281">
        <ele>2487.6000976562</ele>
        <time>2019-03-27T09:58:05.000Z</time>
      </trkpt>
      <trkpt lat="45.63748" lon="6.69281">
        <ele>2488.1999511719</ele>
        <time>2019-03-27T09:58:10.000Z</time>
      </trkpt>
      <trkpt lat="45.63747" lon="6.69279">
        <ele>2488.1999511719</ele>
        <time>2019-03-27T09:58:18.000Z</time>
      </trkpt>
      <trkpt lat="45.63746" lon="6.69278">
        <ele>2488.6000976562</ele>
        <time>2019-03-27T09:58:21.000Z</time>
      </trkpt>
      <trkpt lat="45.63745" lon="6.69276">
        <ele>2489.3999023438</ele>
        <time>2019-03-27T09:58:26.000Z</time>
      </trkpt>
      <trkpt lat="45.63744" lon="6.69274">
        <ele>2489.6000976562</ele>
        <time>2019-03-27T09:58:28.000Z</time>
      </trkpt>
      <trkpt lat="45.63745" lon="6.69275">
        <ele>2489.6000976562</ele>
        <time>2019-03-27T09:58:32.000Z</time>
      </trkpt>
      <trkpt lat="45.63745" lon="6.69275">
        <ele>2489.3999023438</ele>
        <time>2019-03-27T09:58:42.000Z</time>
      </trkpt>
      <trkpt lat="45.63745" lon="6.69275">
        <ele>2489.1999511719</ele>
        <time>2019-03-27T09:58:53.000Z</time>
      </trkpt>
      <trkpt lat="45.63745" lon="6.69275">
        <ele>2489.6000976562</ele>
        <time>2019-03-27T09:59:08.000Z</time>
      </trkpt>
      <trkpt lat="45.63745" lon="6.69275">
        <ele>2489.3999023438</ele>
        <time>2019-03-27T09:59:24.000Z</time>
      </trkpt>
      <trkpt lat="45.63745" lon="6.69275">
        <ele>2490.8000488281</ele>
        <time>2019-03-27T09:59:40.000Z</time>
      </trkpt>
      <trkpt lat="45.63745" lon="6.69275">
        <ele>2491</ele>
        <time>2019-03-27T09:59:41.000Z</time>
      </trkpt>
      <trkpt lat="45.63744" lon="6.69273">
        <ele>2490</ele>
        <time>2019-03-27T09:59:47.000Z</time>
      </trkpt>
      <trkpt lat="45.63744" lon="6.69273">
        <ele>2489.6000976562</ele>
        <time>2019-03-27T09:59:48.000Z</time>
      </trkpt>
      <trkpt lat="45.63742" lon="6.69271">
        <ele>2490.6000976562</ele>
        <time>2019-03-27T09:59:55.000Z</time>
      </trkpt>
      <trkpt lat="45.63741" lon="6.69271">
        <ele>2490.8000488281</ele>
        <time>2019-03-27T09:59:56.000Z</time>
      </trkpt>
      <trkpt lat="45.6374" lon="6.69267">
        <ele>2491.6000976562</ele>
        <time>2019-03-27T10:00:02.000Z</time>
      </trkpt>
      <trkpt lat="45.63739" lon="6.69265">
        <ele>2491.8000488281</ele>
        <time>2019-03-27T10:00:04.000Z</time>
      </trkpt>
      <trkpt lat="45.63738" lon="6.69263">
        <ele>2492.6000976562</ele>
        <time>2019-03-27T10:00:11.000Z</time>
      </trkpt>
      <trkpt lat="45.63738" lon="6.69263">
        <ele>2493</ele>
        <time>2019-03-27T10:00:20.000Z</time>
      </trkpt>
      <trkpt lat="45.63738" lon="6.69263">
        <ele>2493.6000976562</ele>
        <time>2019-03-27T10:00:24.000Z</time>
      </trkpt>
      <trkpt lat="45.63738" lon="6.69263">
        <ele>2494</ele>
        <time>2019-03-27T10:00:26.000Z</time>
      </trkpt>
      <trkpt lat="45.63738" lon="6.69264">
        <ele>2495.1999511719</ele>
        <time>2019-03-27T10:00:30.000Z</time>
      </trkpt>
      <trkpt lat="45.63738" lon="6.69264">
        <ele>2495.3999023438</ele>
        <time>2019-03-27T10:00:32.000Z</time>
      </trkpt>
      <trkpt lat="45.6374" lon="6.69265">
        <ele>2494.1999511719</ele>
        <time>2019-03-27T10:00:38.000Z</time>
      </trkpt>
      <trkpt lat="45.63745" lon="6.69266">
        <ele>2494.6000976562</ele>
        <time>2019-03-27T10:00:44.000Z</time>
      </trkpt>
      <trkpt lat="45.63745" lon="6.69267">
        <ele>2494.8000488281</ele>
        <time>2019-03-27T10:00:46.000Z</time>
      </trkpt>
      <trkpt lat="45.63747" lon="6.69267">
        <ele>2495.1999511719</ele>
        <time>2019-03-27T10:00:48.000Z</time>
      </trkpt>
      <trkpt lat="45.63749" lon="6.69267">
        <ele>2495.8000488281</ele>
        <time>2019-03-27T10:00:52.000Z</time>
      </trkpt>
      <trkpt lat="45.6375" lon="6.69267">
        <ele>2496.1999511719</ele>
        <time>2019-03-27T10:00:54.000Z</time>
      </trkpt>
      <trkpt lat="45.63751" lon="6.69268">
        <ele>2497</ele>
        <time>2019-03-27T10:01:01.000Z</time>
      </trkpt>
      <trkpt lat="45.6375" lon="6.69268">
        <ele>2496.6000976562</ele>
        <time>2019-03-27T10:01:11.000Z</time>
      </trkpt>
      <trkpt lat="45.6375" lon="6.69268">
        <ele>2497.3999023438</ele>
        <time>2019-03-27T10:01:14.000Z</time>
      </trkpt>
      <trkpt lat="45.6375" lon="6.69265">
        <ele>2498.3999023438</ele>
        <time>2019-03-27T10:01:19.000Z</time>
      </trkpt>
      <trkpt lat="45.63745" lon="6.69258">
        <ele>2499</ele>
        <time>2019-03-27T10:01:29.000Z</time>
      </trkpt>
      <trkpt lat="45.63744" lon="6.69256">
        <ele>2499.3999023438</ele>
        <time>2019-03-27T10:01:31.000Z</time>
      </trkpt>
      <trkpt lat="45.63743" lon="6.69254">
        <ele>2500</ele>
        <time>2019-03-27T10:01:36.000Z</time>
      </trkpt>
      <trkpt lat="45.63743" lon="6.69254">
        <ele>2500.6000976562</ele>
        <time>2019-03-27T10:01:47.000Z</time>
      </trkpt>
      <trkpt lat="45.63743" lon="6.69254">
        <ele>2501.8000488281</ele>
        <time>2019-03-27T10:01:51.000Z</time>
      </trkpt>
      <trkpt lat="45.63744" lon="6.69255">
        <ele>2502.1999511719</ele>
        <time>2019-03-27T10:01:53.000Z</time>
      </trkpt>
      <trkpt lat="45.63747" lon="6.69255">
        <ele>2501.1999511719</ele>
        <time>2019-03-27T10:01:59.000Z</time>
      </trkpt>
      <trkpt lat="45.6375" lon="6.69256">
        <ele>2502.8000488281</ele>
        <time>2019-03-27T10:02:04.000Z</time>
      </trkpt>
      <trkpt lat="45.63751" lon="6.69256">
        <ele>2503</ele>
        <time>2019-03-27T10:02:05.000Z</time>
      </trkpt>
      <trkpt lat="45.63753" lon="6.69257">
        <ele>2503.1999511719</ele>
        <time>2019-03-27T10:02:10.000Z</time>
      </trkpt>
      <trkpt lat="45.63754" lon="6.69257">
        <ele>2504</ele>
        <time>2019-03-27T10:02:16.000Z</time>
      </trkpt>
      <trkpt lat="45.63754" lon="6.69257">
        <ele>2504.1999511719</ele>
        <time>2019-03-27T10:02:19.000Z</time>
      </trkpt>
      <trkpt lat="45.63753" lon="6.69257">
        <ele>2504.3999023438</ele>
        <time>2019-03-27T10:02:25.000Z</time>
      </trkpt>
      <trkpt lat="45.63753" lon="6.69256">
        <ele>2503.8000488281</ele>
        <time>2019-03-27T10:02:35.000Z</time>
      </trkpt>
      <trkpt lat="45.63753" lon="6.69255">
        <ele>2504.6000976562</ele>
        <time>2019-03-27T10:02:46.000Z</time>
      </trkpt>
      <trkpt lat="45.63752" lon="6.69253">
        <ele>2505.1999511719</ele>
        <time>2019-03-27T10:02:52.000Z</time>
      </trkpt>
      <trkpt lat="45.6375" lon="6.69249">
        <ele>2505.1999511719</ele>
        <time>2019-03-27T10:02:59.000Z</time>
      </trkpt>
      <trkpt lat="45.6375" lon="6.69249">
        <ele>2505.3999023438</ele>
        <time>2019-03-27T10:03:07.000Z</time>
      </trkpt>
      <trkpt lat="45.6375" lon="6.69249">
        <ele>2506.1999511719</ele>
        <time>2019-03-27T10:03:10.000Z</time>
      </trkpt>
      <trkpt lat="45.6375" lon="6.69249">
        <ele>2506.3999023438</ele>
        <time>2019-03-27T10:03:23.000Z</time>
      </trkpt>
      <trkpt lat="45.6375" lon="6.69249">
        <ele>2505.6000976562</ele>
        <time>2019-03-27T10:03:38.000Z</time>
      </trkpt>
      <trkpt lat="45.6375" lon="6.69249">
        <ele>2506.3999023438</ele>
        <time>2019-03-27T10:03:53.000Z</time>
      </trkpt>
      <trkpt lat="45.6375" lon="6.69249">
        <ele>2505.8000488281</ele>
        <time>2019-03-27T10:04:12.000Z</time>
      </trkpt>
      <trkpt lat="45.6375" lon="6.69249">
        <ele>2506.3999023438</ele>
        <time>2019-03-27T10:04:33.000Z</time>
      </trkpt>
      <trkpt lat="45.6375" lon="6.69249">
        <ele>2506</ele>
        <time>2019-03-27T10:04:42.000Z</time>
      </trkpt>
      <trkpt lat="45.6375" lon="6.69249">
        <ele>2505.6000976562</ele>
        <time>2019-03-27T10:04:53.000Z</time>
      </trkpt>
      <trkpt lat="45.6375" lon="6.69249">
        <ele>2506.1999511719</ele>
        <time>2019-03-27T10:05:05.000Z</time>
      </trkpt>
      <trkpt lat="45.6375" lon="6.69249">
        <ele>2506.1999511719</ele>
        <time>2019-03-27T10:05:22.000Z</time>
      </trkpt>
      <trkpt lat="45.6375" lon="6.69249">
        <ele>2506</ele>
        <time>2019-03-27T10:05:34.000Z</time>
      </trkpt>
      <trkpt lat="45.6375" lon="6.69249">
        <ele>2506</ele>
        <time>2019-03-27T10:05:52.000Z</time>
      </trkpt>
      <trkpt lat="45.6375" lon="6.69249">
        <ele>2506</ele>
        <time>2019-03-27T10:06:05.000Z</time>
      </trkpt>
      <trkpt lat="45.63751" lon="6.69248">
        <ele>2505.8000488281</ele>
        <time>2019-03-27T10:06:14.000Z</time>
      </trkpt>
      <trkpt lat="45.63751" lon="6.69248">
        <ele>2505.8000488281</ele>
        <time>2019-03-27T10:06:28.000Z</time>
      </trkpt>
      <trkpt lat="45.63751" lon="6.69248">
        <ele>2505.8000488281</ele>
        <time>2019-03-27T10:06:41.000Z</time>
      </trkpt>
      <trkpt lat="45.63751" lon="6.69248">
        <ele>2506.6000976562</ele>
        <time>2019-03-27T10:06:58.000Z</time>
      </trkpt>
      <trkpt lat="45.6375" lon="6.69247">
        <ele>2505.8000488281</ele>
        <time>2019-03-27T10:07:08.000Z</time>
      </trkpt>
      <trkpt lat="45.63749" lon="6.69244">
        <ele>2506.1999511719</ele>
        <time>2019-03-27T10:07:15.000Z</time>
      </trkpt>
      <trkpt lat="45.63749" lon="6.69244">
        <ele>2507.1999511719</ele>
        <time>2019-03-27T10:07:23.000Z</time>
      </trkpt>
      <trkpt lat="45.63749" lon="6.69244">
        <ele>2507.8000488281</ele>
        <time>2019-03-27T10:07:24.000Z</time>
      </trkpt>
      <trkpt lat="45.63749" lon="6.69244">
        <ele>2507</ele>
        <time>2019-03-27T10:07:33.000Z</time>
      </trkpt>
      <trkpt lat="45.63751" lon="6.69245">
        <ele>2507.6000976562</ele>
        <time>2019-03-27T10:07:40.000Z</time>
      </trkpt>
      <trkpt lat="45.63751" lon="6.69245">
        <ele>2508.3999023438</ele>
        <time>2019-03-27T10:07:46.000Z</time>
      </trkpt>
      <trkpt lat="45.63752" lon="6.69245">
        <ele>2508.8000488281</ele>
        <time>2019-03-27T10:07:50.000Z</time>
      </trkpt>
      <trkpt lat="45.63754" lon="6.69245">
        <ele>2509</ele>
        <time>2019-03-27T10:07:53.000Z</time>
      </trkpt>
      <trkpt lat="45.63755" lon="6.69244">
        <ele>2510.1999511719</ele>
        <time>2019-03-27T10:07:58.000Z</time>
      </trkpt>
      <trkpt lat="45.63755" lon="6.69244">
        <ele>2510.8000488281</ele>
        <time>2019-03-27T10:08:00.000Z</time>
      </trkpt>
      <trkpt lat="45.63755" lon="6.69244">
        <ele>2511.1999511719</ele>
        <time>2019-03-27T10:08:01.000Z</time>
      </trkpt>
      <trkpt lat="45.63755" lon="6.69244">
        <ele>2511.1999511719</ele>
        <time>2019-03-27T10:08:09.000Z</time>
      </trkpt>
      <trkpt lat="45.63753" lon="6.6924">
        <ele>2510.8000488281</ele>
        <time>2019-03-27T10:08:17.000Z</time>
      </trkpt>
      <trkpt lat="45.63752" lon="6.69238">
        <ele>2512.3999023438</ele>
        <time>2019-03-27T10:08:22.000Z</time>
      </trkpt>
      <trkpt lat="45.63752" lon="6.69238">
        <ele>2512.3999023438</ele>
        <time>2019-03-27T10:08:23.000Z</time>
      </trkpt>
      <trkpt lat="45.6375" lon="6.69235">
        <ele>2512.6000976562</ele>
        <time>2019-03-27T10:08:31.000Z</time>
      </trkpt>
      <trkpt lat="45.63749" lon="6.69233">
        <ele>2513.1999511719</ele>
        <time>2019-03-27T10:08:37.000Z</time>
      </trkpt>
      <trkpt lat="45.63749" lon="6.69232">
        <ele>2513.1999511719</ele>
        <time>2019-03-27T10:08:46.000Z</time>
      </trkpt>
      <trkpt lat="45.63749" lon="6.69232">
        <ele>2513.6000976562</ele>
        <time>2019-03-27T10:08:58.000Z</time>
      </trkpt>
      <trkpt lat="45.63749" lon="6.69232">
        <ele>2513.8000488281</ele>
        <time>2019-03-27T10:09:00.000Z</time>
      </trkpt>
      <trkpt lat="45.6375" lon="6.69232">
        <ele>2514.1999511719</ele>
        <time>2019-03-27T10:09:11.000Z</time>
      </trkpt>
      <trkpt lat="45.6375" lon="6.69232">
        <ele>2512.3999023438</ele>
        <time>2019-03-27T10:09:21.000Z</time>
      </trkpt>
      <trkpt lat="45.6375" lon="6.69232">
        <ele>2512.1999511719</ele>
        <time>2019-03-27T10:09:26.000Z</time>
      </trkpt>
      <trkpt lat="45.6375" lon="6.69232">
        <ele>2514</ele>
        <time>2019-03-27T10:09:28.000Z</time>
      </trkpt>
      <trkpt lat="45.6375" lon="6.69232">
        <ele>2513.1999511719</ele>
        <time>2019-03-27T10:09:38.000Z</time>
      </trkpt>
      <trkpt lat="45.6375" lon="6.69232">
        <ele>2513</ele>
        <time>2019-03-27T10:09:44.000Z</time>
      </trkpt>
      <trkpt lat="45.63749" lon="6.69231">
        <ele>2513.1999511719</ele>
        <time>2019-03-27T10:09:48.000Z</time>
      </trkpt>
      <trkpt lat="45.63749" lon="6.69231">
        <ele>2513.8000488281</ele>
        <time>2019-03-27T10:09:56.000Z</time>
      </trkpt>
      <trkpt lat="45.63749" lon="6.69231">
        <ele>2514.6000976562</ele>
        <time>2019-03-27T10:09:57.000Z</time>
      </trkpt>
      <trkpt lat="45.63749" lon="6.69231">
        <ele>2515.1999511719</ele>
        <time>2019-03-27T10:10:07.000Z</time>
      </trkpt>
      <trkpt lat="45.63749" lon="6.69231">
        <ele>2515.8000488281</ele>
        <time>2019-03-27T10:10:14.000Z</time>
      </trkpt>
      <trkpt lat="45.63749" lon="6.69231">
        <ele>2516.1999511719</ele>
        <time>2019-03-27T10:10:16.000Z</time>
      </trkpt>
      <trkpt lat="45.63749" lon="6.69231">
        <ele>2517.1999511719</ele>
        <time>2019-03-27T10:10:18.000Z</time>
      </trkpt>
      <trkpt lat="45.63749" lon="6.69231">
        <ele>2516.3999023438</ele>
        <time>2019-03-27T10:10:26.000Z</time>
      </trkpt>
      <trkpt lat="45.63749" lon="6.6923">
        <ele>2517.1999511719</ele>
        <time>2019-03-27T10:10:39.000Z</time>
      </trkpt>
      <trkpt lat="45.63749" lon="6.6923">
        <ele>2517.8000488281</ele>
        <time>2019-03-27T10:10:47.000Z</time>
      </trkpt>
      <trkpt lat="45.63749" lon="6.6923">
        <ele>2518.1999511719</ele>
        <time>2019-03-27T10:10:53.000Z</time>
      </trkpt>
      <trkpt lat="45.63749" lon="6.6923">
        <ele>2518.8000488281</ele>
        <time>2019-03-27T10:10:56.000Z</time>
      </trkpt>
      <trkpt lat="45.63749" lon="6.6923">
        <ele>2519.8000488281</ele>
        <time>2019-03-27T10:10:58.000Z</time>
      </trkpt>
      <trkpt lat="45.63749" lon="6.6923">
        <ele>2518.6000976562</ele>
        <time>2019-03-27T10:11:05.000Z</time>
      </trkpt>
      <trkpt lat="45.63749" lon="6.6923">
        <ele>2518.1999511719</ele>
        <time>2019-03-27T10:11:07.000Z</time>
      </trkpt>
      <trkpt lat="45.63749" lon="6.69229">
        <ele>2519.6000976562</ele>
        <time>2019-03-27T10:11:12.000Z</time>
      </trkpt>
      <trkpt lat="45.63749" lon="6.69229">
        <ele>2520.8000488281</ele>
        <time>2019-03-27T10:11:13.000Z</time>
      </trkpt>
      <trkpt lat="45.63749" lon="6.69229">
        <ele>2520.3999023438</ele>
        <time>2019-03-27T10:11:14.000Z</time>
      </trkpt>
      <trkpt lat="45.63749" lon="6.69229">
        <ele>2519.6000976562</ele>
        <time>2019-03-27T10:11:15.000Z</time>
      </trkpt>
      <trkpt lat="45.63749" lon="6.69228">
        <ele>2520.8000488281</ele>
        <time>2019-03-27T10:11:22.000Z</time>
      </trkpt>
      <trkpt lat="45.63749" lon="6.69228">
        <ele>2521.6000976562</ele>
        <time>2019-03-27T10:11:23.000Z</time>
      </trkpt>
      <trkpt lat="45.63749" lon="6.69228">
        <ele>2520.8000488281</ele>
        <time>2019-03-27T10:11:25.000Z</time>
      </trkpt>
      <trkpt lat="45.63749" lon="6.69228">
        <ele>2521.8000488281</ele>
        <time>2019-03-27T10:11:28.000Z</time>
      </trkpt>
      <trkpt lat="45.63748" lon="6.69227">
        <ele>2521.8000488281</ele>
        <time>2019-03-27T10:11:38.000Z</time>
      </trkpt>
      <trkpt lat="45.63748" lon="6.69227">
        <ele>2521.3999023438</ele>
        <time>2019-03-27T10:11:49.000Z</time>
      </trkpt>
      <trkpt lat="45.63748" lon="6.69227">
        <ele>2521.3999023438</ele>
        <time>2019-03-27T10:11:55.000Z</time>
      </trkpt>
      <trkpt lat="45.63748" lon="6.69227">
        <ele>2522.3999023438</ele>
        <time>2019-03-27T10:12:06.000Z</time>
      </trkpt>
      <trkpt lat="45.63748" lon="6.69227">
        <ele>2523</ele>
        <time>2019-03-27T10:12:08.000Z</time>
      </trkpt>
      <trkpt lat="45.63748" lon="6.69227">
        <ele>2524.1999511719</ele>
        <time>2019-03-27T10:12:17.000Z</time>
      </trkpt>
      <trkpt lat="45.63748" lon="6.69227">
        <ele>2525.1999511719</ele>
        <time>2019-03-27T10:12:19.000Z</time>
      </trkpt>
      <trkpt lat="45.63748" lon="6.69227">
        <ele>2524</ele>
        <time>2019-03-27T10:12:22.000Z</time>
      </trkpt>
      <trkpt lat="45.63748" lon="6.69227">
        <ele>2524.3999023438</ele>
        <time>2019-03-27T10:12:25.000Z</time>
      </trkpt>
      <trkpt lat="45.63748" lon="6.69227">
        <ele>2525.1999511719</ele>
        <time>2019-03-27T10:12:30.000Z</time>
      </trkpt>
      <trkpt lat="45.63748" lon="6.69226">
        <ele>2524.8000488281</ele>
        <time>2019-03-27T10:12:35.000Z</time>
      </trkpt>
      <trkpt lat="45.63748" lon="6.69226">
        <ele>2526.1999511719</ele>
        <time>2019-03-27T10:12:45.000Z</time>
      </trkpt>
      <trkpt lat="45.63748" lon="6.69226">
        <ele>2526.3999023438</ele>
        <time>2019-03-27T10:12:48.000Z</time>
      </trkpt>
      <trkpt lat="45.63747" lon="6.69225">
        <ele>2526.6000976562</ele>
        <time>2019-03-27T10:12:55.000Z</time>
      </trkpt>
      <trkpt lat="45.63747" lon="6.69225">
        <ele>2527.6000976562</ele>
        <time>2019-03-27T10:13:00.000Z</time>
      </trkpt>
      <trkpt lat="45.63747" lon="6.69225">
        <ele>2527</ele>
        <time>2019-03-27T10:13:03.000Z</time>
      </trkpt>
      <trkpt lat="45.63747" lon="6.69225">
        <ele>2527.8000488281</ele>
        <time>2019-03-27T10:13:13.000Z</time>
      </trkpt>
      <trkpt lat="45.63747" lon="6.69225">
        <ele>2528.6000976562</ele>
        <time>2019-03-27T10:13:20.000Z</time>
      </trkpt>
      <trkpt lat="45.63747" lon="6.69225">
        <ele>2528.8000488281</ele>
        <time>2019-03-27T10:13:22.000Z</time>
      </trkpt>
      <trkpt lat="45.63746" lon="6.69225">
        <ele>2528.8000488281</ele>
        <time>2019-03-27T10:13:34.000Z</time>
      </trkpt>
      <trkpt lat="45.63746" lon="6.69223">
        <ele>2529.6000976562</ele>
        <time>2019-03-27T10:13:37.000Z</time>
      </trkpt>
      <trkpt lat="45.63746" lon="6.69223">
        <ele>2530.1999511719</ele>
        <time>2019-03-27T10:13:40.000Z</time>
      </trkpt>
      <trkpt lat="45.63746" lon="6.69223">
        <ele>2529.6000976562</ele>
        <time>2019-03-27T10:13:50.000Z</time>
      </trkpt>
      <trkpt lat="45.63746" lon="6.69223">
        <ele>2530.3999023438</ele>
        <time>2019-03-27T10:14:04.000Z</time>
      </trkpt>
      <trkpt lat="45.63746" lon="6.69223">
        <ele>2530.1999511719</ele>
        <time>2019-03-27T10:14:15.000Z</time>
      </trkpt>
      <trkpt lat="45.63745" lon="6.69223">
        <ele>2530.1999511719</ele>
        <time>2019-03-27T10:14:27.000Z</time>
      </trkpt>
      <trkpt lat="45.63745" lon="6.69221">
        <ele>2530.3999023438</ele>
        <time>2019-03-27T10:14:34.000Z</time>
      </trkpt>
      <trkpt lat="45.63745" lon="6.69221">
        <ele>2530.8000488281</ele>
        <time>2019-03-27T10:14:40.000Z</time>
      </trkpt>
      <trkpt lat="45.63745" lon="6.69221">
        <ele>2531.3999023438</ele>
        <time>2019-03-27T10:14:42.000Z</time>
      </trkpt>
      <trkpt lat="45.63745" lon="6.69221">
        <ele>2531</ele>
        <time>2019-03-27T10:14:49.000Z</time>
      </trkpt>
      <trkpt lat="45.63745" lon="6.69221">
        <ele>2530.6000976562</ele>
        <time>2019-03-27T10:15:02.000Z</time>
      </trkpt>
      <trkpt lat="45.63745" lon="6.69222">
        <ele>2530.6000976562</ele>
        <time>2019-03-27T10:15:12.000Z</time>
      </trkpt>
      <trkpt lat="45.63745" lon="6.69222">
        <ele>2530.6000976562</ele>
        <time>2019-03-27T10:15:20.000Z</time>
      </trkpt>
      <trkpt lat="45.63745" lon="6.69222">
        <ele>2530.3999023438</ele>
        <time>2019-03-27T10:15:33.000Z</time>
      </trkpt>
      <trkpt lat="45.63745" lon="6.69219">
        <ele>2529.6000976562</ele>
        <time>2019-03-27T10:15:41.000Z</time>
      </trkpt>
      <trkpt lat="45.63745" lon="6.69219">
        <ele>2530</ele>
        <time>2019-03-27T10:15:51.000Z</time>
      </trkpt>
      <trkpt lat="45.63745" lon="6.69219">
        <ele>2530.6000976562</ele>
        <time>2019-03-27T10:15:55.000Z</time>
      </trkpt>
      <trkpt lat="45.63745" lon="6.69219">
        <ele>2530.1999511719</ele>
        <time>2019-03-27T10:16:04.000Z</time>
      </trkpt>
      <trkpt lat="45.63745" lon="6.69219">
        <ele>2530.1999511719</ele>
        <time>2019-03-27T10:16:16.000Z</time>
      </trkpt>
      <trkpt lat="45.63745" lon="6.69218">
        <ele>2530</ele>
        <time>2019-03-27T10:16:31.000Z</time>
      </trkpt>
      <trkpt lat="45.63745" lon="6.69218">
        <ele>2530</ele>
        <time>2019-03-27T10:16:44.000Z</time>
      </trkpt>
      <trkpt lat="45.63745" lon="6.69218">
        <ele>2529.6000976562</ele>
        <time>2019-03-27T10:16:58.000Z</time>
      </trkpt>
      <trkpt lat="45.63745" lon="6.69218">
        <ele>2530.1999511719</ele>
        <time>2019-03-27T10:17:14.000Z</time>
      </trkpt>
      <trkpt lat="45.63745" lon="6.69218">
        <ele>2530.1999511719</ele>
        <time>2019-03-27T10:17:32.000Z</time>
      </trkpt>
      <trkpt lat="45.63744" lon="6.69218">
        <ele>2530.1999511719</ele>
        <time>2019-03-27T10:17:47.000Z</time>
      </trkpt>
      <trkpt lat="45.63744" lon="6.69218">
        <ele>2529.6000976562</ele>
        <time>2019-03-27T10:18:00.000Z</time>
      </trkpt>
      <trkpt lat="45.63744" lon="6.69218">
        <ele>2530.6000976562</ele>
        <time>2019-03-27T10:18:13.000Z</time>
      </trkpt>
      <trkpt lat="45.63744" lon="6.69218">
        <ele>2530.6000976562</ele>
        <time>2019-03-27T10:18:14.000Z</time>
      </trkpt>
      <trkpt lat="45.63744" lon="6.69217">
        <ele>2531</ele>
        <time>2019-03-27T10:18:25.000Z</time>
      </trkpt>
      <trkpt lat="45.63744" lon="6.69217">
        <ele>2530.1999511719</ele>
        <time>2019-03-27T10:18:37.000Z</time>
      </trkpt>
      <trkpt lat="45.63744" lon="6.69217">
        <ele>2530.8000488281</ele>
        <time>2019-03-27T10:18:50.000Z</time>
      </trkpt>
      <trkpt lat="45.63744" lon="6.69217">
        <ele>2530</ele>
        <time>2019-03-27T10:18:58.000Z</time>
      </trkpt>
      <trkpt lat="45.63744" lon="6.69217">
        <ele>2529.6000976562</ele>
        <time>2019-03-27T10:18:59.000Z</time>
      </trkpt>
      <trkpt lat="45.63744" lon="6.69217">
        <ele>2530.1999511719</ele>
        <time>2019-03-27T10:19:04.000Z</time>
      </trkpt>
      <trkpt lat="45.63744" lon="6.69217">
        <ele>2530.8000488281</ele>
        <time>2019-03-27T10:19:07.000Z</time>
      </trkpt>
      <trkpt lat="45.63744" lon="6.69217">
        <ele>2531.8000488281</ele>
        <time>2019-03-27T10:19:13.000Z</time>
      </trkpt>
      <trkpt lat="45.63744" lon="6.69217">
        <ele>2531.8000488281</ele>
        <time>2019-03-27T10:19:15.000Z</time>
      </trkpt>
      <trkpt lat="45.63744" lon="6.69217">
        <ele>2530.8000488281</ele>
        <time>2019-03-27T10:19:18.000Z</time>
      </trkpt>
      <trkpt lat="45.63744" lon="6.69217">
        <ele>2530.6000976562</ele>
        <time>2019-03-27T10:19:26.000Z</time>
      </trkpt>
      <trkpt lat="45.63744" lon="6.69217">
        <ele>2530</ele>
        <time>2019-03-27T10:19:46.000Z</time>
      </trkpt>
      <trkpt lat="45.63744" lon="6.69217">
        <ele>2530.8000488281</ele>
        <time>2019-03-27T10:20:03.000Z</time>
      </trkpt>
      <trkpt lat="45.63744" lon="6.69217">
        <ele>2529.8000488281</ele>
        <time>2019-03-27T10:20:09.000Z</time>
      </trkpt>
      <trkpt lat="45.63744" lon="6.69217">
        <ele>2528.1999511719</ele>
        <time>2019-03-27T10:20:11.000Z</time>
      </trkpt>
      <trkpt lat="45.63744" lon="6.69217">
        <ele>2529.1999511719</ele>
        <time>2019-03-27T10:20:16.000Z</time>
      </trkpt>
      <trkpt lat="45.63744" lon="6.69217">
        <ele>2531</ele>
        <time>2019-03-27T10:20:25.000Z</time>
      </trkpt>
      <trkpt lat="45.63744" lon="6.69217">
        <ele>2532.6000976562</ele>
        <time>2019-03-27T10:20:26.000Z</time>
      </trkpt>
      <trkpt lat="45.63744" lon="6.69217">
        <ele>2533.8000488281</ele>
        <time>2019-03-27T10:20:29.000Z</time>
      </trkpt>
      <trkpt lat="45.63744" lon="6.69217">
        <ele>2533.6000976562</ele>
        <time>2019-03-27T10:20:31.000Z</time>
      </trkpt>
      <trkpt lat="45.63744" lon="6.69217">
        <ele>2532.1999511719</ele>
        <time>2019-03-27T10:20:33.000Z</time>
      </trkpt>
      <trkpt lat="45.63744" lon="6.69217">
        <ele>2531.1999511719</ele>
        <time>2019-03-27T10:20:35.000Z</time>
      </trkpt>
      <trkpt lat="45.63744" lon="6.69217">
        <ele>2530.8000488281</ele>
        <time>2019-03-27T10:20:42.000Z</time>
      </trkpt>
      <trkpt lat="45.63744" lon="6.69217">
        <ele>2529.8000488281</ele>
        <time>2019-03-27T10:20:50.000Z</time>
      </trkpt>
      <trkpt lat="45.63744" lon="6.69217">
        <ele>2530.6000976562</ele>
        <time>2019-03-27T10:20:59.000Z</time>
      </trkpt>
      <trkpt lat="45.63744" lon="6.69217">
        <ele>2531</ele>
        <time>2019-03-27T10:21:02.000Z</time>
      </trkpt>
      <trkpt lat="45.63744" lon="6.69217">
        <ele>2531.3999023438</ele>
        <time>2019-03-27T10:21:08.000Z</time>
      </trkpt>
      <trkpt lat="45.63744" lon="6.69217">
        <ele>2530.1999511719</ele>
        <time>2019-03-27T10:21:19.000Z</time>
      </trkpt>
      <trkpt lat="45.63744" lon="6.69217">
        <ele>2531</ele>
        <time>2019-03-27T10:21:34.000Z</time>
      </trkpt>
      <trkpt lat="45.63743" lon="6.69216">
        <ele>2531</ele>
        <time>2019-03-27T10:21:44.000Z</time>
      </trkpt>
      <trkpt lat="45.63743" lon="6.69216">
        <ele>2530.6000976562</ele>
        <time>2019-03-27T10:22:05.000Z</time>
      </trkpt>
      <trkpt lat="45.63743" lon="6.69216">
        <ele>2530.6000976562</ele>
        <time>2019-03-27T10:22:18.000Z</time>
      </trkpt>
      <trkpt lat="45.63743" lon="6.69216">
        <ele>2530.8000488281</ele>
        <time>2019-03-27T10:22:29.000Z</time>
      </trkpt>
      <trkpt lat="45.63743" lon="6.69216">
        <ele>2530.6000976562</ele>
        <time>2019-03-27T10:22:48.000Z</time>
      </trkpt>
      <trkpt lat="45.63743" lon="6.69215">
        <ele>2530.6000976562</ele>
        <time>2019-03-27T10:23:03.000Z</time>
      </trkpt>
      <trkpt lat="45.63743" lon="6.69215">
        <ele>2530.6000976562</ele>
        <time>2019-03-27T10:23:21.000Z</time>
      </trkpt>
      <trkpt lat="45.63743" lon="6.69215">
        <ele>2530.6000976562</ele>
        <time>2019-03-27T10:23:37.000Z</time>
      </trkpt>
      <trkpt lat="45.63743" lon="6.69215">
        <ele>2530.6000976562</ele>
        <time>2019-03-27T10:23:52.000Z</time>
      </trkpt>
      <trkpt lat="45.63743" lon="6.69215">
        <ele>2530.3999023438</ele>
        <time>2019-03-27T10:24:10.000Z</time>
      </trkpt>
      <trkpt lat="45.63743" lon="6.69214">
        <ele>2530.3999023438</ele>
        <time>2019-03-27T10:24:26.000Z</time>
      </trkpt>
      <trkpt lat="45.63743" lon="6.69214">
        <ele>2530.3999023438</ele>
        <time>2019-03-27T10:24:42.000Z</time>
      </trkpt>
      <trkpt lat="45.63743" lon="6.69214">
        <ele>2530.1999511719</ele>
        <time>2019-03-27T10:25:04.000Z</time>
      </trkpt>
      <trkpt lat="45.63743" lon="6.69214">
        <ele>2530.1999511719</ele>
        <time>2019-03-27T10:25:20.000Z</time>
      </trkpt>
      <trkpt lat="45.63743" lon="6.69214">
        <ele>2530.3999023438</ele>
        <time>2019-03-27T10:25:35.000Z</time>
      </trkpt>
      <trkpt lat="45.63743" lon="6.69214">
        <ele>2530.3999023438</ele>
        <time>2019-03-27T10:25:50.000Z</time>
      </trkpt>
      <trkpt lat="45.63743" lon="6.69214">
        <ele>2530.1999511719</ele>
        <time>2019-03-27T10:26:07.000Z</time>
      </trkpt>
      <trkpt lat="45.63743" lon="6.69214">
        <ele>2530.1999511719</ele>
        <time>2019-03-27T10:26:21.000Z</time>
      </trkpt>
      <trkpt lat="45.63743" lon="6.69214">
        <ele>2530</ele>
        <time>2019-03-27T10:26:39.000Z</time>
      </trkpt>
      <trkpt lat="45.63743" lon="6.69214">
        <ele>2530</ele>
        <time>2019-03-27T10:26:58.000Z</time>
      </trkpt>
      <trkpt lat="45.63743" lon="6.69214">
        <ele>2530</ele>
        <time>2019-03-27T10:27:06.000Z</time>
      </trkpt>
      <trkpt lat="45.63743" lon="6.69214">
        <ele>2530</ele>
        <time>2019-03-27T10:27:15.000Z</time>
      </trkpt>
      <trkpt lat="45.63743" lon="6.69214">
        <ele>2529.8000488281</ele>
        <time>2019-03-27T10:27:32.000Z</time>
      </trkpt>
      <trkpt lat="45.63743" lon="6.69214">
        <ele>2530</ele>
        <time>2019-03-27T10:27:48.000Z</time>
      </trkpt>
      <trkpt lat="45.63743" lon="6.69214">
        <ele>2530</ele>
        <time>2019-03-27T10:28:08.000Z</time>
      </trkpt>
      <trkpt lat="45.63743" lon="6.69214">
        <ele>2529.8000488281</ele>
        <time>2019-03-27T10:28:26.000Z</time>
      </trkpt>
      <trkpt lat="45.63743" lon="6.69214">
        <ele>2530</ele>
        <time>2019-03-27T10:28:44.000Z</time>
      </trkpt>
      <trkpt lat="45.63743" lon="6.69214">
        <ele>2529.8000488281</ele>
        <time>2019-03-27T10:29:01.000Z</time>
      </trkpt>
      <trkpt lat="45.63743" lon="6.69213">
        <ele>2529.8000488281</ele>
        <time>2019-03-27T10:29:16.000Z</time>
      </trkpt>
      <trkpt lat="45.63743" lon="6.69213">
        <ele>2529.1999511719</ele>
        <time>2019-03-27T10:29:29.000Z</time>
      </trkpt>
      <trkpt lat="45.63743" lon="6.69213">
        <ele>2529.8000488281</ele>
        <time>2019-03-27T10:29:45.000Z</time>
      </trkpt>
      <trkpt lat="45.63743" lon="6.69213">
        <ele>2529.8000488281</ele>
        <time>2019-03-27T10:29:56.000Z</time>
      </trkpt>
      <trkpt lat="45.63743" lon="6.69213">
        <ele>2529.6000976562</ele>
        <time>2019-03-27T10:30:12.000Z</time>
      </trkpt>
      <trkpt lat="45.63743" lon="6.69213">
        <ele>2529.3999023438</ele>
        <time>2019-03-27T10:30:28.000Z</time>
      </trkpt>
      <trkpt lat="45.63743" lon="6.69213">
        <ele>2529</ele>
        <time>2019-03-27T10:30:39.000Z</time>
      </trkpt>
      <trkpt lat="45.63743" lon="6.69213">
        <ele>2529</ele>
        <time>2019-03-27T10:30:42.000Z</time>
      </trkpt>
      <trkpt lat="45.63743" lon="6.69213">
        <ele>2528.8000488281</ele>
        <time>2019-03-27T10:30:54.000Z</time>
      </trkpt>
      <trkpt lat="45.63742" lon="6.69213">
        <ele>2528.1999511719</ele>
        <time>2019-03-27T10:31:07.000Z</time>
      </trkpt>
      <trkpt lat="45.63742" lon="6.69213">
        <ele>2530.1999511719</ele>
        <time>2019-03-27T10:31:11.000Z</time>
      </trkpt>
      <trkpt lat="45.63742" lon="6.69213">
        <ele>2531.6000976562</ele>
        <time>2019-03-27T10:31:13.000Z</time>
      </trkpt>
      <trkpt lat="45.63742" lon="6.69213">
        <ele>2530.1999511719</ele>
        <time>2019-03-27T10:31:18.000Z</time>
      </trkpt>
      <trkpt lat="45.63742" lon="6.69213">
        <ele>2530</ele>
        <time>2019-03-27T10:31:19.000Z</time>
      </trkpt>
      <trkpt lat="45.63742" lon="6.69213">
        <ele>2529.8000488281</ele>
        <time>2019-03-27T10:31:31.000Z</time>
      </trkpt>
      <trkpt lat="45.63743" lon="6.69213">
        <ele>2529.8000488281</ele>
        <time>2019-03-27T10:31:48.000Z</time>
      </trkpt>
      <trkpt lat="45.63743" lon="6.69213">
        <ele>2529.8000488281</ele>
        <time>2019-03-27T10:32:04.000Z</time>
      </trkpt>
      <trkpt lat="45.63743" lon="6.69213">
        <ele>2529.6000976562</ele>
        <time>2019-03-27T10:32:17.000Z</time>
      </trkpt>
      <trkpt lat="45.63743" lon="6.69214">
        <ele>2529.1999511719</ele>
        <time>2019-03-27T10:32:20.000Z</time>
      </trkpt>
      <trkpt lat="45.63746" lon="6.69213">
        <ele>2529</ele>
        <time>2019-03-27T10:32:21.000Z</time>
      </trkpt>
      <trkpt lat="45.63749" lon="6.69213">
        <ele>2529</ele>
        <time>2019-03-27T10:32:22.000Z</time>
      </trkpt>
      <trkpt lat="45.63759" lon="6.69213">
        <ele>2529.3999023438</ele>
        <time>2019-03-27T10:32:26.000Z</time>
      </trkpt>
      <trkpt lat="45.6376" lon="6.69213">
        <ele>2528</ele>
        <time>2019-03-27T10:32:29.000Z</time>
      </trkpt>
      <trkpt lat="45.6376" lon="6.69213">
        <ele>2527.8000488281</ele>
        <time>2019-03-27T10:32:30.000Z</time>
      </trkpt>
      <trkpt lat="45.6376" lon="6.69214">
        <ele>2527</ele>
        <time>2019-03-27T10:32:33.000Z</time>
      </trkpt>
      <trkpt lat="45.63758" lon="6.69217">
        <ele>2526.6000976562</ele>
        <time>2019-03-27T10:32:34.000Z</time>
      </trkpt>
      <trkpt lat="45.63755" lon="6.69219">
        <ele>2526</ele>
        <time>2019-03-27T10:32:35.000Z</time>
      </trkpt>
      <trkpt lat="45.63756" lon="6.69223">
        <ele>2525.8000488281</ele>
        <time>2019-03-27T10:32:36.000Z</time>
      </trkpt>
      <trkpt lat="45.63757" lon="6.69227">
        <ele>2525.6000976562</ele>
        <time>2019-03-27T10:32:37.000Z</time>
      </trkpt>
      <trkpt lat="45.63756" lon="6.69232">
        <ele>2524</ele>
        <time>2019-03-27T10:32:39.000Z</time>
      </trkpt>
      <trkpt lat="45.63754" lon="6.69236">
        <ele>2523</ele>
        <time>2019-03-27T10:32:40.000Z</time>
      </trkpt>
      <trkpt lat="45.63755" lon="6.69241">
        <ele>2522.3999023438</ele>
        <time>2019-03-27T10:32:41.000Z</time>
      </trkpt>
      <trkpt lat="45.63756" lon="6.69244">
        <ele>2521.1999511719</ele>
        <time>2019-03-27T10:32:42.000Z</time>
      </trkpt>
      <trkpt lat="45.63754" lon="6.69245">
        <ele>2520.3999023438</ele>
        <time>2019-03-27T10:32:43.000Z</time>
      </trkpt>
      <trkpt lat="45.63752" lon="6.69249">
        <ele>2519.3999023438</ele>
        <time>2019-03-27T10:32:44.000Z</time>
      </trkpt>
      <trkpt lat="45.63753" lon="6.69253">
        <ele>2518.1999511719</ele>
        <time>2019-03-27T10:32:45.000Z</time>
      </trkpt>
      <trkpt lat="45.63752" lon="6.69257">
        <ele>2516.8000488281</ele>
        <time>2019-03-27T10:32:46.000Z</time>
      </trkpt>
      <trkpt lat="45.6375" lon="6.69257">
        <ele>2515.1999511719</ele>
        <time>2019-03-27T10:32:47.000Z</time>
      </trkpt>
      <trkpt lat="45.63748" lon="6.69257">
        <ele>2514.1999511719</ele>
        <time>2019-03-27T10:32:48.000Z</time>
      </trkpt>
      <trkpt lat="45.63747" lon="6.69258">
        <ele>2513</ele>
        <time>2019-03-27T10:32:49.000Z</time>
      </trkpt>
      <trkpt lat="45.63748" lon="6.69262">
        <ele>2511.3999023438</ele>
        <time>2019-03-27T10:32:50.000Z</time>
      </trkpt>
      <trkpt lat="45.63749" lon="6.69265">
        <ele>2509.6000976562</ele>
        <time>2019-03-27T10:32:51.000Z</time>
      </trkpt>
      <trkpt lat="45.63747" lon="6.69269">
        <ele>2507.1999511719</ele>
        <time>2019-03-27T10:32:52.000Z</time>
      </trkpt>
      <trkpt lat="45.63745" lon="6.69269">
        <ele>2505.3999023438</ele>
        <time>2019-03-27T10:32:53.000Z</time>
      </trkpt>
      <trkpt lat="45.63744" lon="6.69269">
        <ele>2503.8000488281</ele>
        <time>2019-03-27T10:32:54.000Z</time>
      </trkpt>
      <trkpt lat="45.63745" lon="6.69273">
        <ele>2502</ele>
        <time>2019-03-27T10:32:55.000Z</time>
      </trkpt>
      <trkpt lat="45.63746" lon="6.69277">
        <ele>2500.1999511719</ele>
        <time>2019-03-27T10:32:56.000Z</time>
      </trkpt>
      <trkpt lat="45.63745" lon="6.6928">
        <ele>2499</ele>
        <time>2019-03-27T10:32:57.000Z</time>
      </trkpt>
      <trkpt lat="45.63743" lon="6.69283">
        <ele>2498</ele>
        <time>2019-03-27T10:32:58.000Z</time>
      </trkpt>
      <trkpt lat="45.63744" lon="6.69287">
        <ele>2496.8000488281</ele>
        <time>2019-03-27T10:32:59.000Z</time>
      </trkpt>
      <trkpt lat="45.63745" lon="6.69292">
        <ele>2495.1999511719</ele>
        <time>2019-03-27T10:33:00.000Z</time>
      </trkpt>
      <trkpt lat="45.63745" lon="6.69297">
        <ele>2493.8000488281</ele>
        <time>2019-03-27T10:33:01.000Z</time>
      </trkpt>
      <trkpt lat="45.63741" lon="6.69297">
        <ele>2492.8000488281</ele>
        <time>2019-03-27T10:33:02.000Z</time>
      </trkpt>
      <trkpt lat="45.63739" lon="6.69298">
        <ele>2491.8000488281</ele>
        <time>2019-03-27T10:33:03.000Z</time>
      </trkpt>
      <trkpt lat="45.63738" lon="6.69301">
        <ele>2490.1999511719</ele>
        <time>2019-03-27T10:33:04.000Z</time>
      </trkpt>
      <trkpt lat="45.63738" lon="6.69302">
        <ele>2488.6000976562</ele>
        <time>2019-03-27T10:33:05.000Z</time>
      </trkpt>
      <trkpt lat="45.63738" lon="6.69302">
        <ele>2487.3999023438</ele>
        <time>2019-03-27T10:33:06.000Z</time>
      </trkpt>
      <trkpt lat="45.63738" lon="6.69302">
        <ele>2486.1999511719</ele>
        <time>2019-03-27T10:33:07.000Z</time>
      </trkpt>
      <trkpt lat="45.63738" lon="6.69303">
        <ele>2484.6000976562</ele>
        <time>2019-03-27T10:33:08.000Z</time>
      </trkpt>
      <trkpt lat="45.63738" lon="6.69303">
        <ele>2482.6000976562</ele>
        <time>2019-03-27T10:33:09.000Z</time>
      </trkpt>
      <trkpt lat="45.63738" lon="6.69303">
        <ele>2481.1999511719</ele>
        <time>2019-03-27T10:33:10.000Z</time>
      </trkpt>
      <trkpt lat="45.63738" lon="6.69303">
        <ele>2480.3999023438</ele>
        <time>2019-03-27T10:33:11.000Z</time>
      </trkpt>
      <trkpt lat="45.63738" lon="6.69303">
        <ele>2480</ele>
        <time>2019-03-27T10:33:12.000Z</time>
      </trkpt>
      <trkpt lat="45.63738" lon="6.69303">
        <ele>2478.8000488281</ele>
        <time>2019-03-27T10:33:16.000Z</time>
      </trkpt>
      <trkpt lat="45.63738" lon="6.69307">
        <ele>2478.6000976562</ele>
        <time>2019-03-27T10:33:22.000Z</time>
      </trkpt>
      <trkpt lat="45.63735" lon="6.69311">
        <ele>2477.6000976562</ele>
        <time>2019-03-27T10:33:24.000Z</time>
      </trkpt>
      <trkpt lat="45.63734" lon="6.69317">
        <ele>2477</ele>
        <time>2019-03-27T10:33:25.000Z</time>
      </trkpt>
      <trkpt lat="45.63736" lon="6.69324">
        <ele>2476</ele>
        <time>2019-03-27T10:33:27.000Z</time>
      </trkpt>
      <trkpt lat="45.63734" lon="6.69327">
        <ele>2475.1999511719</ele>
        <time>2019-03-27T10:33:28.000Z</time>
      </trkpt>
      <trkpt lat="45.63731" lon="6.69329">
        <ele>2474.6000976562</ele>
        <time>2019-03-27T10:33:29.000Z</time>
      </trkpt>
      <trkpt lat="45.63728" lon="6.69333">
        <ele>2472.6000976562</ele>
        <time>2019-03-27T10:33:31.000Z</time>
      </trkpt>
      <trkpt lat="45.63729" lon="6.69337">
        <ele>2471.6000976562</ele>
        <time>2019-03-27T10:33:32.000Z</time>
      </trkpt>
      <trkpt lat="45.63733" lon="6.69342">
        <ele>2470.1999511719</ele>
        <time>2019-03-27T10:33:34.000Z</time>
      </trkpt>
      <trkpt lat="45.63732" lon="6.69349">
        <ele>2469.1999511719</ele>
        <time>2019-03-27T10:33:36.000Z</time>
      </trkpt>
      <trkpt lat="45.63733" lon="6.69353">
        <ele>2467.8000488281</ele>
        <time>2019-03-27T10:33:37.000Z</time>
      </trkpt>
      <trkpt lat="45.63735" lon="6.69358">
        <ele>2466</ele>
        <time>2019-03-27T10:33:38.000Z</time>
      </trkpt>
      <trkpt lat="45.63737" lon="6.69362">
        <ele>2464.3999023438</ele>
        <time>2019-03-27T10:33:39.000Z</time>
      </trkpt>
      <trkpt lat="45.63734" lon="6.69364">
        <ele>2462.1999511719</ele>
        <time>2019-03-27T10:33:40.000Z</time>
      </trkpt>
      <trkpt lat="45.63733" lon="6.69363">
        <ele>2461</ele>
        <time>2019-03-27T10:33:41.000Z</time>
      </trkpt>
      <trkpt lat="45.63733" lon="6.69363">
        <ele>2459.3999023438</ele>
        <time>2019-03-27T10:33:42.000Z</time>
      </trkpt>
      <trkpt lat="45.63734" lon="6.69362">
        <ele>2457.6000976562</ele>
        <time>2019-03-27T10:33:43.000Z</time>
      </trkpt>
      <trkpt lat="45.63734" lon="6.69362">
        <ele>2456.3999023438</ele>
        <time>2019-03-27T10:33:44.000Z</time>
      </trkpt>
      <trkpt lat="45.63734" lon="6.6936">
        <ele>2455.1999511719</ele>
        <time>2019-03-27T10:33:46.000Z</time>
      </trkpt>
      <trkpt lat="45.63734" lon="6.6936">
        <ele>2454.1999511719</ele>
        <time>2019-03-27T10:33:50.000Z</time>
      </trkpt>
      <trkpt lat="45.63734" lon="6.6936">
        <ele>2454.1999511719</ele>
        <time>2019-03-27T10:33:51.000Z</time>
      </trkpt>
      <trkpt lat="45.63732" lon="6.69365">
        <ele>2454</ele>
        <time>2019-03-27T10:33:53.000Z</time>
      </trkpt>
      <trkpt lat="45.63734" lon="6.6937">
        <ele>2454</ele>
        <time>2019-03-27T10:33:54.000Z</time>
      </trkpt>
      <trkpt lat="45.6373" lon="6.69384">
        <ele>2453.6000976562</ele>
        <time>2019-03-27T10:33:57.000Z</time>
      </trkpt>
      <trkpt lat="45.63732" lon="6.69389">
        <ele>2452.6000976562</ele>
        <time>2019-03-27T10:33:58.000Z</time>
      </trkpt>
      <trkpt lat="45.6373" lon="6.69392">
        <ele>2451.1999511719</ele>
        <time>2019-03-27T10:33:59.000Z</time>
      </trkpt>
      <trkpt lat="45.63727" lon="6.69398">
        <ele>2450.1999511719</ele>
        <time>2019-03-27T10:34:00.000Z</time>
      </trkpt>
      <trkpt lat="45.63729" lon="6.69404">
        <ele>2448.6000976562</ele>
        <time>2019-03-27T10:34:01.000Z</time>
      </trkpt>
      <trkpt lat="45.63731" lon="6.69409">
        <ele>2446.3999023438</ele>
        <time>2019-03-27T10:34:02.000Z</time>
      </trkpt>
      <trkpt lat="45.6373" lon="6.69414">
        <ele>2444.3999023438</ele>
        <time>2019-03-27T10:34:03.000Z</time>
      </trkpt>
      <trkpt lat="45.63727" lon="6.69416">
        <ele>2441.8000488281</ele>
        <time>2019-03-27T10:34:04.000Z</time>
      </trkpt>
      <trkpt lat="45.63725" lon="6.69421">
        <ele>2439.3999023438</ele>
        <time>2019-03-27T10:34:05.000Z</time>
      </trkpt>
      <trkpt lat="45.63728" lon="6.69428">
        <ele>2436.6000976562</ele>
        <time>2019-03-27T10:34:06.000Z</time>
      </trkpt>
      <trkpt lat="45.6373" lon="6.69434">
        <ele>2434.6000976562</ele>
        <time>2019-03-27T10:34:07.000Z</time>
      </trkpt>
      <trkpt lat="45.63728" lon="6.69438">
        <ele>2433.3999023438</ele>
        <time>2019-03-27T10:34:08.000Z</time>
      </trkpt>
      <trkpt lat="45.63724" lon="6.6944">
        <ele>2431.8000488281</ele>
        <time>2019-03-27T10:34:09.000Z</time>
      </trkpt>
      <trkpt lat="45.63721" lon="6.69443">
        <ele>2429.1999511719</ele>
        <time>2019-03-27T10:34:10.000Z</time>
      </trkpt>
      <trkpt lat="45.6372" lon="6.69449">
        <ele>2426.6000976562</ele>
        <time>2019-03-27T10:34:11.000Z</time>
      </trkpt>
      <trkpt lat="45.6372" lon="6.69457">
        <ele>2424.8000488281</ele>
        <time>2019-03-27T10:34:12.000Z</time>
      </trkpt>
      <trkpt lat="45.6372" lon="6.69465">
        <ele>2423.3999023438</ele>
        <time>2019-03-27T10:34:13.000Z</time>
      </trkpt>
      <trkpt lat="45.6372" lon="6.69471">
        <ele>2422</ele>
        <time>2019-03-27T10:34:14.000Z</time>
      </trkpt>
      <trkpt lat="45.63715" lon="6.69473">
        <ele>2420</ele>
        <time>2019-03-27T10:34:15.000Z</time>
      </trkpt>
      <trkpt lat="45.63711" lon="6.69477">
        <ele>2416.8000488281</ele>
        <time>2019-03-27T10:34:16.000Z</time>
      </trkpt>
      <trkpt lat="45.63708" lon="6.69481">
        <ele>2414.1999511719</ele>
        <time>2019-03-27T10:34:17.000Z</time>
      </trkpt>
      <trkpt lat="45.63712" lon="6.69488">
        <ele>2412.3999023438</ele>
        <time>2019-03-27T10:34:18.000Z</time>
      </trkpt>
      <trkpt lat="45.63713" lon="6.69494">
        <ele>2411</ele>
        <time>2019-03-27T10:34:19.000Z</time>
      </trkpt>
      <trkpt lat="45.6371" lon="6.69497">
        <ele>2409.8000488281</ele>
        <time>2019-03-27T10:34:20.000Z</time>
      </trkpt>
      <trkpt lat="45.63708" lon="6.69501">
        <ele>2408.3999023438</ele>
        <time>2019-03-27T10:34:21.000Z</time>
      </trkpt>
      <trkpt lat="45.63709" lon="6.69508">
        <ele>2405.8000488281</ele>
        <time>2019-03-27T10:34:22.000Z</time>
      </trkpt>
      <trkpt lat="45.63711" lon="6.69514">
        <ele>2403</ele>
        <time>2019-03-27T10:34:23.000Z</time>
      </trkpt>
      <trkpt lat="45.63711" lon="6.69519">
        <ele>2401</ele>
        <time>2019-03-27T10:34:24.000Z</time>
      </trkpt>
      <trkpt lat="45.63709" lon="6.69521">
        <ele>2400</ele>
        <time>2019-03-27T10:34:25.000Z</time>
      </trkpt>
      <trkpt lat="45.63705" lon="6.69521">
        <ele>2398.8000488281</ele>
        <time>2019-03-27T10:34:26.000Z</time>
      </trkpt>
      <trkpt lat="45.63701" lon="6.69521">
        <ele>2396.6000976562</ele>
        <time>2019-03-27T10:34:27.000Z</time>
      </trkpt>
      <trkpt lat="45.63697" lon="6.69522">
        <ele>2391</ele>
        <time>2019-03-27T10:34:28.000Z</time>
      </trkpt>
      <trkpt lat="45.63693" lon="6.69523">
        <ele>2389</ele>
        <time>2019-03-27T10:34:29.000Z</time>
      </trkpt>
      <trkpt lat="45.6369" lon="6.69524">
        <ele>2387.8000488281</ele>
        <time>2019-03-27T10:34:30.000Z</time>
      </trkpt>
      <trkpt lat="45.63688" lon="6.69524">
        <ele>2387.1999511719</ele>
        <time>2019-03-27T10:34:31.000Z</time>
      </trkpt>
      <trkpt lat="45.63686" lon="6.69525">
        <ele>2386.8000488281</ele>
        <time>2019-03-27T10:34:32.000Z</time>
      </trkpt>
      <trkpt lat="45.63681" lon="6.69526">
        <ele>2385.8000488281</ele>
        <time>2019-03-27T10:34:36.000Z</time>
      </trkpt>
      <trkpt lat="45.63679" lon="6.69525">
        <ele>2385.6000976562</ele>
        <time>2019-03-27T10:34:38.000Z</time>
      </trkpt>
      <trkpt lat="45.63681" lon="6.69524">
        <ele>2385</ele>
        <time>2019-03-27T10:34:40.000Z</time>
      </trkpt>
      <trkpt lat="45.63681" lon="6.69524">
        <ele>2384.3999023438</ele>
        <time>2019-03-27T10:34:41.000Z</time>
      </trkpt>
      <trkpt lat="45.63681" lon="6.69524">
        <ele>2383.8000488281</ele>
        <time>2019-03-27T10:34:57.000Z</time>
      </trkpt>
      <trkpt lat="45.63677" lon="6.69517">
        <ele>2384</ele>
        <time>2019-03-27T10:35:02.000Z</time>
      </trkpt>
      <trkpt lat="45.63672" lon="6.69507">
        <ele>2383.1999511719</ele>
        <time>2019-03-27T10:35:06.000Z</time>
      </trkpt>
      <trkpt lat="45.63669" lon="6.69505">
        <ele>2382.3999023438</ele>
        <time>2019-03-27T10:35:08.000Z</time>
      </trkpt>
      <trkpt lat="45.63668" lon="6.69504">
        <ele>2382</ele>
        <time>2019-03-27T10:35:09.000Z</time>
      </trkpt>
      <trkpt lat="45.63665" lon="6.69508">
        <ele>2381.6000976562</ele>
        <time>2019-03-27T10:35:11.000Z</time>
      </trkpt>
      <trkpt lat="45.63664" lon="6.69513">
        <ele>2381.3999023438</ele>
        <time>2019-03-27T10:35:12.000Z</time>
      </trkpt>
      <trkpt lat="45.63662" lon="6.69524">
        <ele>2380.8000488281</ele>
        <time>2019-03-27T10:35:14.000Z</time>
      </trkpt>
      <trkpt lat="45.63661" lon="6.69531">
        <ele>2379.8000488281</ele>
        <time>2019-03-27T10:35:15.000Z</time>
      </trkpt>
      <trkpt lat="45.63659" lon="6.69533">
        <ele>2377.1999511719</ele>
        <time>2019-03-27T10:35:16.000Z</time>
      </trkpt>
      <trkpt lat="45.63655" lon="6.69538">
        <ele>2375.6000976562</ele>
        <time>2019-03-27T10:35:17.000Z</time>
      </trkpt>
      <trkpt lat="45.63654" lon="6.69545">
        <ele>2373.6000976562</ele>
        <time>2019-03-27T10:35:18.000Z</time>
      </trkpt>
      <trkpt lat="45.63651" lon="6.69548">
        <ele>2371.8000488281</ele>
        <time>2019-03-27T10:35:19.000Z</time>
      </trkpt>
      <trkpt lat="45.63648" lon="6.69551">
        <ele>2369.8000488281</ele>
        <time>2019-03-27T10:35:20.000Z</time>
      </trkpt>
      <trkpt lat="45.63647" lon="6.6956">
        <ele>2367.3999023438</ele>
        <time>2019-03-27T10:35:21.000Z</time>
      </trkpt>
      <trkpt lat="45.63644" lon="6.69566">
        <ele>2364.8000488281</ele>
        <time>2019-03-27T10:35:22.000Z</time>
      </trkpt>
      <trkpt lat="45.63643" lon="6.6957">
        <ele>2362.3999023438</ele>
        <time>2019-03-27T10:35:23.000Z</time>
      </trkpt>
      <trkpt lat="45.6364" lon="6.69578">
        <ele>2360</ele>
        <time>2019-03-27T10:35:24.000Z</time>
      </trkpt>
      <trkpt lat="45.63638" lon="6.69583">
        <ele>2357.1999511719</ele>
        <time>2019-03-27T10:35:25.000Z</time>
      </trkpt>
      <trkpt lat="45.63636" lon="6.69588">
        <ele>2354.6000976562</ele>
        <time>2019-03-27T10:35:26.000Z</time>
      </trkpt>
      <trkpt lat="45.63632" lon="6.69593">
        <ele>2353</ele>
        <time>2019-03-27T10:35:27.000Z</time>
      </trkpt>
      <trkpt lat="45.63631" lon="6.696">
        <ele>2351.3999023438</ele>
        <time>2019-03-27T10:35:28.000Z</time>
      </trkpt>
      <trkpt lat="45.63629" lon="6.69606">
        <ele>2349.3999023438</ele>
        <time>2019-03-27T10:35:29.000Z</time>
      </trkpt>
      <trkpt lat="45.63626" lon="6.69611">
        <ele>2347.3999023438</ele>
        <time>2019-03-27T10:35:30.000Z</time>
      </trkpt>
      <trkpt lat="45.63625" lon="6.69617">
        <ele>2345.1999511719</ele>
        <time>2019-03-27T10:35:31.000Z</time>
      </trkpt>
      <trkpt lat="45.63622" lon="6.69623">
        <ele>2342.8000488281</ele>
        <time>2019-03-27T10:35:32.000Z</time>
      </trkpt>
      <trkpt lat="45.63619" lon="6.69628">
        <ele>2340.3999023438</ele>
        <time>2019-03-27T10:35:33.000Z</time>
      </trkpt>
      <trkpt lat="45.63616" lon="6.69629">
        <ele>2338.3999023438</ele>
        <time>2019-03-27T10:35:34.000Z</time>
      </trkpt>
      <trkpt lat="45.63613" lon="6.69627">
        <ele>2336</ele>
        <time>2019-03-27T10:35:35.000Z</time>
      </trkpt>
      <trkpt lat="45.63611" lon="6.69626">
        <ele>2333.1999511719</ele>
        <time>2019-03-27T10:35:36.000Z</time>
      </trkpt>
      <trkpt lat="45.63609" lon="6.69623">
        <ele>2331</ele>
        <time>2019-03-27T10:35:37.000Z</time>
      </trkpt>
      <trkpt lat="45.6361" lon="6.69623">
        <ele>2329.6000976562</ele>
        <time>2019-03-27T10:35:38.000Z</time>
      </trkpt>
      <trkpt lat="45.63609" lon="6.69621">
        <ele>2328.6000976562</ele>
        <time>2019-03-27T10:35:39.000Z</time>
      </trkpt>
      <trkpt lat="45.63608" lon="6.69622">
        <ele>2327</ele>
        <time>2019-03-27T10:35:40.000Z</time>
      </trkpt>
      <trkpt lat="45.63606" lon="6.69624">
        <ele>2326.3999023438</ele>
        <time>2019-03-27T10:35:42.000Z</time>
      </trkpt>
      <trkpt lat="45.63607" lon="6.69628">
        <ele>2326</ele>
        <time>2019-03-27T10:35:43.000Z</time>
      </trkpt>
      <trkpt lat="45.63599" lon="6.69617">
        <ele>2325.8000488281</ele>
        <time>2019-03-27T10:35:44.000Z</time>
      </trkpt>
      <trkpt lat="45.63592" lon="6.69622">
        <ele>2324.6000976562</ele>
        <time>2019-03-27T10:35:46.000Z</time>
      </trkpt>
      <trkpt lat="45.6359" lon="6.69621">
        <ele>2323</ele>
        <time>2019-03-27T10:35:47.000Z</time>
      </trkpt>
      <trkpt lat="45.63591" lon="6.69615">
        <ele>2321</ele>
        <time>2019-03-27T10:35:48.000Z</time>
      </trkpt>
      <trkpt lat="45.63593" lon="6.69613">
        <ele>2319.8000488281</ele>
        <time>2019-03-27T10:35:49.000Z</time>
      </trkpt>
      <trkpt lat="45.63594" lon="6.69609">
        <ele>2319</ele>
        <time>2019-03-27T10:35:50.000Z</time>
      </trkpt>
      <trkpt lat="45.63595" lon="6.69609">
        <ele>2318.6000976562</ele>
        <time>2019-03-27T10:35:51.000Z</time>
      </trkpt>
      <trkpt lat="45.63599" lon="6.69615">
        <ele>2317.6000976562</ele>
        <time>2019-03-27T10:35:56.000Z</time>
      </trkpt>
      <trkpt lat="45.636" lon="6.69617">
        <ele>2317.3999023438</ele>
        <time>2019-03-27T10:36:01.000Z</time>
      </trkpt>
      <trkpt lat="45.63597" lon="6.69613">
        <ele>2316.3999023438</ele>
        <time>2019-03-27T10:36:09.000Z</time>
      </trkpt>
      <trkpt lat="45.63597" lon="6.69613">
        <ele>2315.6000976562</ele>
        <time>2019-03-27T10:36:12.000Z</time>
      </trkpt>
      <trkpt lat="45.63598" lon="6.69611">
        <ele>2317.8000488281</ele>
        <time>2019-03-27T10:36:16.000Z</time>
      </trkpt>
      <trkpt lat="45.63598" lon="6.69611">
        <ele>2316.6000976562</ele>
        <time>2019-03-27T10:36:21.000Z</time>
      </trkpt>
      <trkpt lat="45.63598" lon="6.6961">
        <ele>2317</ele>
        <time>2019-03-27T10:36:23.000Z</time>
      </trkpt>
      <trkpt lat="45.63599" lon="6.6961">
        <ele>2317.8000488281</ele>
        <time>2019-03-27T10:36:24.000Z</time>
      </trkpt>
      <trkpt lat="45.63599" lon="6.69606">
        <ele>2317</ele>
        <time>2019-03-27T10:36:38.000Z</time>
      </trkpt>
      <trkpt lat="45.63593" lon="6.69591">
        <ele>2316.8000488281</ele>
        <time>2019-03-27T10:36:53.000Z</time>
      </trkpt>
      <trkpt lat="45.63587" lon="6.69584">
        <ele>2316.6000976562</ele>
        <time>2019-03-27T10:37:03.000Z</time>
      </trkpt>
      <trkpt lat="45.63585" lon="6.69581">
        <ele>2316.3999023438</ele>
        <time>2019-03-27T10:37:06.000Z</time>
      </trkpt>
      <trkpt lat="45.63579" lon="6.69575">
        <ele>2316</ele>
        <time>2019-03-27T10:37:20.000Z</time>
      </trkpt>
      <trkpt lat="45.63578" lon="6.69572">
        <ele>2317.6000976562</ele>
        <time>2019-03-27T10:37:24.000Z</time>
      </trkpt>
      <trkpt lat="45.63578" lon="6.69572">
        <ele>2317</ele>
        <time>2019-03-27T10:37:33.000Z</time>
      </trkpt>
      <trkpt lat="45.63578" lon="6.69572">
        <ele>2317.1999511719</ele>
        <time>2019-03-27T10:37:47.000Z</time>
      </trkpt>
      <trkpt lat="45.63578" lon="6.69572">
        <ele>2316.6000976562</ele>
        <time>2019-03-27T10:38:01.000Z</time>
      </trkpt>
      <trkpt lat="45.63578" lon="6.69572">
        <ele>2317</ele>
        <time>2019-03-27T10:38:10.000Z</time>
      </trkpt>
      <trkpt lat="45.63578" lon="6.69572">
        <ele>2317</ele>
        <time>2019-03-27T10:38:20.000Z</time>
      </trkpt>
      <trkpt lat="45.63578" lon="6.69572">
        <ele>2316.8000488281</ele>
        <time>2019-03-27T10:38:31.000Z</time>
      </trkpt>
      <trkpt lat="45.63578" lon="6.69572">
        <ele>2317.1999511719</ele>
        <time>2019-03-27T10:38:41.000Z</time>
      </trkpt>
      <trkpt lat="45.63578" lon="6.69572">
        <ele>2317</ele>
        <time>2019-03-27T10:38:55.000Z</time>
      </trkpt>
      <trkpt lat="45.63578" lon="6.69572">
        <ele>2316.8000488281</ele>
        <time>2019-03-27T10:39:10.000Z</time>
      </trkpt>
      <trkpt lat="45.63578" lon="6.69572">
        <ele>2317</ele>
        <time>2019-03-27T10:39:21.000Z</time>
      </trkpt>
      <trkpt lat="45.63576" lon="6.69568">
        <ele>2316.1999511719</ele>
        <time>2019-03-27T10:39:33.000Z</time>
      </trkpt>
      <trkpt lat="45.63576" lon="6.69568">
        <ele>2316.6000976562</ele>
        <time>2019-03-27T10:39:47.000Z</time>
      </trkpt>
      <trkpt lat="45.63576" lon="6.69568">
        <ele>2317.3999023438</ele>
        <time>2019-03-27T10:40:01.000Z</time>
      </trkpt>
      <trkpt lat="45.63576" lon="6.69568">
        <ele>2317.6000976562</ele>
        <time>2019-03-27T10:40:03.000Z</time>
      </trkpt>
      <trkpt lat="45.63575" lon="6.69566">
        <ele>2316.3999023438</ele>
        <time>2019-03-27T10:40:09.000Z</time>
      </trkpt>
      <trkpt lat="45.63575" lon="6.69566">
        <ele>2316.6000976562</ele>
        <time>2019-03-27T10:40:16.000Z</time>
      </trkpt>
      <trkpt lat="45.63575" lon="6.69566">
        <ele>2317.3999023438</ele>
        <time>2019-03-27T10:40:20.000Z</time>
      </trkpt>
      <trkpt lat="45.63575" lon="6.69566">
        <ele>2316.8000488281</ele>
        <time>2019-03-27T10:40:27.000Z</time>
      </trkpt>
      <trkpt lat="45.63575" lon="6.69566">
        <ele>2316.3999023438</ele>
        <time>2019-03-27T10:40:29.000Z</time>
      </trkpt>
      <trkpt lat="45.63575" lon="6.69566">
        <ele>2316.3999023438</ele>
        <time>2019-03-27T10:40:36.000Z</time>
      </trkpt>
      <trkpt lat="45.63572" lon="6.69563">
        <ele>2316.6000976562</ele>
        <time>2019-03-27T10:40:46.000Z</time>
      </trkpt>
      <trkpt lat="45.63572" lon="6.69563">
        <ele>2317.6000976562</ele>
        <time>2019-03-27T10:40:50.000Z</time>
      </trkpt>
      <trkpt lat="45.63572" lon="6.69563">
        <ele>2316.8000488281</ele>
        <time>2019-03-27T10:41:01.000Z</time>
      </trkpt>
      <trkpt lat="45.63572" lon="6.69563">
        <ele>2316.6000976562</ele>
        <time>2019-03-27T10:41:03.000Z</time>
      </trkpt>
      <trkpt lat="45.63572" lon="6.69563">
        <ele>2315.3999023438</ele>
        <time>2019-03-27T10:41:06.000Z</time>
      </trkpt>
      <trkpt lat="45.63572" lon="6.69563">
        <ele>2317</ele>
        <time>2019-03-27T10:41:09.000Z</time>
      </trkpt>
      <trkpt lat="45.63572" lon="6.69563">
        <ele>2318.1999511719</ele>
        <time>2019-03-27T10:41:10.000Z</time>
      </trkpt>
      <trkpt lat="45.63572" lon="6.69563">
        <ele>2317</ele>
        <time>2019-03-27T10:41:17.000Z</time>
      </trkpt>
      <trkpt lat="45.63572" lon="6.69563">
        <ele>2316.6000976562</ele>
        <time>2019-03-27T10:41:20.000Z</time>
      </trkpt>
      <trkpt lat="45.63571" lon="6.69563">
        <ele>2315.8000488281</ele>
        <time>2019-03-27T10:41:30.000Z</time>
      </trkpt>
      <trkpt lat="45.63571" lon="6.69563">
        <ele>2315.1999511719</ele>
        <time>2019-03-27T10:41:32.000Z</time>
      </trkpt>
      <trkpt lat="45.63571" lon="6.69563">
        <ele>2317.1999511719</ele>
        <time>2019-03-27T10:41:39.000Z</time>
      </trkpt>
      <trkpt lat="45.63571" lon="6.69563">
        <ele>2318.1999511719</ele>
        <time>2019-03-27T10:41:41.000Z</time>
      </trkpt>
      <trkpt lat="45.63571" lon="6.69563">
        <ele>2317.1999511719</ele>
        <time>2019-03-27T10:41:45.000Z</time>
      </trkpt>
      <trkpt lat="45.63571" lon="6.69563">
        <ele>2317</ele>
        <time>2019-03-27T10:41:46.000Z</time>
      </trkpt>
      <trkpt lat="45.6357" lon="6.69562">
        <ele>2316</ele>
        <time>2019-03-27T10:41:52.000Z</time>
      </trkpt>
      <trkpt lat="45.6357" lon="6.69562">
        <ele>2316.6000976562</ele>
        <time>2019-03-27T10:42:01.000Z</time>
      </trkpt>
      <trkpt lat="45.6357" lon="6.69562">
        <ele>2317</ele>
        <time>2019-03-27T10:42:04.000Z</time>
      </trkpt>
      <trkpt lat="45.6357" lon="6.69562">
        <ele>2317.1999511719</ele>
        <time>2019-03-27T10:42:09.000Z</time>
      </trkpt>
      <trkpt lat="45.6357" lon="6.69562">
        <ele>2317</ele>
        <time>2019-03-27T10:42:18.000Z</time>
      </trkpt>
      <trkpt lat="45.63567" lon="6.69553">
        <ele>2317</ele>
        <time>2019-03-27T10:42:24.000Z</time>
      </trkpt>
      <trkpt lat="45.63566" lon="6.69549">
        <ele>2317.3999023438</ele>
        <time>2019-03-27T10:42:28.000Z</time>
      </trkpt>
      <trkpt lat="45.63566" lon="6.69549">
        <ele>2318</ele>
        <time>2019-03-27T10:42:29.000Z</time>
      </trkpt>
      <trkpt lat="45.63566" lon="6.69546">
        <ele>2318.3999023438</ele>
        <time>2019-03-27T10:42:30.000Z</time>
      </trkpt>
      <trkpt lat="45.63565" lon="6.69544">
        <ele>2319.3999023438</ele>
        <time>2019-03-27T10:42:34.000Z</time>
      </trkpt>
      <trkpt lat="45.63563" lon="6.69541">
        <ele>2320.1999511719</ele>
        <time>2019-03-27T10:42:40.000Z</time>
      </trkpt>
      <trkpt lat="45.63563" lon="6.69538">
        <ele>2320.6000976562</ele>
        <time>2019-03-27T10:42:42.000Z</time>
      </trkpt>
      <trkpt lat="45.63565" lon="6.69536">
        <ele>2321.1999511719</ele>
        <time>2019-03-27T10:42:45.000Z</time>
      </trkpt>
      <trkpt lat="45.63564" lon="6.69536">
        <ele>2321.6000976562</ele>
        <time>2019-03-27T10:42:46.000Z</time>
      </trkpt>
      <trkpt lat="45.63565" lon="6.69535">
        <ele>2322.6000976562</ele>
        <time>2019-03-27T10:42:50.000Z</time>
      </trkpt>
      <trkpt lat="45.63568" lon="6.69534">
        <ele>2323.1999511719</ele>
        <time>2019-03-27T10:42:56.000Z</time>
      </trkpt>
      <trkpt lat="45.63569" lon="6.69533">
        <ele>2323.8000488281</ele>
        <time>2019-03-27T10:42:58.000Z</time>
      </trkpt>
      <trkpt lat="45.6357" lon="6.69532">
        <ele>2325</ele>
        <time>2019-03-27T10:43:01.000Z</time>
      </trkpt>
      <trkpt lat="45.6357" lon="6.69532">
        <ele>2325.1999511719</ele>
        <time>2019-03-27T10:43:02.000Z</time>
      </trkpt>
      <trkpt lat="45.63571" lon="6.69533">
        <ele>2326</ele>
        <time>2019-03-27T10:43:06.000Z</time>
      </trkpt>
      <trkpt lat="45.63571" lon="6.69533">
        <ele>2326.1999511719</ele>
        <time>2019-03-27T10:43:09.000Z</time>
      </trkpt>
      <trkpt lat="45.63572" lon="6.69533">
        <ele>2325.8000488281</ele>
        <time>2019-03-27T10:43:18.000Z</time>
      </trkpt>
      <trkpt lat="45.63575" lon="6.69532">
        <ele>2327.3999023438</ele>
        <time>2019-03-27T10:43:24.000Z</time>
      </trkpt>
      <trkpt lat="45.63575" lon="6.69532">
        <ele>2328</ele>
        <time>2019-03-27T10:43:25.000Z</time>
      </trkpt>
      <trkpt lat="45.63577" lon="6.69532">
        <ele>2328.6000976562</ele>
        <time>2019-03-27T10:43:27.000Z</time>
      </trkpt>
      <trkpt lat="45.63579" lon="6.69532">
        <ele>2329</ele>
        <time>2019-03-27T10:43:31.000Z</time>
      </trkpt>
      <trkpt lat="45.63581" lon="6.69529">
        <ele>2329</ele>
        <time>2019-03-27T10:43:35.000Z</time>
      </trkpt>
      <trkpt lat="45.6358" lon="6.69526">
        <ele>2329.6000976562</ele>
        <time>2019-03-27T10:43:39.000Z</time>
      </trkpt>
      <trkpt lat="45.63578" lon="6.69525">
        <ele>2329.8000488281</ele>
        <time>2019-03-27T10:43:40.000Z</time>
      </trkpt>
      <trkpt lat="45.63577" lon="6.69523">
        <ele>2330.8000488281</ele>
        <time>2019-03-27T10:43:43.000Z</time>
      </trkpt>
      <trkpt lat="45.63576" lon="6.69521">
        <ele>2330.8000488281</ele>
        <time>2019-03-27T10:43:45.000Z</time>
      </trkpt>
      <trkpt lat="45.63574" lon="6.69519">
        <ele>2331.8000488281</ele>
        <time>2019-03-27T10:43:50.000Z</time>
      </trkpt>
      <trkpt lat="45.63573" lon="6.69518">
        <ele>2332.1999511719</ele>
        <time>2019-03-27T10:43:51.000Z</time>
      </trkpt>
      <trkpt lat="45.63572" lon="6.69517">
        <ele>2332.8000488281</ele>
        <time>2019-03-27T10:43:54.000Z</time>
      </trkpt>
      <trkpt lat="45.63572" lon="6.69516">
        <ele>2333</ele>
        <time>2019-03-27T10:43:57.000Z</time>
      </trkpt>
      <trkpt lat="45.63571" lon="6.69514">
        <ele>2333</ele>
        <time>2019-03-27T10:44:02.000Z</time>
      </trkpt>
      <trkpt lat="45.63571" lon="6.69514">
        <ele>2334</ele>
        <time>2019-03-27T10:44:06.000Z</time>
      </trkpt>
      <trkpt lat="45.63571" lon="6.69514">
        <ele>2334.3999023438</ele>
        <time>2019-03-27T10:44:13.000Z</time>
      </trkpt>
      <trkpt lat="45.6357" lon="6.69512">
        <ele>2334.8000488281</ele>
        <time>2019-03-27T10:44:21.000Z</time>
      </trkpt>
      <trkpt lat="45.63569" lon="6.6951">
        <ele>2335</ele>
        <time>2019-03-27T10:44:22.000Z</time>
      </trkpt>
      <trkpt lat="45.63568" lon="6.69509">
        <ele>2335.8000488281</ele>
        <time>2019-03-27T10:44:25.000Z</time>
      </trkpt>
      <trkpt lat="45.63566" lon="6.69508">
        <ele>2336.1999511719</ele>
        <time>2019-03-27T10:44:29.000Z</time>
      </trkpt>
      <trkpt lat="45.63566" lon="6.69507">
        <ele>2336.3999023438</ele>
        <time>2019-03-27T10:44:30.000Z</time>
      </trkpt>
      <trkpt lat="45.63563" lon="6.69503">
        <ele>2337.3999023438</ele>
        <time>2019-03-27T10:44:35.000Z</time>
      </trkpt>
      <trkpt lat="45.63563" lon="6.69503">
        <ele>2337.6000976562</ele>
        <time>2019-03-27T10:44:36.000Z</time>
      </trkpt>
      <trkpt lat="45.63559" lon="6.69502">
        <ele>2337.8000488281</ele>
        <time>2019-03-27T10:44:41.000Z</time>
      </trkpt>
      <trkpt lat="45.63555" lon="6.69498">
        <ele>2338.3999023438</ele>
        <time>2019-03-27T10:44:47.000Z</time>
      </trkpt>
      <trkpt lat="45.63553" lon="6.69495">
        <ele>2339.1999511719</ele>
        <time>2019-03-27T10:44:53.000Z</time>
      </trkpt>
      <trkpt lat="45.63552" lon="6.69493">
        <ele>2339.6000976562</ele>
        <time>2019-03-27T10:44:54.000Z</time>
      </trkpt>
      <trkpt lat="45.63552" lon="6.69492">
        <ele>2340.6000976562</ele>
        <time>2019-03-27T10:44:57.000Z</time>
      </trkpt>
      <trkpt lat="45.63551" lon="6.6949">
        <ele>2341</ele>
        <time>2019-03-27T10:44:59.000Z</time>
      </trkpt>
      <trkpt lat="45.63549" lon="6.69486">
        <ele>2341.8000488281</ele>
        <time>2019-03-27T10:45:04.000Z</time>
      </trkpt>
      <trkpt lat="45.63547" lon="6.69486">
        <ele>2342.1999511719</ele>
        <time>2019-03-27T10:45:06.000Z</time>
      </trkpt>
      <trkpt lat="45.63544" lon="6.69484">
        <ele>2342.1999511719</ele>
        <time>2019-03-27T10:45:09.000Z</time>
      </trkpt>
      <trkpt lat="45.63542" lon="6.69482">
        <ele>2342.6000976562</ele>
        <time>2019-03-27T10:45:11.000Z</time>
      </trkpt>
      <trkpt lat="45.63541" lon="6.69482">
        <ele>2343</ele>
        <time>2019-03-27T10:45:13.000Z</time>
      </trkpt>
      <trkpt lat="45.63538" lon="6.6948">
        <ele>2343.6000976562</ele>
        <time>2019-03-27T10:45:17.000Z</time>
      </trkpt>
      <trkpt lat="45.63537" lon="6.69481">
        <ele>2343.1999511719</ele>
        <time>2019-03-27T10:45:21.000Z</time>
      </trkpt>
      <trkpt lat="45.63537" lon="6.69481">
        <ele>2344</ele>
        <time>2019-03-27T10:45:24.000Z</time>
      </trkpt>
      <trkpt lat="45.63536" lon="6.6948">
        <ele>2344.1999511719</ele>
        <time>2019-03-27T10:45:25.000Z</time>
      </trkpt>
      <trkpt lat="45.63535" lon="6.6948">
        <ele>2344.6000976562</ele>
        <time>2019-03-27T10:45:29.000Z</time>
      </trkpt>
      <trkpt lat="45.63533" lon="6.69481">
        <ele>2345.1999511719</ele>
        <time>2019-03-27T10:45:32.000Z</time>
      </trkpt>
      <trkpt lat="45.63532" lon="6.6948">
        <ele>2345.6000976562</ele>
        <time>2019-03-27T10:45:33.000Z</time>
      </trkpt>
      <trkpt lat="45.6353" lon="6.6948">
        <ele>2346.3999023438</ele>
        <time>2019-03-27T10:45:35.000Z</time>
      </trkpt>
      <trkpt lat="45.63529" lon="6.69481">
        <ele>2347</ele>
        <time>2019-03-27T10:45:37.000Z</time>
      </trkpt>
      <trkpt lat="45.63525" lon="6.69482">
        <ele>2347.3999023438</ele>
        <time>2019-03-27T10:45:43.000Z</time>
      </trkpt>
      <trkpt lat="45.63525" lon="6.69482">
        <ele>2347.6000976562</ele>
        <time>2019-03-27T10:45:44.000Z</time>
      </trkpt>
      <trkpt lat="45.63525" lon="6.69482">
        <ele>2348.6000976562</ele>
        <time>2019-03-27T10:45:47.000Z</time>
      </trkpt>
      <trkpt lat="45.63525" lon="6.69482">
        <ele>2348.8000488281</ele>
        <time>2019-03-27T10:45:50.000Z</time>
      </trkpt>
      <trkpt lat="45.63524" lon="6.69481">
        <ele>2349.3999023438</ele>
        <time>2019-03-27T10:45:59.000Z</time>
      </trkpt>
      <trkpt lat="45.63524" lon="6.69478">
        <ele>2349.8000488281</ele>
        <time>2019-03-27T10:46:01.000Z</time>
      </trkpt>
      <trkpt lat="45.63524" lon="6.69476">
        <ele>2349.8000488281</ele>
        <time>2019-03-27T10:46:03.000Z</time>
      </trkpt>
      <trkpt lat="45.63524" lon="6.69477">
        <ele>2349.6000976562</ele>
        <time>2019-03-27T10:46:04.000Z</time>
      </trkpt>
      <trkpt lat="45.63525" lon="6.69474">
        <ele>2350.6000976562</ele>
        <time>2019-03-27T10:46:10.000Z</time>
      </trkpt>
      <trkpt lat="45.63526" lon="6.69472">
        <ele>2350.8000488281</ele>
        <time>2019-03-27T10:46:12.000Z</time>
      </trkpt>
      <trkpt lat="45.63526" lon="6.69471">
        <ele>2350.8000488281</ele>
        <time>2019-03-27T10:46:16.000Z</time>
      </trkpt>
      <trkpt lat="45.63527" lon="6.6947">
        <ele>2351.8000488281</ele>
        <time>2019-03-27T10:46:19.000Z</time>
      </trkpt>
      <trkpt lat="45.63528" lon="6.69466">
        <ele>2352.8000488281</ele>
        <time>2019-03-27T10:46:22.000Z</time>
      </trkpt>
      <trkpt lat="45.63529" lon="6.69465">
        <ele>2353</ele>
        <time>2019-03-27T10:46:23.000Z</time>
      </trkpt>
      <trkpt lat="45.63529" lon="6.69462">
        <ele>2353.1999511719</ele>
        <time>2019-03-27T10:46:29.000Z</time>
      </trkpt>
      <trkpt lat="45.6353" lon="6.69461">
        <ele>2353.3999023438</ele>
        <time>2019-03-27T10:46:30.000Z</time>
      </trkpt>
      <trkpt lat="45.6353" lon="6.69457">
        <ele>2354</ele>
        <time>2019-03-27T10:46:33.000Z</time>
      </trkpt>
      <trkpt lat="45.63531" lon="6.69455">
        <ele>2355.3999023438</ele>
        <time>2019-03-27T10:46:36.000Z</time>
      </trkpt>
      <trkpt lat="45.63531" lon="6.69454">
        <ele>2355.8000488281</ele>
        <time>2019-03-27T10:46:38.000Z</time>
      </trkpt>
      <trkpt lat="45.63528" lon="6.6945">
        <ele>2356</ele>
        <time>2019-03-27T10:46:44.000Z</time>
      </trkpt>
      <trkpt lat="45.63529" lon="6.6945">
        <ele>2356.3999023438</ele>
        <time>2019-03-27T10:46:45.000Z</time>
      </trkpt>
      <trkpt lat="45.63526" lon="6.69448">
        <ele>2357.6000976562</ele>
        <time>2019-03-27T10:46:49.000Z</time>
      </trkpt>
      <trkpt lat="45.63523" lon="6.69447">
        <ele>2358.3999023438</ele>
        <time>2019-03-27T10:46:54.000Z</time>
      </trkpt>
      <trkpt lat="45.63521" lon="6.69445">
        <ele>2358.6000976562</ele>
        <time>2019-03-27T10:46:59.000Z</time>
      </trkpt>
      <trkpt lat="45.63519" lon="6.69444">
        <ele>2358.6000976562</ele>
        <time>2019-03-27T10:47:01.000Z</time>
      </trkpt>
      <trkpt lat="45.63518" lon="6.69444">
        <ele>2359</ele>
        <time>2019-03-27T10:47:03.000Z</time>
      </trkpt>
      <trkpt lat="45.63517" lon="6.69444">
        <ele>2359.6000976562</ele>
        <time>2019-03-27T10:47:07.000Z</time>
      </trkpt>
      <trkpt lat="45.63517" lon="6.69444">
        <ele>2359.6000976562</ele>
        <time>2019-03-27T10:47:08.000Z</time>
      </trkpt>
      <trkpt lat="45.63516" lon="6.69444">
        <ele>2360.8000488281</ele>
        <time>2019-03-27T10:47:14.000Z</time>
      </trkpt>
      <trkpt lat="45.63516" lon="6.69444">
        <ele>2361.8000488281</ele>
        <time>2019-03-27T10:47:18.000Z</time>
      </trkpt>
      <trkpt lat="45.63516" lon="6.69444">
        <ele>2361.3999023438</ele>
        <time>2019-03-27T10:47:27.000Z</time>
      </trkpt>
      <trkpt lat="45.63516" lon="6.69441">
        <ele>2361.1999511719</ele>
        <time>2019-03-27T10:47:35.000Z</time>
      </trkpt>
      <trkpt lat="45.63516" lon="6.69439">
        <ele>2361.1999511719</ele>
        <time>2019-03-27T10:47:36.000Z</time>
      </trkpt>
      <trkpt lat="45.63516" lon="6.69436">
        <ele>2362.1999511719</ele>
        <time>2019-03-27T10:47:41.000Z</time>
      </trkpt>
      <trkpt lat="45.63517" lon="6.69433">
        <ele>2363</ele>
        <time>2019-03-27T10:47:44.000Z</time>
      </trkpt>
      <trkpt lat="45.63518" lon="6.69432">
        <ele>2363.6000976562</ele>
        <time>2019-03-27T10:47:49.000Z</time>
      </trkpt>
      <trkpt lat="45.63519" lon="6.6943">
        <ele>2364.1999511719</ele>
        <time>2019-03-27T10:47:52.000Z</time>
      </trkpt>
      <trkpt lat="45.6352" lon="6.69427">
        <ele>2364.8000488281</ele>
        <time>2019-03-27T10:47:55.000Z</time>
      </trkpt>
      <trkpt lat="45.63521" lon="6.69425">
        <ele>2365.3999023438</ele>
        <time>2019-03-27T10:47:57.000Z</time>
      </trkpt>
      <trkpt lat="45.63522" lon="6.69423">
        <ele>2366.6000976562</ele>
        <time>2019-03-27T10:48:01.000Z</time>
      </trkpt>
      <trkpt lat="45.6352" lon="6.69418">
        <ele>2367.6000976562</ele>
        <time>2019-03-27T10:48:08.000Z</time>
      </trkpt>
      <trkpt lat="45.6352" lon="6.69419">
        <ele>2367.8000488281</ele>
        <time>2019-03-27T10:48:09.000Z</time>
      </trkpt>
      <trkpt lat="45.63518" lon="6.69417">
        <ele>2368</ele>
        <time>2019-03-27T10:48:12.000Z</time>
      </trkpt>
      <trkpt lat="45.63515" lon="6.69417">
        <ele>2368.8000488281</ele>
        <time>2019-03-27T10:48:17.000Z</time>
      </trkpt>
      <trkpt lat="45.63515" lon="6.69417">
        <ele>2369</ele>
        <time>2019-03-27T10:48:18.000Z</time>
      </trkpt>
      <trkpt lat="45.6351" lon="6.69417">
        <ele>2370</ele>
        <time>2019-03-27T10:48:25.000Z</time>
      </trkpt>
      <trkpt lat="45.63509" lon="6.69417">
        <ele>2370.1999511719</ele>
        <time>2019-03-27T10:48:27.000Z</time>
      </trkpt>
      <trkpt lat="45.63504" lon="6.69416">
        <ele>2371</ele>
        <time>2019-03-27T10:48:32.000Z</time>
      </trkpt>
      <trkpt lat="45.63502" lon="6.69416">
        <ele>2371.6000976562</ele>
        <time>2019-03-27T10:48:34.000Z</time>
      </trkpt>
      <trkpt lat="45.635" lon="6.69416">
        <ele>2372.1999511719</ele>
        <time>2019-03-27T10:48:37.000Z</time>
      </trkpt>
      <trkpt lat="45.63496" lon="6.69415">
        <ele>2373</ele>
        <time>2019-03-27T10:48:41.000Z</time>
      </trkpt>
      <trkpt lat="45.63496" lon="6.69415">
        <ele>2373.3999023438</ele>
        <time>2019-03-27T10:48:42.000Z</time>
      </trkpt>
      <trkpt lat="45.63495" lon="6.69415">
        <ele>2373.3999023438</ele>
        <time>2019-03-27T10:48:47.000Z</time>
      </trkpt>
      <trkpt lat="45.63495" lon="6.69415">
        <ele>2373.8000488281</ele>
        <time>2019-03-27T10:49:02.000Z</time>
      </trkpt>
      <trkpt lat="45.63495" lon="6.69411">
        <ele>2374.1999511719</ele>
        <time>2019-03-27T10:49:11.000Z</time>
      </trkpt>
      <trkpt lat="45.63494" lon="6.69408">
        <ele>2374.1999511719</ele>
        <time>2019-03-27T10:49:13.000Z</time>
      </trkpt>
      <trkpt lat="45.63494" lon="6.69408">
        <ele>2374.3999023438</ele>
        <time>2019-03-27T10:49:14.000Z</time>
      </trkpt>
      <trkpt lat="45.63493" lon="6.69406">
        <ele>2374.8000488281</ele>
        <time>2019-03-27T10:49:16.000Z</time>
      </trkpt>
      <trkpt lat="45.63492" lon="6.69401">
        <ele>2375.1999511719</ele>
        <time>2019-03-27T10:49:21.000Z</time>
      </trkpt>
      <trkpt lat="45.63489" lon="6.69396">
        <ele>2375.3999023438</ele>
        <time>2019-03-27T10:49:27.000Z</time>
      </trkpt>
      <trkpt lat="45.63489" lon="6.69396">
        <ele>2375.6000976562</ele>
        <time>2019-03-27T10:49:28.000Z</time>
      </trkpt>
      <trkpt lat="45.63489" lon="6.69394">
        <ele>2376.3999023438</ele>
        <time>2019-03-27T10:49:37.000Z</time>
      </trkpt>
      <trkpt lat="45.63485" lon="6.69391">
        <ele>2376.6000976562</ele>
        <time>2019-03-27T10:49:42.000Z</time>
      </trkpt>
      <trkpt lat="45.63483" lon="6.69387">
        <ele>2377.3999023438</ele>
        <time>2019-03-27T10:49:47.000Z</time>
      </trkpt>
      <trkpt lat="45.63482" lon="6.69386">
        <ele>2377.6000976562</ele>
        <time>2019-03-27T10:49:48.000Z</time>
      </trkpt>
      <trkpt lat="45.6348" lon="6.69383">
        <ele>2378</ele>
        <time>2019-03-27T10:49:52.000Z</time>
      </trkpt>
      <trkpt lat="45.63477" lon="6.69378">
        <ele>2378.1999511719</ele>
        <time>2019-03-27T10:49:57.000Z</time>
      </trkpt>
      <trkpt lat="45.63476" lon="6.69373">
        <ele>2378.6000976562</ele>
        <time>2019-03-27T10:50:03.000Z</time>
      </trkpt>
      <trkpt lat="45.63476" lon="6.69372">
        <ele>2378.8000488281</ele>
        <time>2019-03-27T10:50:04.000Z</time>
      </trkpt>
      <trkpt lat="45.63474" lon="6.69368">
        <ele>2379.8000488281</ele>
        <time>2019-03-27T10:50:08.000Z</time>
      </trkpt>
      <trkpt lat="45.63471" lon="6.69366">
        <ele>2380.8000488281</ele>
        <time>2019-03-27T10:50:14.000Z</time>
      </trkpt>
      <trkpt lat="45.63471" lon="6.69364">
        <ele>2381</ele>
        <time>2019-03-27T10:50:16.000Z</time>
      </trkpt>
      <trkpt lat="45.63468" lon="6.69362">
        <ele>2381.8000488281</ele>
        <time>2019-03-27T10:50:21.000Z</time>
      </trkpt>
      <trkpt lat="45.63465" lon="6.6936">
        <ele>2382.1999511719</ele>
        <time>2019-03-27T10:50:24.000Z</time>
      </trkpt>
      <trkpt lat="45.63462" lon="6.69358">
        <ele>2382.3999023438</ele>
        <time>2019-03-27T10:50:28.000Z</time>
      </trkpt>
      <trkpt lat="45.6346" lon="6.69354">
        <ele>2383.1999511719</ele>
        <time>2019-03-27T10:50:33.000Z</time>
      </trkpt>
      <trkpt lat="45.63459" lon="6.69353">
        <ele>2383.1999511719</ele>
        <time>2019-03-27T10:50:35.000Z</time>
      </trkpt>
      <trkpt lat="45.63457" lon="6.6935">
        <ele>2383.3999023438</ele>
        <time>2019-03-27T10:50:38.000Z</time>
      </trkpt>
      <trkpt lat="45.63454" lon="6.69347">
        <ele>2383.1999511719</ele>
        <time>2019-03-27T10:50:43.000Z</time>
      </trkpt>
      <trkpt lat="45.63449" lon="6.69345">
        <ele>2383.6000976562</ele>
        <time>2019-03-27T10:50:49.000Z</time>
      </trkpt>
      <trkpt lat="45.63446" lon="6.69342">
        <ele>2384.1999511719</ele>
        <time>2019-03-27T10:50:53.000Z</time>
      </trkpt>
      <trkpt lat="45.63445" lon="6.69342">
        <ele>2384.3999023438</ele>
        <time>2019-03-27T10:50:54.000Z</time>
      </trkpt>
      <trkpt lat="45.63442" lon="6.69342">
        <ele>2384.8000488281</ele>
        <time>2019-03-27T10:50:56.000Z</time>
      </trkpt>
      <trkpt lat="45.63437" lon="6.69338">
        <ele>2385</ele>
        <time>2019-03-27T10:51:06.000Z</time>
      </trkpt>
      <trkpt lat="45.63433" lon="6.69333">
        <ele>2385.6000976562</ele>
        <time>2019-03-27T10:51:12.000Z</time>
      </trkpt>
      <trkpt lat="45.63432" lon="6.69331">
        <ele>2385.8000488281</ele>
        <time>2019-03-27T10:51:15.000Z</time>
      </trkpt>
      <trkpt lat="45.63427" lon="6.69329">
        <ele>2386.3999023438</ele>
        <time>2019-03-27T10:51:22.000Z</time>
      </trkpt>
      <trkpt lat="45.63425" lon="6.69327">
        <ele>2386.8000488281</ele>
        <time>2019-03-27T10:51:25.000Z</time>
      </trkpt>
      <trkpt lat="45.63422" lon="6.69323">
        <ele>2387.6000976562</ele>
        <time>2019-03-27T10:51:30.000Z</time>
      </trkpt>
      <trkpt lat="45.63421" lon="6.69322">
        <ele>2387.8000488281</ele>
        <time>2019-03-27T10:51:32.000Z</time>
      </trkpt>
      <trkpt lat="45.63418" lon="6.69321">
        <ele>2388.1999511719</ele>
        <time>2019-03-27T10:51:36.000Z</time>
      </trkpt>
      <trkpt lat="45.63416" lon="6.6932">
        <ele>2389</ele>
        <time>2019-03-27T10:51:40.000Z</time>
      </trkpt>
      <trkpt lat="45.63413" lon="6.69318">
        <ele>2389.1999511719</ele>
        <time>2019-03-27T10:51:44.000Z</time>
      </trkpt>
      <trkpt lat="45.6341" lon="6.69315">
        <ele>2390</ele>
        <time>2019-03-27T10:51:49.000Z</time>
      </trkpt>
      <trkpt lat="45.63409" lon="6.69314">
        <ele>2390.3999023438</ele>
        <time>2019-03-27T10:51:51.000Z</time>
      </trkpt>
      <trkpt lat="45.63406" lon="6.69312">
        <ele>2391</ele>
        <time>2019-03-27T10:51:54.000Z</time>
      </trkpt>
      <trkpt lat="45.63404" lon="6.69311">
        <ele>2391.3999023438</ele>
        <time>2019-03-27T10:51:57.000Z</time>
      </trkpt>
      <trkpt lat="45.634" lon="6.69311">
        <ele>2392</ele>
        <time>2019-03-27T10:52:03.000Z</time>
      </trkpt>
      <trkpt lat="45.63399" lon="6.69311">
        <ele>2392.1999511719</ele>
        <time>2019-03-27T10:52:04.000Z</time>
      </trkpt>
      <trkpt lat="45.63395" lon="6.6931">
        <ele>2393</ele>
        <time>2019-03-27T10:52:11.000Z</time>
      </trkpt>
      <trkpt lat="45.63393" lon="6.69308">
        <ele>2393.3999023438</ele>
        <time>2019-03-27T10:52:14.000Z</time>
      </trkpt>
      <trkpt lat="45.63391" lon="6.69306">
        <ele>2394</ele>
        <time>2019-03-27T10:52:17.000Z</time>
      </trkpt>
      <trkpt lat="45.6339" lon="6.69305">
        <ele>2394.3999023438</ele>
        <time>2019-03-27T10:52:20.000Z</time>
      </trkpt>
      <trkpt lat="45.63388" lon="6.69303">
        <ele>2395.1999511719</ele>
        <time>2019-03-27T10:52:24.000Z</time>
      </trkpt>
      <trkpt lat="45.63386" lon="6.69302">
        <ele>2395.6000976562</ele>
        <time>2019-03-27T10:52:26.000Z</time>
      </trkpt>
      <trkpt lat="45.63384" lon="6.69301">
        <ele>2396</ele>
        <time>2019-03-27T10:52:30.000Z</time>
      </trkpt>
      <trkpt lat="45.6338" lon="6.69299">
        <ele>2396.6000976562</ele>
        <time>2019-03-27T10:52:38.000Z</time>
      </trkpt>
      <trkpt lat="45.6338" lon="6.69299">
        <ele>2396.8000488281</ele>
        <time>2019-03-27T10:52:39.000Z</time>
      </trkpt>
      <trkpt lat="45.63376" lon="6.69297">
        <ele>2396.8000488281</ele>
        <time>2019-03-27T10:52:44.000Z</time>
      </trkpt>
      <trkpt lat="45.63371" lon="6.69294">
        <ele>2397.8000488281</ele>
        <time>2019-03-27T10:52:51.000Z</time>
      </trkpt>
      <trkpt lat="45.63371" lon="6.69295">
        <ele>2397.8000488281</ele>
        <time>2019-03-27T10:52:52.000Z</time>
      </trkpt>
      <trkpt lat="45.63368" lon="6.69294">
        <ele>2398.3999023438</ele>
        <time>2019-03-27T10:52:57.000Z</time>
      </trkpt>
      <trkpt lat="45.63365" lon="6.69293">
        <ele>2399</ele>
        <time>2019-03-27T10:53:01.000Z</time>
      </trkpt>
      <trkpt lat="45.63363" lon="6.69293">
        <ele>2399</ele>
        <time>2019-03-27T10:53:05.000Z</time>
      </trkpt>
      <trkpt lat="45.63358" lon="6.69295">
        <ele>2399</ele>
        <time>2019-03-27T10:53:11.000Z</time>
      </trkpt>
      <trkpt lat="45.63351" lon="6.69294">
        <ele>2399.1999511719</ele>
        <time>2019-03-27T10:53:20.000Z</time>
      </trkpt>
      <trkpt lat="45.63346" lon="6.69293">
        <ele>2399.1999511719</ele>
        <time>2019-03-27T10:53:26.000Z</time>
      </trkpt>
      <trkpt lat="45.63342" lon="6.6929">
        <ele>2399.3999023438</ele>
        <time>2019-03-27T10:53:32.000Z</time>
      </trkpt>
      <trkpt lat="45.63337" lon="6.69288">
        <ele>2400</ele>
        <time>2019-03-27T10:53:38.000Z</time>
      </trkpt>
      <trkpt lat="45.63335" lon="6.69287">
        <ele>2400</ele>
        <time>2019-03-27T10:53:40.000Z</time>
      </trkpt>
      <trkpt lat="45.6333" lon="6.69284">
        <ele>2400.1999511719</ele>
        <time>2019-03-27T10:53:48.000Z</time>
      </trkpt>
      <trkpt lat="45.63326" lon="6.69281">
        <ele>2400.6000976562</ele>
        <time>2019-03-27T10:53:54.000Z</time>
      </trkpt>
      <trkpt lat="45.63324" lon="6.69281">
        <ele>2401</ele>
        <time>2019-03-27T10:53:57.000Z</time>
      </trkpt>
      <trkpt lat="45.6332" lon="6.69281">
        <ele>2401.1999511719</ele>
        <time>2019-03-27T10:54:01.000Z</time>
      </trkpt>
      <trkpt lat="45.63315" lon="6.69277">
        <ele>2401.1999511719</ele>
        <time>2019-03-27T10:54:07.000Z</time>
      </trkpt>
      <trkpt lat="45.63307" lon="6.69269">
        <ele>2400.8000488281</ele>
        <time>2019-03-27T10:54:15.000Z</time>
      </trkpt>
      <trkpt lat="45.63301" lon="6.69268">
        <ele>2400.8000488281</ele>
        <time>2019-03-27T10:54:22.000Z</time>
      </trkpt>
      <trkpt lat="45.63297" lon="6.6927">
        <ele>2400</ele>
        <time>2019-03-27T10:54:27.000Z</time>
      </trkpt>
      <trkpt lat="45.63296" lon="6.69271">
        <ele>2399.8000488281</ele>
        <time>2019-03-27T10:54:29.000Z</time>
      </trkpt>
      <trkpt lat="45.63292" lon="6.69272">
        <ele>2400</ele>
        <time>2019-03-27T10:54:34.000Z</time>
      </trkpt>
      <trkpt lat="45.63287" lon="6.6927">
        <ele>2400.3999023438</ele>
        <time>2019-03-27T10:54:41.000Z</time>
      </trkpt>
      <trkpt lat="45.63283" lon="6.69271">
        <ele>2401</ele>
        <time>2019-03-27T10:54:46.000Z</time>
      </trkpt>
      <trkpt lat="45.63281" lon="6.69272">
        <ele>2401.6000976562</ele>
        <time>2019-03-27T10:54:48.000Z</time>
      </trkpt>
      <trkpt lat="45.63279" lon="6.69274">
        <ele>2402</ele>
        <time>2019-03-27T10:54:52.000Z</time>
      </trkpt>
      <trkpt lat="45.63278" lon="6.69275">
        <ele>2402.3999023438</ele>
        <time>2019-03-27T10:54:54.000Z</time>
      </trkpt>
      <trkpt lat="45.63275" lon="6.69276">
        <ele>2403</ele>
        <time>2019-03-27T10:54:58.000Z</time>
      </trkpt>
      <trkpt lat="45.63275" lon="6.69277">
        <ele>2403.1999511719</ele>
        <time>2019-03-27T10:54:59.000Z</time>
      </trkpt>
      <trkpt lat="45.63271" lon="6.69278">
        <ele>2404.1999511719</ele>
        <time>2019-03-27T10:55:05.000Z</time>
      </trkpt>
      <trkpt lat="45.6327" lon="6.69278">
        <ele>2404.3999023438</ele>
        <time>2019-03-27T10:55:06.000Z</time>
      </trkpt>
      <trkpt lat="45.63267" lon="6.69282">
        <ele>2405</ele>
        <time>2019-03-27T10:55:11.000Z</time>
      </trkpt>
      <trkpt lat="45.63267" lon="6.69283">
        <ele>2405.3999023438</ele>
        <time>2019-03-27T10:55:12.000Z</time>
      </trkpt>
      <trkpt lat="45.63265" lon="6.69284">
        <ele>2406.1999511719</ele>
        <time>2019-03-27T10:55:17.000Z</time>
      </trkpt>
      <trkpt lat="45.63265" lon="6.69284">
        <ele>2406.6000976562</ele>
        <time>2019-03-27T10:55:18.000Z</time>
      </trkpt>
      <trkpt lat="45.63262" lon="6.69285">
        <ele>2407.1999511719</ele>
        <time>2019-03-27T10:55:22.000Z</time>
      </trkpt>
      <trkpt lat="45.63259" lon="6.69285">
        <ele>2407.3999023438</ele>
        <time>2019-03-27T10:55:25.000Z</time>
      </trkpt>
      <trkpt lat="45.63258" lon="6.69286">
        <ele>2407.1999511719</ele>
        <time>2019-03-27T10:55:27.000Z</time>
      </trkpt>
      <trkpt lat="45.63257" lon="6.69288">
        <ele>2407.6000976562</ele>
        <time>2019-03-27T10:55:32.000Z</time>
      </trkpt>
      <trkpt lat="45.63255" lon="6.69287">
        <ele>2408</ele>
        <time>2019-03-27T10:55:35.000Z</time>
      </trkpt>
      <trkpt lat="45.63255" lon="6.69287">
        <ele>2408.6000976562</ele>
        <time>2019-03-27T10:55:44.000Z</time>
      </trkpt>
      <trkpt lat="45.63255" lon="6.69287">
        <ele>2408.8000488281</ele>
        <time>2019-03-27T10:55:45.000Z</time>
      </trkpt>
      <trkpt lat="45.63251" lon="6.69288">
        <ele>2408.8000488281</ele>
        <time>2019-03-27T10:55:53.000Z</time>
      </trkpt>
      <trkpt lat="45.63248" lon="6.69291">
        <ele>2408.1999511719</ele>
        <time>2019-03-27T10:56:00.000Z</time>
      </trkpt>
      <trkpt lat="45.63244" lon="6.69292">
        <ele>2409</ele>
        <time>2019-03-27T10:56:06.000Z</time>
      </trkpt>
      <trkpt lat="45.6324" lon="6.69289">
        <ele>2408.8000488281</ele>
        <time>2019-03-27T10:56:12.000Z</time>
      </trkpt>
      <trkpt lat="45.63235" lon="6.6929">
        <ele>2408.8000488281</ele>
        <time>2019-03-27T10:56:19.000Z</time>
      </trkpt>
      <trkpt lat="45.63232" lon="6.69289">
        <ele>2408.1999511719</ele>
        <time>2019-03-27T10:56:25.000Z</time>
      </trkpt>
      <trkpt lat="45.63229" lon="6.69289">
        <ele>2408.8000488281</ele>
        <time>2019-03-27T10:56:31.000Z</time>
      </trkpt>
      <trkpt lat="45.63226" lon="6.69289">
        <ele>2408.3999023438</ele>
        <time>2019-03-27T10:56:37.000Z</time>
      </trkpt>
      <trkpt lat="45.63222" lon="6.69292">
        <ele>2407.8000488281</ele>
        <time>2019-03-27T10:56:42.000Z</time>
      </trkpt>
      <trkpt lat="45.63219" lon="6.69295">
        <ele>2409.1999511719</ele>
        <time>2019-03-27T10:56:47.000Z</time>
      </trkpt>
      <trkpt lat="45.63218" lon="6.69297">
        <ele>2409.8000488281</ele>
        <time>2019-03-27T10:56:49.000Z</time>
      </trkpt>
      <trkpt lat="45.63215" lon="6.69298">
        <ele>2410.1999511719</ele>
        <time>2019-03-27T10:56:53.000Z</time>
      </trkpt>
      <trkpt lat="45.63212" lon="6.69299">
        <ele>2410.6000976562</ele>
        <time>2019-03-27T10:56:59.000Z</time>
      </trkpt>
      <trkpt lat="45.63211" lon="6.693">
        <ele>2410.8000488281</ele>
        <time>2019-03-27T10:57:01.000Z</time>
      </trkpt>
      <trkpt lat="45.63208" lon="6.69301">
        <ele>2411.6000976562</ele>
        <time>2019-03-27T10:57:05.000Z</time>
      </trkpt>
      <trkpt lat="45.63206" lon="6.69302">
        <ele>2411.8000488281</ele>
        <time>2019-03-27T10:57:09.000Z</time>
      </trkpt>
      <trkpt lat="45.63204" lon="6.69302">
        <ele>2411.8000488281</ele>
        <time>2019-03-27T10:57:12.000Z</time>
      </trkpt>
      <trkpt lat="45.63201" lon="6.69302">
        <ele>2411.8000488281</ele>
        <time>2019-03-27T10:57:17.000Z</time>
      </trkpt>
      <trkpt lat="45.632" lon="6.69303">
        <ele>2412.8000488281</ele>
        <time>2019-03-27T10:57:23.000Z</time>
      </trkpt>
      <trkpt lat="45.632" lon="6.69303">
        <ele>2413</ele>
        <time>2019-03-27T10:57:25.000Z</time>
      </trkpt>
      <trkpt lat="45.63198" lon="6.69305">
        <ele>2414</ele>
        <time>2019-03-27T10:57:28.000Z</time>
      </trkpt>
      <trkpt lat="45.63197" lon="6.69309">
        <ele>2414.8000488281</ele>
        <time>2019-03-27T10:57:32.000Z</time>
      </trkpt>
      <trkpt lat="45.63196" lon="6.69309">
        <ele>2415</ele>
        <time>2019-03-27T10:57:34.000Z</time>
      </trkpt>
      <trkpt lat="45.63195" lon="6.6931">
        <ele>2415.6000976562</ele>
        <time>2019-03-27T10:57:39.000Z</time>
      </trkpt>
      <trkpt lat="45.63192" lon="6.69312">
        <ele>2416</ele>
        <time>2019-03-27T10:57:45.000Z</time>
      </trkpt>
      <trkpt lat="45.63189" lon="6.69313">
        <ele>2417</ele>
        <time>2019-03-27T10:57:52.000Z</time>
      </trkpt>
      <trkpt lat="45.63188" lon="6.69314">
        <ele>2418.1999511719</ele>
        <time>2019-03-27T10:57:54.000Z</time>
      </trkpt>
      <trkpt lat="45.63185" lon="6.69316">
        <ele>2418.3999023438</ele>
        <time>2019-03-27T10:57:58.000Z</time>
      </trkpt>
      <trkpt lat="45.63183" lon="6.69318">
        <ele>2418.1999511719</ele>
        <time>2019-03-27T10:58:02.000Z</time>
      </trkpt>
      <trkpt lat="45.63182" lon="6.69317">
        <ele>2418.1999511719</ele>
        <time>2019-03-27T10:58:07.000Z</time>
      </trkpt>
      <trkpt lat="45.63182" lon="6.69317">
        <ele>2419.3999023438</ele>
        <time>2019-03-27T10:58:14.000Z</time>
      </trkpt>
      <trkpt lat="45.63182" lon="6.69317">
        <ele>2419.8000488281</ele>
        <time>2019-03-27T10:58:16.000Z</time>
      </trkpt>
      <trkpt lat="45.63182" lon="6.69317">
        <ele>2420.6000976562</ele>
        <time>2019-03-27T10:58:18.000Z</time>
      </trkpt>
      <trkpt lat="45.63182" lon="6.69316">
        <ele>2420.6000976562</ele>
        <time>2019-03-27T10:58:24.000Z</time>
      </trkpt>
      <trkpt lat="45.63184" lon="6.69313">
        <ele>2420.8000488281</ele>
        <time>2019-03-27T10:58:32.000Z</time>
      </trkpt>
      <trkpt lat="45.63185" lon="6.69313">
        <ele>2422</ele>
        <time>2019-03-27T10:58:36.000Z</time>
      </trkpt>
      <trkpt lat="45.63185" lon="6.69313">
        <ele>2422.6000976562</ele>
        <time>2019-03-27T10:58:40.000Z</time>
      </trkpt>
      <trkpt lat="45.63186" lon="6.69312">
        <ele>2423.1999511719</ele>
        <time>2019-03-27T10:58:44.000Z</time>
      </trkpt>
      <trkpt lat="45.63186" lon="6.69312">
        <ele>2423.8000488281</ele>
        <time>2019-03-27T10:58:48.000Z</time>
      </trkpt>
      <trkpt lat="45.63187" lon="6.6931">
        <ele>2423.6000976562</ele>
        <time>2019-03-27T10:58:54.000Z</time>
      </trkpt>
      <trkpt lat="45.63187" lon="6.6931">
        <ele>2424.3999023438</ele>
        <time>2019-03-27T10:58:58.000Z</time>
      </trkpt>
      <trkpt lat="45.63187" lon="6.6931">
        <ele>2424.8000488281</ele>
        <time>2019-03-27T10:59:04.000Z</time>
      </trkpt>
      <trkpt lat="45.63187" lon="6.69308">
        <ele>2424.8000488281</ele>
        <time>2019-03-27T10:59:12.000Z</time>
      </trkpt>
      <trkpt lat="45.63184" lon="6.69307">
        <ele>2425</ele>
        <time>2019-03-27T10:59:16.000Z</time>
      </trkpt>
      <trkpt lat="45.63183" lon="6.69306">
        <ele>2425.8000488281</ele>
        <time>2019-03-27T10:59:18.000Z</time>
      </trkpt>
      <trkpt lat="45.63181" lon="6.69305">
        <ele>2426.3999023438</ele>
        <time>2019-03-27T10:59:22.000Z</time>
      </trkpt>
      <trkpt lat="45.6318" lon="6.69305">
        <ele>2427</ele>
        <time>2019-03-27T10:59:26.000Z</time>
      </trkpt>
      <trkpt lat="45.63176" lon="6.69304">
        <ele>2428</ele>
        <time>2019-03-27T10:59:31.000Z</time>
      </trkpt>
      <trkpt lat="45.63175" lon="6.69304">
        <ele>2428</ele>
        <time>2019-03-27T10:59:32.000Z</time>
      </trkpt>
      <trkpt lat="45.63174" lon="6.69304">
        <ele>2428.3999023438</ele>
        <time>2019-03-27T10:59:36.000Z</time>
      </trkpt>
      <trkpt lat="45.63171" lon="6.69304">
        <ele>2428.6000976562</ele>
        <time>2019-03-27T10:59:41.000Z</time>
      </trkpt>
      <trkpt lat="45.63171" lon="6.69304">
        <ele>2429.1999511719</ele>
        <time>2019-03-27T10:59:48.000Z</time>
      </trkpt>
      <trkpt lat="45.63171" lon="6.69304">
        <ele>2429.6000976562</ele>
        <time>2019-03-27T10:59:54.000Z</time>
      </trkpt>
      <trkpt lat="45.63171" lon="6.69304">
        <ele>2430.3999023438</ele>
        <time>2019-03-27T10:59:57.000Z</time>
      </trkpt>
      <trkpt lat="45.63172" lon="6.69304">
        <ele>2431</ele>
        <time>2019-03-27T11:00:01.000Z</time>
      </trkpt>
      <trkpt lat="45.63177" lon="6.69301">
        <ele>2431</ele>
        <time>2019-03-27T11:00:10.000Z</time>
      </trkpt>
      <trkpt lat="45.63177" lon="6.69301">
        <ele>2431.3999023438</ele>
        <time>2019-03-27T11:00:12.000Z</time>
      </trkpt>
      <trkpt lat="45.6318" lon="6.69298">
        <ele>2432.3999023438</ele>
        <time>2019-03-27T11:00:19.000Z</time>
      </trkpt>
      <trkpt lat="45.6318" lon="6.69297">
        <ele>2432.6000976562</ele>
        <time>2019-03-27T11:00:20.000Z</time>
      </trkpt>
      <trkpt lat="45.63182" lon="6.69295">
        <ele>2433.8000488281</ele>
        <time>2019-03-27T11:00:25.000Z</time>
      </trkpt>
      <trkpt lat="45.63182" lon="6.69293">
        <ele>2434</ele>
        <time>2019-03-27T11:00:27.000Z</time>
      </trkpt>
      <trkpt lat="45.63182" lon="6.69293">
        <ele>2435</ele>
        <time>2019-03-27T11:00:32.000Z</time>
      </trkpt>
      <trkpt lat="45.63182" lon="6.69293">
        <ele>2434.8000488281</ele>
        <time>2019-03-27T11:00:37.000Z</time>
      </trkpt>
      <trkpt lat="45.63181" lon="6.69293">
        <ele>2434.8000488281</ele>
        <time>2019-03-27T11:00:44.000Z</time>
      </trkpt>
      <trkpt lat="45.63177" lon="6.69292">
        <ele>2435.3999023438</ele>
        <time>2019-03-27T11:00:50.000Z</time>
      </trkpt>
      <trkpt lat="45.63177" lon="6.69292">
        <ele>2436.1999511719</ele>
        <time>2019-03-27T11:00:54.000Z</time>
      </trkpt>
      <trkpt lat="45.63176" lon="6.69291">
        <ele>2436.3999023438</ele>
        <time>2019-03-27T11:00:57.000Z</time>
      </trkpt>
      <trkpt lat="45.63174" lon="6.69292">
        <ele>2437</ele>
        <time>2019-03-27T11:01:02.000Z</time>
      </trkpt>
      <trkpt lat="45.6317" lon="6.69293">
        <ele>2437</ele>
        <time>2019-03-27T11:01:07.000Z</time>
      </trkpt>
      <trkpt lat="45.63168" lon="6.69294">
        <ele>2437.6000976562</ele>
        <time>2019-03-27T11:01:09.000Z</time>
      </trkpt>
      <trkpt lat="45.63167" lon="6.69295">
        <ele>2438</ele>
        <time>2019-03-27T11:01:12.000Z</time>
      </trkpt>
      <trkpt lat="45.63166" lon="6.69296">
        <ele>2438.6000976562</ele>
        <time>2019-03-27T11:01:15.000Z</time>
      </trkpt>
      <trkpt lat="45.63164" lon="6.69296">
        <ele>2438.8000488281</ele>
        <time>2019-03-27T11:01:18.000Z</time>
      </trkpt>
      <trkpt lat="45.63164" lon="6.69297">
        <ele>2438</ele>
        <time>2019-03-27T11:01:27.000Z</time>
      </trkpt>
      <trkpt lat="45.63164" lon="6.69297">
        <ele>2439.6000976562</ele>
        <time>2019-03-27T11:01:33.000Z</time>
      </trkpt>
      <trkpt lat="45.63164" lon="6.69297">
        <ele>2440.1999511719</ele>
        <time>2019-03-27T11:01:34.000Z</time>
      </trkpt>
      <trkpt lat="45.63164" lon="6.69297">
        <ele>2440.6000976562</ele>
        <time>2019-03-27T11:01:35.000Z</time>
      </trkpt>
      <trkpt lat="45.63166" lon="6.69296">
        <ele>2440</ele>
        <time>2019-03-27T11:01:44.000Z</time>
      </trkpt>
      <trkpt lat="45.63168" lon="6.69293">
        <ele>2441.3999023438</ele>
        <time>2019-03-27T11:01:52.000Z</time>
      </trkpt>
      <trkpt lat="45.63169" lon="6.69292">
        <ele>2441.6000976562</ele>
        <time>2019-03-27T11:01:54.000Z</time>
      </trkpt>
      <trkpt lat="45.6317" lon="6.69289">
        <ele>2442.8000488281</ele>
        <time>2019-03-27T11:02:01.000Z</time>
      </trkpt>
      <trkpt lat="45.6317" lon="6.69288">
        <ele>2443.8000488281</ele>
        <time>2019-03-27T11:02:07.000Z</time>
      </trkpt>
      <trkpt lat="45.63171" lon="6.69288">
        <ele>2444</ele>
        <time>2019-03-27T11:02:08.000Z</time>
      </trkpt>
      <trkpt lat="45.63171" lon="6.69287">
        <ele>2444.8000488281</ele>
        <time>2019-03-27T11:02:14.000Z</time>
      </trkpt>
      <trkpt lat="45.63171" lon="6.69287">
        <ele>2445</ele>
        <time>2019-03-27T11:02:15.000Z</time>
      </trkpt>
      <trkpt lat="45.63171" lon="6.69287">
        <ele>2445.1999511719</ele>
        <time>2019-03-27T11:02:24.000Z</time>
      </trkpt>
      <trkpt lat="45.63171" lon="6.69287">
        <ele>2445.6000976562</ele>
        <time>2019-03-27T11:02:34.000Z</time>
      </trkpt>
      <trkpt lat="45.63171" lon="6.69287">
        <ele>2446.1999511719</ele>
        <time>2019-03-27T11:02:35.000Z</time>
      </trkpt>
      <trkpt lat="45.63167" lon="6.69285">
        <ele>2447</ele>
        <time>2019-03-27T11:02:39.000Z</time>
      </trkpt>
      <trkpt lat="45.63163" lon="6.69283">
        <ele>2446.8000488281</ele>
        <time>2019-03-27T11:02:44.000Z</time>
      </trkpt>
      <trkpt lat="45.63162" lon="6.69283">
        <ele>2447.1999511719</ele>
        <time>2019-03-27T11:02:48.000Z</time>
      </trkpt>
      <trkpt lat="45.63161" lon="6.69282">
        <ele>2447.6000976562</ele>
        <time>2019-03-27T11:02:50.000Z</time>
      </trkpt>
      <trkpt lat="45.63159" lon="6.69283">
        <ele>2448</ele>
        <time>2019-03-27T11:02:53.000Z</time>
      </trkpt>
      <trkpt lat="45.63158" lon="6.69284">
        <ele>2448.3999023438</ele>
        <time>2019-03-27T11:02:56.000Z</time>
      </trkpt>
      <trkpt lat="45.63157" lon="6.69284">
        <ele>2449.1999511719</ele>
        <time>2019-03-27T11:03:00.000Z</time>
      </trkpt>
      <trkpt lat="45.63156" lon="6.69284">
        <ele>2449.3999023438</ele>
        <time>2019-03-27T11:03:02.000Z</time>
      </trkpt>
      <trkpt lat="45.63155" lon="6.69284">
        <ele>2450</ele>
        <time>2019-03-27T11:03:05.000Z</time>
      </trkpt>
      <trkpt lat="45.63153" lon="6.69285">
        <ele>2450.6000976562</ele>
        <time>2019-03-27T11:03:09.000Z</time>
      </trkpt>
      <trkpt lat="45.63153" lon="6.69285">
        <ele>2450.8000488281</ele>
        <time>2019-03-27T11:03:10.000Z</time>
      </trkpt>
      <trkpt lat="45.63153" lon="6.69285">
        <ele>2451.1999511719</ele>
        <time>2019-03-27T11:03:19.000Z</time>
      </trkpt>
      <trkpt lat="45.63153" lon="6.69285">
        <ele>2451.6000976562</ele>
        <time>2019-03-27T11:03:21.000Z</time>
      </trkpt>
      <trkpt lat="45.63153" lon="6.69285">
        <ele>2451.6000976562</ele>
        <time>2019-03-27T11:03:30.000Z</time>
      </trkpt>
      <trkpt lat="45.63153" lon="6.69285">
        <ele>2452</ele>
        <time>2019-03-27T11:03:40.000Z</time>
      </trkpt>
      <trkpt lat="45.63153" lon="6.69285">
        <ele>2452</ele>
        <time>2019-03-27T11:03:48.000Z</time>
      </trkpt>
      <trkpt lat="45.63153" lon="6.69285">
        <ele>2452.6000976562</ele>
        <time>2019-03-27T11:03:51.000Z</time>
      </trkpt>
      <trkpt lat="45.63154" lon="6.69284">
        <ele>2453</ele>
        <time>2019-03-27T11:03:54.000Z</time>
      </trkpt>
      <trkpt lat="45.63157" lon="6.69279">
        <ele>2454</ele>
        <time>2019-03-27T11:03:59.000Z</time>
      </trkpt>
      <trkpt lat="45.63158" lon="6.69278">
        <ele>2454.1999511719</ele>
        <time>2019-03-27T11:04:01.000Z</time>
      </trkpt>
      <trkpt lat="45.63158" lon="6.69278">
        <ele>2454.8000488281</ele>
        <time>2019-03-27T11:04:10.000Z</time>
      </trkpt>
      <trkpt lat="45.63155" lon="6.69276">
        <ele>2454.8000488281</ele>
        <time>2019-03-27T11:04:16.000Z</time>
      </trkpt>
      <trkpt lat="45.63154" lon="6.69275">
        <ele>2455</ele>
        <time>2019-03-27T11:04:18.000Z</time>
      </trkpt>
      <trkpt lat="45.63151" lon="6.69274">
        <ele>2456.6000976562</ele>
        <time>2019-03-27T11:04:22.000Z</time>
      </trkpt>
      <trkpt lat="45.63151" lon="6.69274">
        <ele>2457</ele>
        <time>2019-03-27T11:04:23.000Z</time>
      </trkpt>
      <trkpt lat="45.63148" lon="6.69275">
        <ele>2457.6000976562</ele>
        <time>2019-03-27T11:04:26.000Z</time>
      </trkpt>
      <trkpt lat="45.63146" lon="6.69276">
        <ele>2457.8000488281</ele>
        <time>2019-03-27T11:04:30.000Z</time>
      </trkpt>
      <trkpt lat="45.63144" lon="6.69279">
        <ele>2458.8000488281</ele>
        <time>2019-03-27T11:04:35.000Z</time>
      </trkpt>
      <trkpt lat="45.63144" lon="6.69279">
        <ele>2459.1999511719</ele>
        <time>2019-03-27T11:04:37.000Z</time>
      </trkpt>
      <trkpt lat="45.63144" lon="6.69279">
        <ele>2459</ele>
        <time>2019-03-27T11:04:43.000Z</time>
      </trkpt>
      <trkpt lat="45.63144" lon="6.69279">
        <ele>2459.6000976562</ele>
        <time>2019-03-27T11:04:50.000Z</time>
      </trkpt>
      <trkpt lat="45.63144" lon="6.69279">
        <ele>2459.8000488281</ele>
        <time>2019-03-27T11:04:51.000Z</time>
      </trkpt>
      <trkpt lat="45.63144" lon="6.69279">
        <ele>2459.8000488281</ele>
        <time>2019-03-27T11:05:04.000Z</time>
      </trkpt>
      <trkpt lat="45.63144" lon="6.69279">
        <ele>2459.8000488281</ele>
        <time>2019-03-27T11:05:19.000Z</time>
      </trkpt>
      <trkpt lat="45.63144" lon="6.69279">
        <ele>2460</ele>
        <time>2019-03-27T11:05:43.000Z</time>
      </trkpt>
      <trkpt lat="45.63144" lon="6.69279">
        <ele>2460</ele>
        <time>2019-03-27T11:05:58.000Z</time>
      </trkpt>
      <trkpt lat="45.63144" lon="6.69279">
        <ele>2459.3999023438</ele>
        <time>2019-03-27T11:06:15.000Z</time>
      </trkpt>
      <trkpt lat="45.63144" lon="6.69279">
        <ele>2460.6000976562</ele>
        <time>2019-03-27T11:06:34.000Z</time>
      </trkpt>
      <trkpt lat="45.63145" lon="6.69279">
        <ele>2459.1999511719</ele>
        <time>2019-03-27T11:06:40.000Z</time>
      </trkpt>
      <trkpt lat="45.63145" lon="6.69279">
        <ele>2460.3999023438</ele>
        <time>2019-03-27T11:06:53.000Z</time>
      </trkpt>
      <trkpt lat="45.63145" lon="6.69279">
        <ele>2459.8000488281</ele>
        <time>2019-03-27T11:07:06.000Z</time>
      </trkpt>
      <trkpt lat="45.63146" lon="6.69279">
        <ele>2459.8000488281</ele>
        <time>2019-03-27T11:07:19.000Z</time>
      </trkpt>
      <trkpt lat="45.63146" lon="6.69279">
        <ele>2460</ele>
        <time>2019-03-27T11:07:31.000Z</time>
      </trkpt>
      <trkpt lat="45.63146" lon="6.69279">
        <ele>2459.6000976562</ele>
        <time>2019-03-27T11:07:40.000Z</time>
      </trkpt>
      <trkpt lat="45.63146" lon="6.69279">
        <ele>2459.3999023438</ele>
        <time>2019-03-27T11:07:53.000Z</time>
      </trkpt>
      <trkpt lat="45.63146" lon="6.6928">
        <ele>2458.8000488281</ele>
        <time>2019-03-27T11:08:01.000Z</time>
      </trkpt>
      <trkpt lat="45.63146" lon="6.6928">
        <ele>2458.8000488281</ele>
        <time>2019-03-27T11:08:02.000Z</time>
      </trkpt>
      <trkpt lat="45.63146" lon="6.6928">
        <ele>2459.1999511719</ele>
        <time>2019-03-27T11:08:15.000Z</time>
      </trkpt>
      <trkpt lat="45.63147" lon="6.69279">
        <ele>2459</ele>
        <time>2019-03-27T11:08:21.000Z</time>
      </trkpt>
      <trkpt lat="45.63149" lon="6.69274">
        <ele>2459.3999023438</ele>
        <time>2019-03-27T11:08:27.000Z</time>
      </trkpt>
      <trkpt lat="45.63149" lon="6.69272">
        <ele>2460</ele>
        <time>2019-03-27T11:08:30.000Z</time>
      </trkpt>
      <trkpt lat="45.6315" lon="6.69271">
        <ele>2461.1999511719</ele>
        <time>2019-03-27T11:08:33.000Z</time>
      </trkpt>
      <trkpt lat="45.6315" lon="6.69271">
        <ele>2461.6000976562</ele>
        <time>2019-03-27T11:08:35.000Z</time>
      </trkpt>
      <trkpt lat="45.63151" lon="6.6927">
        <ele>2462.1999511719</ele>
        <time>2019-03-27T11:08:39.000Z</time>
      </trkpt>
      <trkpt lat="45.63151" lon="6.69269">
        <ele>2462.6000976562</ele>
        <time>2019-03-27T11:08:42.000Z</time>
      </trkpt>
      <trkpt lat="45.63152" lon="6.69268">
        <ele>2463.3999023438</ele>
        <time>2019-03-27T11:08:46.000Z</time>
      </trkpt>
      <trkpt lat="45.63152" lon="6.69268">
        <ele>2464</ele>
        <time>2019-03-27T11:08:50.000Z</time>
      </trkpt>
      <trkpt lat="45.63152" lon="6.69267">
        <ele>2464.3999023438</ele>
        <time>2019-03-27T11:08:52.000Z</time>
      </trkpt>
      <trkpt lat="45.63152" lon="6.69267">
        <ele>2465.6000976562</ele>
        <time>2019-03-27T11:08:55.000Z</time>
      </trkpt>
      <trkpt lat="45.63152" lon="6.69267">
        <ele>2465.6000976562</ele>
        <time>2019-03-27T11:08:59.000Z</time>
      </trkpt>
      <trkpt lat="45.63153" lon="6.69266">
        <ele>2465.1999511719</ele>
        <time>2019-03-27T11:09:06.000Z</time>
      </trkpt>
      <trkpt lat="45.63153" lon="6.69266">
        <ele>2465.8000488281</ele>
        <time>2019-03-27T11:09:24.000Z</time>
      </trkpt>
      <trkpt lat="45.6315" lon="6.69265">
        <ele>2466.6000976562</ele>
        <time>2019-03-27T11:09:31.000Z</time>
      </trkpt>
      <trkpt lat="45.63148" lon="6.69264">
        <ele>2467</ele>
        <time>2019-03-27T11:09:32.000Z</time>
      </trkpt>
      <trkpt lat="45.63146" lon="6.69263">
        <ele>2467.1999511719</ele>
        <time>2019-03-27T11:09:35.000Z</time>
      </trkpt>
      <trkpt lat="45.63143" lon="6.69261">
        <ele>2466.8000488281</ele>
        <time>2019-03-27T11:09:41.000Z</time>
      </trkpt>
      <trkpt lat="45.63142" lon="6.69261">
        <ele>2467.8000488281</ele>
        <time>2019-03-27T11:09:43.000Z</time>
      </trkpt>
      <trkpt lat="45.6314" lon="6.6926">
        <ele>2468.6000976562</ele>
        <time>2019-03-27T11:09:48.000Z</time>
      </trkpt>
      <trkpt lat="45.63139" lon="6.69261">
        <ele>2469</ele>
        <time>2019-03-27T11:09:50.000Z</time>
      </trkpt>
      <trkpt lat="45.63138" lon="6.69261">
        <ele>2469.1999511719</ele>
        <time>2019-03-27T11:09:52.000Z</time>
      </trkpt>
      <trkpt lat="45.63137" lon="6.69262">
        <ele>2469.8000488281</ele>
        <time>2019-03-27T11:09:59.000Z</time>
      </trkpt>
      <trkpt lat="45.63136" lon="6.69263">
        <ele>2470</ele>
        <time>2019-03-27T11:10:03.000Z</time>
      </trkpt>
      <trkpt lat="45.63134" lon="6.69264">
        <ele>2470.6000976562</ele>
        <time>2019-03-27T11:10:06.000Z</time>
      </trkpt>
      <trkpt lat="45.63133" lon="6.69265">
        <ele>2471.1999511719</ele>
        <time>2019-03-27T11:10:07.000Z</time>
      </trkpt>
      <trkpt lat="45.63131" lon="6.69266">
        <ele>2471.6000976562</ele>
        <time>2019-03-27T11:10:11.000Z</time>
      </trkpt>
      <trkpt lat="45.6313" lon="6.69267">
        <ele>2471.8000488281</ele>
        <time>2019-03-27T11:10:13.000Z</time>
      </trkpt>
      <trkpt lat="45.6313" lon="6.69267">
        <ele>2471.3999023438</ele>
        <time>2019-03-27T11:10:16.000Z</time>
      </trkpt>
      <trkpt lat="45.6313" lon="6.69267">
        <ele>2472.3999023438</ele>
        <time>2019-03-27T11:10:21.000Z</time>
      </trkpt>
      <trkpt lat="45.6313" lon="6.69267">
        <ele>2473.3999023438</ele>
        <time>2019-03-27T11:10:26.000Z</time>
      </trkpt>
      <trkpt lat="45.6313" lon="6.69267">
        <ele>2473.8000488281</ele>
        <time>2019-03-27T11:10:27.000Z</time>
      </trkpt>
      <trkpt lat="45.63133" lon="6.69263">
        <ele>2473.1999511719</ele>
        <time>2019-03-27T11:10:33.000Z</time>
      </trkpt>
      <trkpt lat="45.63134" lon="6.6926">
        <ele>2474.3999023438</ele>
        <time>2019-03-27T11:10:41.000Z</time>
      </trkpt>
      <trkpt lat="45.63136" lon="6.69256">
        <ele>2475.8000488281</ele>
        <time>2019-03-27T11:10:48.000Z</time>
      </trkpt>
      <trkpt lat="45.63137" lon="6.69255">
        <ele>2476.8000488281</ele>
        <time>2019-03-27T11:10:54.000Z</time>
      </trkpt>
      <trkpt lat="45.63138" lon="6.69255">
        <ele>2477.6000976562</ele>
        <time>2019-03-27T11:10:57.000Z</time>
      </trkpt>
      <trkpt lat="45.63139" lon="6.69253">
        <ele>2477.8000488281</ele>
        <time>2019-03-27T11:11:03.000Z</time>
      </trkpt>
      <trkpt lat="45.63139" lon="6.69253">
        <ele>2478</ele>
        <time>2019-03-27T11:11:04.000Z</time>
      </trkpt>
      <trkpt lat="45.63139" lon="6.69253">
        <ele>2478</ele>
        <time>2019-03-27T11:11:16.000Z</time>
      </trkpt>
      <trkpt lat="45.63137" lon="6.69253">
        <ele>2478</ele>
        <time>2019-03-27T11:11:23.000Z</time>
      </trkpt>
      <trkpt lat="45.63137" lon="6.69253">
        <ele>2479.1999511719</ele>
        <time>2019-03-27T11:11:25.000Z</time>
      </trkpt>
      <trkpt lat="45.63135" lon="6.69251">
        <ele>2479.6000976562</ele>
        <time>2019-03-27T11:11:29.000Z</time>
      </trkpt>
      <trkpt lat="45.6313" lon="6.69248">
        <ele>2480</ele>
        <time>2019-03-27T11:11:34.000Z</time>
      </trkpt>
      <trkpt lat="45.6313" lon="6.69247">
        <ele>2480.1999511719</ele>
        <time>2019-03-27T11:11:35.000Z</time>
      </trkpt>
      <trkpt lat="45.63129" lon="6.69248">
        <ele>2480.3999023438</ele>
        <time>2019-03-27T11:11:38.000Z</time>
      </trkpt>
      <trkpt lat="45.63127" lon="6.69248">
        <ele>2481</ele>
        <time>2019-03-27T11:11:42.000Z</time>
      </trkpt>
      <trkpt lat="45.63126" lon="6.69249">
        <ele>2481.6000976562</ele>
        <time>2019-03-27T11:11:44.000Z</time>
      </trkpt>
      <trkpt lat="45.63126" lon="6.69248">
        <ele>2480.8000488281</ele>
        <time>2019-03-27T11:11:48.000Z</time>
      </trkpt>
      <trkpt lat="45.63128" lon="6.69248">
        <ele>2481.8000488281</ele>
        <time>2019-03-27T11:11:53.000Z</time>
      </trkpt>
      <trkpt lat="45.63128" lon="6.69248">
        <ele>2482.8000488281</ele>
        <time>2019-03-27T11:11:55.000Z</time>
      </trkpt>
      <trkpt lat="45.63129" lon="6.69247">
        <ele>2483.1999511719</ele>
        <time>2019-03-27T11:12:00.000Z</time>
      </trkpt>
      <trkpt lat="45.63129" lon="6.69247">
        <ele>2483</ele>
        <time>2019-03-27T11:12:07.000Z</time>
      </trkpt>
      <trkpt lat="45.63129" lon="6.69247">
        <ele>2484</ele>
        <time>2019-03-27T11:12:11.000Z</time>
      </trkpt>
      <trkpt lat="45.63129" lon="6.69247">
        <ele>2485.1999511719</ele>
        <time>2019-03-27T11:12:14.000Z</time>
      </trkpt>
      <trkpt lat="45.63129" lon="6.69247">
        <ele>2485.8000488281</ele>
        <time>2019-03-27T11:12:17.000Z</time>
      </trkpt>
      <trkpt lat="45.63128" lon="6.69247">
        <ele>2484.6000976562</ele>
        <time>2019-03-27T11:12:28.000Z</time>
      </trkpt>
      <trkpt lat="45.63126" lon="6.69247">
        <ele>2486.3999023438</ele>
        <time>2019-03-27T11:12:32.000Z</time>
      </trkpt>
      <trkpt lat="45.63124" lon="6.69246">
        <ele>2487</ele>
        <time>2019-03-27T11:12:35.000Z</time>
      </trkpt>
      <trkpt lat="45.63123" lon="6.69245">
        <ele>2487.1999511719</ele>
        <time>2019-03-27T11:12:39.000Z</time>
      </trkpt>
      <trkpt lat="45.6312" lon="6.69244">
        <ele>2487.8000488281</ele>
        <time>2019-03-27T11:12:44.000Z</time>
      </trkpt>
      <trkpt lat="45.6312" lon="6.69245">
        <ele>2488</ele>
        <time>2019-03-27T11:12:45.000Z</time>
      </trkpt>
      <trkpt lat="45.63119" lon="6.69244">
        <ele>2488.3999023438</ele>
        <time>2019-03-27T11:12:48.000Z</time>
      </trkpt>
      <trkpt lat="45.63118" lon="6.69244">
        <ele>2488.6000976562</ele>
        <time>2019-03-27T11:12:49.000Z</time>
      </trkpt>
      <trkpt lat="45.63118" lon="6.69244">
        <ele>2488.8000488281</ele>
        <time>2019-03-27T11:12:50.000Z</time>
      </trkpt>
      <trkpt lat="45.63117" lon="6.69244">
        <ele>2489</ele>
        <time>2019-03-27T11:12:52.000Z</time>
      </trkpt>
      <trkpt lat="45.63115" lon="6.69246">
        <ele>2489.3999023438</ele>
        <time>2019-03-27T11:12:58.000Z</time>
      </trkpt>
      <trkpt lat="45.63115" lon="6.69246">
        <ele>2490.1999511719</ele>
        <time>2019-03-27T11:13:04.000Z</time>
      </trkpt>
      <trkpt lat="45.63115" lon="6.69246">
        <ele>2490.3999023438</ele>
        <time>2019-03-27T11:13:11.000Z</time>
      </trkpt>
      <trkpt lat="45.63115" lon="6.69246">
        <ele>2491.3999023438</ele>
        <time>2019-03-27T11:13:13.000Z</time>
      </trkpt>
      <trkpt lat="45.63117" lon="6.69244">
        <ele>2491.1999511719</ele>
        <time>2019-03-27T11:13:20.000Z</time>
      </trkpt>
      <trkpt lat="45.63119" lon="6.6924">
        <ele>2492.3999023438</ele>
        <time>2019-03-27T11:13:28.000Z</time>
      </trkpt>
      <trkpt lat="45.63121" lon="6.69238">
        <ele>2493.6000976562</ele>
        <time>2019-03-27T11:13:34.000Z</time>
      </trkpt>
      <trkpt lat="45.63121" lon="6.69238">
        <ele>2494.1999511719</ele>
        <time>2019-03-27T11:13:36.000Z</time>
      </trkpt>
      <trkpt lat="45.63122" lon="6.69237">
        <ele>2494.6000976562</ele>
        <time>2019-03-27T11:13:38.000Z</time>
      </trkpt>
      <trkpt lat="45.63122" lon="6.69237">
        <ele>2495.3999023438</ele>
        <time>2019-03-27T11:13:42.000Z</time>
      </trkpt>
      <trkpt lat="45.63122" lon="6.69237">
        <ele>2495.6000976562</ele>
        <time>2019-03-27T11:13:43.000Z</time>
      </trkpt>
      <trkpt lat="45.63122" lon="6.69237">
        <ele>2495.1999511719</ele>
        <time>2019-03-27T11:13:52.000Z</time>
      </trkpt>
      <trkpt lat="45.63121" lon="6.69236">
        <ele>2494.6000976562</ele>
        <time>2019-03-27T11:13:58.000Z</time>
      </trkpt>
      <trkpt lat="45.63119" lon="6.69236">
        <ele>2496.8000488281</ele>
        <time>2019-03-27T11:14:06.000Z</time>
      </trkpt>
      <trkpt lat="45.63116" lon="6.69236">
        <ele>2496.8000488281</ele>
        <time>2019-03-27T11:14:11.000Z</time>
      </trkpt>
      <trkpt lat="45.63115" lon="6.69234">
        <ele>2496.8000488281</ele>
        <time>2019-03-27T11:14:15.000Z</time>
      </trkpt>
      <trkpt lat="45.63111" lon="6.69234">
        <ele>2497</ele>
        <time>2019-03-27T11:14:20.000Z</time>
      </trkpt>
      <trkpt lat="45.63109" lon="6.69233">
        <ele>2497.6000976562</ele>
        <time>2019-03-27T11:14:24.000Z</time>
      </trkpt>
      <trkpt lat="45.63108" lon="6.69233">
        <ele>2498</ele>
        <time>2019-03-27T11:14:26.000Z</time>
      </trkpt>
      <trkpt lat="45.63108" lon="6.69233">
        <ele>2498.1999511719</ele>
        <time>2019-03-27T11:14:29.000Z</time>
      </trkpt>
      <trkpt lat="45.63108" lon="6.69233">
        <ele>2499.1999511719</ele>
        <time>2019-03-27T11:14:34.000Z</time>
      </trkpt>
      <trkpt lat="45.63108" lon="6.69233">
        <ele>2500.1999511719</ele>
        <time>2019-03-27T11:14:40.000Z</time>
      </trkpt>
      <trkpt lat="45.63108" lon="6.69233">
        <ele>2500.3999023438</ele>
        <time>2019-03-27T11:14:41.000Z</time>
      </trkpt>
      <trkpt lat="45.63107" lon="6.69233">
        <ele>2500.6000976562</ele>
        <time>2019-03-27T11:14:46.000Z</time>
      </trkpt>
      <trkpt lat="45.63107" lon="6.69233">
        <ele>2500.8000488281</ele>
        <time>2019-03-27T11:14:51.000Z</time>
      </trkpt>
      <trkpt lat="45.63107" lon="6.69233">
        <ele>2501.1999511719</ele>
        <time>2019-03-27T11:14:58.000Z</time>
      </trkpt>
      <trkpt lat="45.63107" lon="6.69233">
        <ele>2502</ele>
        <time>2019-03-27T11:14:59.000Z</time>
      </trkpt>
      <trkpt lat="45.63107" lon="6.69233">
        <ele>2503.3999023438</ele>
        <time>2019-03-27T11:15:01.000Z</time>
      </trkpt>
      <trkpt lat="45.63107" lon="6.69231">
        <ele>2502.8000488281</ele>
        <time>2019-03-27T11:15:07.000Z</time>
      </trkpt>
      <trkpt lat="45.63108" lon="6.69229">
        <ele>2503.8000488281</ele>
        <time>2019-03-27T11:15:16.000Z</time>
      </trkpt>
      <trkpt lat="45.63108" lon="6.69227">
        <ele>2504.3999023438</ele>
        <time>2019-03-27T11:15:19.000Z</time>
      </trkpt>
      <trkpt lat="45.63108" lon="6.69226">
        <ele>2505.3999023438</ele>
        <time>2019-03-27T11:15:25.000Z</time>
      </trkpt>
      <trkpt lat="45.63108" lon="6.69226">
        <ele>2505.6000976562</ele>
        <time>2019-03-27T11:15:26.000Z</time>
      </trkpt>
      <trkpt lat="45.63108" lon="6.69226">
        <ele>2506.6000976562</ele>
        <time>2019-03-27T11:15:31.000Z</time>
      </trkpt>
      <trkpt lat="45.63108" lon="6.69226">
        <ele>2506.8000488281</ele>
        <time>2019-03-27T11:15:36.000Z</time>
      </trkpt>
      <trkpt lat="45.63108" lon="6.69226">
        <ele>2506</ele>
        <time>2019-03-27T11:15:54.000Z</time>
      </trkpt>
      <trkpt lat="45.63107" lon="6.69226">
        <ele>2505</ele>
        <time>2019-03-27T11:16:03.000Z</time>
      </trkpt>
      <trkpt lat="45.63107" lon="6.69226">
        <ele>2506</ele>
        <time>2019-03-27T11:16:08.000Z</time>
      </trkpt>
      <trkpt lat="45.63107" lon="6.69226">
        <ele>2507.6000976562</ele>
        <time>2019-03-27T11:16:11.000Z</time>
      </trkpt>
      <trkpt lat="45.63107" lon="6.69226">
        <ele>2508.6000976562</ele>
        <time>2019-03-27T11:16:15.000Z</time>
      </trkpt>
      <trkpt lat="45.63102" lon="6.69225">
        <ele>2508</ele>
        <time>2019-03-27T11:16:21.000Z</time>
      </trkpt>
      <trkpt lat="45.63101" lon="6.69225">
        <ele>2507.6000976562</ele>
        <time>2019-03-27T11:16:24.000Z</time>
      </trkpt>
      <trkpt lat="45.631" lon="6.69225">
        <ele>2508.3999023438</ele>
        <time>2019-03-27T11:16:29.000Z</time>
      </trkpt>
      <trkpt lat="45.631" lon="6.69225">
        <ele>2508.6000976562</ele>
        <time>2019-03-27T11:16:35.000Z</time>
      </trkpt>
      <trkpt lat="45.631" lon="6.69225">
        <ele>2508.8000488281</ele>
        <time>2019-03-27T11:16:37.000Z</time>
      </trkpt>
      <trkpt lat="45.631" lon="6.69225">
        <ele>2510</ele>
        <time>2019-03-27T11:16:39.000Z</time>
      </trkpt>
      <trkpt lat="45.631" lon="6.69225">
        <ele>2511.1999511719</ele>
        <time>2019-03-27T11:16:41.000Z</time>
      </trkpt>
      <trkpt lat="45.631" lon="6.69225">
        <ele>2511.3999023438</ele>
        <time>2019-03-27T11:16:44.000Z</time>
      </trkpt>
      <trkpt lat="45.631" lon="6.69225">
        <ele>2510</ele>
        <time>2019-03-27T11:16:48.000Z</time>
      </trkpt>
      <trkpt lat="45.63101" lon="6.69224">
        <ele>2510.6000976562</ele>
        <time>2019-03-27T11:16:52.000Z</time>
      </trkpt>
      <trkpt lat="45.63101" lon="6.69223">
        <ele>2511</ele>
        <time>2019-03-27T11:16:53.000Z</time>
      </trkpt>
      <trkpt lat="45.63101" lon="6.69223">
        <ele>2511.8000488281</ele>
        <time>2019-03-27T11:17:02.000Z</time>
      </trkpt>
      <trkpt lat="45.63101" lon="6.69223">
        <ele>2511.3999023438</ele>
        <time>2019-03-27T11:17:14.000Z</time>
      </trkpt>
      <trkpt lat="45.63101" lon="6.69223">
        <ele>2511.3999023438</ele>
        <time>2019-03-27T11:17:28.000Z</time>
      </trkpt>
      <trkpt lat="45.63101" lon="6.69223">
        <ele>2511</ele>
        <time>2019-03-27T11:17:38.000Z</time>
      </trkpt>
      <trkpt lat="45.63101" lon="6.69223">
        <ele>2510</ele>
        <time>2019-03-27T11:17:41.000Z</time>
      </trkpt>
      <trkpt lat="45.63101" lon="6.69223">
        <ele>2512.3999023438</ele>
        <time>2019-03-27T11:17:44.000Z</time>
      </trkpt>
      <trkpt lat="45.63101" lon="6.69223">
        <ele>2512.1999511719</ele>
        <time>2019-03-27T11:17:47.000Z</time>
      </trkpt>
      <trkpt lat="45.63101" lon="6.69223">
        <ele>2511.3999023438</ele>
        <time>2019-03-27T11:17:53.000Z</time>
      </trkpt>
      <trkpt lat="45.63101" lon="6.69223">
        <ele>2511.6000976562</ele>
        <time>2019-03-27T11:18:00.000Z</time>
      </trkpt>
      <trkpt lat="45.63101" lon="6.69223">
        <ele>2511.6000976562</ele>
        <time>2019-03-27T11:18:17.000Z</time>
      </trkpt>
      <trkpt lat="45.63101" lon="6.69223">
        <ele>2511.6000976562</ele>
        <time>2019-03-27T11:18:30.000Z</time>
      </trkpt>
      <trkpt lat="45.63101" lon="6.69223">
        <ele>2511.6000976562</ele>
        <time>2019-03-27T11:18:45.000Z</time>
      </trkpt>
      <trkpt lat="45.63101" lon="6.69223">
        <ele>2511.6000976562</ele>
        <time>2019-03-27T11:18:59.000Z</time>
      </trkpt>
      <trkpt lat="45.63101" lon="6.69223">
        <ele>2511.3999023438</ele>
        <time>2019-03-27T11:19:11.000Z</time>
      </trkpt>
      <trkpt lat="45.63101" lon="6.69223">
        <ele>2511.3999023438</ele>
        <time>2019-03-27T11:19:24.000Z</time>
      </trkpt>
      <trkpt lat="45.63101" lon="6.69223">
        <ele>2512.8000488281</ele>
        <time>2019-03-27T11:19:32.000Z</time>
      </trkpt>
      <trkpt lat="45.63101" lon="6.69223">
        <ele>2513.3999023438</ele>
        <time>2019-03-27T11:19:34.000Z</time>
      </trkpt>
      <trkpt lat="45.63101" lon="6.69223">
        <ele>2511.8000488281</ele>
        <time>2019-03-27T11:19:40.000Z</time>
      </trkpt>
      <trkpt lat="45.63101" lon="6.69223">
        <ele>2511.6000976562</ele>
        <time>2019-03-27T11:19:50.000Z</time>
      </trkpt>
      <trkpt lat="45.63101" lon="6.69222">
        <ele>2512.8000488281</ele>
        <time>2019-03-27T11:19:58.000Z</time>
      </trkpt>
      <trkpt lat="45.63101" lon="6.69221">
        <ele>2512.8000488281</ele>
        <time>2019-03-27T11:20:05.000Z</time>
      </trkpt>
      <trkpt lat="45.63101" lon="6.6922">
        <ele>2514</ele>
        <time>2019-03-27T11:20:12.000Z</time>
      </trkpt>
      <trkpt lat="45.63101" lon="6.6922">
        <ele>2514</ele>
        <time>2019-03-27T11:20:13.000Z</time>
      </trkpt>
      <trkpt lat="45.63102" lon="6.69219">
        <ele>2515.1999511719</ele>
        <time>2019-03-27T11:20:18.000Z</time>
      </trkpt>
      <trkpt lat="45.63102" lon="6.69219">
        <ele>2515.6000976562</ele>
        <time>2019-03-27T11:20:19.000Z</time>
      </trkpt>
      <trkpt lat="45.63102" lon="6.69219">
        <ele>2516.1999511719</ele>
        <time>2019-03-27T11:20:21.000Z</time>
      </trkpt>
      <trkpt lat="45.63102" lon="6.69219">
        <ele>2515.8000488281</ele>
        <time>2019-03-27T11:20:25.000Z</time>
      </trkpt>
      <trkpt lat="45.63102" lon="6.69219">
        <ele>2515.1999511719</ele>
        <time>2019-03-27T11:20:27.000Z</time>
      </trkpt>
      <trkpt lat="45.63102" lon="6.69219">
        <ele>2516.1999511719</ele>
        <time>2019-03-27T11:20:32.000Z</time>
      </trkpt>
      <trkpt lat="45.63102" lon="6.69219">
        <ele>2517.1999511719</ele>
        <time>2019-03-27T11:20:41.000Z</time>
      </trkpt>
      <trkpt lat="45.63102" lon="6.69219">
        <ele>2516.6000976562</ele>
        <time>2019-03-27T11:20:49.000Z</time>
      </trkpt>
      <trkpt lat="45.63102" lon="6.69218">
        <ele>2518.8000488281</ele>
        <time>2019-03-27T11:20:55.000Z</time>
      </trkpt>
      <trkpt lat="45.63102" lon="6.69218">
        <ele>2519</ele>
        <time>2019-03-27T11:20:58.000Z</time>
      </trkpt>
      <trkpt lat="45.63102" lon="6.69218">
        <ele>2519.3999023438</ele>
        <time>2019-03-27T11:21:07.000Z</time>
      </trkpt>
      <trkpt lat="45.63102" lon="6.69218">
        <ele>2519.8000488281</ele>
        <time>2019-03-27T11:21:08.000Z</time>
      </trkpt>
      <trkpt lat="45.63102" lon="6.69218">
        <ele>2520.1999511719</ele>
        <time>2019-03-27T11:21:16.000Z</time>
      </trkpt>
      <trkpt lat="45.63102" lon="6.69218">
        <ele>2521.1999511719</ele>
        <time>2019-03-27T11:21:24.000Z</time>
      </trkpt>
      <trkpt lat="45.63102" lon="6.69218">
        <ele>2521.3999023438</ele>
        <time>2019-03-27T11:21:26.000Z</time>
      </trkpt>
      <trkpt lat="45.63102" lon="6.69218">
        <ele>2522.3999023438</ele>
        <time>2019-03-27T11:21:32.000Z</time>
      </trkpt>
      <trkpt lat="45.63102" lon="6.69217">
        <ele>2522.3999023438</ele>
        <time>2019-03-27T11:21:35.000Z</time>
      </trkpt>
      <trkpt lat="45.63102" lon="6.69217">
        <ele>2522.1999511719</ele>
        <time>2019-03-27T11:21:42.000Z</time>
      </trkpt>
      <trkpt lat="45.63101" lon="6.69216">
        <ele>2523.1999511719</ele>
        <time>2019-03-27T11:21:49.000Z</time>
      </trkpt>
      <trkpt lat="45.631" lon="6.69215">
        <ele>2522.6000976562</ele>
        <time>2019-03-27T11:21:59.000Z</time>
      </trkpt>
      <trkpt lat="45.631" lon="6.69215">
        <ele>2522.8000488281</ele>
        <time>2019-03-27T11:22:12.000Z</time>
      </trkpt>
      <trkpt lat="45.631" lon="6.69215">
        <ele>2523</ele>
        <time>2019-03-27T11:22:21.000Z</time>
      </trkpt>
      <trkpt lat="45.631" lon="6.69215">
        <ele>2523.6000976562</ele>
        <time>2019-03-27T11:22:28.000Z</time>
      </trkpt>
      <trkpt lat="45.631" lon="6.69215">
        <ele>2522.6000976562</ele>
        <time>2019-03-27T11:22:30.000Z</time>
      </trkpt>
      <trkpt lat="45.631" lon="6.69215">
        <ele>2523.6000976562</ele>
        <time>2019-03-27T11:22:36.000Z</time>
      </trkpt>
      <trkpt lat="45.631" lon="6.69215">
        <ele>2524</ele>
        <time>2019-03-27T11:22:39.000Z</time>
      </trkpt>
      <trkpt lat="45.631" lon="6.69215">
        <ele>2525</ele>
        <time>2019-03-27T11:22:42.000Z</time>
      </trkpt>
      <trkpt lat="45.631" lon="6.69215">
        <ele>2524.3999023438</ele>
        <time>2019-03-27T11:22:46.000Z</time>
      </trkpt>
      <trkpt lat="45.631" lon="6.69215">
        <ele>2523.8000488281</ele>
        <time>2019-03-27T11:22:48.000Z</time>
      </trkpt>
      <trkpt lat="45.63097" lon="6.69215">
        <ele>2522.6000976562</ele>
        <time>2019-03-27T11:22:53.000Z</time>
      </trkpt>
      <trkpt lat="45.63095" lon="6.69216">
        <ele>2522.1999511719</ele>
        <time>2019-03-27T11:22:55.000Z</time>
      </trkpt>
      <trkpt lat="45.63092" lon="6.69217">
        <ele>2521.3999023438</ele>
        <time>2019-03-27T11:22:59.000Z</time>
      </trkpt>
      <trkpt lat="45.6309" lon="6.69218">
        <ele>2521.1999511719</ele>
        <time>2019-03-27T11:23:01.000Z</time>
      </trkpt>
      <trkpt lat="45.63086" lon="6.69221">
        <ele>2520.3999023438</ele>
        <time>2019-03-27T11:23:06.000Z</time>
      </trkpt>
      <trkpt lat="45.63086" lon="6.69221">
        <ele>2519.3999023438</ele>
        <time>2019-03-27T11:23:13.000Z</time>
      </trkpt>
      <trkpt lat="45.63086" lon="6.69221">
        <ele>2520.8000488281</ele>
        <time>2019-03-27T11:23:24.000Z</time>
      </trkpt>
      <trkpt lat="45.63086" lon="6.69221">
        <ele>2520.6000976562</ele>
        <time>2019-03-27T11:23:36.000Z</time>
      </trkpt>
      <trkpt lat="45.63086" lon="6.69221">
        <ele>2518.3999023438</ele>
        <time>2019-03-27T11:23:39.000Z</time>
      </trkpt>
      <trkpt lat="45.63086" lon="6.69221">
        <ele>2516</ele>
        <time>2019-03-27T11:23:40.000Z</time>
      </trkpt>
      <trkpt lat="45.63086" lon="6.69221">
        <ele>2514</ele>
        <time>2019-03-27T11:23:41.000Z</time>
      </trkpt>
      <trkpt lat="45.63086" lon="6.69221">
        <ele>2512.3999023438</ele>
        <time>2019-03-27T11:23:43.000Z</time>
      </trkpt>
      <trkpt lat="45.63086" lon="6.69221">
        <ele>2516.3999023438</ele>
        <time>2019-03-27T11:23:45.000Z</time>
      </trkpt>
      <trkpt lat="45.63086" lon="6.69221">
        <ele>2517.6000976562</ele>
        <time>2019-03-27T11:23:46.000Z</time>
      </trkpt>
      <trkpt lat="45.63086" lon="6.69221">
        <ele>2519.6000976562</ele>
        <time>2019-03-27T11:23:47.000Z</time>
      </trkpt>
      <trkpt lat="45.63086" lon="6.69221">
        <ele>2521.8000488281</ele>
        <time>2019-03-27T11:23:48.000Z</time>
      </trkpt>
      <trkpt lat="45.63086" lon="6.69221">
        <ele>2524.1999511719</ele>
        <time>2019-03-27T11:23:49.000Z</time>
      </trkpt>
      <trkpt lat="45.63086" lon="6.69221">
        <ele>2524.3999023438</ele>
        <time>2019-03-27T11:23:50.000Z</time>
      </trkpt>
      <trkpt lat="45.63086" lon="6.69221">
        <ele>2523</ele>
        <time>2019-03-27T11:23:54.000Z</time>
      </trkpt>
      <trkpt lat="45.63086" lon="6.69221">
        <ele>2521.3999023438</ele>
        <time>2019-03-27T11:23:56.000Z</time>
      </trkpt>
      <trkpt lat="45.63086" lon="6.69221">
        <ele>2520.3999023438</ele>
        <time>2019-03-27T11:24:00.000Z</time>
      </trkpt>
      <trkpt lat="45.63086" lon="6.69221">
        <ele>2519.8000488281</ele>
        <time>2019-03-27T11:24:03.000Z</time>
      </trkpt>
      <trkpt lat="45.63086" lon="6.69221">
        <ele>2520.1999511719</ele>
        <time>2019-03-27T11:24:17.000Z</time>
      </trkpt>
      <trkpt lat="45.63086" lon="6.69221">
        <ele>2520</ele>
        <time>2019-03-27T11:24:34.000Z</time>
      </trkpt>
      <trkpt lat="45.63086" lon="6.69221">
        <ele>2519.8000488281</ele>
        <time>2019-03-27T11:24:45.000Z</time>
      </trkpt>
      <trkpt lat="45.63086" lon="6.69221">
        <ele>2518.6000976562</ele>
        <time>2019-03-27T11:24:54.000Z</time>
      </trkpt>
      <trkpt lat="45.63086" lon="6.69221">
        <ele>2518.1999511719</ele>
        <time>2019-03-27T11:24:55.000Z</time>
      </trkpt>
      <trkpt lat="45.63086" lon="6.69221">
        <ele>2520.3999023438</ele>
        <time>2019-03-27T11:24:58.000Z</time>
      </trkpt>
      <trkpt lat="45.63086" lon="6.69222">
        <ele>2519.6000976562</ele>
        <time>2019-03-27T11:25:05.000Z</time>
      </trkpt>
      <trkpt lat="45.63086" lon="6.69222">
        <ele>2519.3999023438</ele>
        <time>2019-03-27T11:25:06.000Z</time>
      </trkpt>
      <trkpt lat="45.63086" lon="6.69222">
        <ele>2520</ele>
        <time>2019-03-27T11:25:16.000Z</time>
      </trkpt>
      <trkpt lat="45.63086" lon="6.69222">
        <ele>2519.3999023438</ele>
        <time>2019-03-27T11:25:25.000Z</time>
      </trkpt>
      <trkpt lat="45.63086" lon="6.69222">
        <ele>2519.6000976562</ele>
        <time>2019-03-27T11:25:39.000Z</time>
      </trkpt>
      <trkpt lat="45.63086" lon="6.69222">
        <ele>2520.1999511719</ele>
        <time>2019-03-27T11:25:45.000Z</time>
      </trkpt>
      <trkpt lat="45.63086" lon="6.69222">
        <ele>2519.3999023438</ele>
        <time>2019-03-27T11:25:56.000Z</time>
      </trkpt>
      <trkpt lat="45.63086" lon="6.69222">
        <ele>2519.1999511719</ele>
        <time>2019-03-27T11:26:01.000Z</time>
      </trkpt>
      <trkpt lat="45.63086" lon="6.69222">
        <ele>2519.1999511719</ele>
        <time>2019-03-27T11:26:13.000Z</time>
      </trkpt>
      <trkpt lat="45.63085" lon="6.69222">
        <ele>2519.3999023438</ele>
        <time>2019-03-27T11:26:27.000Z</time>
      </trkpt>
      <trkpt lat="45.63085" lon="6.69222">
        <ele>2519.3999023438</ele>
        <time>2019-03-27T11:26:51.000Z</time>
      </trkpt>
      <trkpt lat="45.63085" lon="6.69222">
        <ele>2519.8000488281</ele>
        <time>2019-03-27T11:27:13.000Z</time>
      </trkpt>
      <trkpt lat="45.63086" lon="6.69221">
        <ele>2430.1999511719</ele>
        <time>2019-03-27T12:47:27.000Z</time>
      </trkpt>
      <trkpt lat="45.63086" lon="6.69221">
        <ele>2430.1999511719</ele>
        <time>2019-03-27T12:47:41.000Z</time>
      </trkpt>
      <trkpt lat="45.63086" lon="6.69222">
        <ele>2430.1999511719</ele>
        <time>2019-03-27T12:47:45.000Z</time>
      </trkpt>
      <trkpt lat="45.63083" lon="6.69223">
        <ele>2429.8000488281</ele>
        <time>2019-03-27T12:47:54.000Z</time>
      </trkpt>
      <trkpt lat="45.6308" lon="6.69227">
        <ele>2429.6000976562</ele>
        <time>2019-03-27T12:47:57.000Z</time>
      </trkpt>
      <trkpt lat="45.63072" lon="6.6923">
        <ele>2428.3999023438</ele>
        <time>2019-03-27T12:47:59.000Z</time>
      </trkpt>
      <trkpt lat="45.63069" lon="6.69231">
        <ele>2427.3999023438</ele>
        <time>2019-03-27T12:48:00.000Z</time>
      </trkpt>
      <trkpt lat="45.63066" lon="6.69226">
        <ele>2426.1999511719</ele>
        <time>2019-03-27T12:48:01.000Z</time>
      </trkpt>
      <trkpt lat="45.63064" lon="6.69224">
        <ele>2425</ele>
        <time>2019-03-27T12:48:02.000Z</time>
      </trkpt>
      <trkpt lat="45.6306" lon="6.69223">
        <ele>2421.8000488281</ele>
        <time>2019-03-27T12:48:03.000Z</time>
      </trkpt>
      <trkpt lat="45.63055" lon="6.69219">
        <ele>2420.3999023438</ele>
        <time>2019-03-27T12:48:04.000Z</time>
      </trkpt>
      <trkpt lat="45.63051" lon="6.69212">
        <ele>2419.6000976562</ele>
        <time>2019-03-27T12:48:05.000Z</time>
      </trkpt>
      <trkpt lat="45.63046" lon="6.69206">
        <ele>2418.1999511719</ele>
        <time>2019-03-27T12:48:06.000Z</time>
      </trkpt>
      <trkpt lat="45.63041" lon="6.69203">
        <ele>2415.8000488281</ele>
        <time>2019-03-27T12:48:07.000Z</time>
      </trkpt>
      <trkpt lat="45.63037" lon="6.692">
        <ele>2413.1999511719</ele>
        <time>2019-03-27T12:48:08.000Z</time>
      </trkpt>
      <trkpt lat="45.6303" lon="6.69197">
        <ele>2411.1999511719</ele>
        <time>2019-03-27T12:48:09.000Z</time>
      </trkpt>
      <trkpt lat="45.63024" lon="6.69191">
        <ele>2409</ele>
        <time>2019-03-27T12:48:10.000Z</time>
      </trkpt>
      <trkpt lat="45.63017" lon="6.69184">
        <ele>2405.1999511719</ele>
        <time>2019-03-27T12:48:11.000Z</time>
      </trkpt>
      <trkpt lat="45.63009" lon="6.69178">
        <ele>2401.1999511719</ele>
        <time>2019-03-27T12:48:12.000Z</time>
      </trkpt>
      <trkpt lat="45.63003" lon="6.69172">
        <ele>2398.1999511719</ele>
        <time>2019-03-27T12:48:13.000Z</time>
      </trkpt>
      <trkpt lat="45.62998" lon="6.69165">
        <ele>2396</ele>
        <time>2019-03-27T12:48:14.000Z</time>
      </trkpt>
      <trkpt lat="45.62992" lon="6.69162">
        <ele>2393.1999511719</ele>
        <time>2019-03-27T12:48:15.000Z</time>
      </trkpt>
      <trkpt lat="45.62986" lon="6.69157">
        <ele>2389.3999023438</ele>
        <time>2019-03-27T12:48:16.000Z</time>
      </trkpt>
      <trkpt lat="45.62981" lon="6.69149">
        <ele>2386.6000976562</ele>
        <time>2019-03-27T12:48:17.000Z</time>
      </trkpt>
      <trkpt lat="45.62976" lon="6.69141">
        <ele>2384.6000976562</ele>
        <time>2019-03-27T12:48:18.000Z</time>
      </trkpt>
      <trkpt lat="45.62972" lon="6.69136">
        <ele>2382.3999023438</ele>
        <time>2019-03-27T12:48:19.000Z</time>
      </trkpt>
      <trkpt lat="45.62967" lon="6.69131">
        <ele>2379.6000976562</ele>
        <time>2019-03-27T12:48:20.000Z</time>
      </trkpt>
      <trkpt lat="45.62962" lon="6.69123">
        <ele>2376.8000488281</ele>
        <time>2019-03-27T12:48:21.000Z</time>
      </trkpt>
      <trkpt lat="45.62959" lon="6.69117">
        <ele>2374.3999023438</ele>
        <time>2019-03-27T12:48:22.000Z</time>
      </trkpt>
      <trkpt lat="45.62953" lon="6.69111">
        <ele>2371.3999023438</ele>
        <time>2019-03-27T12:48:23.000Z</time>
      </trkpt>
      <trkpt lat="45.62948" lon="6.69106">
        <ele>2368.1999511719</ele>
        <time>2019-03-27T12:48:24.000Z</time>
      </trkpt>
      <trkpt lat="45.62942" lon="6.69099">
        <ele>2365.8000488281</ele>
        <time>2019-03-27T12:48:25.000Z</time>
      </trkpt>
      <trkpt lat="45.62935" lon="6.69096">
        <ele>2363.3999023438</ele>
        <time>2019-03-27T12:48:26.000Z</time>
      </trkpt>
      <trkpt lat="45.6293" lon="6.6909">
        <ele>2357.3999023438</ele>
        <time>2019-03-27T12:48:27.000Z</time>
      </trkpt>
      <trkpt lat="45.62924" lon="6.69084">
        <ele>2354.3999023438</ele>
        <time>2019-03-27T12:48:28.000Z</time>
      </trkpt>
      <trkpt lat="45.62922" lon="6.69075">
        <ele>2351.1999511719</ele>
        <time>2019-03-27T12:48:29.000Z</time>
      </trkpt>
      <trkpt lat="45.62917" lon="6.6907">
        <ele>2348</ele>
        <time>2019-03-27T12:48:30.000Z</time>
      </trkpt>
      <trkpt lat="45.62914" lon="6.69063">
        <ele>2345.1999511719</ele>
        <time>2019-03-27T12:48:31.000Z</time>
      </trkpt>
      <trkpt lat="45.6291" lon="6.69056">
        <ele>2343.3999023438</ele>
        <time>2019-03-27T12:48:32.000Z</time>
      </trkpt>
      <trkpt lat="45.62906" lon="6.69051">
        <ele>2341.6000976562</ele>
        <time>2019-03-27T12:48:33.000Z</time>
      </trkpt>
      <trkpt lat="45.62901" lon="6.69045">
        <ele>2339.3999023438</ele>
        <time>2019-03-27T12:48:34.000Z</time>
      </trkpt>
      <trkpt lat="45.62896" lon="6.69037">
        <ele>2337.6000976562</ele>
        <time>2019-03-27T12:48:35.000Z</time>
      </trkpt>
      <trkpt lat="45.62893" lon="6.69029">
        <ele>2336</ele>
        <time>2019-03-27T12:48:36.000Z</time>
      </trkpt>
      <trkpt lat="45.6289" lon="6.69021">
        <ele>2334.1999511719</ele>
        <time>2019-03-27T12:48:37.000Z</time>
      </trkpt>
      <trkpt lat="45.62889" lon="6.69013">
        <ele>2332.1999511719</ele>
        <time>2019-03-27T12:48:38.000Z</time>
      </trkpt>
      <trkpt lat="45.62887" lon="6.69005">
        <ele>2330.3999023438</ele>
        <time>2019-03-27T12:48:39.000Z</time>
      </trkpt>
      <trkpt lat="45.6289" lon="6.68997">
        <ele>2328.8000488281</ele>
        <time>2019-03-27T12:48:40.000Z</time>
      </trkpt>
      <trkpt lat="45.62889" lon="6.68988">
        <ele>2327</ele>
        <time>2019-03-27T12:48:41.000Z</time>
      </trkpt>
      <trkpt lat="45.62887" lon="6.68983">
        <ele>2325.3999023438</ele>
        <time>2019-03-27T12:48:42.000Z</time>
      </trkpt>
      <trkpt lat="45.62885" lon="6.6898">
        <ele>2324.1999511719</ele>
        <time>2019-03-27T12:48:43.000Z</time>
      </trkpt>
      <trkpt lat="45.62886" lon="6.68978">
        <ele>2323</ele>
        <time>2019-03-27T12:48:44.000Z</time>
      </trkpt>
      <trkpt lat="45.62886" lon="6.68978">
        <ele>2321.3999023438</ele>
        <time>2019-03-27T12:48:45.000Z</time>
      </trkpt>
      <trkpt lat="45.62886" lon="6.68978">
        <ele>2319.8000488281</ele>
        <time>2019-03-27T12:48:46.000Z</time>
      </trkpt>
      <trkpt lat="45.62886" lon="6.68978">
        <ele>2318.1999511719</ele>
        <time>2019-03-27T12:48:47.000Z</time>
      </trkpt>
      <trkpt lat="45.62886" lon="6.68978">
        <ele>2317</ele>
        <time>2019-03-27T12:48:48.000Z</time>
      </trkpt>
      <trkpt lat="45.62886" lon="6.68978">
        <ele>2315.8000488281</ele>
        <time>2019-03-27T12:48:50.000Z</time>
      </trkpt>
      <trkpt lat="45.62886" lon="6.68978">
        <ele>2315.1999511719</ele>
        <time>2019-03-27T12:48:57.000Z</time>
      </trkpt>
      <trkpt lat="45.62886" lon="6.68978">
        <ele>2314.8000488281</ele>
        <time>2019-03-27T12:49:09.000Z</time>
      </trkpt>
      <trkpt lat="45.62886" lon="6.68978">
        <ele>2314.8000488281</ele>
        <time>2019-03-27T12:49:23.000Z</time>
      </trkpt>
      <trkpt lat="45.62886" lon="6.68978">
        <ele>2314.6000976562</ele>
        <time>2019-03-27T12:49:24.000Z</time>
      </trkpt>
      <trkpt lat="45.62887" lon="6.68978">
        <ele>2314.6000976562</ele>
        <time>2019-03-27T12:49:42.000Z</time>
      </trkpt>
      <trkpt lat="45.6289" lon="6.68968">
        <ele>2314.3999023438</ele>
        <time>2019-03-27T12:49:52.000Z</time>
      </trkpt>
      <trkpt lat="45.62884" lon="6.68955">
        <ele>2314</ele>
        <time>2019-03-27T12:49:54.000Z</time>
      </trkpt>
      <trkpt lat="45.62878" lon="6.6895">
        <ele>2313.6000976562</ele>
        <time>2019-03-27T12:49:55.000Z</time>
      </trkpt>
      <trkpt lat="45.62876" lon="6.68941">
        <ele>2313</ele>
        <time>2019-03-27T12:49:56.000Z</time>
      </trkpt>
      <trkpt lat="45.62875" lon="6.68932">
        <ele>2312.1999511719</ele>
        <time>2019-03-27T12:49:57.000Z</time>
      </trkpt>
      <trkpt lat="45.6287" lon="6.68926">
        <ele>2310.8000488281</ele>
        <time>2019-03-27T12:49:58.000Z</time>
      </trkpt>
      <trkpt lat="45.62867" lon="6.68917">
        <ele>2309</ele>
        <time>2019-03-27T12:49:59.000Z</time>
      </trkpt>
      <trkpt lat="45.62865" lon="6.68907">
        <ele>2307.3999023438</ele>
        <time>2019-03-27T12:50:00.000Z</time>
      </trkpt>
      <trkpt lat="45.62862" lon="6.68902">
        <ele>2305.8000488281</ele>
        <time>2019-03-27T12:50:01.000Z</time>
      </trkpt>
      <trkpt lat="45.62857" lon="6.68897">
        <ele>2304.1999511719</ele>
        <time>2019-03-27T12:50:02.000Z</time>
      </trkpt>
      <trkpt lat="45.62853" lon="6.6889">
        <ele>2300.6000976562</ele>
        <time>2019-03-27T12:50:03.000Z</time>
      </trkpt>
      <trkpt lat="45.62849" lon="6.68887">
        <ele>2298.6000976562</ele>
        <time>2019-03-27T12:50:04.000Z</time>
      </trkpt>
      <trkpt lat="45.62842" lon="6.68883">
        <ele>2296.1999511719</ele>
        <time>2019-03-27T12:50:05.000Z</time>
      </trkpt>
      <trkpt lat="45.62838" lon="6.68875">
        <ele>2293.6000976562</ele>
        <time>2019-03-27T12:50:06.000Z</time>
      </trkpt>
      <trkpt lat="45.62832" lon="6.68871">
        <ele>2290.6000976562</ele>
        <time>2019-03-27T12:50:07.000Z</time>
      </trkpt>
      <trkpt lat="45.62827" lon="6.68865">
        <ele>2287.3999023438</ele>
        <time>2019-03-27T12:50:08.000Z</time>
      </trkpt>
      <trkpt lat="45.62821" lon="6.68857">
        <ele>2284.3999023438</ele>
        <time>2019-03-27T12:50:09.000Z</time>
      </trkpt>
      <trkpt lat="45.62814" lon="6.68849">
        <ele>2281.6000976562</ele>
        <time>2019-03-27T12:50:10.000Z</time>
      </trkpt>
      <trkpt lat="45.62804" lon="6.68846">
        <ele>2278.6000976562</ele>
        <time>2019-03-27T12:50:11.000Z</time>
      </trkpt>
      <trkpt lat="45.62795" lon="6.68844">
        <ele>2275.6000976562</ele>
        <time>2019-03-27T12:50:12.000Z</time>
      </trkpt>
      <trkpt lat="45.62789" lon="6.68837">
        <ele>2273</ele>
        <time>2019-03-27T12:50:13.000Z</time>
      </trkpt>
      <trkpt lat="45.62779" lon="6.68834">
        <ele>2270.8000488281</ele>
        <time>2019-03-27T12:50:14.000Z</time>
      </trkpt>
      <trkpt lat="45.62769" lon="6.6883">
        <ele>2268.3999023438</ele>
        <time>2019-03-27T12:50:15.000Z</time>
      </trkpt>
      <trkpt lat="45.6276" lon="6.68824">
        <ele>2266</ele>
        <time>2019-03-27T12:50:16.000Z</time>
      </trkpt>
      <trkpt lat="45.62749" lon="6.68823">
        <ele>2263.8000488281</ele>
        <time>2019-03-27T12:50:17.000Z</time>
      </trkpt>
      <trkpt lat="45.62741" lon="6.68818">
        <ele>2261.3999023438</ele>
        <time>2019-03-27T12:50:18.000Z</time>
      </trkpt>
      <trkpt lat="45.62734" lon="6.68815">
        <ele>2258.8000488281</ele>
        <time>2019-03-27T12:50:19.000Z</time>
      </trkpt>
      <trkpt lat="45.62725" lon="6.68813">
        <ele>2256.1999511719</ele>
        <time>2019-03-27T12:50:20.000Z</time>
      </trkpt>
      <trkpt lat="45.62719" lon="6.68808">
        <ele>2253.8000488281</ele>
        <time>2019-03-27T12:50:21.000Z</time>
      </trkpt>
      <trkpt lat="45.62711" lon="6.68806">
        <ele>2251.6000976562</ele>
        <time>2019-03-27T12:50:22.000Z</time>
      </trkpt>
      <trkpt lat="45.62704" lon="6.68803">
        <ele>2249.8000488281</ele>
        <time>2019-03-27T12:50:23.000Z</time>
      </trkpt>
      <trkpt lat="45.62698" lon="6.68799">
        <ele>2248</ele>
        <time>2019-03-27T12:50:24.000Z</time>
      </trkpt>
      <trkpt lat="45.62694" lon="6.68793">
        <ele>2246.3999023438</ele>
        <time>2019-03-27T12:50:25.000Z</time>
      </trkpt>
      <trkpt lat="45.62687" lon="6.68792">
        <ele>2244</ele>
        <time>2019-03-27T12:50:26.000Z</time>
      </trkpt>
      <trkpt lat="45.62681" lon="6.6879">
        <ele>2239</ele>
        <time>2019-03-27T12:50:27.000Z</time>
      </trkpt>
      <trkpt lat="45.62674" lon="6.68786">
        <ele>2237.3999023438</ele>
        <time>2019-03-27T12:50:28.000Z</time>
      </trkpt>
      <trkpt lat="45.62667" lon="6.68784">
        <ele>2235.3999023438</ele>
        <time>2019-03-27T12:50:29.000Z</time>
      </trkpt>
      <trkpt lat="45.6266" lon="6.68781">
        <ele>2232.8000488281</ele>
        <time>2019-03-27T12:50:30.000Z</time>
      </trkpt>
      <trkpt lat="45.62651" lon="6.68778">
        <ele>2230</ele>
        <time>2019-03-27T12:50:31.000Z</time>
      </trkpt>
      <trkpt lat="45.62642" lon="6.68774">
        <ele>2227.1999511719</ele>
        <time>2019-03-27T12:50:32.000Z</time>
      </trkpt>
      <trkpt lat="45.62632" lon="6.68776">
        <ele>2224</ele>
        <time>2019-03-27T12:50:33.000Z</time>
      </trkpt>
      <trkpt lat="45.6262" lon="6.68775">
        <ele>2220.6000976562</ele>
        <time>2019-03-27T12:50:34.000Z</time>
      </trkpt>
      <trkpt lat="45.6261" lon="6.68773">
        <ele>2217.3999023438</ele>
        <time>2019-03-27T12:50:35.000Z</time>
      </trkpt>
      <trkpt lat="45.62601" lon="6.6877">
        <ele>2214.1999511719</ele>
        <time>2019-03-27T12:50:36.000Z</time>
      </trkpt>
      <trkpt lat="45.62594" lon="6.68768">
        <ele>2210.6000976562</ele>
        <time>2019-03-27T12:50:37.000Z</time>
      </trkpt>
      <trkpt lat="45.62587" lon="6.68766">
        <ele>2207</ele>
        <time>2019-03-27T12:50:38.000Z</time>
      </trkpt>
      <trkpt lat="45.6258" lon="6.68762">
        <ele>2204.3999023438</ele>
        <time>2019-03-27T12:50:39.000Z</time>
      </trkpt>
      <trkpt lat="45.62574" lon="6.68755">
        <ele>2201.8000488281</ele>
        <time>2019-03-27T12:50:40.000Z</time>
      </trkpt>
      <trkpt lat="45.6257" lon="6.68746">
        <ele>2199</ele>
        <time>2019-03-27T12:50:41.000Z</time>
      </trkpt>
      <trkpt lat="45.62562" lon="6.6874">
        <ele>2195.8000488281</ele>
        <time>2019-03-27T12:50:42.000Z</time>
      </trkpt>
      <trkpt lat="45.62552" lon="6.68738">
        <ele>2193.3999023438</ele>
        <time>2019-03-27T12:50:43.000Z</time>
      </trkpt>
      <trkpt lat="45.62544" lon="6.68734">
        <ele>2191.1999511719</ele>
        <time>2019-03-27T12:50:44.000Z</time>
      </trkpt>
      <trkpt lat="45.62534" lon="6.68729">
        <ele>2189</ele>
        <time>2019-03-27T12:50:45.000Z</time>
      </trkpt>
      <trkpt lat="45.62524" lon="6.68727">
        <ele>2186.8000488281</ele>
        <time>2019-03-27T12:50:46.000Z</time>
      </trkpt>
      <trkpt lat="45.62515" lon="6.68723">
        <ele>2184.1999511719</ele>
        <time>2019-03-27T12:50:47.000Z</time>
      </trkpt>
      <trkpt lat="45.62505" lon="6.68719">
        <ele>2182</ele>
        <time>2019-03-27T12:50:48.000Z</time>
      </trkpt>
      <trkpt lat="45.62496" lon="6.6872">
        <ele>2179.1999511719</ele>
        <time>2019-03-27T12:50:49.000Z</time>
      </trkpt>
      <trkpt lat="45.62487" lon="6.68718">
        <ele>2176.1999511719</ele>
        <time>2019-03-27T12:50:50.000Z</time>
      </trkpt>
      <trkpt lat="45.62482" lon="6.68716">
        <ele>2171</ele>
        <time>2019-03-27T12:50:51.000Z</time>
      </trkpt>
      <trkpt lat="45.62475" lon="6.68708">
        <ele>2168.3999023438</ele>
        <time>2019-03-27T12:50:52.000Z</time>
      </trkpt>
      <trkpt lat="45.62467" lon="6.68703">
        <ele>2165.8000488281</ele>
        <time>2019-03-27T12:50:53.000Z</time>
      </trkpt>
      <trkpt lat="45.62462" lon="6.68693">
        <ele>2163.6000976562</ele>
        <time>2019-03-27T12:50:54.000Z</time>
      </trkpt>
      <trkpt lat="45.62456" lon="6.68683">
        <ele>2162</ele>
        <time>2019-03-27T12:50:55.000Z</time>
      </trkpt>
      <trkpt lat="45.62449" lon="6.68674">
        <ele>2160</ele>
        <time>2019-03-27T12:50:56.000Z</time>
      </trkpt>
      <trkpt lat="45.62444" lon="6.68668">
        <ele>2157.8000488281</ele>
        <time>2019-03-27T12:50:57.000Z</time>
      </trkpt>
      <trkpt lat="45.62436" lon="6.68671">
        <ele>2155.6000976562</ele>
        <time>2019-03-27T12:50:58.000Z</time>
      </trkpt>
      <trkpt lat="45.62429" lon="6.68672">
        <ele>2153.6000976562</ele>
        <time>2019-03-27T12:50:59.000Z</time>
      </trkpt>
      <trkpt lat="45.62423" lon="6.68672">
        <ele>2151.1999511719</ele>
        <time>2019-03-27T12:51:00.000Z</time>
      </trkpt>
      <trkpt lat="45.62418" lon="6.68665">
        <ele>2148.3999023438</ele>
        <time>2019-03-27T12:51:01.000Z</time>
      </trkpt>
      <trkpt lat="45.6241" lon="6.6866">
        <ele>2145.8000488281</ele>
        <time>2019-03-27T12:51:02.000Z</time>
      </trkpt>
      <trkpt lat="45.624" lon="6.68653">
        <ele>2143.8000488281</ele>
        <time>2019-03-27T12:51:03.000Z</time>
      </trkpt>
      <trkpt lat="45.62391" lon="6.68648">
        <ele>2142.1999511719</ele>
        <time>2019-03-27T12:51:04.000Z</time>
      </trkpt>
      <trkpt lat="45.62383" lon="6.6865">
        <ele>2140.1999511719</ele>
        <time>2019-03-27T12:51:05.000Z</time>
      </trkpt>
      <trkpt lat="45.62377" lon="6.68655">
        <ele>2137.6000976562</ele>
        <time>2019-03-27T12:51:06.000Z</time>
      </trkpt>
      <trkpt lat="45.62371" lon="6.68657">
        <ele>2134.8000488281</ele>
        <time>2019-03-27T12:51:07.000Z</time>
      </trkpt>
      <trkpt lat="45.62367" lon="6.68656">
        <ele>2132</ele>
        <time>2019-03-27T12:51:08.000Z</time>
      </trkpt>
      <trkpt lat="45.62359" lon="6.68653">
        <ele>2128.6000976562</ele>
        <time>2019-03-27T12:51:09.000Z</time>
      </trkpt>
      <trkpt lat="45.62351" lon="6.6865">
        <ele>2125.3999023438</ele>
        <time>2019-03-27T12:51:10.000Z</time>
      </trkpt>
      <trkpt lat="45.62344" lon="6.68644">
        <ele>2123</ele>
        <time>2019-03-27T12:51:11.000Z</time>
      </trkpt>
      <trkpt lat="45.62335" lon="6.68638">
        <ele>2121.6000976562</ele>
        <time>2019-03-27T12:51:12.000Z</time>
      </trkpt>
      <trkpt lat="45.62325" lon="6.68637">
        <ele>2119.8000488281</ele>
        <time>2019-03-27T12:51:13.000Z</time>
      </trkpt>
      <trkpt lat="45.62315" lon="6.68637">
        <ele>2116.6000976562</ele>
        <time>2019-03-27T12:51:14.000Z</time>
      </trkpt>
      <trkpt lat="45.62306" lon="6.68639">
        <ele>2108.6000976562</ele>
        <time>2019-03-27T12:51:15.000Z</time>
      </trkpt>
      <trkpt lat="45.62297" lon="6.6864">
        <ele>2105.3999023438</ele>
        <time>2019-03-27T12:51:16.000Z</time>
      </trkpt>
      <trkpt lat="45.6229" lon="6.6864">
        <ele>2102.8000488281</ele>
        <time>2019-03-27T12:51:17.000Z</time>
      </trkpt>
      <trkpt lat="45.62286" lon="6.68641">
        <ele>2100.6000976562</ele>
        <time>2019-03-27T12:51:18.000Z</time>
      </trkpt>
      <trkpt lat="45.62282" lon="6.6864">
        <ele>2098.8000488281</ele>
        <time>2019-03-27T12:51:19.000Z</time>
      </trkpt>
      <trkpt lat="45.62279" lon="6.68639">
        <ele>2097.3999023438</ele>
        <time>2019-03-27T12:51:20.000Z</time>
      </trkpt>
      <trkpt lat="45.62269" lon="6.68637">
        <ele>2096</ele>
        <time>2019-03-27T12:51:22.000Z</time>
      </trkpt>
      <trkpt lat="45.62265" lon="6.68633">
        <ele>2095.8000488281</ele>
        <time>2019-03-27T12:51:23.000Z</time>
      </trkpt>
      <trkpt lat="45.62259" lon="6.68629">
        <ele>2095.3999023438</ele>
        <time>2019-03-27T12:51:24.000Z</time>
      </trkpt>
      <trkpt lat="45.62251" lon="6.68627">
        <ele>2094.8000488281</ele>
        <time>2019-03-27T12:51:25.000Z</time>
      </trkpt>
      <trkpt lat="45.62239" lon="6.68624">
        <ele>2092.3999023438</ele>
        <time>2019-03-27T12:51:27.000Z</time>
      </trkpt>
      <trkpt lat="45.62235" lon="6.68619">
        <ele>2090.6000976562</ele>
        <time>2019-03-27T12:51:28.000Z</time>
      </trkpt>
      <trkpt lat="45.6223" lon="6.68608">
        <ele>2088.3999023438</ele>
        <time>2019-03-27T12:51:29.000Z</time>
      </trkpt>
      <trkpt lat="45.62224" lon="6.68596">
        <ele>2086.3999023438</ele>
        <time>2019-03-27T12:51:30.000Z</time>
      </trkpt>
      <trkpt lat="45.62216" lon="6.68592">
        <ele>2084.8000488281</ele>
        <time>2019-03-27T12:51:31.000Z</time>
      </trkpt>
      <trkpt lat="45.62212" lon="6.68586">
        <ele>2083.6000976562</ele>
        <time>2019-03-27T12:51:32.000Z</time>
      </trkpt>
      <trkpt lat="45.62201" lon="6.68574">
        <ele>2081.3999023438</ele>
        <time>2019-03-27T12:51:34.000Z</time>
      </trkpt>
      <trkpt lat="45.62194" lon="6.68573">
        <ele>2079.1999511719</ele>
        <time>2019-03-27T12:51:35.000Z</time>
      </trkpt>
      <trkpt lat="45.62189" lon="6.68569">
        <ele>2076.8000488281</ele>
        <time>2019-03-27T12:51:36.000Z</time>
      </trkpt>
      <trkpt lat="45.62184" lon="6.68561">
        <ele>2075</ele>
        <time>2019-03-27T12:51:37.000Z</time>
      </trkpt>
      <trkpt lat="45.6218" lon="6.68553">
        <ele>2073.3999023438</ele>
        <time>2019-03-27T12:51:38.000Z</time>
      </trkpt>
      <trkpt lat="45.62175" lon="6.68546">
        <ele>2069.6000976562</ele>
        <time>2019-03-27T12:51:39.000Z</time>
      </trkpt>
      <trkpt lat="45.62173" lon="6.68536">
        <ele>2067.8000488281</ele>
        <time>2019-03-27T12:51:40.000Z</time>
      </trkpt>
      <trkpt lat="45.62165" lon="6.68531">
        <ele>2066.1999511719</ele>
        <time>2019-03-27T12:51:41.000Z</time>
      </trkpt>
      <trkpt lat="45.6216" lon="6.68526">
        <ele>2064.3999023438</ele>
        <time>2019-03-27T12:51:42.000Z</time>
      </trkpt>
      <trkpt lat="45.62155" lon="6.68517">
        <ele>2062.6000976562</ele>
        <time>2019-03-27T12:51:43.000Z</time>
      </trkpt>
      <trkpt lat="45.62147" lon="6.68516">
        <ele>2060.6000976562</ele>
        <time>2019-03-27T12:51:44.000Z</time>
      </trkpt>
      <trkpt lat="45.62141" lon="6.6852">
        <ele>2058.6000976562</ele>
        <time>2019-03-27T12:51:45.000Z</time>
      </trkpt>
      <trkpt lat="45.62136" lon="6.68519">
        <ele>2056.6000976562</ele>
        <time>2019-03-27T12:51:46.000Z</time>
      </trkpt>
      <trkpt lat="45.62133" lon="6.68515">
        <ele>2054.3999023438</ele>
        <time>2019-03-27T12:51:47.000Z</time>
      </trkpt>
      <trkpt lat="45.62129" lon="6.68516">
        <ele>2052.1999511719</ele>
        <time>2019-03-27T12:51:48.000Z</time>
      </trkpt>
      <trkpt lat="45.62129" lon="6.68518">
        <ele>2050.1999511719</ele>
        <time>2019-03-27T12:51:49.000Z</time>
      </trkpt>
      <trkpt lat="45.6213" lon="6.68519">
        <ele>2049</ele>
        <time>2019-03-27T12:51:50.000Z</time>
      </trkpt>
      <trkpt lat="45.6213" lon="6.68518">
        <ele>2047</ele>
        <time>2019-03-27T12:51:52.000Z</time>
      </trkpt>
      <trkpt lat="45.6213" lon="6.68518">
        <ele>2045.1999511719</ele>
        <time>2019-03-27T12:51:54.000Z</time>
      </trkpt>
      <trkpt lat="45.6213" lon="6.68518">
        <ele>2044.1999511719</ele>
        <time>2019-03-27T12:51:56.000Z</time>
      </trkpt>
      <trkpt lat="45.6213" lon="6.68518">
        <ele>2043.4000244141</ele>
        <time>2019-03-27T12:52:05.000Z</time>
      </trkpt>
      <trkpt lat="45.6213" lon="6.68518">
        <ele>2043.4000244141</ele>
        <time>2019-03-27T12:52:18.000Z</time>
      </trkpt>
      <trkpt lat="45.6213" lon="6.68517">
        <ele>2043.1999511719</ele>
        <time>2019-03-27T12:52:31.000Z</time>
      </trkpt>
      <trkpt lat="45.62129" lon="6.68517">
        <ele>2043.1999511719</ele>
        <time>2019-03-27T12:52:43.000Z</time>
      </trkpt>
      <trkpt lat="45.62126" lon="6.68518">
        <ele>2043.1999511719</ele>
        <time>2019-03-27T12:52:44.000Z</time>
      </trkpt>
      <trkpt lat="45.62121" lon="6.68519">
        <ele>2043.1999511719</ele>
        <time>2019-03-27T12:52:45.000Z</time>
      </trkpt>
      <trkpt lat="45.6211" lon="6.68517">
        <ele>2043.1999511719</ele>
        <time>2019-03-27T12:52:47.000Z</time>
      </trkpt>
      <trkpt lat="45.62108" lon="6.6851">
        <ele>2043</ele>
        <time>2019-03-27T12:52:48.000Z</time>
      </trkpt>
      <trkpt lat="45.62104" lon="6.6851">
        <ele>2042.8000488281</ele>
        <time>2019-03-27T12:52:49.000Z</time>
      </trkpt>
      <trkpt lat="45.62089" lon="6.68509">
        <ele>2040.4000244141</ele>
        <time>2019-03-27T12:52:51.000Z</time>
      </trkpt>
      <trkpt lat="45.62081" lon="6.68516">
        <ele>2038.5999755859</ele>
        <time>2019-03-27T12:52:53.000Z</time>
      </trkpt>
      <trkpt lat="45.62075" lon="6.68521">
        <ele>2037.4000244141</ele>
        <time>2019-03-27T12:52:54.000Z</time>
      </trkpt>
      <trkpt lat="45.6207" lon="6.6852">
        <ele>2036</ele>
        <time>2019-03-27T12:52:55.000Z</time>
      </trkpt>
      <trkpt lat="45.62062" lon="6.68518">
        <ele>2034</ele>
        <time>2019-03-27T12:52:56.000Z</time>
      </trkpt>
      <trkpt lat="45.62055" lon="6.68522">
        <ele>2032</ele>
        <time>2019-03-27T12:52:57.000Z</time>
      </trkpt>
      <trkpt lat="45.62049" lon="6.68521">
        <ele>2030.5999755859</ele>
        <time>2019-03-27T12:52:58.000Z</time>
      </trkpt>
      <trkpt lat="45.62046" lon="6.68518">
        <ele>2029.1999511719</ele>
        <time>2019-03-27T12:52:59.000Z</time>
      </trkpt>
      <trkpt lat="45.62039" lon="6.68519">
        <ele>2027.1999511719</ele>
        <time>2019-03-27T12:53:00.000Z</time>
      </trkpt>
      <trkpt lat="45.62033" lon="6.6852">
        <ele>2025</ele>
        <time>2019-03-27T12:53:01.000Z</time>
      </trkpt>
      <trkpt lat="45.62028" lon="6.6852">
        <ele>2022.8000488281</ele>
        <time>2019-03-27T12:53:02.000Z</time>
      </trkpt>
      <trkpt lat="45.62023" lon="6.68522">
        <ele>2021</ele>
        <time>2019-03-27T12:53:03.000Z</time>
      </trkpt>
      <trkpt lat="45.62019" lon="6.68523">
        <ele>2018.5999755859</ele>
        <time>2019-03-27T12:53:04.000Z</time>
      </trkpt>
      <trkpt lat="45.62013" lon="6.68523">
        <ele>2015.5999755859</ele>
        <time>2019-03-27T12:53:05.000Z</time>
      </trkpt>
      <trkpt lat="45.62008" lon="6.68524">
        <ele>2012.4000244141</ele>
        <time>2019-03-27T12:53:06.000Z</time>
      </trkpt>
      <trkpt lat="45.62005" lon="6.68522">
        <ele>2010.1999511719</ele>
        <time>2019-03-27T12:53:07.000Z</time>
      </trkpt>
      <trkpt lat="45.62002" lon="6.68521">
        <ele>2008.4000244141</ele>
        <time>2019-03-27T12:53:08.000Z</time>
      </trkpt>
      <trkpt lat="45.61997" lon="6.6852">
        <ele>2006</ele>
        <time>2019-03-27T12:53:09.000Z</time>
      </trkpt>
      <trkpt lat="45.61992" lon="6.68523">
        <ele>2002.8000488281</ele>
        <time>2019-03-27T12:53:10.000Z</time>
      </trkpt>
      <trkpt lat="45.61988" lon="6.6852">
        <ele>2000.4000244141</ele>
        <time>2019-03-27T12:53:11.000Z</time>
      </trkpt>
      <trkpt lat="45.61983" lon="6.68517">
        <ele>1998.8000488281</ele>
        <time>2019-03-27T12:53:12.000Z</time>
      </trkpt>
      <trkpt lat="45.61981" lon="6.68507">
        <ele>1997</ele>
        <time>2019-03-27T12:53:13.000Z</time>
      </trkpt>
      <trkpt lat="45.61975" lon="6.68503">
        <ele>1994</ele>
        <time>2019-03-27T12:53:14.000Z</time>
      </trkpt>
      <trkpt lat="45.61971" lon="6.68497">
        <ele>1990.8000488281</ele>
        <time>2019-03-27T12:53:15.000Z</time>
      </trkpt>
      <trkpt lat="45.61967" lon="6.68493">
        <ele>1986.1999511719</ele>
        <time>2019-03-27T12:53:16.000Z</time>
      </trkpt>
      <trkpt lat="45.61962" lon="6.68487">
        <ele>1983</ele>
        <time>2019-03-27T12:53:17.000Z</time>
      </trkpt>
      <trkpt lat="45.61957" lon="6.68488">
        <ele>1979.4000244141</ele>
        <time>2019-03-27T12:53:18.000Z</time>
      </trkpt>
      <trkpt lat="45.61954" lon="6.68477">
        <ele>1976.5999755859</ele>
        <time>2019-03-27T12:53:19.000Z</time>
      </trkpt>
      <trkpt lat="45.6195" lon="6.68472">
        <ele>1974.5999755859</ele>
        <time>2019-03-27T12:53:20.000Z</time>
      </trkpt>
      <trkpt lat="45.61945" lon="6.68472">
        <ele>1972.4000244141</ele>
        <time>2019-03-27T12:53:21.000Z</time>
      </trkpt>
      <trkpt lat="45.61939" lon="6.68474">
        <ele>1969.8000488281</ele>
        <time>2019-03-27T12:53:22.000Z</time>
      </trkpt>
      <trkpt lat="45.61936" lon="6.68469">
        <ele>1967.4000244141</ele>
        <time>2019-03-27T12:53:23.000Z</time>
      </trkpt>
      <trkpt lat="45.61934" lon="6.68459">
        <ele>1964.5999755859</ele>
        <time>2019-03-27T12:53:24.000Z</time>
      </trkpt>
      <trkpt lat="45.61931" lon="6.68457">
        <ele>1960.8000488281</ele>
        <time>2019-03-27T12:53:25.000Z</time>
      </trkpt>
      <trkpt lat="45.61924" lon="6.68453">
        <ele>1957</ele>
        <time>2019-03-27T12:53:26.000Z</time>
      </trkpt>
      <trkpt lat="45.61918" lon="6.68456">
        <ele>1954.1999511719</ele>
        <time>2019-03-27T12:53:27.000Z</time>
      </trkpt>
      <trkpt lat="45.61914" lon="6.68454">
        <ele>1952.1999511719</ele>
        <time>2019-03-27T12:53:28.000Z</time>
      </trkpt>
      <trkpt lat="45.61911" lon="6.68444">
        <ele>1950</ele>
        <time>2019-03-27T12:53:29.000Z</time>
      </trkpt>
      <trkpt lat="45.6191" lon="6.68438">
        <ele>1946.4000244141</ele>
        <time>2019-03-27T12:53:30.000Z</time>
      </trkpt>
      <trkpt lat="45.61909" lon="6.68431">
        <ele>1942</ele>
        <time>2019-03-27T12:53:31.000Z</time>
      </trkpt>
      <trkpt lat="45.61909" lon="6.68431">
        <ele>1938.1999511719</ele>
        <time>2019-03-27T12:53:32.000Z</time>
      </trkpt>
      <trkpt lat="45.61908" lon="6.68432">
        <ele>1935.8000488281</ele>
        <time>2019-03-27T12:53:33.000Z</time>
      </trkpt>
      <trkpt lat="45.61905" lon="6.68429">
        <ele>1934</ele>
        <time>2019-03-27T12:53:34.000Z</time>
      </trkpt>
      <trkpt lat="45.61902" lon="6.68428">
        <ele>1932.8000488281</ele>
        <time>2019-03-27T12:53:35.000Z</time>
      </trkpt>
      <trkpt lat="45.61898" lon="6.68428">
        <ele>1931.1999511719</ele>
        <time>2019-03-27T12:53:37.000Z</time>
      </trkpt>
      <trkpt lat="45.61898" lon="6.68425">
        <ele>1929.4000244141</ele>
        <time>2019-03-27T12:53:39.000Z</time>
      </trkpt>
      <trkpt lat="45.61898" lon="6.68425">
        <ele>1926.5999755859</ele>
        <time>2019-03-27T12:53:40.000Z</time>
      </trkpt>
      <trkpt lat="45.61898" lon="6.68425">
        <ele>1925.4000244141</ele>
        <time>2019-03-27T12:53:41.000Z</time>
      </trkpt>
      <trkpt lat="45.61894" lon="6.68426">
        <ele>1924.5999755859</ele>
        <time>2019-03-27T12:53:42.000Z</time>
      </trkpt>
      <trkpt lat="45.6189" lon="6.68425">
        <ele>1924</ele>
        <time>2019-03-27T12:53:43.000Z</time>
      </trkpt>
      <trkpt lat="45.61884" lon="6.68424">
        <ele>1923.5999755859</ele>
        <time>2019-03-27T12:53:44.000Z</time>
      </trkpt>
      <trkpt lat="45.61879" lon="6.68425">
        <ele>1923.1999511719</ele>
        <time>2019-03-27T12:53:45.000Z</time>
      </trkpt>
      <trkpt lat="45.61876" lon="6.68428">
        <ele>1922.8000488281</ele>
        <time>2019-03-27T12:53:46.000Z</time>
      </trkpt>
      <trkpt lat="45.61872" lon="6.68427">
        <ele>1921.8000488281</ele>
        <time>2019-03-27T12:53:47.000Z</time>
      </trkpt>
      <trkpt lat="45.6187" lon="6.68423">
        <ele>1920.5999755859</ele>
        <time>2019-03-27T12:53:48.000Z</time>
      </trkpt>
      <trkpt lat="45.61867" lon="6.68417">
        <ele>1919</ele>
        <time>2019-03-27T12:53:49.000Z</time>
      </trkpt>
      <trkpt lat="45.61862" lon="6.68416">
        <ele>1917.4000244141</ele>
        <time>2019-03-27T12:53:50.000Z</time>
      </trkpt>
      <trkpt lat="45.61857" lon="6.68416">
        <ele>1916.4000244141</ele>
        <time>2019-03-27T12:53:51.000Z</time>
      </trkpt>
      <trkpt lat="45.61853" lon="6.68403">
        <ele>1914.5999755859</ele>
        <time>2019-03-27T12:53:53.000Z</time>
      </trkpt>
      <trkpt lat="45.61851" lon="6.68396">
        <ele>1912.5999755859</ele>
        <time>2019-03-27T12:53:54.000Z</time>
      </trkpt>
      <trkpt lat="45.61845" lon="6.68395">
        <ele>1910</ele>
        <time>2019-03-27T12:53:55.000Z</time>
      </trkpt>
      <trkpt lat="45.61841" lon="6.68393">
        <ele>1907.8000488281</ele>
        <time>2019-03-27T12:53:56.000Z</time>
      </trkpt>
      <trkpt lat="45.61837" lon="6.68385">
        <ele>1906</ele>
        <time>2019-03-27T12:53:57.000Z</time>
      </trkpt>
      <trkpt lat="45.61837" lon="6.68376">
        <ele>1904.1999511719</ele>
        <time>2019-03-27T12:53:58.000Z</time>
      </trkpt>
      <trkpt lat="45.61832" lon="6.68371">
        <ele>1900.8000488281</ele>
        <time>2019-03-27T12:53:59.000Z</time>
      </trkpt>
      <trkpt lat="45.61825" lon="6.68368">
        <ele>1897</ele>
        <time>2019-03-27T12:54:00.000Z</time>
      </trkpt>
      <trkpt lat="45.61818" lon="6.68368">
        <ele>1894.1999511719</ele>
        <time>2019-03-27T12:54:01.000Z</time>
      </trkpt>
      <trkpt lat="45.61814" lon="6.68365">
        <ele>1892.4000244141</ele>
        <time>2019-03-27T12:54:02.000Z</time>
      </trkpt>
      <trkpt lat="45.6181" lon="6.68358">
        <ele>1890.5999755859</ele>
        <time>2019-03-27T12:54:03.000Z</time>
      </trkpt>
      <trkpt lat="45.6181" lon="6.68349">
        <ele>1883.8000488281</ele>
        <time>2019-03-27T12:54:04.000Z</time>
      </trkpt>
      <trkpt lat="45.61803" lon="6.68344">
        <ele>1880</ele>
        <time>2019-03-27T12:54:05.000Z</time>
      </trkpt>
      <trkpt lat="45.61797" lon="6.68342">
        <ele>1877.4000244141</ele>
        <time>2019-03-27T12:54:06.000Z</time>
      </trkpt>
      <trkpt lat="45.61791" lon="6.68342">
        <ele>1875.5999755859</ele>
        <time>2019-03-27T12:54:07.000Z</time>
      </trkpt>
      <trkpt lat="45.61784" lon="6.68343">
        <ele>1873.5999755859</ele>
        <time>2019-03-27T12:54:08.000Z</time>
      </trkpt>
      <trkpt lat="45.61781" lon="6.68344">
        <ele>1870.4000244141</ele>
        <time>2019-03-27T12:54:09.000Z</time>
      </trkpt>
      <trkpt lat="45.61778" lon="6.68342">
        <ele>1866.5999755859</ele>
        <time>2019-03-27T12:54:10.000Z</time>
      </trkpt>
      <trkpt lat="45.61778" lon="6.68337">
        <ele>1863</ele>
        <time>2019-03-27T12:54:11.000Z</time>
      </trkpt>
      <trkpt lat="45.61773" lon="6.68335">
        <ele>1859.5999755859</ele>
        <time>2019-03-27T12:54:12.000Z</time>
      </trkpt>
      <trkpt lat="45.61766" lon="6.68334">
        <ele>1857</ele>
        <time>2019-03-27T12:54:13.000Z</time>
      </trkpt>
      <trkpt lat="45.61761" lon="6.68332">
        <ele>1855</ele>
        <time>2019-03-27T12:54:14.000Z</time>
      </trkpt>
      <trkpt lat="45.61759" lon="6.68327">
        <ele>1853.4000244141</ele>
        <time>2019-03-27T12:54:15.000Z</time>
      </trkpt>
      <trkpt lat="45.61754" lon="6.68322">
        <ele>1851</ele>
        <time>2019-03-27T12:54:16.000Z</time>
      </trkpt>
      <trkpt lat="45.61747" lon="6.6832">
        <ele>1848.1999511719</ele>
        <time>2019-03-27T12:54:17.000Z</time>
      </trkpt>
      <trkpt lat="45.61741" lon="6.68319">
        <ele>1845.1999511719</ele>
        <time>2019-03-27T12:54:18.000Z</time>
      </trkpt>
      <trkpt lat="45.61735" lon="6.68317">
        <ele>1842.4000244141</ele>
        <time>2019-03-27T12:54:19.000Z</time>
      </trkpt>
      <trkpt lat="45.61731" lon="6.68309">
        <ele>1839.5999755859</ele>
        <time>2019-03-27T12:54:20.000Z</time>
      </trkpt>
      <trkpt lat="45.61728" lon="6.68301">
        <ele>1836.4000244141</ele>
        <time>2019-03-27T12:54:21.000Z</time>
      </trkpt>
      <trkpt lat="45.61721" lon="6.68294">
        <ele>1833</ele>
        <time>2019-03-27T12:54:22.000Z</time>
      </trkpt>
      <trkpt lat="45.61714" lon="6.68292">
        <ele>1829.8000488281</ele>
        <time>2019-03-27T12:54:23.000Z</time>
      </trkpt>
      <trkpt lat="45.61707" lon="6.6829">
        <ele>1827.4000244141</ele>
        <time>2019-03-27T12:54:24.000Z</time>
      </trkpt>
      <trkpt lat="45.61702" lon="6.68288">
        <ele>1825</ele>
        <time>2019-03-27T12:54:25.000Z</time>
      </trkpt>
      <trkpt lat="45.617" lon="6.6828">
        <ele>1822.1999511719</ele>
        <time>2019-03-27T12:54:26.000Z</time>
      </trkpt>
      <trkpt lat="45.61692" lon="6.68279">
        <ele>1819.1999511719</ele>
        <time>2019-03-27T12:54:27.000Z</time>
      </trkpt>
      <trkpt lat="45.61686" lon="6.68279">
        <ele>1813.8000488281</ele>
        <time>2019-03-27T12:54:28.000Z</time>
      </trkpt>
      <trkpt lat="45.61681" lon="6.68271">
        <ele>1811.8000488281</ele>
        <time>2019-03-27T12:54:29.000Z</time>
      </trkpt>
      <trkpt lat="45.61677" lon="6.68266">
        <ele>1809.5999755859</ele>
        <time>2019-03-27T12:54:30.000Z</time>
      </trkpt>
      <trkpt lat="45.61673" lon="6.68265">
        <ele>1807.1999511719</ele>
        <time>2019-03-27T12:54:31.000Z</time>
      </trkpt>
      <trkpt lat="45.61671" lon="6.68262">
        <ele>1804.5999755859</ele>
        <time>2019-03-27T12:54:32.000Z</time>
      </trkpt>
      <trkpt lat="45.6167" lon="6.68257">
        <ele>1802.1999511719</ele>
        <time>2019-03-27T12:54:33.000Z</time>
      </trkpt>
      <trkpt lat="45.61671" lon="6.6825">
        <ele>1799.4000244141</ele>
        <time>2019-03-27T12:54:34.000Z</time>
      </trkpt>
      <trkpt lat="45.61667" lon="6.68245">
        <ele>1796.5999755859</ele>
        <time>2019-03-27T12:54:35.000Z</time>
      </trkpt>
      <trkpt lat="45.6166" lon="6.68242">
        <ele>1794.1999511719</ele>
        <time>2019-03-27T12:54:36.000Z</time>
      </trkpt>
      <trkpt lat="45.61654" lon="6.6824">
        <ele>1792</ele>
        <time>2019-03-27T12:54:37.000Z</time>
      </trkpt>
      <trkpt lat="45.61651" lon="6.68236">
        <ele>1789.8000488281</ele>
        <time>2019-03-27T12:54:38.000Z</time>
      </trkpt>
      <trkpt lat="45.61641" lon="6.68232">
        <ele>1786.8000488281</ele>
        <time>2019-03-27T12:54:39.000Z</time>
      </trkpt>
      <trkpt lat="45.61633" lon="6.68231">
        <ele>1783.5999755859</ele>
        <time>2019-03-27T12:54:40.000Z</time>
      </trkpt>
      <trkpt lat="45.61627" lon="6.68232">
        <ele>1780.5999755859</ele>
        <time>2019-03-27T12:54:41.000Z</time>
      </trkpt>
      <trkpt lat="45.61621" lon="6.68232">
        <ele>1777.5999755859</ele>
        <time>2019-03-27T12:54:42.000Z</time>
      </trkpt>
      <trkpt lat="45.61617" lon="6.6823">
        <ele>1774.5999755859</ele>
        <time>2019-03-27T12:54:43.000Z</time>
      </trkpt>
      <trkpt lat="45.61615" lon="6.68226">
        <ele>1771.4000244141</ele>
        <time>2019-03-27T12:54:44.000Z</time>
      </trkpt>
      <trkpt lat="45.61615" lon="6.68217">
        <ele>1768.5999755859</ele>
        <time>2019-03-27T12:54:45.000Z</time>
      </trkpt>
      <trkpt lat="45.61611" lon="6.68212">
        <ele>1766</ele>
        <time>2019-03-27T12:54:46.000Z</time>
      </trkpt>
      <trkpt lat="45.61606" lon="6.68206">
        <ele>1763.8000488281</ele>
        <time>2019-03-27T12:54:47.000Z</time>
      </trkpt>
      <trkpt lat="45.61605" lon="6.682">
        <ele>1762.4000244141</ele>
        <time>2019-03-27T12:54:48.000Z</time>
      </trkpt>
      <trkpt lat="45.61607" lon="6.6819">
        <ele>1761.1999511719</ele>
        <time>2019-03-27T12:54:49.000Z</time>
      </trkpt>
      <trkpt lat="45.61605" lon="6.68184">
        <ele>1759.1999511719</ele>
        <time>2019-03-27T12:54:50.000Z</time>
      </trkpt>
      <trkpt lat="45.616" lon="6.68178">
        <ele>1756</ele>
        <time>2019-03-27T12:54:51.000Z</time>
      </trkpt>
      <trkpt lat="45.61598" lon="6.68171">
        <ele>1751.4000244141</ele>
        <time>2019-03-27T12:54:52.000Z</time>
      </trkpt>
      <trkpt lat="45.61597" lon="6.68161">
        <ele>1749.8000488281</ele>
        <time>2019-03-27T12:54:53.000Z</time>
      </trkpt>
      <trkpt lat="45.61599" lon="6.6815">
        <ele>1747.4000244141</ele>
        <time>2019-03-27T12:54:54.000Z</time>
      </trkpt>
      <trkpt lat="45.61595" lon="6.68142">
        <ele>1744.5999755859</ele>
        <time>2019-03-27T12:54:55.000Z</time>
      </trkpt>
      <trkpt lat="45.61595" lon="6.6813">
        <ele>1742.1999511719</ele>
        <time>2019-03-27T12:54:56.000Z</time>
      </trkpt>
      <trkpt lat="45.61597" lon="6.6812">
        <ele>1740</ele>
        <time>2019-03-27T12:54:57.000Z</time>
      </trkpt>
      <trkpt lat="45.61599" lon="6.68111">
        <ele>1737.5999755859</ele>
        <time>2019-03-27T12:54:58.000Z</time>
      </trkpt>
      <trkpt lat="45.61599" lon="6.68098">
        <ele>1734.5999755859</ele>
        <time>2019-03-27T12:54:59.000Z</time>
      </trkpt>
      <trkpt lat="45.61594" lon="6.68089">
        <ele>1731.5999755859</ele>
        <time>2019-03-27T12:55:00.000Z</time>
      </trkpt>
      <trkpt lat="45.61594" lon="6.68078">
        <ele>1729.1999511719</ele>
        <time>2019-03-27T12:55:01.000Z</time>
      </trkpt>
      <trkpt lat="45.61596" lon="6.68068">
        <ele>1727.1999511719</ele>
        <time>2019-03-27T12:55:02.000Z</time>
      </trkpt>
      <trkpt lat="45.61597" lon="6.68059">
        <ele>1724.8000488281</ele>
        <time>2019-03-27T12:55:03.000Z</time>
      </trkpt>
      <trkpt lat="45.61599" lon="6.68052">
        <ele>1721.8000488281</ele>
        <time>2019-03-27T12:55:04.000Z</time>
      </trkpt>
      <trkpt lat="45.61602" lon="6.68045">
        <ele>1718.8000488281</ele>
        <time>2019-03-27T12:55:05.000Z</time>
      </trkpt>
      <trkpt lat="45.61606" lon="6.68038">
        <ele>1716.4000244141</ele>
        <time>2019-03-27T12:55:06.000Z</time>
      </trkpt>
      <trkpt lat="45.61607" lon="6.68027">
        <ele>1714.1999511719</ele>
        <time>2019-03-27T12:55:07.000Z</time>
      </trkpt>
      <trkpt lat="45.61604" lon="6.68018">
        <ele>1711.8000488281</ele>
        <time>2019-03-27T12:55:08.000Z</time>
      </trkpt>
      <trkpt lat="45.61597" lon="6.68011">
        <ele>1709.4000244141</ele>
        <time>2019-03-27T12:55:09.000Z</time>
      </trkpt>
      <trkpt lat="45.61592" lon="6.68003">
        <ele>1707.1999511719</ele>
        <time>2019-03-27T12:55:10.000Z</time>
      </trkpt>
      <trkpt lat="45.61588" lon="6.67994">
        <ele>1705</ele>
        <time>2019-03-27T12:55:11.000Z</time>
      </trkpt>
      <trkpt lat="45.61588" lon="6.67982">
        <ele>1702.1999511719</ele>
        <time>2019-03-27T12:55:12.000Z</time>
      </trkpt>
      <trkpt lat="45.61585" lon="6.67979">
        <ele>1698.8000488281</ele>
        <time>2019-03-27T12:55:13.000Z</time>
      </trkpt>
      <trkpt lat="45.61581" lon="6.67975">
        <ele>1695.8000488281</ele>
        <time>2019-03-27T12:55:14.000Z</time>
      </trkpt>
      <trkpt lat="45.61579" lon="6.67967">
        <ele>1693.1999511719</ele>
        <time>2019-03-27T12:55:15.000Z</time>
      </trkpt>
      <trkpt lat="45.61572" lon="6.67962">
        <ele>1688.1999511719</ele>
        <time>2019-03-27T12:55:16.000Z</time>
      </trkpt>
      <trkpt lat="45.61562" lon="6.67962">
        <ele>1685.4000244141</ele>
        <time>2019-03-27T12:55:17.000Z</time>
      </trkpt>
      <trkpt lat="45.61554" lon="6.67963">
        <ele>1682.4000244141</ele>
        <time>2019-03-27T12:55:18.000Z</time>
      </trkpt>
      <trkpt lat="45.61548" lon="6.67964">
        <ele>1679.5999755859</ele>
        <time>2019-03-27T12:55:19.000Z</time>
      </trkpt>
      <trkpt lat="45.61548" lon="6.67959">
        <ele>1676.8000488281</ele>
        <time>2019-03-27T12:55:20.000Z</time>
      </trkpt>
      <trkpt lat="45.61545" lon="6.67953">
        <ele>1674</ele>
        <time>2019-03-27T12:55:21.000Z</time>
      </trkpt>
      <trkpt lat="45.61543" lon="6.67945">
        <ele>1671</ele>
        <time>2019-03-27T12:55:22.000Z</time>
      </trkpt>
      <trkpt lat="45.61539" lon="6.67942">
        <ele>1668.4000244141</ele>
        <time>2019-03-27T12:55:23.000Z</time>
      </trkpt>
      <trkpt lat="45.61536" lon="6.6794">
        <ele>1666.4000244141</ele>
        <time>2019-03-27T12:55:24.000Z</time>
      </trkpt>
      <trkpt lat="45.61534" lon="6.67933">
        <ele>1664.8000488281</ele>
        <time>2019-03-27T12:55:25.000Z</time>
      </trkpt>
      <trkpt lat="45.61535" lon="6.67923">
        <ele>1662.5999755859</ele>
        <time>2019-03-27T12:55:26.000Z</time>
      </trkpt>
      <trkpt lat="45.61532" lon="6.67916">
        <ele>1659.5999755859</ele>
        <time>2019-03-27T12:55:27.000Z</time>
      </trkpt>
      <trkpt lat="45.61531" lon="6.67915">
        <ele>1656.1999511719</ele>
        <time>2019-03-27T12:55:28.000Z</time>
      </trkpt>
      <trkpt lat="45.61529" lon="6.67914">
        <ele>1653.5999755859</ele>
        <time>2019-03-27T12:55:29.000Z</time>
      </trkpt>
      <trkpt lat="45.61526" lon="6.67908">
        <ele>1651.5999755859</ele>
        <time>2019-03-27T12:55:30.000Z</time>
      </trkpt>
      <trkpt lat="45.61522" lon="6.67901">
        <ele>1649.5999755859</ele>
        <time>2019-03-27T12:55:31.000Z</time>
      </trkpt>
      <trkpt lat="45.6152" lon="6.67897">
        <ele>1647.1999511719</ele>
        <time>2019-03-27T12:55:32.000Z</time>
      </trkpt>
      <trkpt lat="45.61514" lon="6.67897">
        <ele>1644.8000488281</ele>
        <time>2019-03-27T12:55:33.000Z</time>
      </trkpt>
      <trkpt lat="45.61508" lon="6.67901">
        <ele>1643.1999511719</ele>
        <time>2019-03-27T12:55:34.000Z</time>
      </trkpt>
      <trkpt lat="45.61504" lon="6.67903">
        <ele>1642</ele>
        <time>2019-03-27T12:55:35.000Z</time>
      </trkpt>
      <trkpt lat="45.61501" lon="6.67902">
        <ele>1640.5999755859</ele>
        <time>2019-03-27T12:55:36.000Z</time>
      </trkpt>
      <trkpt lat="45.61498" lon="6.67897">
        <ele>1638</ele>
        <time>2019-03-27T12:55:37.000Z</time>
      </trkpt>
      <trkpt lat="45.61497" lon="6.67886">
        <ele>1634.4000244141</ele>
        <time>2019-03-27T12:55:38.000Z</time>
      </trkpt>
      <trkpt lat="45.61493" lon="6.67876">
        <ele>1630.5999755859</ele>
        <time>2019-03-27T12:55:39.000Z</time>
      </trkpt>
      <trkpt lat="45.61488" lon="6.67871">
        <ele>1625.8000488281</ele>
        <time>2019-03-27T12:55:40.000Z</time>
      </trkpt>
      <trkpt lat="45.61488" lon="6.67858">
        <ele>1624</ele>
        <time>2019-03-27T12:55:41.000Z</time>
      </trkpt>
      <trkpt lat="45.61488" lon="6.67847">
        <ele>1621.4000244141</ele>
        <time>2019-03-27T12:55:42.000Z</time>
      </trkpt>
      <trkpt lat="45.61482" lon="6.67841">
        <ele>1618.4000244141</ele>
        <time>2019-03-27T12:55:43.000Z</time>
      </trkpt>
      <trkpt lat="45.61481" lon="6.67831">
        <ele>1616</ele>
        <time>2019-03-27T12:55:44.000Z</time>
      </trkpt>
      <trkpt lat="45.61476" lon="6.67831">
        <ele>1614.4000244141</ele>
        <time>2019-03-27T12:55:45.000Z</time>
      </trkpt>
      <trkpt lat="45.61475" lon="6.67835">
        <ele>1612.5999755859</ele>
        <time>2019-03-27T12:55:46.000Z</time>
      </trkpt>
      <trkpt lat="45.61477" lon="6.67837">
        <ele>1610.4000244141</ele>
        <time>2019-03-27T12:55:47.000Z</time>
      </trkpt>
      <trkpt lat="45.61479" lon="6.67837">
        <ele>1608.4000244141</ele>
        <time>2019-03-27T12:55:48.000Z</time>
      </trkpt>
      <trkpt lat="45.61481" lon="6.67832">
        <ele>1606.5999755859</ele>
        <time>2019-03-27T12:55:49.000Z</time>
      </trkpt>
      <trkpt lat="45.61482" lon="6.67831">
        <ele>1605</ele>
        <time>2019-03-27T12:55:50.000Z</time>
      </trkpt>
      <trkpt lat="45.61482" lon="6.67831">
        <ele>1603.8000488281</ele>
        <time>2019-03-27T12:55:51.000Z</time>
      </trkpt>
      <trkpt lat="45.61482" lon="6.67831">
        <ele>1602.4000244141</ele>
        <time>2019-03-27T12:55:53.000Z</time>
      </trkpt>
      <trkpt lat="45.61482" lon="6.67831">
        <ele>1601.8000488281</ele>
        <time>2019-03-27T12:55:58.000Z</time>
      </trkpt>
      <trkpt lat="45.61485" lon="6.67836">
        <ele>1601.5999755859</ele>
        <time>2019-03-27T12:56:02.000Z</time>
      </trkpt>
      <trkpt lat="45.61485" lon="6.67845">
        <ele>1601.1999511719</ele>
        <time>2019-03-27T12:56:05.000Z</time>
      </trkpt>
      <trkpt lat="45.61485" lon="6.67848">
        <ele>1601</ele>
        <time>2019-03-27T12:56:06.000Z</time>
      </trkpt>
      <trkpt lat="45.61487" lon="6.67855">
        <ele>1599.8000488281</ele>
        <time>2019-03-27T12:56:09.000Z</time>
      </trkpt>
      <trkpt lat="45.61487" lon="6.67857">
        <ele>1599.5999755859</ele>
        <time>2019-03-27T12:56:10.000Z</time>
      </trkpt>
      <trkpt lat="45.61487" lon="6.67858">
        <ele>1599.1999511719</ele>
        <time>2019-03-27T12:56:11.000Z</time>
      </trkpt>
      <trkpt lat="45.61491" lon="6.6786">
        <ele>1598.8000488281</ele>
        <time>2019-03-27T12:56:13.000Z</time>
      </trkpt>
      <trkpt lat="45.61494" lon="6.67861">
        <ele>1598.5999755859</ele>
        <time>2019-03-27T12:56:15.000Z</time>
      </trkpt>
      <trkpt lat="45.61503" lon="6.67863">
        <ele>1598.1999511719</ele>
        <time>2019-03-27T12:56:22.000Z</time>
      </trkpt>
      <trkpt lat="45.61506" lon="6.67866">
        <ele>1598.1999511719</ele>
        <time>2019-03-27T12:56:29.000Z</time>
      </trkpt>
      <trkpt lat="45.61507" lon="6.67869">
        <ele>1598</ele>
        <time>2019-03-27T12:56:38.000Z</time>
      </trkpt>
      <trkpt lat="45.61508" lon="6.67869">
        <ele>1597.8000488281</ele>
        <time>2019-03-27T12:56:43.000Z</time>
      </trkpt>
      <trkpt lat="45.61507" lon="6.67874">
        <ele>1597.8000488281</ele>
        <time>2019-03-27T12:56:46.000Z</time>
      </trkpt>
      <trkpt lat="45.61497" lon="6.67888">
        <ele>1597.8000488281</ele>
        <time>2019-03-27T12:56:49.000Z</time>
      </trkpt>
      <trkpt lat="45.61483" lon="6.67887">
        <ele>1596.4000244141</ele>
        <time>2019-03-27T12:56:52.000Z</time>
      </trkpt>
      <trkpt lat="45.61473" lon="6.67887">
        <ele>1595</ele>
        <time>2019-03-27T12:56:54.000Z</time>
      </trkpt>
      <trkpt lat="45.61467" lon="6.67888">
        <ele>1594.4000244141</ele>
        <time>2019-03-27T12:56:55.000Z</time>
      </trkpt>
      <trkpt lat="45.61461" lon="6.67892">
        <ele>1593.8000488281</ele>
        <time>2019-03-27T12:56:56.000Z</time>
      </trkpt>
      <trkpt lat="45.61445" lon="6.6789">
        <ele>1592</ele>
        <time>2019-03-27T12:56:58.000Z</time>
      </trkpt>
      <trkpt lat="45.61435" lon="6.67886">
        <ele>1591</ele>
        <time>2019-03-27T12:56:59.000Z</time>
      </trkpt>
      <trkpt lat="45.61424" lon="6.67879">
        <ele>1589.8000488281</ele>
        <time>2019-03-27T12:57:00.000Z</time>
      </trkpt>
      <trkpt lat="45.61412" lon="6.67878">
        <ele>1588.4000244141</ele>
        <time>2019-03-27T12:57:01.000Z</time>
      </trkpt>
      <trkpt lat="45.61401" lon="6.67877">
        <ele>1586.4000244141</ele>
        <time>2019-03-27T12:57:02.000Z</time>
      </trkpt>
      <trkpt lat="45.6139" lon="6.6788">
        <ele>1584.1999511719</ele>
        <time>2019-03-27T12:57:03.000Z</time>
      </trkpt>
      <trkpt lat="45.6138" lon="6.67881">
        <ele>1581.8000488281</ele>
        <time>2019-03-27T12:57:04.000Z</time>
      </trkpt>
      <trkpt lat="45.61369" lon="6.67882">
        <ele>1579.8000488281</ele>
        <time>2019-03-27T12:57:05.000Z</time>
      </trkpt>
      <trkpt lat="45.6136" lon="6.67884">
        <ele>1578.1999511719</ele>
        <time>2019-03-27T12:57:06.000Z</time>
      </trkpt>
      <trkpt lat="45.6135" lon="6.67884">
        <ele>1576.8000488281</ele>
        <time>2019-03-27T12:57:07.000Z</time>
      </trkpt>
      <trkpt lat="45.61341" lon="6.67885">
        <ele>1575.8000488281</ele>
        <time>2019-03-27T12:57:08.000Z</time>
      </trkpt>
      <trkpt lat="45.61331" lon="6.67883">
        <ele>1575</ele>
        <time>2019-03-27T12:57:09.000Z</time>
      </trkpt>
      <trkpt lat="45.61323" lon="6.67882">
        <ele>1574.4000244141</ele>
        <time>2019-03-27T12:57:10.000Z</time>
      </trkpt>
      <trkpt lat="45.61306" lon="6.67878">
        <ele>1572.8000488281</ele>
        <time>2019-03-27T12:57:12.000Z</time>
      </trkpt>
      <trkpt lat="45.61299" lon="6.67873">
        <ele>1572</ele>
        <time>2019-03-27T12:57:13.000Z</time>
      </trkpt>
      <trkpt lat="45.61292" lon="6.67869">
        <ele>1571.1999511719</ele>
        <time>2019-03-27T12:57:14.000Z</time>
      </trkpt>
      <trkpt lat="45.61284" lon="6.67867">
        <ele>1570.4000244141</ele>
        <time>2019-03-27T12:57:15.000Z</time>
      </trkpt>
      <trkpt lat="45.61276" lon="6.67867">
        <ele>1568.8000488281</ele>
        <time>2019-03-27T12:57:16.000Z</time>
      </trkpt>
      <trkpt lat="45.6127" lon="6.67871">
        <ele>1568</ele>
        <time>2019-03-27T12:57:17.000Z</time>
      </trkpt>
      <trkpt lat="45.61264" lon="6.67875">
        <ele>1567.4000244141</ele>
        <time>2019-03-27T12:57:18.000Z</time>
      </trkpt>
      <trkpt lat="45.61251" lon="6.67881">
        <ele>1566.1999511719</ele>
        <time>2019-03-27T12:57:20.000Z</time>
      </trkpt>
      <trkpt lat="45.61245" lon="6.67883">
        <ele>1565.5999755859</ele>
        <time>2019-03-27T12:57:21.000Z</time>
      </trkpt>
      <trkpt lat="45.61238" lon="6.67884">
        <ele>1565.1999511719</ele>
        <time>2019-03-27T12:57:22.000Z</time>
      </trkpt>
      <trkpt lat="45.61232" lon="6.67884">
        <ele>1564.8000488281</ele>
        <time>2019-03-27T12:57:23.000Z</time>
      </trkpt>
      <trkpt lat="45.61217" lon="6.67883">
        <ele>1563.8000488281</ele>
        <time>2019-03-27T12:57:26.000Z</time>
      </trkpt>
      <trkpt lat="45.61213" lon="6.67882">
        <ele>1563.4000244141</ele>
        <time>2019-03-27T12:57:27.000Z</time>
      </trkpt>
      <trkpt lat="45.61203" lon="6.67881">
        <ele>1562.5999755859</ele>
        <time>2019-03-27T12:57:29.000Z</time>
      </trkpt>
      <trkpt lat="45.61187" lon="6.67878">
        <ele>1561.8000488281</ele>
        <time>2019-03-27T12:57:32.000Z</time>
      </trkpt>
      <trkpt lat="45.61182" lon="6.67878">
        <ele>1561.5999755859</ele>
        <time>2019-03-27T12:57:33.000Z</time>
      </trkpt>
      <trkpt lat="45.61167" lon="6.67877">
        <ele>1560.4000244141</ele>
        <time>2019-03-27T12:57:36.000Z</time>
      </trkpt>
      <trkpt lat="45.61155" lon="6.67879">
        <ele>1559.8000488281</ele>
        <time>2019-03-27T12:57:38.000Z</time>
      </trkpt>
      <trkpt lat="45.61141" lon="6.67883">
        <ele>1558.8000488281</ele>
        <time>2019-03-27T12:57:40.000Z</time>
      </trkpt>
      <trkpt lat="45.61119" lon="6.67886">
        <ele>1557.4000244141</ele>
        <time>2019-03-27T12:57:43.000Z</time>
      </trkpt>
      <trkpt lat="45.61101" lon="6.67887">
        <ele>1556</ele>
        <time>2019-03-27T12:57:45.000Z</time>
      </trkpt>
      <trkpt lat="45.61084" lon="6.67889">
        <ele>1554.4000244141</ele>
        <time>2019-03-27T12:57:47.000Z</time>
      </trkpt>
      <trkpt lat="45.61067" lon="6.67891">
        <ele>1553</ele>
        <time>2019-03-27T12:57:49.000Z</time>
      </trkpt>
      <trkpt lat="45.61048" lon="6.67892">
        <ele>1551.5999755859</ele>
        <time>2019-03-27T12:57:51.000Z</time>
      </trkpt>
      <trkpt lat="45.61031" lon="6.67889">
        <ele>1550.1999511719</ele>
        <time>2019-03-27T12:57:53.000Z</time>
      </trkpt>
      <trkpt lat="45.61007" lon="6.67882">
        <ele>1549</ele>
        <time>2019-03-27T12:57:56.000Z</time>
      </trkpt>
      <trkpt lat="45.60991" lon="6.67877">
        <ele>1548.1999511719</ele>
        <time>2019-03-27T12:57:58.000Z</time>
      </trkpt>
      <trkpt lat="45.60984" lon="6.67875">
        <ele>1547.8000488281</ele>
        <time>2019-03-27T12:57:59.000Z</time>
      </trkpt>
      <trkpt lat="45.60969" lon="6.67867">
        <ele>1546.5999755859</ele>
        <time>2019-03-27T12:58:01.000Z</time>
      </trkpt>
      <trkpt lat="45.60945" lon="6.67859">
        <ele>1545</ele>
        <time>2019-03-27T12:58:04.000Z</time>
      </trkpt>
      <trkpt lat="45.60921" lon="6.67848">
        <ele>1543.1999511719</ele>
        <time>2019-03-27T12:58:07.000Z</time>
      </trkpt>
      <trkpt lat="45.60905" lon="6.67839">
        <ele>1541.8000488281</ele>
        <time>2019-03-27T12:58:09.000Z</time>
      </trkpt>
      <trkpt lat="45.60897" lon="6.67835">
        <ele>1541.1999511719</ele>
        <time>2019-03-27T12:58:10.000Z</time>
      </trkpt>
      <trkpt lat="45.6089" lon="6.67829">
        <ele>1540.5999755859</ele>
        <time>2019-03-27T12:58:11.000Z</time>
      </trkpt>
      <trkpt lat="45.60874" lon="6.6782">
        <ele>1539.4000244141</ele>
        <time>2019-03-27T12:58:13.000Z</time>
      </trkpt>
      <trkpt lat="45.60853" lon="6.67807">
        <ele>1537.8000488281</ele>
        <time>2019-03-27T12:58:16.000Z</time>
      </trkpt>
      <trkpt lat="45.60841" lon="6.67799">
        <ele>1536.8000488281</ele>
        <time>2019-03-27T12:58:18.000Z</time>
      </trkpt>
      <trkpt lat="45.60826" lon="6.67785">
        <ele>1536</ele>
        <time>2019-03-27T12:58:21.000Z</time>
      </trkpt>
      <trkpt lat="45.60823" lon="6.6778">
        <ele>1535.8000488281</ele>
        <time>2019-03-27T12:58:22.000Z</time>
      </trkpt>
      <trkpt lat="45.60819" lon="6.67776">
        <ele>1535.5999755859</ele>
        <time>2019-03-27T12:58:23.000Z</time>
      </trkpt>
      <trkpt lat="45.60814" lon="6.67768">
        <ele>1535.4000244141</ele>
        <time>2019-03-27T12:58:25.000Z</time>
      </trkpt>
      <trkpt lat="45.60798" lon="6.67744">
        <ele>1535.4000244141</ele>
        <time>2019-03-27T12:58:32.000Z</time>
      </trkpt>
      <trkpt lat="45.60795" lon="6.6774">
        <ele>1535.4000244141</ele>
        <time>2019-03-27T12:58:37.000Z</time>
      </trkpt>
      <trkpt lat="45.60793" lon="6.67732">
        <ele>1535.8000488281</ele>
        <time>2019-03-27T12:58:42.000Z</time>
      </trkpt>
      <trkpt lat="45.60789" lon="6.67719">
        <ele>1535.5999755859</ele>
        <time>2019-03-27T12:58:49.000Z</time>
      </trkpt>
      <trkpt lat="45.60781" lon="6.67699">
        <ele>1534.8000488281</ele>
        <time>2019-03-27T12:58:55.000Z</time>
      </trkpt>
      <trkpt lat="45.60777" lon="6.6769">
        <ele>1534.5999755859</ele>
        <time>2019-03-27T12:58:58.000Z</time>
      </trkpt>
      <trkpt lat="45.60774" lon="6.67683">
        <ele>1534.8000488281</ele>
        <time>2019-03-27T12:59:01.000Z</time>
      </trkpt>
      <trkpt lat="45.60767" lon="6.67673">
        <ele>1534.8000488281</ele>
        <time>2019-03-27T12:59:07.000Z</time>
      </trkpt>
      <trkpt lat="45.6076" lon="6.67663">
        <ele>1535</ele>
        <time>2019-03-27T12:59:12.000Z</time>
      </trkpt>
      <trkpt lat="45.60755" lon="6.67653">
        <ele>1535.1999511719</ele>
        <time>2019-03-27T12:59:18.000Z</time>
      </trkpt>
      <trkpt lat="45.60751" lon="6.67647">
        <ele>1535.1999511719</ele>
        <time>2019-03-27T12:59:23.000Z</time>
      </trkpt>
      <trkpt lat="45.60765" lon="6.67647">
        <ele>1534.4000244141</ele>
        <time>2019-03-27T12:59:30.000Z</time>
      </trkpt>
      <trkpt lat="45.60768" lon="6.67642">
        <ele>1534</ele>
        <time>2019-03-27T12:59:38.000Z</time>
      </trkpt>
      <trkpt lat="45.60762" lon="6.67636">
        <ele>1533.5999755859</ele>
        <time>2019-03-27T12:59:42.000Z</time>
      </trkpt>
      <trkpt lat="45.6076" lon="6.67634">
        <ele>1533.4000244141</ele>
        <time>2019-03-27T12:59:43.000Z</time>
      </trkpt>
      <trkpt lat="45.60757" lon="6.67631">
        <ele>1532.8000488281</ele>
        <time>2019-03-27T12:59:45.000Z</time>
      </trkpt>
      <trkpt lat="45.60755" lon="6.67628">
        <ele>1532.4000244141</ele>
        <time>2019-03-27T12:59:47.000Z</time>
      </trkpt>
      <trkpt lat="45.60758" lon="6.67632">
        <ele>1531.8000488281</ele>
        <time>2019-03-27T12:59:52.000Z</time>
      </trkpt>
      <trkpt lat="45.60754" lon="6.67631">
        <ele>1531.4000244141</ele>
        <time>2019-03-27T12:59:55.000Z</time>
      </trkpt>
      <trkpt lat="45.60742" lon="6.67622">
        <ele>1530.4000244141</ele>
        <time>2019-03-27T12:59:58.000Z</time>
      </trkpt>
      <trkpt lat="45.60739" lon="6.6762">
        <ele>1530.1999511719</ele>
        <time>2019-03-27T12:59:59.000Z</time>
      </trkpt>
      <trkpt lat="45.60739" lon="6.67616">
        <ele>1529.8000488281</ele>
        <time>2019-03-27T13:00:00.000Z</time>
      </trkpt>
      <trkpt lat="45.60742" lon="6.6761">
        <ele>1529.4000244141</ele>
        <time>2019-03-27T13:00:01.000Z</time>
      </trkpt>
      <trkpt lat="45.60746" lon="6.67603">
        <ele>1528.8000488281</ele>
        <time>2019-03-27T13:00:02.000Z</time>
      </trkpt>
      <trkpt lat="45.60747" lon="6.67585">
        <ele>1527.1999511719</ele>
        <time>2019-03-27T13:00:04.000Z</time>
      </trkpt>
      <trkpt lat="45.60747" lon="6.67564">
        <ele>1525.1999511719</ele>
        <time>2019-03-27T13:00:07.000Z</time>
      </trkpt>
      <trkpt lat="45.60745" lon="6.67561">
        <ele>1524.1999511719</ele>
        <time>2019-03-27T13:00:08.000Z</time>
      </trkpt>
      <trkpt lat="45.60734" lon="6.67562">
        <ele>1522.4000244141</ele>
        <time>2019-03-27T13:00:10.000Z</time>
      </trkpt>
      <trkpt lat="45.60717" lon="6.67557">
        <ele>1520.4000244141</ele>
        <time>2019-03-27T13:00:12.000Z</time>
      </trkpt>
      <trkpt lat="45.6071" lon="6.67552">
        <ele>1519.8000488281</ele>
        <time>2019-03-27T13:00:13.000Z</time>
      </trkpt>
      <trkpt lat="45.60702" lon="6.67551">
        <ele>1519.1999511719</ele>
        <time>2019-03-27T13:00:14.000Z</time>
      </trkpt>
      <trkpt lat="45.60686" lon="6.67547">
        <ele>1518.4000244141</ele>
        <time>2019-03-27T13:00:16.000Z</time>
      </trkpt>
      <trkpt lat="45.60677" lon="6.67544">
        <ele>1517.4000244141</ele>
        <time>2019-03-27T13:00:17.000Z</time>
      </trkpt>
      <trkpt lat="45.6067" lon="6.67543">
        <ele>1516.4000244141</ele>
        <time>2019-03-27T13:00:18.000Z</time>
      </trkpt>
      <trkpt lat="45.60665" lon="6.67543">
        <ele>1515.4000244141</ele>
        <time>2019-03-27T13:00:19.000Z</time>
      </trkpt>
      <trkpt lat="45.60661" lon="6.67539">
        <ele>1514.1999511719</ele>
        <time>2019-03-27T13:00:20.000Z</time>
      </trkpt>
      <trkpt lat="45.60659" lon="6.6753">
        <ele>1513</ele>
        <time>2019-03-27T13:00:21.000Z</time>
      </trkpt>
      <trkpt lat="45.60653" lon="6.67525">
        <ele>1512</ele>
        <time>2019-03-27T13:00:22.000Z</time>
      </trkpt>
      <trkpt lat="45.60649" lon="6.67521">
        <ele>1511</ele>
        <time>2019-03-27T13:00:23.000Z</time>
      </trkpt>
      <trkpt lat="45.60645" lon="6.67517">
        <ele>1510.5999755859</ele>
        <time>2019-03-27T13:00:24.000Z</time>
      </trkpt>
      <trkpt lat="45.60627" lon="6.67501">
        <ele>1509.5999755859</ele>
        <time>2019-03-27T13:00:29.000Z</time>
      </trkpt>
      <trkpt lat="45.60623" lon="6.67499">
        <ele>1509.4000244141</ele>
        <time>2019-03-27T13:00:30.000Z</time>
      </trkpt>
      <trkpt lat="45.60609" lon="6.67497">
        <ele>1508.8000488281</ele>
        <time>2019-03-27T13:00:34.000Z</time>
      </trkpt>
      <trkpt lat="45.60606" lon="6.67498">
        <ele>1508.5999755859</ele>
        <time>2019-03-27T13:00:35.000Z</time>
      </trkpt>
      <trkpt lat="45.60603" lon="6.67499">
        <ele>1508.1999511719</ele>
        <time>2019-03-27T13:00:36.000Z</time>
      </trkpt>
      <trkpt lat="45.60599" lon="6.67499">
        <ele>1508</ele>
        <time>2019-03-27T13:00:37.000Z</time>
      </trkpt>
      <trkpt lat="45.60584" lon="6.67494">
        <ele>1507.5999755859</ele>
        <time>2019-03-27T13:00:42.000Z</time>
      </trkpt>
      <trkpt lat="45.60582" lon="6.67487">
        <ele>1507.1999511719</ele>
        <time>2019-03-27T13:00:44.000Z</time>
      </trkpt>
      <trkpt lat="45.60577" lon="6.6748">
        <ele>1506.1999511719</ele>
        <time>2019-03-27T13:00:47.000Z</time>
      </trkpt>
      <trkpt lat="45.60574" lon="6.67478">
        <ele>1506</ele>
        <time>2019-03-27T13:00:48.000Z</time>
      </trkpt>
      <trkpt lat="45.6056" lon="6.6747">
        <ele>1506</ele>
        <time>2019-03-27T13:00:53.000Z</time>
      </trkpt>
      <trkpt lat="45.60552" lon="6.67465">
        <ele>1505.4000244141</ele>
        <time>2019-03-27T13:00:58.000Z</time>
      </trkpt>
      <trkpt lat="45.60545" lon="6.67462">
        <ele>1505.1999511719</ele>
        <time>2019-03-27T13:01:03.000Z</time>
      </trkpt>
      <trkpt lat="45.60534" lon="6.67451">
        <ele>1506.5999755859</ele>
        <time>2019-03-27T13:01:10.000Z</time>
      </trkpt>
      <trkpt lat="45.6052" lon="6.67436">
        <ele>1505.5999755859</ele>
        <time>2019-03-27T13:01:15.000Z</time>
      </trkpt>
      <trkpt lat="45.60511" lon="6.67427">
        <ele>1504.8000488281</ele>
        <time>2019-03-27T13:01:17.000Z</time>
      </trkpt>
      <trkpt lat="45.60496" lon="6.67413">
        <ele>1503.4000244141</ele>
        <time>2019-03-27T13:01:20.000Z</time>
      </trkpt>
      <trkpt lat="45.6048" lon="6.67397">
        <ele>1502.1999511719</ele>
        <time>2019-03-27T13:01:23.000Z</time>
      </trkpt>
      <trkpt lat="45.60467" lon="6.67388">
        <ele>1501.1999511719</ele>
        <time>2019-03-27T13:01:25.000Z</time>
      </trkpt>
      <trkpt lat="45.60461" lon="6.67384">
        <ele>1500.5999755859</ele>
        <time>2019-03-27T13:01:26.000Z</time>
      </trkpt>
      <trkpt lat="45.60446" lon="6.67374">
        <ele>1499.4000244141</ele>
        <time>2019-03-27T13:01:28.000Z</time>
      </trkpt>
      <trkpt lat="45.60431" lon="6.67364">
        <ele>1497.8000488281</ele>
        <time>2019-03-27T13:01:30.000Z</time>
      </trkpt>
      <trkpt lat="45.60424" lon="6.67359">
        <ele>1497</ele>
        <time>2019-03-27T13:01:31.000Z</time>
      </trkpt>
      <trkpt lat="45.60416" lon="6.67353">
        <ele>1496</ele>
        <time>2019-03-27T13:01:32.000Z</time>
      </trkpt>
      <trkpt lat="45.60401" lon="6.67345">
        <ele>1494.4000244141</ele>
        <time>2019-03-27T13:01:34.000Z</time>
      </trkpt>
      <trkpt lat="45.60387" lon="6.67338">
        <ele>1493</ele>
        <time>2019-03-27T13:01:36.000Z</time>
      </trkpt>
      <trkpt lat="45.60379" lon="6.67337">
        <ele>1492.4000244141</ele>
        <time>2019-03-27T13:01:37.000Z</time>
      </trkpt>
      <trkpt lat="45.60372" lon="6.67336">
        <ele>1491.8000488281</ele>
        <time>2019-03-27T13:01:38.000Z</time>
      </trkpt>
      <trkpt lat="45.60357" lon="6.67332">
        <ele>1490.1999511719</ele>
        <time>2019-03-27T13:01:40.000Z</time>
      </trkpt>
      <trkpt lat="45.6035" lon="6.67328">
        <ele>1490</ele>
        <time>2019-03-27T13:01:41.000Z</time>
      </trkpt>
      <trkpt lat="45.60343" lon="6.67324">
        <ele>1489.5999755859</ele>
        <time>2019-03-27T13:01:42.000Z</time>
      </trkpt>
      <trkpt lat="45.60336" lon="6.67321">
        <ele>1489.1999511719</ele>
        <time>2019-03-27T13:01:43.000Z</time>
      </trkpt>
      <trkpt lat="45.60321" lon="6.67313">
        <ele>1488</ele>
        <time>2019-03-27T13:01:45.000Z</time>
      </trkpt>
      <trkpt lat="45.60306" lon="6.67306">
        <ele>1486.4000244141</ele>
        <time>2019-03-27T13:01:47.000Z</time>
      </trkpt>
      <trkpt lat="45.60291" lon="6.67296">
        <ele>1485</ele>
        <time>2019-03-27T13:01:49.000Z</time>
      </trkpt>
      <trkpt lat="45.60275" lon="6.67287">
        <ele>1483.8000488281</ele>
        <time>2019-03-27T13:01:51.000Z</time>
      </trkpt>
      <trkpt lat="45.6026" lon="6.67278">
        <ele>1482.1999511719</ele>
        <time>2019-03-27T13:01:53.000Z</time>
      </trkpt>
      <trkpt lat="45.60245" lon="6.67269">
        <ele>1480.8000488281</ele>
        <time>2019-03-27T13:01:55.000Z</time>
      </trkpt>
      <trkpt lat="45.60229" lon="6.67262">
        <ele>1479.5999755859</ele>
        <time>2019-03-27T13:01:57.000Z</time>
      </trkpt>
      <trkpt lat="45.60213" lon="6.67259">
        <ele>1478.1999511719</ele>
        <time>2019-03-27T13:01:59.000Z</time>
      </trkpt>
      <trkpt lat="45.60199" lon="6.67256">
        <ele>1476.8000488281</ele>
        <time>2019-03-27T13:02:01.000Z</time>
      </trkpt>
      <trkpt lat="45.60184" lon="6.67248">
        <ele>1475.5999755859</ele>
        <time>2019-03-27T13:02:03.000Z</time>
      </trkpt>
      <trkpt lat="45.60178" lon="6.67244">
        <ele>1474.4000244141</ele>
        <time>2019-03-27T13:02:04.000Z</time>
      </trkpt>
      <trkpt lat="45.60172" lon="6.6724">
        <ele>1473.4000244141</ele>
        <time>2019-03-27T13:02:05.000Z</time>
      </trkpt>
      <trkpt lat="45.60166" lon="6.67236">
        <ele>1472.5999755859</ele>
        <time>2019-03-27T13:02:06.000Z</time>
      </trkpt>
      <trkpt lat="45.6016" lon="6.6723">
        <ele>1472</ele>
        <time>2019-03-27T13:02:07.000Z</time>
      </trkpt>
      <trkpt lat="45.60151" lon="6.67213">
        <ele>1471.1999511719</ele>
        <time>2019-03-27T13:02:09.000Z</time>
      </trkpt>
      <trkpt lat="45.60151" lon="6.67195">
        <ele>1470.1999511719</ele>
        <time>2019-03-27T13:02:11.000Z</time>
      </trkpt>
      <trkpt lat="45.60154" lon="6.67186">
        <ele>1469.5999755859</ele>
        <time>2019-03-27T13:02:12.000Z</time>
      </trkpt>
      <trkpt lat="45.60157" lon="6.67177">
        <ele>1469.1999511719</ele>
        <time>2019-03-27T13:02:13.000Z</time>
      </trkpt>
      <trkpt lat="45.60165" lon="6.67161">
        <ele>1468</ele>
        <time>2019-03-27T13:02:15.000Z</time>
      </trkpt>
      <trkpt lat="45.60169" lon="6.67152">
        <ele>1467.1999511719</ele>
        <time>2019-03-27T13:02:16.000Z</time>
      </trkpt>
      <trkpt lat="45.60172" lon="6.67143">
        <ele>1466.4000244141</ele>
        <time>2019-03-27T13:02:17.000Z</time>
      </trkpt>
      <trkpt lat="45.60173" lon="6.67127">
        <ele>1464.4000244141</ele>
        <time>2019-03-27T13:02:19.000Z</time>
      </trkpt>
      <trkpt lat="45.60172" lon="6.67119">
        <ele>1463.5999755859</ele>
        <time>2019-03-27T13:02:20.000Z</time>
      </trkpt>
      <trkpt lat="45.60172" lon="6.67112">
        <ele>1462.8000488281</ele>
        <time>2019-03-27T13:02:21.000Z</time>
      </trkpt>
      <trkpt lat="45.6017" lon="6.67106">
        <ele>1462</ele>
        <time>2019-03-27T13:02:22.000Z</time>
      </trkpt>
      <trkpt lat="45.6017" lon="6.67108">
        <ele>1461.4000244141</ele>
        <time>2019-03-27T13:02:23.000Z</time>
      </trkpt>
      <trkpt lat="45.6017" lon="6.67107">
        <ele>1460.5999755859</ele>
        <time>2019-03-27T13:02:24.000Z</time>
      </trkpt>
      <trkpt lat="45.6017" lon="6.67107">
        <ele>1460.1999511719</ele>
        <time>2019-03-27T13:02:25.000Z</time>
      </trkpt>
      <trkpt lat="45.6017" lon="6.67107">
        <ele>1459</ele>
        <time>2019-03-27T13:02:29.000Z</time>
      </trkpt>
      <trkpt lat="45.6017" lon="6.67107">
        <ele>1457.5999755859</ele>
        <time>2019-03-27T13:02:31.000Z</time>
      </trkpt>
      <trkpt lat="45.6017" lon="6.67107">
        <ele>1457</ele>
        <time>2019-03-27T13:02:33.000Z</time>
      </trkpt>
      <trkpt lat="45.6017" lon="6.67107">
        <ele>1458.5999755859</ele>
        <time>2019-03-27T13:02:37.000Z</time>
      </trkpt>
      <trkpt lat="45.6017" lon="6.67107">
        <ele>1459.8000488281</ele>
        <time>2019-03-27T13:02:48.000Z</time>
      </trkpt>
      <trkpt lat="45.6017" lon="6.67107">
        <ele>1460.1999511719</ele>
        <time>2019-03-27T13:02:50.000Z</time>
      </trkpt>
      <trkpt lat="45.6017" lon="6.67107">
        <ele>1458.8000488281</ele>
        <time>2019-03-27T13:02:57.000Z</time>
      </trkpt>
      <trkpt lat="45.6017" lon="6.67107">
        <ele>1457.8000488281</ele>
        <time>2019-03-27T13:03:01.000Z</time>
      </trkpt>
      <trkpt lat="45.6017" lon="6.67107">
        <ele>1458.8000488281</ele>
        <time>2019-03-27T13:03:03.000Z</time>
      </trkpt>
      <trkpt lat="45.6017" lon="6.67108">
        <ele>1460</ele>
        <time>2019-03-27T13:03:06.000Z</time>
      </trkpt>
      <trkpt lat="45.6017" lon="6.67108">
        <ele>1459.5999755859</ele>
        <time>2019-03-27T13:03:07.000Z</time>
      </trkpt>
      <trkpt lat="45.6017" lon="6.67108">
        <ele>1459</ele>
        <time>2019-03-27T13:03:10.000Z</time>
      </trkpt>
      <trkpt lat="45.6017" lon="6.6711">
        <ele>1458.8000488281</ele>
        <time>2019-03-27T13:03:15.000Z</time>
      </trkpt>
      <trkpt lat="45.6017" lon="6.67109">
        <ele>1458.5999755859</ele>
        <time>2019-03-27T13:03:17.000Z</time>
      </trkpt>
      <trkpt lat="45.60171" lon="6.67105">
        <ele>1458.4000244141</ele>
        <time>2019-03-27T13:03:20.000Z</time>
      </trkpt>
      <trkpt lat="45.6017" lon="6.671">
        <ele>1458.4000244141</ele>
        <time>2019-03-27T13:03:23.000Z</time>
      </trkpt>
      <trkpt lat="45.60169" lon="6.67097">
        <ele>1458.4000244141</ele>
        <time>2019-03-27T13:03:25.000Z</time>
      </trkpt>
      <trkpt lat="45.60167" lon="6.67093">
        <ele>1457.8000488281</ele>
        <time>2019-03-27T13:03:28.000Z</time>
      </trkpt>
      <trkpt lat="45.60162" lon="6.67088">
        <ele>1457.4000244141</ele>
        <time>2019-03-27T13:03:32.000Z</time>
      </trkpt>
      <trkpt lat="45.60158" lon="6.67083">
        <ele>1456.8000488281</ele>
        <time>2019-03-27T13:03:37.000Z</time>
      </trkpt>
      <trkpt lat="45.60157" lon="6.67081">
        <ele>1456.5999755859</ele>
        <time>2019-03-27T13:03:38.000Z</time>
      </trkpt>
      <trkpt lat="45.60151" lon="6.67072">
        <ele>1455.8000488281</ele>
        <time>2019-03-27T13:03:44.000Z</time>
      </trkpt>
      <trkpt lat="45.6015" lon="6.67071">
        <ele>1455.8000488281</ele>
        <time>2019-03-27T13:03:45.000Z</time>
      </trkpt>
      <trkpt lat="45.60146" lon="6.67066">
        <ele>1455</ele>
        <time>2019-03-27T13:03:50.000Z</time>
      </trkpt>
      <trkpt lat="45.60143" lon="6.67062">
        <ele>1454.5999755859</ele>
        <time>2019-03-27T13:03:53.000Z</time>
      </trkpt>
      <trkpt lat="45.60141" lon="6.67059">
        <ele>1454.1999511719</ele>
        <time>2019-03-27T13:03:56.000Z</time>
      </trkpt>
      <trkpt lat="45.6014" lon="6.67057">
        <ele>1453.8000488281</ele>
        <time>2019-03-27T13:04:01.000Z</time>
      </trkpt>
      <trkpt lat="45.6014" lon="6.67057">
        <ele>1453.5999755859</ele>
        <time>2019-03-27T13:04:02.000Z</time>
      </trkpt>
      <trkpt lat="45.6014" lon="6.67057">
        <ele>1453.1999511719</ele>
        <time>2019-03-27T13:04:14.000Z</time>
      </trkpt>
      <trkpt lat="45.6014" lon="6.67057">
        <ele>1453.4000244141</ele>
        <time>2019-03-27T13:04:24.000Z</time>
      </trkpt>
      <trkpt lat="45.60137" lon="6.67056">
        <ele>1453.5999755859</ele>
        <time>2019-03-27T13:04:34.000Z</time>
      </trkpt>
      <trkpt lat="45.60122" lon="6.67037">
        <ele>1452.5999755859</ele>
        <time>2019-03-27T13:04:40.000Z</time>
      </trkpt>
      <trkpt lat="45.60119" lon="6.67034">
        <ele>1452.4000244141</ele>
        <time>2019-03-27T13:04:41.000Z</time>
      </trkpt>
      <trkpt lat="45.60109" lon="6.67023">
        <ele>1452</ele>
        <time>2019-03-27T13:04:44.000Z</time>
      </trkpt>
      <trkpt lat="45.60103" lon="6.67016">
        <ele>1451.4000244141</ele>
        <time>2019-03-27T13:04:46.000Z</time>
      </trkpt>
      <trkpt lat="45.60095" lon="6.67005">
        <ele>1450.1999511719</ele>
        <time>2019-03-27T13:04:49.000Z</time>
      </trkpt>
      <trkpt lat="45.60093" lon="6.67005">
        <ele>1449.8000488281</ele>
        <time>2019-03-27T13:04:50.000Z</time>
      </trkpt>
      <trkpt lat="45.60092" lon="6.67006">
        <ele>1448.8000488281</ele>
        <time>2019-03-27T13:04:52.000Z</time>
      </trkpt>
      <trkpt lat="45.60092" lon="6.67006">
        <ele>1448.1999511719</ele>
        <time>2019-03-27T13:04:54.000Z</time>
      </trkpt>
      <trkpt lat="45.60092" lon="6.67006">
        <ele>1447.8000488281</ele>
        <time>2019-03-27T13:04:57.000Z</time>
      </trkpt>
      <trkpt lat="45.60092" lon="6.67006">
        <ele>1447</ele>
        <time>2019-03-27T13:05:04.000Z</time>
      </trkpt>
      <trkpt lat="45.60088" lon="6.67004">
        <ele>1447.4000244141</ele>
        <time>2019-03-27T13:05:08.000Z</time>
      </trkpt>
      <trkpt lat="45.60086" lon="6.67001">
        <ele>1448</ele>
        <time>2019-03-27T13:05:10.000Z</time>
      </trkpt>
      <trkpt lat="45.60079" lon="6.66995">
        <ele>1446.4000244141</ele>
        <time>2019-03-27T13:05:16.000Z</time>
      </trkpt>
      <trkpt lat="45.60078" lon="6.66994">
        <ele>1446.1999511719</ele>
        <time>2019-03-27T13:05:17.000Z</time>
      </trkpt>
      <trkpt lat="45.60072" lon="6.66986">
        <ele>1445.4000244141</ele>
        <time>2019-03-27T13:05:23.000Z</time>
      </trkpt>
      <trkpt lat="45.6007" lon="6.66985">
        <ele>1445.4000244141</ele>
        <time>2019-03-27T13:05:24.000Z</time>
      </trkpt>
      <trkpt lat="45.60062" lon="6.6698">
        <ele>1444.8000488281</ele>
        <time>2019-03-27T13:05:29.000Z</time>
      </trkpt>
      <trkpt lat="45.60061" lon="6.66979">
        <ele>1444.1999511719</ele>
        <time>2019-03-27T13:05:31.000Z</time>
      </trkpt>
      <trkpt lat="45.60059" lon="6.66978">
        <ele>1443.8000488281</ele>
        <time>2019-03-27T13:05:36.000Z</time>
      </trkpt>
      <trkpt lat="45.60059" lon="6.66978">
        <ele>1443.1999511719</ele>
        <time>2019-03-27T13:05:40.000Z</time>
      </trkpt>
      <trkpt lat="45.60059" lon="6.66978">
        <ele>1443.5999755859</ele>
        <time>2019-03-27T13:05:47.000Z</time>
      </trkpt>
      <trkpt lat="45.60055" lon="6.66974">
        <ele>1443.4000244141</ele>
        <time>2019-03-27T13:05:56.000Z</time>
      </trkpt>
      <trkpt lat="45.60041" lon="6.66965">
        <ele>1443</ele>
        <time>2019-03-27T13:06:02.000Z</time>
      </trkpt>
      <trkpt lat="45.60031" lon="6.6696">
        <ele>1442.1999511719</ele>
        <time>2019-03-27T13:06:06.000Z</time>
      </trkpt>
      <trkpt lat="45.60028" lon="6.66957">
        <ele>1441.8000488281</ele>
        <time>2019-03-27T13:06:07.000Z</time>
      </trkpt>
      <trkpt lat="45.60019" lon="6.66956">
        <ele>1441</ele>
        <time>2019-03-27T13:06:10.000Z</time>
      </trkpt>
      <trkpt lat="45.60017" lon="6.66961">
        <ele>1440.5999755859</ele>
        <time>2019-03-27T13:06:11.000Z</time>
      </trkpt>
      <trkpt lat="45.60019" lon="6.66975">
        <ele>1439.8000488281</ele>
        <time>2019-03-27T13:06:13.000Z</time>
      </trkpt>
      <trkpt lat="45.60027" lon="6.66986">
        <ele>1438.1999511719</ele>
        <time>2019-03-27T13:06:16.000Z</time>
      </trkpt>
      <trkpt lat="45.60029" lon="6.66989">
        <ele>1436.8000488281</ele>
        <time>2019-03-27T13:06:18.000Z</time>
      </trkpt>
      <trkpt lat="45.6003" lon="6.66991">
        <ele>1436.1999511719</ele>
        <time>2019-03-27T13:06:20.000Z</time>
      </trkpt>
      <trkpt lat="45.60029" lon="6.66993">
        <ele>1435.8000488281</ele>
        <time>2019-03-27T13:06:21.000Z</time>
      </trkpt>
      <trkpt lat="45.60028" lon="6.66994">
        <ele>1434.8000488281</ele>
        <time>2019-03-27T13:06:24.000Z</time>
      </trkpt>
      <trkpt lat="45.60028" lon="6.66996">
        <ele>1434.4000244141</ele>
        <time>2019-03-27T13:06:25.000Z</time>
      </trkpt>
      <trkpt lat="45.6003" lon="6.67001">
        <ele>1434</ele>
        <time>2019-03-27T13:06:27.000Z</time>
      </trkpt>
      <trkpt lat="45.6003" lon="6.67003">
        <ele>1433.4000244141</ele>
        <time>2019-03-27T13:06:28.000Z</time>
      </trkpt>
      <trkpt lat="45.60029" lon="6.6701">
        <ele>1433.1999511719</ele>
        <time>2019-03-27T13:06:30.000Z</time>
      </trkpt>
      <trkpt lat="45.60028" lon="6.67013">
        <ele>1432.1999511719</ele>
        <time>2019-03-27T13:06:31.000Z</time>
      </trkpt>
      <trkpt lat="45.60027" lon="6.67014">
        <ele>1431.1999511719</ele>
        <time>2019-03-27T13:06:32.000Z</time>
      </trkpt>
      <trkpt lat="45.60024" lon="6.67015">
        <ele>1429.8000488281</ele>
        <time>2019-03-27T13:06:34.000Z</time>
      </trkpt>
      <trkpt lat="45.60022" lon="6.67016">
        <ele>1429</ele>
        <time>2019-03-27T13:06:35.000Z</time>
      </trkpt>
      <trkpt lat="45.6002" lon="6.67017">
        <ele>1428.1999511719</ele>
        <time>2019-03-27T13:06:36.000Z</time>
      </trkpt>
      <trkpt lat="45.60018" lon="6.67017">
        <ele>1427.1999511719</ele>
        <time>2019-03-27T13:06:38.000Z</time>
      </trkpt>
      <trkpt lat="45.60016" lon="6.67017">
        <ele>1425.4000244141</ele>
        <time>2019-03-27T13:06:40.000Z</time>
      </trkpt>
      <trkpt lat="45.60014" lon="6.67017">
        <ele>1424.4000244141</ele>
        <time>2019-03-27T13:06:43.000Z</time>
      </trkpt>
      <trkpt lat="45.60008" lon="6.6702">
        <ele>1424</ele>
        <time>2019-03-27T13:06:45.000Z</time>
      </trkpt>
      <trkpt lat="45.60004" lon="6.67021">
        <ele>1423.5999755859</ele>
        <time>2019-03-27T13:06:46.000Z</time>
      </trkpt>
      <trkpt lat="45.59999" lon="6.67023">
        <ele>1423</ele>
        <time>2019-03-27T13:06:47.000Z</time>
      </trkpt>
      <trkpt lat="45.59994" lon="6.67024">
        <ele>1422.4000244141</ele>
        <time>2019-03-27T13:06:48.000Z</time>
      </trkpt>
      <trkpt lat="45.59989" lon="6.67025">
        <ele>1421.8000488281</ele>
        <time>2019-03-27T13:06:49.000Z</time>
      </trkpt>
      <trkpt lat="45.59978" lon="6.67028">
        <ele>1420</ele>
        <time>2019-03-27T13:06:51.000Z</time>
      </trkpt>
      <trkpt lat="45.59972" lon="6.67029">
        <ele>1418.4000244141</ele>
        <time>2019-03-27T13:06:52.000Z</time>
      </trkpt>
      <trkpt lat="45.59961" lon="6.67029">
        <ele>1417</ele>
        <time>2019-03-27T13:06:54.000Z</time>
      </trkpt>
      <trkpt lat="45.59956" lon="6.67029">
        <ele>1416.1999511719</ele>
        <time>2019-03-27T13:06:55.000Z</time>
      </trkpt>
      <trkpt lat="45.59951" lon="6.67028">
        <ele>1415.5999755859</ele>
        <time>2019-03-27T13:06:56.000Z</time>
      </trkpt>
      <trkpt lat="45.59943" lon="6.67028">
        <ele>1414.4000244141</ele>
        <time>2019-03-27T13:06:58.000Z</time>
      </trkpt>
      <trkpt lat="45.59932" lon="6.67025">
        <ele>1413</ele>
        <time>2019-03-27T13:07:01.000Z</time>
      </trkpt>
      <trkpt lat="45.59927" lon="6.67021">
        <ele>1411.8000488281</ele>
        <time>2019-03-27T13:07:03.000Z</time>
      </trkpt>
      <trkpt lat="45.59926" lon="6.6702">
        <ele>1411</ele>
        <time>2019-03-27T13:07:04.000Z</time>
      </trkpt>
      <trkpt lat="45.59925" lon="6.67019">
        <ele>1410.5999755859</ele>
        <time>2019-03-27T13:07:05.000Z</time>
      </trkpt>
      <trkpt lat="45.59925" lon="6.67019">
        <ele>1409.4000244141</ele>
        <time>2019-03-27T13:07:10.000Z</time>
      </trkpt>
      <trkpt lat="45.59925" lon="6.67019">
        <ele>1409.1999511719</ele>
        <time>2019-03-27T13:07:12.000Z</time>
      </trkpt>
      <trkpt lat="45.59925" lon="6.67019">
        <ele>1408.8000488281</ele>
        <time>2019-03-27T13:07:22.000Z</time>
      </trkpt>
      <trkpt lat="45.59925" lon="6.67019">
        <ele>1408.4000244141</ele>
        <time>2019-03-27T13:07:32.000Z</time>
      </trkpt>
      <trkpt lat="45.59925" lon="6.67019">
        <ele>1408.4000244141</ele>
        <time>2019-03-27T13:07:33.000Z</time>
      </trkpt>
      <trkpt lat="45.59917" lon="6.6701">
        <ele>1408.4000244141</ele>
        <time>2019-03-27T13:07:42.000Z</time>
      </trkpt>
      <trkpt lat="45.59906" lon="6.66987">
        <ele>1407.8000488281</ele>
        <time>2019-03-27T13:07:50.000Z</time>
      </trkpt>
      <trkpt lat="45.59904" lon="6.66983">
        <ele>1407.8000488281</ele>
        <time>2019-03-27T13:07:51.000Z</time>
      </trkpt>
      <trkpt lat="45.599" lon="6.66974">
        <ele>1407.4000244141</ele>
        <time>2019-03-27T13:07:55.000Z</time>
      </trkpt>
      <trkpt lat="45.59894" lon="6.66967">
        <ele>1406.5999755859</ele>
        <time>2019-03-27T13:08:01.000Z</time>
      </trkpt>
      <trkpt lat="45.59891" lon="6.66964">
        <ele>1406.1999511719</ele>
        <time>2019-03-27T13:08:04.000Z</time>
      </trkpt>
      <trkpt lat="45.59889" lon="6.66963">
        <ele>1406</ele>
        <time>2019-03-27T13:08:06.000Z</time>
      </trkpt>
      <trkpt lat="45.59884" lon="6.66958">
        <ele>1405.1999511719</ele>
        <time>2019-03-27T13:08:12.000Z</time>
      </trkpt>
      <trkpt lat="45.5988" lon="6.66953">
        <ele>1404.5999755859</ele>
        <time>2019-03-27T13:08:18.000Z</time>
      </trkpt>
      <trkpt lat="45.5988" lon="6.66953">
        <ele>1404.1999511719</ele>
        <time>2019-03-27T13:08:21.000Z</time>
      </trkpt>
      <trkpt lat="45.5988" lon="6.66953">
        <ele>1403.1999511719</ele>
        <time>2019-03-27T13:08:25.000Z</time>
      </trkpt>
      <trkpt lat="45.5988" lon="6.66953">
        <ele>1404</ele>
        <time>2019-03-27T13:08:36.000Z</time>
      </trkpt>
      <trkpt lat="45.5988" lon="6.66953">
        <ele>1402.8000488281</ele>
        <time>2019-03-27T13:08:48.000Z</time>
      </trkpt>
      <trkpt lat="45.5988" lon="6.66953">
        <ele>1403.5999755859</ele>
        <time>2019-03-27T13:08:53.000Z</time>
      </trkpt>
      <trkpt lat="45.5988" lon="6.66953">
        <ele>1403.8000488281</ele>
        <time>2019-03-27T13:08:54.000Z</time>
      </trkpt>
      <trkpt lat="45.59879" lon="6.66953">
        <ele>1405</ele>
        <time>2019-03-27T13:09:00.000Z</time>
      </trkpt>
      <trkpt lat="45.59879" lon="6.66953">
        <ele>1405.4000244141</ele>
        <time>2019-03-27T13:09:01.000Z</time>
      </trkpt>
      <trkpt lat="45.59877" lon="6.66951">
        <ele>1405.5999755859</ele>
        <time>2019-03-27T13:09:02.000Z</time>
      </trkpt>
      <trkpt lat="45.59864" lon="6.66946">
        <ele>1404</ele>
        <time>2019-03-27T13:09:07.000Z</time>
      </trkpt>
      <trkpt lat="45.59861" lon="6.66946">
        <ele>1403.8000488281</ele>
        <time>2019-03-27T13:09:08.000Z</time>
      </trkpt>
      <trkpt lat="45.59858" lon="6.66945">
        <ele>1403.5999755859</ele>
        <time>2019-03-27T13:09:09.000Z</time>
      </trkpt>
      <trkpt lat="45.59842" lon="6.66947">
        <ele>1402.8000488281</ele>
        <time>2019-03-27T13:09:13.000Z</time>
      </trkpt>
      <trkpt lat="45.59833" lon="6.66947">
        <ele>1402.1999511719</ele>
        <time>2019-03-27T13:09:15.000Z</time>
      </trkpt>
      <trkpt lat="45.59829" lon="6.66948">
        <ele>1401.4000244141</ele>
        <time>2019-03-27T13:09:16.000Z</time>
      </trkpt>
      <trkpt lat="45.5982" lon="6.66949">
        <ele>1400.5999755859</ele>
        <time>2019-03-27T13:09:18.000Z</time>
      </trkpt>
      <trkpt lat="45.59815" lon="6.66948">
        <ele>1400.1999511719</ele>
        <time>2019-03-27T13:09:19.000Z</time>
      </trkpt>
      <trkpt lat="45.59811" lon="6.66948">
        <ele>1400</ele>
        <time>2019-03-27T13:09:20.000Z</time>
      </trkpt>
      <trkpt lat="45.59806" lon="6.66949">
        <ele>1399.5999755859</ele>
        <time>2019-03-27T13:09:21.000Z</time>
      </trkpt>
      <trkpt lat="45.59802" lon="6.66951">
        <ele>1399.1999511719</ele>
        <time>2019-03-27T13:09:22.000Z</time>
      </trkpt>
      <trkpt lat="45.59788" lon="6.66955">
        <ele>1397.8000488281</ele>
        <time>2019-03-27T13:09:25.000Z</time>
      </trkpt>
      <trkpt lat="45.59782" lon="6.66955">
        <ele>1397.4000244141</ele>
        <time>2019-03-27T13:09:26.000Z</time>
      </trkpt>
      <trkpt lat="45.59772" lon="6.66956">
        <ele>1396.5999755859</ele>
        <time>2019-03-27T13:09:28.000Z</time>
      </trkpt>
      <trkpt lat="45.59755" lon="6.66956">
        <ele>1395.4000244141</ele>
        <time>2019-03-27T13:09:31.000Z</time>
      </trkpt>
      <trkpt lat="45.5975" lon="6.66953">
        <ele>1394.8000488281</ele>
        <time>2019-03-27T13:09:32.000Z</time>
      </trkpt>
      <trkpt lat="45.59746" lon="6.66949">
        <ele>1394.1999511719</ele>
        <time>2019-03-27T13:09:33.000Z</time>
      </trkpt>
      <trkpt lat="45.5974" lon="6.66939">
        <ele>1393.1999511719</ele>
        <time>2019-03-27T13:09:35.000Z</time>
      </trkpt>
      <trkpt lat="45.59738" lon="6.66932">
        <ele>1392.8000488281</ele>
        <time>2019-03-27T13:09:36.000Z</time>
      </trkpt>
      <trkpt lat="45.59734" lon="6.66916">
        <ele>1391.8000488281</ele>
        <time>2019-03-27T13:09:38.000Z</time>
      </trkpt>
      <trkpt lat="45.59733" lon="6.66907">
        <ele>1391.4000244141</ele>
        <time>2019-03-27T13:09:39.000Z</time>
      </trkpt>
      <trkpt lat="45.59733" lon="6.66898">
        <ele>1390.1999511719</ele>
        <time>2019-03-27T13:09:40.000Z</time>
      </trkpt>
      <trkpt lat="45.59731" lon="6.66878">
        <ele>1389.1999511719</ele>
        <time>2019-03-27T13:09:42.000Z</time>
      </trkpt>
      <trkpt lat="45.5973" lon="6.66859">
        <ele>1388.1999511719</ele>
        <time>2019-03-27T13:09:44.000Z</time>
      </trkpt>
      <trkpt lat="45.59726" lon="6.66841">
        <ele>1386.8000488281</ele>
        <time>2019-03-27T13:09:46.000Z</time>
      </trkpt>
      <trkpt lat="45.5972" lon="6.66822">
        <ele>1385.5999755859</ele>
        <time>2019-03-27T13:09:48.000Z</time>
      </trkpt>
      <trkpt lat="45.59716" lon="6.66812">
        <ele>1385.1999511719</ele>
        <time>2019-03-27T13:09:49.000Z</time>
      </trkpt>
      <trkpt lat="45.59712" lon="6.66805">
        <ele>1384.5999755859</ele>
        <time>2019-03-27T13:09:50.000Z</time>
      </trkpt>
      <trkpt lat="45.59706" lon="6.668">
        <ele>1384</ele>
        <time>2019-03-27T13:09:51.000Z</time>
      </trkpt>
      <trkpt lat="45.59701" lon="6.66795">
        <ele>1383.4000244141</ele>
        <time>2019-03-27T13:09:52.000Z</time>
      </trkpt>
      <trkpt lat="45.59696" lon="6.66791">
        <ele>1382.5999755859</ele>
        <time>2019-03-27T13:09:53.000Z</time>
      </trkpt>
      <trkpt lat="45.59685" lon="6.66781">
        <ele>1381</ele>
        <time>2019-03-27T13:09:55.000Z</time>
      </trkpt>
      <trkpt lat="45.59674" lon="6.66772">
        <ele>1379.5999755859</ele>
        <time>2019-03-27T13:09:57.000Z</time>
      </trkpt>
      <trkpt lat="45.59668" lon="6.66769">
        <ele>1379</ele>
        <time>2019-03-27T13:09:58.000Z</time>
      </trkpt>
      <trkpt lat="45.59661" lon="6.66769">
        <ele>1378.5999755859</ele>
        <time>2019-03-27T13:09:59.000Z</time>
      </trkpt>
      <trkpt lat="45.59649" lon="6.66771">
        <ele>1377.1999511719</ele>
        <time>2019-03-27T13:10:01.000Z</time>
      </trkpt>
      <trkpt lat="45.59637" lon="6.66774">
        <ele>1375.5999755859</ele>
        <time>2019-03-27T13:10:03.000Z</time>
      </trkpt>
      <trkpt lat="45.5963" lon="6.66776">
        <ele>1374.4000244141</ele>
        <time>2019-03-27T13:10:04.000Z</time>
      </trkpt>
      <trkpt lat="45.59616" lon="6.66777">
        <ele>1373.5999755859</ele>
        <time>2019-03-27T13:10:06.000Z</time>
      </trkpt>
      <trkpt lat="45.59609" lon="6.66776">
        <ele>1372.8000488281</ele>
        <time>2019-03-27T13:10:07.000Z</time>
      </trkpt>
      <trkpt lat="45.59595" lon="6.66779">
        <ele>1371</ele>
        <time>2019-03-27T13:10:09.000Z</time>
      </trkpt>
      <trkpt lat="45.59592" lon="6.66782">
        <ele>1370.1999511719</ele>
        <time>2019-03-27T13:10:10.000Z</time>
      </trkpt>
      <trkpt lat="45.59593" lon="6.66787">
        <ele>1369.4000244141</ele>
        <time>2019-03-27T13:10:11.000Z</time>
      </trkpt>
      <trkpt lat="45.59596" lon="6.66792">
        <ele>1368.8000488281</ele>
        <time>2019-03-27T13:10:12.000Z</time>
      </trkpt>
      <trkpt lat="45.59601" lon="6.66797">
        <ele>1368</ele>
        <time>2019-03-27T13:10:13.000Z</time>
      </trkpt>
      <trkpt lat="45.59606" lon="6.66802">
        <ele>1367.1999511719</ele>
        <time>2019-03-27T13:10:14.000Z</time>
      </trkpt>
      <trkpt lat="45.59611" lon="6.66807">
        <ele>1366.5999755859</ele>
        <time>2019-03-27T13:10:15.000Z</time>
      </trkpt>
      <trkpt lat="45.59617" lon="6.66813">
        <ele>1366.1999511719</ele>
        <time>2019-03-27T13:10:16.000Z</time>
      </trkpt>
      <trkpt lat="45.59623" lon="6.66821">
        <ele>1365.5999755859</ele>
        <time>2019-03-27T13:10:17.000Z</time>
      </trkpt>
      <trkpt lat="45.59632" lon="6.66848">
        <ele>1364.1999511719</ele>
        <time>2019-03-27T13:10:20.000Z</time>
      </trkpt>
      <trkpt lat="45.59634" lon="6.6688">
        <ele>1362.8000488281</ele>
        <time>2019-03-27T13:10:23.000Z</time>
      </trkpt>
      <trkpt lat="45.59633" lon="6.66891">
        <ele>1362.1999511719</ele>
        <time>2019-03-27T13:10:24.000Z</time>
      </trkpt>
      <trkpt lat="45.59632" lon="6.66902">
        <ele>1361.4000244141</ele>
        <time>2019-03-27T13:10:25.000Z</time>
      </trkpt>
      <trkpt lat="45.59631" lon="6.66925">
        <ele>1360.1999511719</ele>
        <time>2019-03-27T13:10:27.000Z</time>
      </trkpt>
      <trkpt lat="45.59631" lon="6.66937">
        <ele>1358.8000488281</ele>
        <time>2019-03-27T13:10:28.000Z</time>
      </trkpt>
      <trkpt lat="45.59632" lon="6.66948">
        <ele>1357.8000488281</ele>
        <time>2019-03-27T13:10:29.000Z</time>
      </trkpt>
      <trkpt lat="45.59633" lon="6.66959">
        <ele>1357</ele>
        <time>2019-03-27T13:10:30.000Z</time>
      </trkpt>
      <trkpt lat="45.59635" lon="6.66969">
        <ele>1356.1999511719</ele>
        <time>2019-03-27T13:10:31.000Z</time>
      </trkpt>
      <trkpt lat="45.59638" lon="6.66979">
        <ele>1355.5999755859</ele>
        <time>2019-03-27T13:10:32.000Z</time>
      </trkpt>
      <trkpt lat="45.59641" lon="6.67">
        <ele>1354.1999511719</ele>
        <time>2019-03-27T13:10:34.000Z</time>
      </trkpt>
      <trkpt lat="45.59639" lon="6.67019">
        <ele>1353</ele>
        <time>2019-03-27T13:10:36.000Z</time>
      </trkpt>
      <trkpt lat="45.59637" lon="6.67024">
        <ele>1352.5999755859</ele>
        <time>2019-03-27T13:10:37.000Z</time>
      </trkpt>
      <trkpt lat="45.59635" lon="6.67027">
        <ele>1352.1999511719</ele>
        <time>2019-03-27T13:10:38.000Z</time>
      </trkpt>
      <trkpt lat="45.59632" lon="6.67028">
        <ele>1351.8000488281</ele>
        <time>2019-03-27T13:10:39.000Z</time>
      </trkpt>
      <trkpt lat="45.59628" lon="6.67028">
        <ele>1351.4000244141</ele>
        <time>2019-03-27T13:10:40.000Z</time>
      </trkpt>
      <trkpt lat="45.59623" lon="6.67027">
        <ele>1350.8000488281</ele>
        <time>2019-03-27T13:10:41.000Z</time>
      </trkpt>
      <trkpt lat="45.59618" lon="6.67027">
        <ele>1350.1999511719</ele>
        <time>2019-03-27T13:10:42.000Z</time>
      </trkpt>
      <trkpt lat="45.59612" lon="6.67026">
        <ele>1349.5999755859</ele>
        <time>2019-03-27T13:10:43.000Z</time>
      </trkpt>
      <trkpt lat="45.59599" lon="6.67023">
        <ele>1348.1999511719</ele>
        <time>2019-03-27T13:10:45.000Z</time>
      </trkpt>
      <trkpt lat="45.59589" lon="6.67022">
        <ele>1346.8000488281</ele>
        <time>2019-03-27T13:10:47.000Z</time>
      </trkpt>
      <trkpt lat="45.59579" lon="6.67022">
        <ele>1345.8000488281</ele>
        <time>2019-03-27T13:10:49.000Z</time>
      </trkpt>
      <trkpt lat="45.59569" lon="6.6702">
        <ele>1345.1999511719</ele>
        <time>2019-03-27T13:10:51.000Z</time>
      </trkpt>
      <trkpt lat="45.59564" lon="6.67019">
        <ele>1344.5999755859</ele>
        <time>2019-03-27T13:10:52.000Z</time>
      </trkpt>
      <trkpt lat="45.59547" lon="6.6701">
        <ele>1343.5999755859</ele>
        <time>2019-03-27T13:10:56.000Z</time>
      </trkpt>
      <trkpt lat="45.59543" lon="6.67008">
        <ele>1343.1999511719</ele>
        <time>2019-03-27T13:10:57.000Z</time>
      </trkpt>
      <trkpt lat="45.59536" lon="6.67005">
        <ele>1342.4000244141</ele>
        <time>2019-03-27T13:10:59.000Z</time>
      </trkpt>
      <trkpt lat="45.59523" lon="6.67004">
        <ele>1341.4000244141</ele>
        <time>2019-03-27T13:11:03.000Z</time>
      </trkpt>
      <trkpt lat="45.59521" lon="6.67001">
        <ele>1340.1999511719</ele>
        <time>2019-03-27T13:11:08.000Z</time>
      </trkpt>
      <trkpt lat="45.59521" lon="6.67001">
        <ele>1340</ele>
        <time>2019-03-27T13:11:09.000Z</time>
      </trkpt>
      <trkpt lat="45.59521" lon="6.67001">
        <ele>1339.1999511719</ele>
        <time>2019-03-27T13:11:16.000Z</time>
      </trkpt>
      <trkpt lat="45.59521" lon="6.67001">
        <ele>1339.4000244141</ele>
        <time>2019-03-27T13:11:18.000Z</time>
      </trkpt>
      <trkpt lat="45.59517" lon="6.67002">
        <ele>1340.1999511719</ele>
        <time>2019-03-27T13:11:21.000Z</time>
      </trkpt>
      <trkpt lat="45.59515" lon="6.67003">
        <ele>1339.5999755859</ele>
        <time>2019-03-27T13:11:24.000Z</time>
      </trkpt>
      <trkpt lat="45.59514" lon="6.67002">
        <ele>1339.1999511719</ele>
        <time>2019-03-27T13:11:32.000Z</time>
      </trkpt>
      <trkpt lat="45.59514" lon="6.67002">
        <ele>1339</ele>
        <time>2019-03-27T13:11:35.000Z</time>
      </trkpt>
      <trkpt lat="45.59514" lon="6.67002">
        <ele>1339.4000244141</ele>
        <time>2019-03-27T13:11:42.000Z</time>
      </trkpt>
      <trkpt lat="45.5951" lon="6.67003">
        <ele>1339.4000244141</ele>
        <time>2019-03-27T13:11:52.000Z</time>
      </trkpt>
      <trkpt lat="45.59508" lon="6.67002">
        <ele>1339.5999755859</ele>
        <time>2019-03-27T13:11:53.000Z</time>
      </trkpt>
      <trkpt lat="45.59508" lon="6.67001">
        <ele>1339.1999511719</ele>
        <time>2019-03-27T13:11:56.000Z</time>
      </trkpt>
      <trkpt lat="45.59506" lon="6.67">
        <ele>1338.5999755859</ele>
        <time>2019-03-27T13:12:03.000Z</time>
      </trkpt>
      <trkpt lat="45.595" lon="6.67003">
        <ele>1338.4000244141</ele>
        <time>2019-03-27T13:12:08.000Z</time>
      </trkpt>
      <trkpt lat="45.59489" lon="6.67008">
        <ele>1338.1999511719</ele>
        <time>2019-03-27T13:12:15.000Z</time>
      </trkpt>
      <trkpt lat="45.59488" lon="6.67009">
        <ele>1338</ele>
        <time>2019-03-27T13:12:17.000Z</time>
      </trkpt>
      <trkpt lat="45.59486" lon="6.67012">
        <ele>1338</ele>
        <time>2019-03-27T13:12:19.000Z</time>
      </trkpt>
      <trkpt lat="45.59478" lon="6.67019">
        <ele>1338</ele>
        <time>2019-03-27T13:12:26.000Z</time>
      </trkpt>
      <trkpt lat="45.59472" lon="6.67025">
        <ele>1337.1999511719</ele>
        <time>2019-03-27T13:12:32.000Z</time>
      </trkpt>
      <trkpt lat="45.5947" lon="6.67028">
        <ele>1337</ele>
        <time>2019-03-27T13:12:34.000Z</time>
      </trkpt>
      <trkpt lat="45.59465" lon="6.67031">
        <ele>1336.8000488281</ele>
        <time>2019-03-27T13:12:38.000Z</time>
      </trkpt>
      <trkpt lat="45.59458" lon="6.67034">
        <ele>1336.4000244141</ele>
        <time>2019-03-27T13:12:44.000Z</time>
      </trkpt>
      <trkpt lat="45.59453" lon="6.67035">
        <ele>1336</ele>
        <time>2019-03-27T13:12:48.000Z</time>
      </trkpt>
      <trkpt lat="45.59451" lon="6.67035">
        <ele>1336</ele>
        <time>2019-03-27T13:12:49.000Z</time>
      </trkpt>
      <trkpt lat="45.59444" lon="6.67034">
        <ele>1335.4000244141</ele>
        <time>2019-03-27T13:12:54.000Z</time>
      </trkpt>
      <trkpt lat="45.59437" lon="6.67036">
        <ele>1335</ele>
        <time>2019-03-27T13:13:00.000Z</time>
      </trkpt>
      <trkpt lat="45.59436" lon="6.67036">
        <ele>1335</ele>
        <time>2019-03-27T13:13:01.000Z</time>
      </trkpt>
      <trkpt lat="45.59431" lon="6.6704">
        <ele>1334.8000488281</ele>
        <time>2019-03-27T13:13:06.000Z</time>
      </trkpt>
      <trkpt lat="45.59424" lon="6.67045">
        <ele>1334.4000244141</ele>
        <time>2019-03-27T13:13:12.000Z</time>
      </trkpt>
      <trkpt lat="45.59422" lon="6.67048">
        <ele>1334</ele>
        <time>2019-03-27T13:13:15.000Z</time>
      </trkpt>
      <trkpt lat="45.5942" lon="6.6705">
        <ele>1333.5999755859</ele>
        <time>2019-03-27T13:13:17.000Z</time>
      </trkpt>
      <trkpt lat="45.59418" lon="6.67052">
        <ele>1333.5999755859</ele>
        <time>2019-03-27T13:13:19.000Z</time>
      </trkpt>
      <trkpt lat="45.59415" lon="6.67054">
        <ele>1333.1999511719</ele>
        <time>2019-03-27T13:13:22.000Z</time>
      </trkpt>
      <trkpt lat="45.59411" lon="6.67058">
        <ele>1332.8000488281</ele>
        <time>2019-03-27T13:13:26.000Z</time>
      </trkpt>
      <trkpt lat="45.5941" lon="6.67059">
        <ele>1332.8000488281</ele>
        <time>2019-03-27T13:13:27.000Z</time>
      </trkpt>
      <trkpt lat="45.59406" lon="6.67065">
        <ele>1332.4000244141</ele>
        <time>2019-03-27T13:13:34.000Z</time>
      </trkpt>
      <trkpt lat="45.59401" lon="6.67071">
        <ele>1331.8000488281</ele>
        <time>2019-03-27T13:13:41.000Z</time>
      </trkpt>
      <trkpt lat="45.59399" lon="6.67072">
        <ele>1331.5999755859</ele>
        <time>2019-03-27T13:13:42.000Z</time>
      </trkpt>
      <trkpt lat="45.59394" lon="6.67075">
        <ele>1331.1999511719</ele>
        <time>2019-03-27T13:13:47.000Z</time>
      </trkpt>
      <trkpt lat="45.59388" lon="6.67077">
        <ele>1331</ele>
        <time>2019-03-27T13:13:54.000Z</time>
      </trkpt>
      <trkpt lat="45.59385" lon="6.67078">
        <ele>1330.8000488281</ele>
        <time>2019-03-27T13:14:00.000Z</time>
      </trkpt>
      <trkpt lat="45.59385" lon="6.67078">
        <ele>1330.5999755859</ele>
        <time>2019-03-27T13:14:01.000Z</time>
      </trkpt>
      <trkpt lat="45.59383" lon="6.67079">
        <ele>1330.5999755859</ele>
        <time>2019-03-27T13:14:09.000Z</time>
      </trkpt>
      <trkpt lat="45.59376" lon="6.67079">
        <ele>1330.5999755859</ele>
        <time>2019-03-27T13:14:16.000Z</time>
      </trkpt>
      <trkpt lat="45.59371" lon="6.67083">
        <ele>1330.8000488281</ele>
        <time>2019-03-27T13:14:23.000Z</time>
      </trkpt>
      <trkpt lat="45.59366" lon="6.67088">
        <ele>1330.5999755859</ele>
        <time>2019-03-27T13:14:30.000Z</time>
      </trkpt>
      <trkpt lat="45.59359" lon="6.67089">
        <ele>1330.5999755859</ele>
        <time>2019-03-27T13:14:35.000Z</time>
      </trkpt>
      <trkpt lat="45.59351" lon="6.67085">
        <ele>1330.4000244141</ele>
        <time>2019-03-27T13:14:40.000Z</time>
      </trkpt>
      <trkpt lat="45.59344" lon="6.6708">
        <ele>1330</ele>
        <time>2019-03-27T13:14:46.000Z</time>
      </trkpt>
      <trkpt lat="45.5934" lon="6.67078">
        <ele>1329.8000488281</ele>
        <time>2019-03-27T13:14:51.000Z</time>
      </trkpt>
      <trkpt lat="45.59336" lon="6.67075">
        <ele>1329.5999755859</ele>
        <time>2019-03-27T13:14:55.000Z</time>
      </trkpt>
      <trkpt lat="45.59334" lon="6.67074">
        <ele>1329.8000488281</ele>
        <time>2019-03-27T13:14:57.000Z</time>
      </trkpt>
      <trkpt lat="45.59328" lon="6.67075">
        <ele>1330</ele>
        <time>2019-03-27T13:15:03.000Z</time>
      </trkpt>
      <trkpt lat="45.59323" lon="6.67074">
        <ele>1330</ele>
        <time>2019-03-27T13:15:09.000Z</time>
      </trkpt>
      <trkpt lat="45.59317" lon="6.67076">
        <ele>1329.8000488281</ele>
        <time>2019-03-27T13:15:14.000Z</time>
      </trkpt>
      <trkpt lat="45.59312" lon="6.67076">
        <ele>1329.5999755859</ele>
        <time>2019-03-27T13:15:20.000Z</time>
      </trkpt>
      <trkpt lat="45.59305" lon="6.67077">
        <ele>1329.4000244141</ele>
        <time>2019-03-27T13:15:27.000Z</time>
      </trkpt>
      <trkpt lat="45.59295" lon="6.67076">
        <ele>1329.5999755859</ele>
        <time>2019-03-27T13:15:34.000Z</time>
      </trkpt>
      <trkpt lat="45.59287" lon="6.67075">
        <ele>1329.4000244141</ele>
        <time>2019-03-27T13:15:40.000Z</time>
      </trkpt>
      <trkpt lat="45.59281" lon="6.67078">
        <ele>1329.1999511719</ele>
        <time>2019-03-27T13:15:47.000Z</time>
      </trkpt>
      <trkpt lat="45.59274" lon="6.67075">
        <ele>1329</ele>
        <time>2019-03-27T13:15:53.000Z</time>
      </trkpt>
      <trkpt lat="45.59268" lon="6.67072">
        <ele>1329</ele>
        <time>2019-03-27T13:15:59.000Z</time>
      </trkpt>
      <trkpt lat="45.59263" lon="6.67072">
        <ele>1329</ele>
        <time>2019-03-27T13:16:05.000Z</time>
      </trkpt>
      <trkpt lat="45.59255" lon="6.67071">
        <ele>1328.8000488281</ele>
        <time>2019-03-27T13:16:11.000Z</time>
      </trkpt>
      <trkpt lat="45.5925" lon="6.67071">
        <ele>1328.8000488281</ele>
        <time>2019-03-27T13:16:16.000Z</time>
      </trkpt>
      <trkpt lat="45.59242" lon="6.67075">
        <ele>1329</ele>
        <time>2019-03-27T13:16:24.000Z</time>
      </trkpt>
      <trkpt lat="45.59236" lon="6.67078">
        <ele>1329</ele>
        <time>2019-03-27T13:16:31.000Z</time>
      </trkpt>
      <trkpt lat="45.59228" lon="6.6708">
        <ele>1329</ele>
        <time>2019-03-27T13:16:39.000Z</time>
      </trkpt>
      <trkpt lat="45.59219" lon="6.67085">
        <ele>1329</ele>
        <time>2019-03-27T13:16:47.000Z</time>
      </trkpt>
      <trkpt lat="45.59212" lon="6.67084">
        <ele>1329</ele>
        <time>2019-03-27T13:16:52.000Z</time>
      </trkpt>
      <trkpt lat="45.59211" lon="6.67084">
        <ele>1329</ele>
        <time>2019-03-27T13:16:53.000Z</time>
      </trkpt>
      <trkpt lat="45.59203" lon="6.67088">
        <ele>1328.8000488281</ele>
        <time>2019-03-27T13:16:59.000Z</time>
      </trkpt>
      <trkpt lat="45.59197" lon="6.67088">
        <ele>1328.8000488281</ele>
        <time>2019-03-27T13:17:03.000Z</time>
      </trkpt>
      <trkpt lat="45.59195" lon="6.67089">
        <ele>1328.5999755859</ele>
        <time>2019-03-27T13:17:05.000Z</time>
      </trkpt>
      <trkpt lat="45.59192" lon="6.6709">
        <ele>1328.5999755859</ele>
        <time>2019-03-27T13:17:07.000Z</time>
      </trkpt>
      <trkpt lat="45.59189" lon="6.67091">
        <ele>1328.5999755859</ele>
        <time>2019-03-27T13:17:10.000Z</time>
      </trkpt>
      <trkpt lat="45.59187" lon="6.67091">
        <ele>1328.5999755859</ele>
        <time>2019-03-27T13:17:12.000Z</time>
      </trkpt>
      <trkpt lat="45.59182" lon="6.6709">
        <ele>1328.4000244141</ele>
        <time>2019-03-27T13:17:17.000Z</time>
      </trkpt>
      <trkpt lat="45.59179" lon="6.67087">
        <ele>1328.4000244141</ele>
        <time>2019-03-27T13:17:22.000Z</time>
      </trkpt>
      <trkpt lat="45.59176" lon="6.67088">
        <ele>1328.4000244141</ele>
        <time>2019-03-27T13:17:24.000Z</time>
      </trkpt>
      <trkpt lat="45.59174" lon="6.67089">
        <ele>1328.4000244141</ele>
        <time>2019-03-27T13:17:27.000Z</time>
      </trkpt>
      <trkpt lat="45.59173" lon="6.67092">
        <ele>1327.8000488281</ele>
        <time>2019-03-27T13:17:35.000Z</time>
      </trkpt>
      <trkpt lat="45.59173" lon="6.67092">
        <ele>1328.1999511719</ele>
        <time>2019-03-27T13:17:49.000Z</time>
      </trkpt>
      <trkpt lat="45.59173" lon="6.67092">
        <ele>1328.1999511719</ele>
        <time>2019-03-27T13:18:04.000Z</time>
      </trkpt>
      <trkpt lat="45.59173" lon="6.67093">
        <ele>1328.1999511719</ele>
        <time>2019-03-27T13:18:12.000Z</time>
      </trkpt>
      <trkpt lat="45.59173" lon="6.67093">
        <ele>1328.1999511719</ele>
        <time>2019-03-27T13:18:23.000Z</time>
      </trkpt>
      <trkpt lat="45.59173" lon="6.67093">
        <ele>1328.1999511719</ele>
        <time>2019-03-27T13:18:35.000Z</time>
      </trkpt>
    </trkseg>
  </trk>
</gpx>